<?xml version="1.0" encoding="UTF-8" standalone="no" ?>
<gpx xmlns="http://www.topografix.com/GPX/1/1" xmlns:xsi="http://www.w3.org/2001/XMLSchema-instance" xsi:schemaLocation="http://www.topografix.com/GPX/1/1 http://www.topografix.com/GPX/1/1/gpx.xsd" version="1.1" creator="VisuGPX - https://www.visugpx.com">
  <metadata>
    <name>MairieMontrond-Montrond</name>
    <desc><![CDATA[Départ de la mairie de Montrond Le château - Chenecey - Bord de Loue - Cademène - Mairie]]></desc>
  </metadata>
  <trk>
    <name><![CDATA[Montrond-Montrond_2]]></name>
    <extensions>
      <line xmlns="http://www.topografix.com/GPX/gpx_style/0/2">
        <color>00FF00</color>
        <width>4</width>
      </line>
    </extensions>
    <trkseg>
      <trkpt lat="47.14281" lon="6.04514">
        <ele>463.4</ele>
        <time>2024-04-14T06:39:20Z</time>
      </trkpt>
      <trkpt lat="47.14288" lon="6.04522">
        <ele>462.8</ele>
        <time>2024-04-14T06:39:24Z</time>
      </trkpt>
      <trkpt lat="47.14294" lon="6.04528">
        <ele>462.2</ele>
        <time>2024-04-14T06:39:28Z</time>
      </trkpt>
      <trkpt lat="47.14298" lon="6.04531">
        <ele>461.8</ele>
        <time>2024-04-14T06:39:30Z</time>
      </trkpt>
      <trkpt lat="47.14299" lon="6.04533">
        <ele>461.4</ele>
        <time>2024-04-14T06:39:31Z</time>
      </trkpt>
      <trkpt lat="47.14286" lon="6.04519">
        <ele>460.4</ele>
        <time>2024-04-14T06:54:11Z</time>
      </trkpt>
      <trkpt lat="47.14286" lon="6.04502">
        <ele>461.4</ele>
        <time>2024-04-14T06:54:19Z</time>
      </trkpt>
      <trkpt lat="47.14309" lon="6.04427">
        <ele>460.8</ele>
        <time>2024-04-14T06:54:41Z</time>
      </trkpt>
      <trkpt lat="47.14316" lon="6.04397">
        <ele>460</ele>
        <time>2024-04-14T06:54:48Z</time>
      </trkpt>
      <trkpt lat="47.14324" lon="6.04369">
        <ele>459.6</ele>
        <time>2024-04-14T06:54:54Z</time>
      </trkpt>
      <trkpt lat="47.14328" lon="6.0435">
        <ele>459.4</ele>
        <time>2024-04-14T06:54:58Z</time>
      </trkpt>
      <trkpt lat="47.1434" lon="6.04308">
        <ele>460</ele>
        <time>2024-04-14T06:55:07Z</time>
      </trkpt>
      <trkpt lat="47.14348" lon="6.04282">
        <ele>460.6</ele>
        <time>2024-04-14T06:55:13Z</time>
      </trkpt>
      <trkpt lat="47.14351" lon="6.04271">
        <ele>460.6</ele>
        <time>2024-04-14T06:55:16Z</time>
      </trkpt>
      <trkpt lat="47.14355" lon="6.04254">
        <ele>460.2</ele>
        <time>2024-04-14T06:55:22Z</time>
      </trkpt>
      <trkpt lat="47.14352" lon="6.04242">
        <ele>460.8</ele>
        <time>2024-04-14T06:55:26Z</time>
      </trkpt>
      <trkpt lat="47.1435" lon="6.0424">
        <ele>460.8</ele>
        <time>2024-04-14T06:55:27Z</time>
      </trkpt>
      <trkpt lat="47.14341" lon="6.04233">
        <ele>460.6</ele>
        <time>2024-04-14T06:55:30Z</time>
      </trkpt>
      <trkpt lat="47.14333" lon="6.04227">
        <ele>460.6</ele>
        <time>2024-04-14T06:55:33Z</time>
      </trkpt>
      <trkpt lat="47.1431" lon="6.0421">
        <ele>460</ele>
        <time>2024-04-14T06:55:40Z</time>
      </trkpt>
      <trkpt lat="47.14305" lon="6.04204">
        <ele>459.6</ele>
        <time>2024-04-14T06:55:42Z</time>
      </trkpt>
      <trkpt lat="47.14289" lon="6.04185">
        <ele>460.4</ele>
        <time>2024-04-14T06:55:48Z</time>
      </trkpt>
      <trkpt lat="47.14266" lon="6.04162">
        <ele>459.6</ele>
        <time>2024-04-14T06:55:55Z</time>
      </trkpt>
      <trkpt lat="47.14233" lon="6.04134">
        <ele>459.4</ele>
        <time>2024-04-14T06:56:04Z</time>
      </trkpt>
      <trkpt lat="47.14199" lon="6.04104">
        <ele>458.4</ele>
        <time>2024-04-14T06:56:13Z</time>
      </trkpt>
      <trkpt lat="47.14167" lon="6.04074">
        <ele>457.4</ele>
        <time>2024-04-14T06:56:21Z</time>
      </trkpt>
      <trkpt lat="47.14163" lon="6.0407">
        <ele>457.4</ele>
        <time>2024-04-14T06:56:22Z</time>
      </trkpt>
      <trkpt lat="47.14121" lon="6.0403">
        <ele>457.4</ele>
        <time>2024-04-14T06:56:33Z</time>
      </trkpt>
      <trkpt lat="47.14117" lon="6.04012">
        <ele>457.2</ele>
        <time>2024-04-14T06:56:36Z</time>
      </trkpt>
      <trkpt lat="47.14118" lon="6.03999">
        <ele>457</ele>
        <time>2024-04-14T06:56:38Z</time>
      </trkpt>
      <trkpt lat="47.14117" lon="6.03973">
        <ele>457.6</ele>
        <time>2024-04-14T06:56:42Z</time>
      </trkpt>
      <trkpt lat="47.14116" lon="6.03967">
        <ele>457.8</ele>
        <time>2024-04-14T06:56:43Z</time>
      </trkpt>
      <trkpt lat="47.14104" lon="6.03943">
        <ele>457.8</ele>
        <time>2024-04-14T06:56:47Z</time>
      </trkpt>
      <trkpt lat="47.14095" lon="6.03932">
        <ele>457.8</ele>
        <time>2024-04-14T06:56:49Z</time>
      </trkpt>
      <trkpt lat="47.14079" lon="6.03912">
        <ele>458</ele>
        <time>2024-04-14T06:56:53Z</time>
      </trkpt>
      <trkpt lat="47.14062" lon="6.03894">
        <ele>457.8</ele>
        <time>2024-04-14T06:56:57Z</time>
      </trkpt>
      <trkpt lat="47.14056" lon="6.0389">
        <ele>457.6</ele>
        <time>2024-04-14T06:56:58Z</time>
      </trkpt>
      <trkpt lat="47.14026" lon="6.03869">
        <ele>456.6</ele>
        <time>2024-04-14T06:57:04Z</time>
      </trkpt>
      <trkpt lat="47.14021" lon="6.03864">
        <ele>456.4</ele>
        <time>2024-04-14T06:57:05Z</time>
      </trkpt>
      <trkpt lat="47.14003" lon="6.03846">
        <ele>455.4</ele>
        <time>2024-04-14T06:57:09Z</time>
      </trkpt>
      <trkpt lat="47.13995" lon="6.03837">
        <ele>455</ele>
        <time>2024-04-14T06:57:11Z</time>
      </trkpt>
      <trkpt lat="47.13977" lon="6.03802">
        <ele>454.4</ele>
        <time>2024-04-14T06:57:17Z</time>
      </trkpt>
      <trkpt lat="47.13975" lon="6.03796">
        <ele>454</ele>
        <time>2024-04-14T06:57:18Z</time>
      </trkpt>
      <trkpt lat="47.13961" lon="6.03748">
        <ele>453</ele>
        <time>2024-04-14T06:57:25Z</time>
      </trkpt>
      <trkpt lat="47.13951" lon="6.0371">
        <ele>453.2</ele>
        <time>2024-04-14T06:57:31Z</time>
      </trkpt>
      <trkpt lat="47.13946" lon="6.03687">
        <ele>454.2</ele>
        <time>2024-04-14T06:57:36Z</time>
      </trkpt>
      <trkpt lat="47.13949" lon="6.03674">
        <ele>454.8</ele>
        <time>2024-04-14T06:57:40Z</time>
      </trkpt>
      <trkpt lat="47.13955" lon="6.03653">
        <ele>454.4</ele>
        <time>2024-04-14T06:57:45Z</time>
      </trkpt>
      <trkpt lat="47.13962" lon="6.03628">
        <ele>453.2</ele>
        <time>2024-04-14T06:57:50Z</time>
      </trkpt>
      <trkpt lat="47.13964" lon="6.03623">
        <ele>453</ele>
        <time>2024-04-14T06:57:51Z</time>
      </trkpt>
      <trkpt lat="47.13968" lon="6.03599">
        <ele>452.2</ele>
        <time>2024-04-14T06:57:56Z</time>
      </trkpt>
      <trkpt lat="47.13969" lon="6.03594">
        <ele>452</ele>
        <time>2024-04-14T06:57:57Z</time>
      </trkpt>
      <trkpt lat="47.13974" lon="6.03574">
        <ele>451.2</ele>
        <time>2024-04-14T06:58:01Z</time>
      </trkpt>
      <trkpt lat="47.13976" lon="6.03569">
        <ele>450.6</ele>
        <time>2024-04-14T06:58:02Z</time>
      </trkpt>
      <trkpt lat="47.13989" lon="6.0355">
        <ele>449.6</ele>
        <time>2024-04-14T06:58:07Z</time>
      </trkpt>
      <trkpt lat="47.13996" lon="6.03541">
        <ele>448.4</ele>
        <time>2024-04-14T06:58:10Z</time>
      </trkpt>
      <trkpt lat="47.14" lon="6.03534">
        <ele>447.6</ele>
        <time>2024-04-14T06:58:12Z</time>
      </trkpt>
      <trkpt lat="47.14002" lon="6.0353">
        <ele>447.2</ele>
        <time>2024-04-14T06:58:13Z</time>
      </trkpt>
      <trkpt lat="47.14008" lon="6.03519">
        <ele>446</ele>
        <time>2024-04-14T06:58:16Z</time>
      </trkpt>
      <trkpt lat="47.14013" lon="6.03512">
        <ele>445</ele>
        <time>2024-04-14T06:58:18Z</time>
      </trkpt>
      <trkpt lat="47.14027" lon="6.03504">
        <ele>444.2</ele>
        <time>2024-04-14T06:58:23Z</time>
      </trkpt>
      <trkpt lat="47.14048" lon="6.03508">
        <ele>447</ele>
        <time>2024-04-14T06:58:28Z</time>
      </trkpt>
      <trkpt lat="47.14055" lon="6.03507">
        <ele>448.4</ele>
        <time>2024-04-14T06:58:29Z</time>
      </trkpt>
      <trkpt lat="47.14065" lon="6.03508">
        <ele>449.8</ele>
        <time>2024-04-14T06:58:31Z</time>
      </trkpt>
      <trkpt lat="47.14083" lon="6.03507">
        <ele>450.4</ele>
        <time>2024-04-14T06:58:34Z</time>
      </trkpt>
      <trkpt lat="47.14096" lon="6.03503">
        <ele>450.2</ele>
        <time>2024-04-14T06:58:38Z</time>
      </trkpt>
      <trkpt lat="47.14105" lon="6.03503">
        <ele>450.8</ele>
        <time>2024-04-14T06:58:40Z</time>
      </trkpt>
      <trkpt lat="47.14115" lon="6.03502">
        <ele>451.8</ele>
        <time>2024-04-14T06:58:43Z</time>
      </trkpt>
      <trkpt lat="47.14121" lon="6.03502">
        <ele>453.2</ele>
        <time>2024-04-14T06:58:45Z</time>
      </trkpt>
      <trkpt lat="47.14127" lon="6.03502">
        <ele>454.8</ele>
        <time>2024-04-14T06:58:47Z</time>
      </trkpt>
      <trkpt lat="47.14136" lon="6.03488">
        <ele>456.8</ele>
        <time>2024-04-14T06:59:00Z</time>
      </trkpt>
      <trkpt lat="47.14135" lon="6.03485">
        <ele>456.6</ele>
        <time>2024-04-14T06:59:01Z</time>
      </trkpt>
      <trkpt lat="47.14133" lon="6.03471">
        <ele>456.8</ele>
        <time>2024-04-14T06:59:06Z</time>
      </trkpt>
      <trkpt lat="47.14132" lon="6.03467">
        <ele>456.8</ele>
        <time>2024-04-14T06:59:07Z</time>
      </trkpt>
      <trkpt lat="47.14131" lon="6.03459">
        <ele>456.4</ele>
        <time>2024-04-14T06:59:10Z</time>
      </trkpt>
      <trkpt lat="47.14132" lon="6.03456">
        <ele>456.4</ele>
        <time>2024-04-14T06:59:11Z</time>
      </trkpt>
      <trkpt lat="47.14133" lon="6.03452">
        <ele>456.4</ele>
        <time>2024-04-14T06:59:12Z</time>
      </trkpt>
      <trkpt lat="47.14134" lon="6.0344">
        <ele>455.8</ele>
        <time>2024-04-14T06:59:15Z</time>
      </trkpt>
      <trkpt lat="47.14136" lon="6.0343">
        <ele>455.2</ele>
        <time>2024-04-14T06:59:17Z</time>
      </trkpt>
      <trkpt lat="47.14137" lon="6.03421">
        <ele>454.6</ele>
        <time>2024-04-14T06:59:19Z</time>
      </trkpt>
      <trkpt lat="47.14139" lon="6.03399">
        <ele>454</ele>
        <time>2024-04-14T06:59:23Z</time>
      </trkpt>
      <trkpt lat="47.14139" lon="6.03363">
        <ele>454.4</ele>
        <time>2024-04-14T06:59:29Z</time>
      </trkpt>
      <trkpt lat="47.14139" lon="6.03337">
        <ele>453.4</ele>
        <time>2024-04-14T06:59:34Z</time>
      </trkpt>
      <trkpt lat="47.1414" lon="6.03333">
        <ele>453.2</ele>
        <time>2024-04-14T06:59:35Z</time>
      </trkpt>
      <trkpt lat="47.14139" lon="6.03329">
        <ele>453</ele>
        <time>2024-04-14T06:59:36Z</time>
      </trkpt>
      <trkpt lat="47.14138" lon="6.03315">
        <ele>454</ele>
        <time>2024-04-14T06:59:39Z</time>
      </trkpt>
      <trkpt lat="47.14137" lon="6.0331">
        <ele>454.4</ele>
        <time>2024-04-14T06:59:40Z</time>
      </trkpt>
      <trkpt lat="47.14135" lon="6.03293">
        <ele>455.6</ele>
        <time>2024-04-14T06:59:44Z</time>
      </trkpt>
      <trkpt lat="47.14134" lon="6.03289">
        <ele>456.2</ele>
        <time>2024-04-14T06:59:45Z</time>
      </trkpt>
      <trkpt lat="47.14129" lon="6.03269">
        <ele>460.2</ele>
        <time>2024-04-14T06:59:53Z</time>
      </trkpt>
      <trkpt lat="47.14129" lon="6.03267">
        <ele>460.6</ele>
        <time>2024-04-14T06:59:54Z</time>
      </trkpt>
      <trkpt lat="47.14129" lon="6.03262">
        <ele>461.2</ele>
        <time>2024-04-14T06:59:56Z</time>
      </trkpt>
      <trkpt lat="47.14133" lon="6.03255">
        <ele>461.8</ele>
        <time>2024-04-14T06:59:59Z</time>
      </trkpt>
      <trkpt lat="47.14144" lon="6.03241">
        <ele>461.2</ele>
        <time>2024-04-14T07:00:05Z</time>
      </trkpt>
      <trkpt lat="47.14151" lon="6.03235">
        <ele>461</ele>
        <time>2024-04-14T07:00:08Z</time>
      </trkpt>
      <trkpt lat="47.14155" lon="6.03229">
        <ele>460.6</ele>
        <time>2024-04-14T07:00:10Z</time>
      </trkpt>
      <trkpt lat="47.14157" lon="6.03228">
        <ele>460.2</ele>
        <time>2024-04-14T07:00:11Z</time>
      </trkpt>
      <trkpt lat="47.14162" lon="6.03223">
        <ele>459.4</ele>
        <time>2024-04-14T07:00:14Z</time>
      </trkpt>
      <trkpt lat="47.14164" lon="6.0322">
        <ele>459.2</ele>
        <time>2024-04-14T07:00:15Z</time>
      </trkpt>
      <trkpt lat="47.14174" lon="6.03209">
        <ele>458.2</ele>
        <time>2024-04-14T07:00:20Z</time>
      </trkpt>
      <trkpt lat="47.14178" lon="6.03203">
        <ele>458</ele>
        <time>2024-04-14T07:00:22Z</time>
      </trkpt>
      <trkpt lat="47.14184" lon="6.03197">
        <ele>457.6</ele>
        <time>2024-04-14T07:00:25Z</time>
      </trkpt>
      <trkpt lat="47.14185" lon="6.03195">
        <ele>457.2</ele>
        <time>2024-04-14T07:00:26Z</time>
      </trkpt>
      <trkpt lat="47.14187" lon="6.03193">
        <ele>457</ele>
        <time>2024-04-14T07:00:27Z</time>
      </trkpt>
      <trkpt lat="47.14198" lon="6.03185">
        <ele>456.6</ele>
        <time>2024-04-14T07:00:32Z</time>
      </trkpt>
      <trkpt lat="47.14204" lon="6.03179">
        <ele>456.2</ele>
        <time>2024-04-14T07:00:35Z</time>
      </trkpt>
      <trkpt lat="47.14206" lon="6.03176">
        <ele>456</ele>
        <time>2024-04-14T07:00:36Z</time>
      </trkpt>
      <trkpt lat="47.14212" lon="6.03169">
        <ele>455.6</ele>
        <time>2024-04-14T07:00:39Z</time>
      </trkpt>
      <trkpt lat="47.14224" lon="6.03157">
        <ele>454.8</ele>
        <time>2024-04-14T07:00:45Z</time>
      </trkpt>
      <trkpt lat="47.14228" lon="6.03152">
        <ele>454.2</ele>
        <time>2024-04-14T07:00:47Z</time>
      </trkpt>
      <trkpt lat="47.14232" lon="6.03149">
        <ele>453.8</ele>
        <time>2024-04-14T07:00:49Z</time>
      </trkpt>
      <trkpt lat="47.14233" lon="6.03147">
        <ele>453.6</ele>
        <time>2024-04-14T07:00:50Z</time>
      </trkpt>
      <trkpt lat="47.14242" lon="6.03134">
        <ele>452.4</ele>
        <time>2024-04-14T07:00:55Z</time>
      </trkpt>
      <trkpt lat="47.14245" lon="6.0313">
        <ele>451.8</ele>
        <time>2024-04-14T07:00:56Z</time>
      </trkpt>
      <trkpt lat="47.14251" lon="6.03124">
        <ele>451.2</ele>
        <time>2024-04-14T07:00:58Z</time>
      </trkpt>
      <trkpt lat="47.14257" lon="6.03118">
        <ele>450.8</ele>
        <time>2024-04-14T07:01:00Z</time>
      </trkpt>
      <trkpt lat="47.14267" lon="6.03111">
        <ele>450.2</ele>
        <time>2024-04-14T07:01:03Z</time>
      </trkpt>
      <trkpt lat="47.14276" lon="6.03104">
        <ele>449.6</ele>
        <time>2024-04-14T07:01:06Z</time>
      </trkpt>
      <trkpt lat="47.14282" lon="6.031">
        <ele>448.8</ele>
        <time>2024-04-14T07:01:08Z</time>
      </trkpt>
      <trkpt lat="47.14288" lon="6.03091">
        <ele>448</ele>
        <time>2024-04-14T07:01:11Z</time>
      </trkpt>
      <trkpt lat="47.1429" lon="6.03088">
        <ele>447.6</ele>
        <time>2024-04-14T07:01:12Z</time>
      </trkpt>
      <trkpt lat="47.14306" lon="6.03071">
        <ele>446.6</ele>
        <time>2024-04-14T07:01:17Z</time>
      </trkpt>
      <trkpt lat="47.14309" lon="6.03068">
        <ele>446.4</ele>
        <time>2024-04-14T07:01:18Z</time>
      </trkpt>
      <trkpt lat="47.14316" lon="6.03063">
        <ele>445.2</ele>
        <time>2024-04-14T07:01:20Z</time>
      </trkpt>
      <trkpt lat="47.14322" lon="6.03058">
        <ele>444</ele>
        <time>2024-04-14T07:01:22Z</time>
      </trkpt>
      <trkpt lat="47.14325" lon="6.03055">
        <ele>443.4</ele>
        <time>2024-04-14T07:01:23Z</time>
      </trkpt>
      <trkpt lat="47.14329" lon="6.03051">
        <ele>443</ele>
        <time>2024-04-14T07:01:24Z</time>
      </trkpt>
      <trkpt lat="47.14337" lon="6.03046">
        <ele>442</ele>
        <time>2024-04-14T07:01:27Z</time>
      </trkpt>
      <trkpt lat="47.14339" lon="6.03044">
        <ele>441.8</ele>
        <time>2024-04-14T07:01:28Z</time>
      </trkpt>
      <trkpt lat="47.14341" lon="6.03042">
        <ele>442</ele>
        <time>2024-04-14T07:01:29Z</time>
      </trkpt>
      <trkpt lat="47.14346" lon="6.0303">
        <ele>442.2</ele>
        <time>2024-04-14T07:01:32Z</time>
      </trkpt>
      <trkpt lat="47.14342" lon="6.03021">
        <ele>441.2</ele>
        <time>2024-04-14T07:01:35Z</time>
      </trkpt>
      <trkpt lat="47.1434" lon="6.03016">
        <ele>441</ele>
        <time>2024-04-14T07:01:36Z</time>
      </trkpt>
      <trkpt lat="47.14328" lon="6.02981">
        <ele>442</ele>
        <time>2024-04-14T07:01:43Z</time>
      </trkpt>
      <trkpt lat="47.14322" lon="6.02965">
        <ele>443</ele>
        <time>2024-04-14T07:01:46Z</time>
      </trkpt>
      <trkpt lat="47.14316" lon="6.02945">
        <ele>443.6</ele>
        <time>2024-04-14T07:01:50Z</time>
      </trkpt>
      <trkpt lat="47.14314" lon="6.0294">
        <ele>444</ele>
        <time>2024-04-14T07:01:51Z</time>
      </trkpt>
      <trkpt lat="47.14312" lon="6.02925">
        <ele>444.4</ele>
        <time>2024-04-14T07:01:55Z</time>
      </trkpt>
      <trkpt lat="47.14308" lon="6.02908">
        <ele>444.6</ele>
        <time>2024-04-14T07:02:00Z</time>
      </trkpt>
      <trkpt lat="47.14297" lon="6.02887">
        <ele>444.2</ele>
        <time>2024-04-14T07:02:06Z</time>
      </trkpt>
      <trkpt lat="47.14283" lon="6.0287">
        <ele>444.2</ele>
        <time>2024-04-14T07:02:11Z</time>
      </trkpt>
      <trkpt lat="47.1427" lon="6.02855">
        <ele>445.2</ele>
        <time>2024-04-14T07:02:15Z</time>
      </trkpt>
      <trkpt lat="47.14267" lon="6.02851">
        <ele>445.4</ele>
        <time>2024-04-14T07:02:16Z</time>
      </trkpt>
      <trkpt lat="47.1426" lon="6.02844">
        <ele>446.6</ele>
        <time>2024-04-14T07:02:18Z</time>
      </trkpt>
      <trkpt lat="47.14258" lon="6.0284">
        <ele>447.6</ele>
        <time>2024-04-14T07:02:19Z</time>
      </trkpt>
      <trkpt lat="47.14253" lon="6.02833">
        <ele>448.8</ele>
        <time>2024-04-14T07:02:21Z</time>
      </trkpt>
      <trkpt lat="47.14241" lon="6.02813">
        <ele>447.4</ele>
        <time>2024-04-14T07:02:26Z</time>
      </trkpt>
      <trkpt lat="47.1423" lon="6.0279">
        <ele>448.4</ele>
        <time>2024-04-14T07:02:31Z</time>
      </trkpt>
      <trkpt lat="47.14228" lon="6.02785">
        <ele>448.6</ele>
        <time>2024-04-14T07:02:32Z</time>
      </trkpt>
      <trkpt lat="47.1422" lon="6.02761">
        <ele>449.6</ele>
        <time>2024-04-14T07:02:36Z</time>
      </trkpt>
      <trkpt lat="47.14217" lon="6.02755">
        <ele>450</ele>
        <time>2024-04-14T07:02:37Z</time>
      </trkpt>
      <trkpt lat="47.14211" lon="6.02739">
        <ele>451</ele>
        <time>2024-04-14T07:02:40Z</time>
      </trkpt>
      <trkpt lat="47.14208" lon="6.0273">
        <ele>451.8</ele>
        <time>2024-04-14T07:02:42Z</time>
      </trkpt>
      <trkpt lat="47.14205" lon="6.02725">
        <ele>452.4</ele>
        <time>2024-04-14T07:02:43Z</time>
      </trkpt>
      <trkpt lat="47.14201" lon="6.02714">
        <ele>451</ele>
        <time>2024-04-14T07:02:45Z</time>
      </trkpt>
      <trkpt lat="47.14195" lon="6.02701">
        <ele>450</ele>
        <time>2024-04-14T07:02:47Z</time>
      </trkpt>
      <trkpt lat="47.14192" lon="6.02695">
        <ele>449.4</ele>
        <time>2024-04-14T07:02:48Z</time>
      </trkpt>
      <trkpt lat="47.14185" lon="6.02676">
        <ele>450.8</ele>
        <time>2024-04-14T07:02:51Z</time>
      </trkpt>
      <trkpt lat="47.14182" lon="6.02664">
        <ele>450.8</ele>
        <time>2024-04-14T07:02:53Z</time>
      </trkpt>
      <trkpt lat="47.14178" lon="6.02645">
        <ele>452</ele>
        <time>2024-04-14T07:02:56Z</time>
      </trkpt>
      <trkpt lat="47.14173" lon="6.02618">
        <ele>452.2</ele>
        <time>2024-04-14T07:03:00Z</time>
      </trkpt>
      <trkpt lat="47.14165" lon="6.02594">
        <ele>452.2</ele>
        <time>2024-04-14T07:03:04Z</time>
      </trkpt>
      <trkpt lat="47.14163" lon="6.02556">
        <ele>451</ele>
        <time>2024-04-14T07:03:10Z</time>
      </trkpt>
      <trkpt lat="47.14171" lon="6.02533">
        <ele>452.6</ele>
        <time>2024-04-14T07:03:17Z</time>
      </trkpt>
      <trkpt lat="47.14179" lon="6.02517">
        <ele>450.6</ele>
        <time>2024-04-14T07:03:21Z</time>
      </trkpt>
      <trkpt lat="47.14182" lon="6.02511">
        <ele>450</ele>
        <time>2024-04-14T07:03:22Z</time>
      </trkpt>
      <trkpt lat="47.14184" lon="6.02505">
        <ele>449.2</ele>
        <time>2024-04-14T07:03:23Z</time>
      </trkpt>
      <trkpt lat="47.14187" lon="6.02491">
        <ele>448</ele>
        <time>2024-04-14T07:03:25Z</time>
      </trkpt>
      <trkpt lat="47.14188" lon="6.02485">
        <ele>447.8</ele>
        <time>2024-04-14T07:03:26Z</time>
      </trkpt>
      <trkpt lat="47.14189" lon="6.02473">
        <ele>447</ele>
        <time>2024-04-14T07:03:28Z</time>
      </trkpt>
      <trkpt lat="47.14192" lon="6.0246">
        <ele>446.2</ele>
        <time>2024-04-14T07:03:31Z</time>
      </trkpt>
      <trkpt lat="47.14193" lon="6.02456">
        <ele>446</ele>
        <time>2024-04-14T07:03:32Z</time>
      </trkpt>
      <trkpt lat="47.14198" lon="6.02438">
        <ele>444.6</ele>
        <time>2024-04-14T07:03:36Z</time>
      </trkpt>
      <trkpt lat="47.14199" lon="6.02435">
        <ele>444</ele>
        <time>2024-04-14T07:03:37Z</time>
      </trkpt>
      <trkpt lat="47.14201" lon="6.02424">
        <ele>443.6</ele>
        <time>2024-04-14T07:03:39Z</time>
      </trkpt>
      <trkpt lat="47.14203" lon="6.02413">
        <ele>443</ele>
        <time>2024-04-14T07:03:42Z</time>
      </trkpt>
      <trkpt lat="47.1421" lon="6.02382">
        <ele>444.2</ele>
        <time>2024-04-14T07:03:49Z</time>
      </trkpt>
      <trkpt lat="47.14214" lon="6.02359">
        <ele>444.2</ele>
        <time>2024-04-14T07:03:54Z</time>
      </trkpt>
      <trkpt lat="47.14213" lon="6.02332">
        <ele>442.8</ele>
        <time>2024-04-14T07:03:59Z</time>
      </trkpt>
      <trkpt lat="47.14216" lon="6.02309">
        <ele>442.4</ele>
        <time>2024-04-14T07:04:04Z</time>
      </trkpt>
      <trkpt lat="47.14225" lon="6.02277">
        <ele>441.8</ele>
        <time>2024-04-14T07:04:09Z</time>
      </trkpt>
      <trkpt lat="47.14226" lon="6.02266">
        <ele>441.4</ele>
        <time>2024-04-14T07:04:11Z</time>
      </trkpt>
      <trkpt lat="47.14229" lon="6.02245">
        <ele>440.4</ele>
        <time>2024-04-14T07:04:14Z</time>
      </trkpt>
      <trkpt lat="47.14232" lon="6.02238">
        <ele>439.8</ele>
        <time>2024-04-14T07:04:15Z</time>
      </trkpt>
      <trkpt lat="47.14236" lon="6.02223">
        <ele>438.4</ele>
        <time>2024-04-14T07:04:17Z</time>
      </trkpt>
      <trkpt lat="47.1424" lon="6.0221">
        <ele>437</ele>
        <time>2024-04-14T07:04:19Z</time>
      </trkpt>
      <trkpt lat="47.14242" lon="6.02199">
        <ele>435.4</ele>
        <time>2024-04-14T07:04:21Z</time>
      </trkpt>
      <trkpt lat="47.14244" lon="6.02187">
        <ele>434</ele>
        <time>2024-04-14T07:04:23Z</time>
      </trkpt>
      <trkpt lat="47.14247" lon="6.02178">
        <ele>432.4</ele>
        <time>2024-04-14T07:04:25Z</time>
      </trkpt>
      <trkpt lat="47.14248" lon="6.02169">
        <ele>430.8</ele>
        <time>2024-04-14T07:04:27Z</time>
      </trkpt>
      <trkpt lat="47.14248" lon="6.02166">
        <ele>430</ele>
        <time>2024-04-14T07:04:28Z</time>
      </trkpt>
      <trkpt lat="47.14248" lon="6.02163">
        <ele>429.4</ele>
        <time>2024-04-14T07:04:29Z</time>
      </trkpt>
      <trkpt lat="47.14248" lon="6.02158">
        <ele>428.2</ele>
        <time>2024-04-14T07:04:31Z</time>
      </trkpt>
      <trkpt lat="47.14246" lon="6.02156">
        <ele>427.6</ele>
        <time>2024-04-14T07:04:32Z</time>
      </trkpt>
      <trkpt lat="47.14246" lon="6.02153">
        <ele>427.2</ele>
        <time>2024-04-14T07:04:33Z</time>
      </trkpt>
      <trkpt lat="47.14245" lon="6.02149">
        <ele>426.8</ele>
        <time>2024-04-14T07:04:34Z</time>
      </trkpt>
      <trkpt lat="47.14243" lon="6.02142">
        <ele>425.6</ele>
        <time>2024-04-14T07:04:36Z</time>
      </trkpt>
      <trkpt lat="47.1424" lon="6.02135">
        <ele>424.4</ele>
        <time>2024-04-14T07:04:38Z</time>
      </trkpt>
      <trkpt lat="47.14239" lon="6.02132">
        <ele>424</ele>
        <time>2024-04-14T07:04:39Z</time>
      </trkpt>
      <trkpt lat="47.14239" lon="6.02124">
        <ele>423</ele>
        <time>2024-04-14T07:04:41Z</time>
      </trkpt>
      <trkpt lat="47.1424" lon="6.02118">
        <ele>422.4</ele>
        <time>2024-04-14T07:04:43Z</time>
      </trkpt>
      <trkpt lat="47.14242" lon="6.0211">
        <ele>421.8</ele>
        <time>2024-04-14T07:04:45Z</time>
      </trkpt>
      <trkpt lat="47.14242" lon="6.02096">
        <ele>420.8</ele>
        <time>2024-04-14T07:04:47Z</time>
      </trkpt>
      <trkpt lat="47.14241" lon="6.02088">
        <ele>420.4</ele>
        <time>2024-04-14T07:04:48Z</time>
      </trkpt>
      <trkpt lat="47.14239" lon="6.02069">
        <ele>419.8</ele>
        <time>2024-04-14T07:04:51Z</time>
      </trkpt>
      <trkpt lat="47.14235" lon="6.02053">
        <ele>419.2</ele>
        <time>2024-04-14T07:04:54Z</time>
      </trkpt>
      <trkpt lat="47.14225" lon="6.02031">
        <ele>418.2</ele>
        <time>2024-04-14T07:04:58Z</time>
      </trkpt>
      <trkpt lat="47.1422" lon="6.02018">
        <ele>417.4</ele>
        <time>2024-04-14T07:05:00Z</time>
      </trkpt>
      <trkpt lat="47.14219" lon="6.02001">
        <ele>417</ele>
        <time>2024-04-14T07:05:02Z</time>
      </trkpt>
      <trkpt lat="47.14219" lon="6.01994">
        <ele>416.6</ele>
        <time>2024-04-14T07:05:03Z</time>
      </trkpt>
      <trkpt lat="47.1422" lon="6.01987">
        <ele>416</ele>
        <time>2024-04-14T07:05:04Z</time>
      </trkpt>
      <trkpt lat="47.14221" lon="6.0198">
        <ele>415.4</ele>
        <time>2024-04-14T07:05:05Z</time>
      </trkpt>
      <trkpt lat="47.14221" lon="6.01974">
        <ele>415</ele>
        <time>2024-04-14T07:05:06Z</time>
      </trkpt>
      <trkpt lat="47.1422" lon="6.01963">
        <ele>414.8</ele>
        <time>2024-04-14T07:05:07Z</time>
      </trkpt>
      <trkpt lat="47.1422" lon="6.01952">
        <ele>414.2</ele>
        <time>2024-04-14T07:05:08Z</time>
      </trkpt>
      <trkpt lat="47.1422" lon="6.01932">
        <ele>413.8</ele>
        <time>2024-04-14T07:05:10Z</time>
      </trkpt>
      <trkpt lat="47.14221" lon="6.01903">
        <ele>414.6</ele>
        <time>2024-04-14T07:05:13Z</time>
      </trkpt>
      <trkpt lat="47.14223" lon="6.01882">
        <ele>415.6</ele>
        <time>2024-04-14T07:05:16Z</time>
      </trkpt>
      <trkpt lat="47.1422" lon="6.01869">
        <ele>417.4</ele>
        <time>2024-04-14T07:05:18Z</time>
      </trkpt>
      <trkpt lat="47.14217" lon="6.01856">
        <ele>419.2</ele>
        <time>2024-04-14T07:05:20Z</time>
      </trkpt>
      <trkpt lat="47.14214" lon="6.0184">
        <ele>420.6</ele>
        <time>2024-04-14T07:05:22Z</time>
      </trkpt>
      <trkpt lat="47.14212" lon="6.01814">
        <ele>422.2</ele>
        <time>2024-04-14T07:05:26Z</time>
      </trkpt>
      <trkpt lat="47.14213" lon="6.01808">
        <ele>422.2</ele>
        <time>2024-04-14T07:05:27Z</time>
      </trkpt>
      <trkpt lat="47.1422" lon="6.01775">
        <ele>422.6</ele>
        <time>2024-04-14T07:05:33Z</time>
      </trkpt>
      <trkpt lat="47.14225" lon="6.01761">
        <ele>423.2</ele>
        <time>2024-04-14T07:05:38Z</time>
      </trkpt>
      <trkpt lat="47.14226" lon="6.01758">
        <ele>423.4</ele>
        <time>2024-04-14T07:05:39Z</time>
      </trkpt>
      <trkpt lat="47.14231" lon="6.01741">
        <ele>423.8</ele>
        <time>2024-04-14T07:05:44Z</time>
      </trkpt>
      <trkpt lat="47.14232" lon="6.01715">
        <ele>424</ele>
        <time>2024-04-14T07:05:49Z</time>
      </trkpt>
      <trkpt lat="47.14235" lon="6.01682">
        <ele>424.6</ele>
        <time>2024-04-14T07:05:55Z</time>
      </trkpt>
      <trkpt lat="47.14235" lon="6.01661">
        <ele>425.8</ele>
        <time>2024-04-14T07:05:59Z</time>
      </trkpt>
      <trkpt lat="47.14237" lon="6.01647">
        <ele>426.8</ele>
        <time>2024-04-14T07:06:02Z</time>
      </trkpt>
      <trkpt lat="47.1424" lon="6.01641">
        <ele>427.6</ele>
        <time>2024-04-14T07:06:04Z</time>
      </trkpt>
      <trkpt lat="47.14242" lon="6.01639">
        <ele>428.2</ele>
        <time>2024-04-14T07:06:05Z</time>
      </trkpt>
      <trkpt lat="47.14246" lon="6.01636">
        <ele>429.6</ele>
        <time>2024-04-14T07:06:07Z</time>
      </trkpt>
      <trkpt lat="47.14252" lon="6.01637">
        <ele>430.6</ele>
        <time>2024-04-14T07:06:09Z</time>
      </trkpt>
      <trkpt lat="47.14256" lon="6.01637">
        <ele>431.2</ele>
        <time>2024-04-14T07:06:11Z</time>
      </trkpt>
      <trkpt lat="47.14258" lon="6.01638">
        <ele>431.6</ele>
        <time>2024-04-14T07:06:12Z</time>
      </trkpt>
      <trkpt lat="47.14264" lon="6.0164">
        <ele>433</ele>
        <time>2024-04-14T07:06:16Z</time>
      </trkpt>
      <trkpt lat="47.1427" lon="6.01641">
        <ele>434.2</ele>
        <time>2024-04-14T07:06:20Z</time>
      </trkpt>
      <trkpt lat="47.14276" lon="6.01641">
        <ele>434.6</ele>
        <time>2024-04-14T07:06:23Z</time>
      </trkpt>
      <trkpt lat="47.14288" lon="6.0164">
        <ele>435</ele>
        <time>2024-04-14T07:06:29Z</time>
      </trkpt>
      <trkpt lat="47.14297" lon="6.01636">
        <ele>435.2</ele>
        <time>2024-04-14T07:06:34Z</time>
      </trkpt>
      <trkpt lat="47.14312" lon="6.01628">
        <ele>435.8</ele>
        <time>2024-04-14T07:06:41Z</time>
      </trkpt>
      <trkpt lat="47.14328" lon="6.01622">
        <ele>435.4</ele>
        <time>2024-04-14T07:06:48Z</time>
      </trkpt>
      <trkpt lat="47.1433" lon="6.0162">
        <ele>435.2</ele>
        <time>2024-04-14T07:06:49Z</time>
      </trkpt>
      <trkpt lat="47.1434" lon="6.01619">
        <ele>435.6</ele>
        <time>2024-04-14T07:06:53Z</time>
      </trkpt>
      <trkpt lat="47.14346" lon="6.01618">
        <ele>436.4</ele>
        <time>2024-04-14T07:06:55Z</time>
      </trkpt>
      <trkpt lat="47.14355" lon="6.01617">
        <ele>436.8</ele>
        <time>2024-04-14T07:06:59Z</time>
      </trkpt>
      <trkpt lat="47.14363" lon="6.01615">
        <ele>437.6</ele>
        <time>2024-04-14T07:07:02Z</time>
      </trkpt>
      <trkpt lat="47.14373" lon="6.0161">
        <ele>436.6</ele>
        <time>2024-04-14T07:07:06Z</time>
      </trkpt>
      <trkpt lat="47.14385" lon="6.01604">
        <ele>436.4</ele>
        <time>2024-04-14T07:07:10Z</time>
      </trkpt>
      <trkpt lat="47.14391" lon="6.01602">
        <ele>435.2</ele>
        <time>2024-04-14T07:07:12Z</time>
      </trkpt>
      <trkpt lat="47.14395" lon="6.016">
        <ele>434.6</ele>
        <time>2024-04-14T07:07:13Z</time>
      </trkpt>
      <trkpt lat="47.14418" lon="6.01593">
        <ele>434.8</ele>
        <time>2024-04-14T07:07:19Z</time>
      </trkpt>
      <trkpt lat="47.14428" lon="6.01591">
        <ele>434.8</ele>
        <time>2024-04-14T07:07:22Z</time>
      </trkpt>
      <trkpt lat="47.1444" lon="6.01584">
        <ele>435</ele>
        <time>2024-04-14T07:07:26Z</time>
      </trkpt>
      <trkpt lat="47.14453" lon="6.0158">
        <ele>434.2</ele>
        <time>2024-04-14T07:07:29Z</time>
      </trkpt>
      <trkpt lat="47.14459" lon="6.01578">
        <ele>433.8</ele>
        <time>2024-04-14T07:07:30Z</time>
      </trkpt>
      <trkpt lat="47.14472" lon="6.01574">
        <ele>432.8</ele>
        <time>2024-04-14T07:07:33Z</time>
      </trkpt>
      <trkpt lat="47.14477" lon="6.0157">
        <ele>432.2</ele>
        <time>2024-04-14T07:07:34Z</time>
      </trkpt>
      <trkpt lat="47.14482" lon="6.01567">
        <ele>431.6</ele>
        <time>2024-04-14T07:07:35Z</time>
      </trkpt>
      <trkpt lat="47.14502" lon="6.01551">
        <ele>430.6</ele>
        <time>2024-04-14T07:07:39Z</time>
      </trkpt>
      <trkpt lat="47.14512" lon="6.01543">
        <ele>429.6</ele>
        <time>2024-04-14T07:07:41Z</time>
      </trkpt>
      <trkpt lat="47.14518" lon="6.01539">
        <ele>429.4</ele>
        <time>2024-04-14T07:07:42Z</time>
      </trkpt>
      <trkpt lat="47.14529" lon="6.01532">
        <ele>428.2</ele>
        <time>2024-04-14T07:07:44Z</time>
      </trkpt>
      <trkpt lat="47.14538" lon="6.01524">
        <ele>427</ele>
        <time>2024-04-14T07:07:46Z</time>
      </trkpt>
      <trkpt lat="47.14542" lon="6.01518">
        <ele>426.6</ele>
        <time>2024-04-14T07:07:47Z</time>
      </trkpt>
      <trkpt lat="47.1455" lon="6.01508">
        <ele>425.6</ele>
        <time>2024-04-14T07:07:49Z</time>
      </trkpt>
      <trkpt lat="47.14559" lon="6.01499">
        <ele>424.4</ele>
        <time>2024-04-14T07:07:51Z</time>
      </trkpt>
      <trkpt lat="47.14567" lon="6.01487">
        <ele>423.2</ele>
        <time>2024-04-14T07:07:53Z</time>
      </trkpt>
      <trkpt lat="47.14571" lon="6.01483">
        <ele>422.6</ele>
        <time>2024-04-14T07:07:54Z</time>
      </trkpt>
      <trkpt lat="47.14576" lon="6.01481">
        <ele>422</ele>
        <time>2024-04-14T07:07:55Z</time>
      </trkpt>
      <trkpt lat="47.14587" lon="6.01474">
        <ele>420.8</ele>
        <time>2024-04-14T07:07:57Z</time>
      </trkpt>
      <trkpt lat="47.14599" lon="6.01469">
        <ele>419.6</ele>
        <time>2024-04-14T07:07:59Z</time>
      </trkpt>
      <trkpt lat="47.14609" lon="6.01464">
        <ele>418.2</ele>
        <time>2024-04-14T07:08:01Z</time>
      </trkpt>
      <trkpt lat="47.14623" lon="6.01457">
        <ele>417</ele>
        <time>2024-04-14T07:08:04Z</time>
      </trkpt>
      <trkpt lat="47.14633" lon="6.0145">
        <ele>415.8</ele>
        <time>2024-04-14T07:08:06Z</time>
      </trkpt>
      <trkpt lat="47.14641" lon="6.01442">
        <ele>414.4</ele>
        <time>2024-04-14T07:08:08Z</time>
      </trkpt>
      <trkpt lat="47.14649" lon="6.01433">
        <ele>413</ele>
        <time>2024-04-14T07:08:10Z</time>
      </trkpt>
      <trkpt lat="47.14653" lon="6.01428">
        <ele>412.2</ele>
        <time>2024-04-14T07:08:11Z</time>
      </trkpt>
      <trkpt lat="47.14657" lon="6.01423">
        <ele>411.6</ele>
        <time>2024-04-14T07:08:12Z</time>
      </trkpt>
      <trkpt lat="47.14666" lon="6.01413">
        <ele>409.8</ele>
        <time>2024-04-14T07:08:14Z</time>
      </trkpt>
      <trkpt lat="47.14678" lon="6.01405">
        <ele>408.8</ele>
        <time>2024-04-14T07:08:16Z</time>
      </trkpt>
      <trkpt lat="47.14699" lon="6.01396">
        <ele>407.6</ele>
        <time>2024-04-14T07:08:19Z</time>
      </trkpt>
      <trkpt lat="47.14712" lon="6.0139">
        <ele>407.2</ele>
        <time>2024-04-14T07:08:21Z</time>
      </trkpt>
      <trkpt lat="47.14717" lon="6.01387">
        <ele>407</ele>
        <time>2024-04-14T07:08:22Z</time>
      </trkpt>
      <trkpt lat="47.14737" lon="6.01365">
        <ele>408.8</ele>
        <time>2024-04-14T07:08:26Z</time>
      </trkpt>
      <trkpt lat="47.14758" lon="6.01348">
        <ele>409.4</ele>
        <time>2024-04-14T07:08:30Z</time>
      </trkpt>
      <trkpt lat="47.14789" lon="6.01325">
        <ele>408</ele>
        <time>2024-04-14T07:08:36Z</time>
      </trkpt>
      <trkpt lat="47.14794" lon="6.0132">
        <ele>407.8</ele>
        <time>2024-04-14T07:08:37Z</time>
      </trkpt>
      <trkpt lat="47.1481" lon="6.01309">
        <ele>406.8</ele>
        <time>2024-04-14T07:08:41Z</time>
      </trkpt>
      <trkpt lat="47.14814" lon="6.01306">
        <ele>406.6</ele>
        <time>2024-04-14T07:08:42Z</time>
      </trkpt>
      <trkpt lat="47.14833" lon="6.01293">
        <ele>405.4</ele>
        <time>2024-04-14T07:08:46Z</time>
      </trkpt>
      <trkpt lat="47.14844" lon="6.01287">
        <ele>405</ele>
        <time>2024-04-14T07:08:48Z</time>
      </trkpt>
      <trkpt lat="47.14855" lon="6.01286">
        <ele>404.4</ele>
        <time>2024-04-14T07:08:50Z</time>
      </trkpt>
      <trkpt lat="47.14863" lon="6.01285">
        <ele>404.2</ele>
        <time>2024-04-14T07:08:52Z</time>
      </trkpt>
      <trkpt lat="47.14878" lon="6.01282">
        <ele>404.6</ele>
        <time>2024-04-14T07:08:57Z</time>
      </trkpt>
      <trkpt lat="47.1488" lon="6.01278">
        <ele>404.6</ele>
        <time>2024-04-14T07:08:58Z</time>
      </trkpt>
      <trkpt lat="47.14882" lon="6.01266">
        <ele>404.4</ele>
        <time>2024-04-14T07:09:00Z</time>
      </trkpt>
      <trkpt lat="47.14882" lon="6.01252">
        <ele>404.4</ele>
        <time>2024-04-14T07:09:02Z</time>
      </trkpt>
      <trkpt lat="47.14883" lon="6.01231">
        <ele>404.4</ele>
        <time>2024-04-14T07:09:05Z</time>
      </trkpt>
      <trkpt lat="47.1488" lon="6.01186">
        <ele>404</ele>
        <time>2024-04-14T07:09:11Z</time>
      </trkpt>
      <trkpt lat="47.14879" lon="6.01178">
        <ele>404</ele>
        <time>2024-04-14T07:09:12Z</time>
      </trkpt>
      <trkpt lat="47.14868" lon="6.01132">
        <ele>404</ele>
        <time>2024-04-14T07:09:17Z</time>
      </trkpt>
      <trkpt lat="47.14854" lon="6.01069">
        <ele>404.6</ele>
        <time>2024-04-14T07:09:24Z</time>
      </trkpt>
      <trkpt lat="47.14839" lon="6.01018">
        <ele>405.4</ele>
        <time>2024-04-14T07:09:31Z</time>
      </trkpt>
      <trkpt lat="47.14836" lon="6.01012">
        <ele>405.6</ele>
        <time>2024-04-14T07:09:32Z</time>
      </trkpt>
      <trkpt lat="47.1483" lon="6.00995">
        <ele>405.8</ele>
        <time>2024-04-14T07:09:35Z</time>
      </trkpt>
      <trkpt lat="47.14826" lon="6.00976">
        <ele>406</ele>
        <time>2024-04-14T07:09:38Z</time>
      </trkpt>
      <trkpt lat="47.14822" lon="6.00939">
        <ele>405.4</ele>
        <time>2024-04-14T07:09:44Z</time>
      </trkpt>
      <trkpt lat="47.14822" lon="6.00922">
        <ele>404.4</ele>
        <time>2024-04-14T07:09:48Z</time>
      </trkpt>
      <trkpt lat="47.14822" lon="6.00919">
        <ele>404</ele>
        <time>2024-04-14T07:09:49Z</time>
      </trkpt>
      <trkpt lat="47.14822" lon="6.00912">
        <ele>403.4</ele>
        <time>2024-04-14T07:09:54Z</time>
      </trkpt>
      <trkpt lat="47.14822" lon="6.00905">
        <ele>402.6</ele>
        <time>2024-04-14T07:10:36Z</time>
      </trkpt>
      <trkpt lat="47.14822" lon="6.00901">
        <ele>402.4</ele>
        <time>2024-04-14T07:10:37Z</time>
      </trkpt>
      <trkpt lat="47.14821" lon="6.00897">
        <ele>402.4</ele>
        <time>2024-04-14T07:10:38Z</time>
      </trkpt>
      <trkpt lat="47.14816" lon="6.00888">
        <ele>402.6</ele>
        <time>2024-04-14T07:10:42Z</time>
      </trkpt>
      <trkpt lat="47.14812" lon="6.00863">
        <ele>402.4</ele>
        <time>2024-04-14T07:10:47Z</time>
      </trkpt>
      <trkpt lat="47.14809" lon="6.00824">
        <ele>401.2</ele>
        <time>2024-04-14T07:10:51Z</time>
      </trkpt>
      <trkpt lat="47.14803" lon="6.00785">
        <ele>400</ele>
        <time>2024-04-14T07:10:55Z</time>
      </trkpt>
      <trkpt lat="47.148" lon="6.00756">
        <ele>399.4</ele>
        <time>2024-04-14T07:10:58Z</time>
      </trkpt>
      <trkpt lat="47.14798" lon="6.00746">
        <ele>399</ele>
        <time>2024-04-14T07:10:59Z</time>
      </trkpt>
      <trkpt lat="47.14791" lon="6.00694">
        <ele>398.2</ele>
        <time>2024-04-14T07:11:04Z</time>
      </trkpt>
      <trkpt lat="47.14792" lon="6.00633">
        <ele>398.2</ele>
        <time>2024-04-14T07:11:10Z</time>
      </trkpt>
      <trkpt lat="47.1479" lon="6.00614">
        <ele>398.2</ele>
        <time>2024-04-14T07:11:12Z</time>
      </trkpt>
      <trkpt lat="47.14786" lon="6.00596">
        <ele>398.4</ele>
        <time>2024-04-14T07:11:14Z</time>
      </trkpt>
      <trkpt lat="47.14771" lon="6.00566">
        <ele>398.8</ele>
        <time>2024-04-14T07:11:18Z</time>
      </trkpt>
      <trkpt lat="47.14751" lon="6.00531">
        <ele>399.8</ele>
        <time>2024-04-14T07:11:23Z</time>
      </trkpt>
      <trkpt lat="47.1474" lon="6.00521">
        <ele>400</ele>
        <time>2024-04-14T07:11:25Z</time>
      </trkpt>
      <trkpt lat="47.14704" lon="6.00481">
        <ele>399.6</ele>
        <time>2024-04-14T07:11:32Z</time>
      </trkpt>
      <trkpt lat="47.14678" lon="6.00453">
        <ele>399.4</ele>
        <time>2024-04-14T07:11:38Z</time>
      </trkpt>
      <trkpt lat="47.14648" lon="6.00421">
        <ele>398.2</ele>
        <time>2024-04-14T07:11:45Z</time>
      </trkpt>
      <trkpt lat="47.14644" lon="6.00417">
        <ele>397.8</ele>
        <time>2024-04-14T07:11:46Z</time>
      </trkpt>
      <trkpt lat="47.1464" lon="6.00415">
        <ele>397.6</ele>
        <time>2024-04-14T07:11:47Z</time>
      </trkpt>
      <trkpt lat="47.14626" lon="6.00408">
        <ele>396.6</ele>
        <time>2024-04-14T07:11:50Z</time>
      </trkpt>
      <trkpt lat="47.14611" lon="6.00402">
        <ele>395.4</ele>
        <time>2024-04-14T07:11:53Z</time>
      </trkpt>
      <trkpt lat="47.14596" lon="6.00395">
        <ele>394.2</ele>
        <time>2024-04-14T07:11:56Z</time>
      </trkpt>
      <trkpt lat="47.14591" lon="6.00392">
        <ele>394</ele>
        <time>2024-04-14T07:11:57Z</time>
      </trkpt>
      <trkpt lat="47.14582" lon="6.00386">
        <ele>393.2</ele>
        <time>2024-04-14T07:11:59Z</time>
      </trkpt>
      <trkpt lat="47.14565" lon="6.00372">
        <ele>391.8</ele>
        <time>2024-04-14T07:12:03Z</time>
      </trkpt>
      <trkpt lat="47.14554" lon="6.00361">
        <ele>390.8</ele>
        <time>2024-04-14T07:12:06Z</time>
      </trkpt>
      <trkpt lat="47.14544" lon="6.00354">
        <ele>390.6</ele>
        <time>2024-04-14T07:12:09Z</time>
      </trkpt>
      <trkpt lat="47.14526" lon="6.00333">
        <ele>389.8</ele>
        <time>2024-04-14T07:12:16Z</time>
      </trkpt>
      <trkpt lat="47.14523" lon="6.00328">
        <ele>389.8</ele>
        <time>2024-04-14T07:12:17Z</time>
      </trkpt>
      <trkpt lat="47.14511" lon="6.00299">
        <ele>390</ele>
        <time>2024-04-14T07:12:22Z</time>
      </trkpt>
      <trkpt lat="47.14503" lon="6.00249">
        <ele>390.8</ele>
        <time>2024-04-14T07:12:28Z</time>
      </trkpt>
      <trkpt lat="47.14502" lon="6.00239">
        <ele>391.8</ele>
        <time>2024-04-14T07:12:29Z</time>
      </trkpt>
      <trkpt lat="47.145" lon="6.0023">
        <ele>392.4</ele>
        <time>2024-04-14T07:12:30Z</time>
      </trkpt>
      <trkpt lat="47.14496" lon="6.00212">
        <ele>393.8</ele>
        <time>2024-04-14T07:12:32Z</time>
      </trkpt>
      <trkpt lat="47.14495" lon="6.00204">
        <ele>394.2</ele>
        <time>2024-04-14T07:12:33Z</time>
      </trkpt>
      <trkpt lat="47.14494" lon="6.0019">
        <ele>394.6</ele>
        <time>2024-04-14T07:12:35Z</time>
      </trkpt>
      <trkpt lat="47.14492" lon="6.00183">
        <ele>395</ele>
        <time>2024-04-14T07:12:36Z</time>
      </trkpt>
      <trkpt lat="47.1449" lon="6.00167">
        <ele>395.6</ele>
        <time>2024-04-14T07:12:38Z</time>
      </trkpt>
      <trkpt lat="47.14487" lon="6.0015">
        <ele>396.2</ele>
        <time>2024-04-14T07:12:40Z</time>
      </trkpt>
      <trkpt lat="47.14479" lon="6.00116">
        <ele>396.6</ele>
        <time>2024-04-14T07:12:44Z</time>
      </trkpt>
      <trkpt lat="47.14463" lon="6.00063">
        <ele>397</ele>
        <time>2024-04-14T07:12:49Z</time>
      </trkpt>
      <trkpt lat="47.14455" lon="6.00029">
        <ele>397.4</ele>
        <time>2024-04-14T07:12:52Z</time>
      </trkpt>
      <trkpt lat="47.14452" lon="6.00009">
        <ele>398</ele>
        <time>2024-04-14T07:12:54Z</time>
      </trkpt>
      <trkpt lat="47.1445" lon="5.99991">
        <ele>398.6</ele>
        <time>2024-04-14T07:12:56Z</time>
      </trkpt>
      <trkpt lat="47.1445" lon="5.99982">
        <ele>398.8</ele>
        <time>2024-04-14T07:12:57Z</time>
      </trkpt>
      <trkpt lat="47.14449" lon="5.99965">
        <ele>399.8</ele>
        <time>2024-04-14T07:12:59Z</time>
      </trkpt>
      <trkpt lat="47.14442" lon="5.99943">
        <ele>400.4</ele>
        <time>2024-04-14T07:13:02Z</time>
      </trkpt>
      <trkpt lat="47.14438" lon="5.99937">
        <ele>400.8</ele>
        <time>2024-04-14T07:13:03Z</time>
      </trkpt>
      <trkpt lat="47.14429" lon="5.99927">
        <ele>401.2</ele>
        <time>2024-04-14T07:13:05Z</time>
      </trkpt>
      <trkpt lat="47.14408" lon="5.99901">
        <ele>401.6</ele>
        <time>2024-04-14T07:13:10Z</time>
      </trkpt>
      <trkpt lat="47.14399" lon="5.9989">
        <ele>402</ele>
        <time>2024-04-14T07:13:12Z</time>
      </trkpt>
      <trkpt lat="47.14392" lon="5.99879">
        <ele>402.4</ele>
        <time>2024-04-14T07:13:14Z</time>
      </trkpt>
      <trkpt lat="47.14386" lon="5.99865">
        <ele>403</ele>
        <time>2024-04-14T07:13:16Z</time>
      </trkpt>
      <trkpt lat="47.14382" lon="5.99851">
        <ele>403.2</ele>
        <time>2024-04-14T07:13:18Z</time>
      </trkpt>
      <trkpt lat="47.14376" lon="5.99821">
        <ele>403.6</ele>
        <time>2024-04-14T07:13:22Z</time>
      </trkpt>
      <trkpt lat="47.14362" lon="5.9976">
        <ele>403.8</ele>
        <time>2024-04-14T07:13:31Z</time>
      </trkpt>
      <trkpt lat="47.14358" lon="5.99747">
        <ele>404.2</ele>
        <time>2024-04-14T07:13:33Z</time>
      </trkpt>
      <trkpt lat="47.14354" lon="5.99719">
        <ele>405.2</ele>
        <time>2024-04-14T07:13:37Z</time>
      </trkpt>
      <trkpt lat="47.14353" lon="5.99713">
        <ele>405.4</ele>
        <time>2024-04-14T07:13:38Z</time>
      </trkpt>
      <trkpt lat="47.14342" lon="5.99678">
        <ele>406.2</ele>
        <time>2024-04-14T07:13:44Z</time>
      </trkpt>
      <trkpt lat="47.14339" lon="5.99673">
        <ele>406.4</ele>
        <time>2024-04-14T07:13:45Z</time>
      </trkpt>
      <trkpt lat="47.14327" lon="5.99654">
        <ele>406.2</ele>
        <time>2024-04-14T07:13:49Z</time>
      </trkpt>
      <trkpt lat="47.1431" lon="5.99617">
        <ele>406.4</ele>
        <time>2024-04-14T07:13:56Z</time>
      </trkpt>
      <trkpt lat="47.143" lon="5.9959">
        <ele>406.4</ele>
        <time>2024-04-14T07:14:01Z</time>
      </trkpt>
      <trkpt lat="47.143" lon="5.9957">
        <ele>406.8</ele>
        <time>2024-04-14T07:14:04Z</time>
      </trkpt>
      <trkpt lat="47.14302" lon="5.99555">
        <ele>407</ele>
        <time>2024-04-14T07:14:06Z</time>
      </trkpt>
      <trkpt lat="47.14307" lon="5.99529">
        <ele>406</ele>
        <time>2024-04-14T07:14:10Z</time>
      </trkpt>
      <trkpt lat="47.14309" lon="5.99523">
        <ele>405.4</ele>
        <time>2024-04-14T07:14:11Z</time>
      </trkpt>
      <trkpt lat="47.14313" lon="5.99511">
        <ele>404.4</ele>
        <time>2024-04-14T07:14:13Z</time>
      </trkpt>
      <trkpt lat="47.14315" lon="5.99504">
        <ele>404.2</ele>
        <time>2024-04-14T07:14:14Z</time>
      </trkpt>
      <trkpt lat="47.14317" lon="5.99479">
        <ele>403</ele>
        <time>2024-04-14T07:14:18Z</time>
      </trkpt>
      <trkpt lat="47.14313" lon="5.99456">
        <ele>402.6</ele>
        <time>2024-04-14T07:14:22Z</time>
      </trkpt>
      <trkpt lat="47.1431" lon="5.99444">
        <ele>402.4</ele>
        <time>2024-04-14T07:14:24Z</time>
      </trkpt>
      <trkpt lat="47.14309" lon="5.99437">
        <ele>402.4</ele>
        <time>2024-04-14T07:14:25Z</time>
      </trkpt>
      <trkpt lat="47.14307" lon="5.99408">
        <ele>402</ele>
        <time>2024-04-14T07:14:29Z</time>
      </trkpt>
      <trkpt lat="47.14307" lon="5.99395">
        <ele>401.8</ele>
        <time>2024-04-14T07:14:31Z</time>
      </trkpt>
      <trkpt lat="47.14306" lon="5.99352">
        <ele>401.6</ele>
        <time>2024-04-14T07:14:38Z</time>
      </trkpt>
      <trkpt lat="47.14303" lon="5.9932">
        <ele>402.6</ele>
        <time>2024-04-14T07:14:44Z</time>
      </trkpt>
      <trkpt lat="47.14298" lon="5.99296">
        <ele>403.4</ele>
        <time>2024-04-14T07:14:48Z</time>
      </trkpt>
      <trkpt lat="47.14291" lon="5.99271">
        <ele>403.8</ele>
        <time>2024-04-14T07:14:52Z</time>
      </trkpt>
      <trkpt lat="47.14271" lon="5.9921">
        <ele>403.4</ele>
        <time>2024-04-14T07:14:59Z</time>
      </trkpt>
      <trkpt lat="47.14258" lon="5.99176">
        <ele>403.4</ele>
        <time>2024-04-14T07:15:04Z</time>
      </trkpt>
      <trkpt lat="47.14246" lon="5.99144">
        <ele>402.2</ele>
        <time>2024-04-14T07:15:09Z</time>
      </trkpt>
      <trkpt lat="47.14243" lon="5.99137">
        <ele>402</ele>
        <time>2024-04-14T07:15:10Z</time>
      </trkpt>
      <trkpt lat="47.1422" lon="5.99099">
        <ele>402.8</ele>
        <time>2024-04-14T07:15:16Z</time>
      </trkpt>
      <trkpt lat="47.14216" lon="5.99094">
        <ele>403.4</ele>
        <time>2024-04-14T07:15:17Z</time>
      </trkpt>
      <trkpt lat="47.14195" lon="5.99066">
        <ele>403</ele>
        <time>2024-04-14T07:15:22Z</time>
      </trkpt>
      <trkpt lat="47.14177" lon="5.99034">
        <ele>402.8</ele>
        <time>2024-04-14T07:15:28Z</time>
      </trkpt>
      <trkpt lat="47.14173" lon="5.99024">
        <ele>402.2</ele>
        <time>2024-04-14T07:15:30Z</time>
      </trkpt>
      <trkpt lat="47.14162" lon="5.98996">
        <ele>402</ele>
        <time>2024-04-14T07:15:35Z</time>
      </trkpt>
      <trkpt lat="47.14158" lon="5.98979">
        <ele>401.2</ele>
        <time>2024-04-14T07:15:39Z</time>
      </trkpt>
      <trkpt lat="47.14159" lon="5.98977">
        <ele>400.8</ele>
        <time>2024-04-14T07:15:40Z</time>
      </trkpt>
      <trkpt lat="47.14162" lon="5.98976">
        <ele>399.8</ele>
        <time>2024-04-14T07:15:42Z</time>
      </trkpt>
      <trkpt lat="47.14164" lon="5.98977">
        <ele>399.2</ele>
        <time>2024-04-14T07:15:43Z</time>
      </trkpt>
      <trkpt lat="47.1417" lon="5.98977">
        <ele>398.6</ele>
        <time>2024-04-14T07:15:45Z</time>
      </trkpt>
      <trkpt lat="47.14176" lon="5.98973">
        <ele>398</ele>
        <time>2024-04-14T07:15:47Z</time>
      </trkpt>
      <trkpt lat="47.1419" lon="5.98957">
        <ele>397.6</ele>
        <time>2024-04-14T07:15:51Z</time>
      </trkpt>
      <trkpt lat="47.14194" lon="5.98951">
        <ele>397.2</ele>
        <time>2024-04-14T07:15:52Z</time>
      </trkpt>
      <trkpt lat="47.142" lon="5.98924">
        <ele>396</ele>
        <time>2024-04-14T07:15:56Z</time>
      </trkpt>
      <trkpt lat="47.14205" lon="5.98904">
        <ele>394.8</ele>
        <time>2024-04-14T07:16:00Z</time>
      </trkpt>
      <trkpt lat="47.14206" lon="5.98901">
        <ele>394.6</ele>
        <time>2024-04-14T07:16:01Z</time>
      </trkpt>
      <trkpt lat="47.14213" lon="5.98891">
        <ele>393.4</ele>
        <time>2024-04-14T07:16:04Z</time>
      </trkpt>
      <trkpt lat="47.14219" lon="5.98887">
        <ele>392.8</ele>
        <time>2024-04-14T07:16:06Z</time>
      </trkpt>
      <trkpt lat="47.14222" lon="5.98886">
        <ele>392.2</ele>
        <time>2024-04-14T07:16:07Z</time>
      </trkpt>
      <trkpt lat="47.1423" lon="5.98888">
        <ele>390.8</ele>
        <time>2024-04-14T07:16:10Z</time>
      </trkpt>
      <trkpt lat="47.14235" lon="5.9889">
        <ele>389.8</ele>
        <time>2024-04-14T07:16:12Z</time>
      </trkpt>
      <trkpt lat="47.14241" lon="5.98894">
        <ele>388.4</ele>
        <time>2024-04-14T07:16:14Z</time>
      </trkpt>
      <trkpt lat="47.14245" lon="5.98895">
        <ele>387.8</ele>
        <time>2024-04-14T07:16:15Z</time>
      </trkpt>
      <trkpt lat="47.14248" lon="5.98896">
        <ele>387</ele>
        <time>2024-04-14T07:16:16Z</time>
      </trkpt>
      <trkpt lat="47.14252" lon="5.98898">
        <ele>386.4</ele>
        <time>2024-04-14T07:16:17Z</time>
      </trkpt>
      <trkpt lat="47.14255" lon="5.989">
        <ele>385.8</ele>
        <time>2024-04-14T07:16:18Z</time>
      </trkpt>
      <trkpt lat="47.14263" lon="5.98904">
        <ele>385.2</ele>
        <time>2024-04-14T07:16:20Z</time>
      </trkpt>
      <trkpt lat="47.14268" lon="5.98907">
        <ele>384.6</ele>
        <time>2024-04-14T07:16:22Z</time>
      </trkpt>
      <trkpt lat="47.14275" lon="5.98912">
        <ele>383.8</ele>
        <time>2024-04-14T07:16:25Z</time>
      </trkpt>
      <trkpt lat="47.14277" lon="5.98914">
        <ele>383.6</ele>
        <time>2024-04-14T07:16:26Z</time>
      </trkpt>
      <trkpt lat="47.14288" lon="5.98918">
        <ele>382.8</ele>
        <time>2024-04-14T07:16:31Z</time>
      </trkpt>
      <trkpt lat="47.14298" lon="5.98913">
        <ele>382.6</ele>
        <time>2024-04-14T07:16:37Z</time>
      </trkpt>
      <trkpt lat="47.143" lon="5.98911">
        <ele>382.6</ele>
        <time>2024-04-14T07:16:38Z</time>
      </trkpt>
      <trkpt lat="47.14302" lon="5.98907">
        <ele>382.4</ele>
        <time>2024-04-14T07:16:39Z</time>
      </trkpt>
      <trkpt lat="47.14306" lon="5.98894">
        <ele>381.4</ele>
        <time>2024-04-14T07:16:42Z</time>
      </trkpt>
      <trkpt lat="47.14311" lon="5.98879">
        <ele>380.2</ele>
        <time>2024-04-14T07:16:45Z</time>
      </trkpt>
      <trkpt lat="47.14321" lon="5.98859">
        <ele>379</ele>
        <time>2024-04-14T07:16:50Z</time>
      </trkpt>
      <trkpt lat="47.14326" lon="5.98855">
        <ele>377.8</ele>
        <time>2024-04-14T07:16:52Z</time>
      </trkpt>
      <trkpt lat="47.1433" lon="5.98852">
        <ele>376.8</ele>
        <time>2024-04-14T07:16:54Z</time>
      </trkpt>
      <trkpt lat="47.14339" lon="5.9884">
        <ele>377.8</ele>
        <time>2024-04-14T07:16:58Z</time>
      </trkpt>
      <trkpt lat="47.1434" lon="5.98838">
        <ele>378</ele>
        <time>2024-04-14T07:16:59Z</time>
      </trkpt>
      <trkpt lat="47.14349" lon="5.9883">
        <ele>376.8</ele>
        <time>2024-04-14T07:17:04Z</time>
      </trkpt>
      <trkpt lat="47.14353" lon="5.98824">
        <ele>375.8</ele>
        <time>2024-04-14T07:17:07Z</time>
      </trkpt>
      <trkpt lat="47.14354" lon="5.98822">
        <ele>375.6</ele>
        <time>2024-04-14T07:17:08Z</time>
      </trkpt>
      <trkpt lat="47.14355" lon="5.98812">
        <ele>375.2</ele>
        <time>2024-04-14T07:17:12Z</time>
      </trkpt>
      <trkpt lat="47.14354" lon="5.98809">
        <ele>375.2</ele>
        <time>2024-04-14T07:17:14Z</time>
      </trkpt>
      <trkpt lat="47.14353" lon="5.98804">
        <ele>375.4</ele>
        <time>2024-04-14T07:17:16Z</time>
      </trkpt>
      <trkpt lat="47.14349" lon="5.98796">
        <ele>375.8</ele>
        <time>2024-04-14T07:17:19Z</time>
      </trkpt>
      <trkpt lat="47.14338" lon="5.98759">
        <ele>376.2</ele>
        <time>2024-04-14T07:17:25Z</time>
      </trkpt>
      <trkpt lat="47.14331" lon="5.98721">
        <ele>377.2</ele>
        <time>2024-04-14T07:17:32Z</time>
      </trkpt>
      <trkpt lat="47.1433" lon="5.98717">
        <ele>377.6</ele>
        <time>2024-04-14T07:17:33Z</time>
      </trkpt>
      <trkpt lat="47.14329" lon="5.98713">
        <ele>378</ele>
        <time>2024-04-14T07:17:34Z</time>
      </trkpt>
      <trkpt lat="47.14327" lon="5.98709">
        <ele>378.2</ele>
        <time>2024-04-14T07:17:35Z</time>
      </trkpt>
      <trkpt lat="47.14324" lon="5.98688">
        <ele>379.4</ele>
        <time>2024-04-14T07:17:40Z</time>
      </trkpt>
      <trkpt lat="47.14323" lon="5.98672">
        <ele>380.4</ele>
        <time>2024-04-14T07:17:44Z</time>
      </trkpt>
      <trkpt lat="47.14323" lon="5.98659">
        <ele>380.4</ele>
        <time>2024-04-14T07:17:47Z</time>
      </trkpt>
      <trkpt lat="47.14324" lon="5.98641">
        <ele>381.4</ele>
        <time>2024-04-14T07:17:52Z</time>
      </trkpt>
      <trkpt lat="47.14324" lon="5.98638">
        <ele>381.6</ele>
        <time>2024-04-14T07:17:53Z</time>
      </trkpt>
      <trkpt lat="47.14332" lon="5.98594">
        <ele>386.8</ele>
        <time>2024-04-14T07:20:48Z</time>
      </trkpt>
      <trkpt lat="47.14333" lon="5.98592">
        <ele>387</ele>
        <time>2024-04-14T07:20:49Z</time>
      </trkpt>
      <trkpt lat="47.14336" lon="5.98582">
        <ele>388</ele>
        <time>2024-04-14T07:20:53Z</time>
      </trkpt>
      <trkpt lat="47.14338" lon="5.98575">
        <ele>389.2</ele>
        <time>2024-04-14T07:20:56Z</time>
      </trkpt>
      <trkpt lat="47.14341" lon="5.98572">
        <ele>389.2</ele>
        <time>2024-04-14T07:20:57Z</time>
      </trkpt>
      <trkpt lat="47.1435" lon="5.98563">
        <ele>388.6</ele>
        <time>2024-04-14T07:21:00Z</time>
      </trkpt>
      <trkpt lat="47.14355" lon="5.98556">
        <ele>388.2</ele>
        <time>2024-04-14T07:21:02Z</time>
      </trkpt>
      <trkpt lat="47.14357" lon="5.98552">
        <ele>388.2</ele>
        <time>2024-04-14T07:21:03Z</time>
      </trkpt>
      <trkpt lat="47.14363" lon="5.98534">
        <ele>388</ele>
        <time>2024-04-14T07:21:07Z</time>
      </trkpt>
      <trkpt lat="47.1437" lon="5.98514">
        <ele>387</ele>
        <time>2024-04-14T07:21:12Z</time>
      </trkpt>
      <trkpt lat="47.14373" lon="5.98507">
        <ele>386.6</ele>
        <time>2024-04-14T07:21:14Z</time>
      </trkpt>
      <trkpt lat="47.14378" lon="5.98496">
        <ele>386.2</ele>
        <time>2024-04-14T07:21:18Z</time>
      </trkpt>
      <trkpt lat="47.14379" lon="5.98492">
        <ele>386</ele>
        <time>2024-04-14T07:21:20Z</time>
      </trkpt>
      <trkpt lat="47.14396" lon="5.98478">
        <ele>387</ele>
        <time>2024-04-14T07:21:25Z</time>
      </trkpt>
      <trkpt lat="47.1441" lon="5.98458">
        <ele>385.8</ele>
        <time>2024-04-14T07:21:29Z</time>
      </trkpt>
      <trkpt lat="47.14414" lon="5.98451">
        <ele>385.2</ele>
        <time>2024-04-14T07:21:30Z</time>
      </trkpt>
      <trkpt lat="47.14419" lon="5.9844">
        <ele>384.6</ele>
        <time>2024-04-14T07:21:32Z</time>
      </trkpt>
      <trkpt lat="47.1443" lon="5.98416">
        <ele>383.6</ele>
        <time>2024-04-14T07:21:37Z</time>
      </trkpt>
      <trkpt lat="47.14432" lon="5.98412">
        <ele>383.4</ele>
        <time>2024-04-14T07:21:38Z</time>
      </trkpt>
      <trkpt lat="47.14435" lon="5.98403">
        <ele>382.4</ele>
        <time>2024-04-14T07:21:40Z</time>
      </trkpt>
      <trkpt lat="47.14438" lon="5.98392">
        <ele>381</ele>
        <time>2024-04-14T07:21:42Z</time>
      </trkpt>
      <trkpt lat="47.14439" lon="5.98387">
        <ele>380.2</ele>
        <time>2024-04-14T07:21:43Z</time>
      </trkpt>
      <trkpt lat="47.1444" lon="5.98381">
        <ele>379.6</ele>
        <time>2024-04-14T07:21:44Z</time>
      </trkpt>
      <trkpt lat="47.14443" lon="5.9837">
        <ele>378.4</ele>
        <time>2024-04-14T07:21:46Z</time>
      </trkpt>
      <trkpt lat="47.14445" lon="5.98354">
        <ele>377.4</ele>
        <time>2024-04-14T07:21:49Z</time>
      </trkpt>
      <trkpt lat="47.14446" lon="5.98344">
        <ele>377</ele>
        <time>2024-04-14T07:21:51Z</time>
      </trkpt>
      <trkpt lat="47.14446" lon="5.98314">
        <ele>377.6</ele>
        <time>2024-04-14T07:21:58Z</time>
      </trkpt>
      <trkpt lat="47.14447" lon="5.98307">
        <ele>378.4</ele>
        <time>2024-04-14T07:22:00Z</time>
      </trkpt>
      <trkpt lat="47.14452" lon="5.98297">
        <ele>378.2</ele>
        <time>2024-04-14T07:22:03Z</time>
      </trkpt>
      <trkpt lat="47.1446" lon="5.98269">
        <ele>378.4</ele>
        <time>2024-04-14T07:22:09Z</time>
      </trkpt>
      <trkpt lat="47.14466" lon="5.98244">
        <ele>377.4</ele>
        <time>2024-04-14T07:22:14Z</time>
      </trkpt>
      <trkpt lat="47.14462" lon="5.98222">
        <ele>376.6</ele>
        <time>2024-04-14T07:22:18Z</time>
      </trkpt>
      <trkpt lat="47.14458" lon="5.98211">
        <ele>376.4</ele>
        <time>2024-04-14T07:22:20Z</time>
      </trkpt>
      <trkpt lat="47.14453" lon="5.98194">
        <ele>375.2</ele>
        <time>2024-04-14T07:22:23Z</time>
      </trkpt>
      <trkpt lat="47.14434" lon="5.98155">
        <ele>374.6</ele>
        <time>2024-04-14T07:22:29Z</time>
      </trkpt>
      <trkpt lat="47.14419" lon="5.98126">
        <ele>375.4</ele>
        <time>2024-04-14T07:22:34Z</time>
      </trkpt>
      <trkpt lat="47.14402" lon="5.98088">
        <ele>374.4</ele>
        <time>2024-04-14T07:22:40Z</time>
      </trkpt>
      <trkpt lat="47.144" lon="5.98082">
        <ele>374.2</ele>
        <time>2024-04-14T07:22:41Z</time>
      </trkpt>
      <trkpt lat="47.14392" lon="5.98055">
        <ele>373.8</ele>
        <time>2024-04-14T07:22:45Z</time>
      </trkpt>
      <trkpt lat="47.14388" lon="5.98038">
        <ele>373.2</ele>
        <time>2024-04-14T07:22:48Z</time>
      </trkpt>
      <trkpt lat="47.14381" lon="5.9802">
        <ele>372.8</ele>
        <time>2024-04-14T07:22:51Z</time>
      </trkpt>
      <trkpt lat="47.14365" lon="5.97996">
        <ele>372.6</ele>
        <time>2024-04-14T07:22:55Z</time>
      </trkpt>
      <trkpt lat="47.1436" lon="5.9799">
        <ele>372.4</ele>
        <time>2024-04-14T07:22:56Z</time>
      </trkpt>
      <trkpt lat="47.14355" lon="5.97985">
        <ele>372</ele>
        <time>2024-04-14T07:22:57Z</time>
      </trkpt>
      <trkpt lat="47.14325" lon="5.97961">
        <ele>371.8</ele>
        <time>2024-04-14T07:23:03Z</time>
      </trkpt>
      <trkpt lat="47.14307" lon="5.97947">
        <ele>371.4</ele>
        <time>2024-04-14T07:23:07Z</time>
      </trkpt>
      <trkpt lat="47.14296" lon="5.97935">
        <ele>371</ele>
        <time>2024-04-14T07:23:10Z</time>
      </trkpt>
      <trkpt lat="47.14279" lon="5.97913">
        <ele>371.2</ele>
        <time>2024-04-14T07:23:15Z</time>
      </trkpt>
      <trkpt lat="47.14274" lon="5.979">
        <ele>371.4</ele>
        <time>2024-04-14T07:23:17Z</time>
      </trkpt>
      <trkpt lat="47.14272" lon="5.97888">
        <ele>372</ele>
        <time>2024-04-14T07:23:19Z</time>
      </trkpt>
      <trkpt lat="47.14271" lon="5.97879">
        <ele>373</ele>
        <time>2024-04-14T07:23:21Z</time>
      </trkpt>
      <trkpt lat="47.14271" lon="5.97874">
        <ele>373.6</ele>
        <time>2024-04-14T07:23:22Z</time>
      </trkpt>
      <trkpt lat="47.14274" lon="5.97849">
        <ele>374.2</ele>
        <time>2024-04-14T07:23:28Z</time>
      </trkpt>
      <trkpt lat="47.14282" lon="5.97816">
        <ele>374.2</ele>
        <time>2024-04-14T07:23:35Z</time>
      </trkpt>
      <trkpt lat="47.1429" lon="5.97785">
        <ele>372.8</ele>
        <time>2024-04-14T07:23:42Z</time>
      </trkpt>
      <trkpt lat="47.1429" lon="5.97757">
        <ele>372.4</ele>
        <time>2024-04-14T07:23:47Z</time>
      </trkpt>
      <trkpt lat="47.14291" lon="5.97751">
        <ele>372</ele>
        <time>2024-04-14T07:23:48Z</time>
      </trkpt>
      <trkpt lat="47.14293" lon="5.97713">
        <ele>372.4</ele>
        <time>2024-04-14T07:23:55Z</time>
      </trkpt>
      <trkpt lat="47.14295" lon="5.97688">
        <ele>373.4</ele>
        <time>2024-04-14T07:24:00Z</time>
      </trkpt>
      <trkpt lat="47.14296" lon="5.97679">
        <ele>373.8</ele>
        <time>2024-04-14T07:24:02Z</time>
      </trkpt>
      <trkpt lat="47.14297" lon="5.9767">
        <ele>374.4</ele>
        <time>2024-04-14T07:24:04Z</time>
      </trkpt>
      <trkpt lat="47.14301" lon="5.97651">
        <ele>375.4</ele>
        <time>2024-04-14T07:24:09Z</time>
      </trkpt>
      <trkpt lat="47.14308" lon="5.97622">
        <ele>374.4</ele>
        <time>2024-04-14T07:24:16Z</time>
      </trkpt>
      <trkpt lat="47.14321" lon="5.97602">
        <ele>373.6</ele>
        <time>2024-04-14T07:24:21Z</time>
      </trkpt>
      <trkpt lat="47.14325" lon="5.97599">
        <ele>373.4</ele>
        <time>2024-04-14T07:24:22Z</time>
      </trkpt>
      <trkpt lat="47.14333" lon="5.97595">
        <ele>373.2</ele>
        <time>2024-04-14T07:24:24Z</time>
      </trkpt>
      <trkpt lat="47.14345" lon="5.9759">
        <ele>373.4</ele>
        <time>2024-04-14T07:24:27Z</time>
      </trkpt>
      <trkpt lat="47.14369" lon="5.97586">
        <ele>374.6</ele>
        <time>2024-04-14T07:24:33Z</time>
      </trkpt>
      <trkpt lat="47.14372" lon="5.97586">
        <ele>374.8</ele>
        <time>2024-04-14T07:24:34Z</time>
      </trkpt>
      <trkpt lat="47.14378" lon="5.97586">
        <ele>375.6</ele>
        <time>2024-04-14T07:24:36Z</time>
      </trkpt>
      <trkpt lat="47.14388" lon="5.97585">
        <ele>376.8</ele>
        <time>2024-04-14T07:24:39Z</time>
      </trkpt>
      <trkpt lat="47.144" lon="5.97584">
        <ele>377.6</ele>
        <time>2024-04-14T07:24:43Z</time>
      </trkpt>
      <trkpt lat="47.14403" lon="5.97584">
        <ele>377.8</ele>
        <time>2024-04-14T07:24:44Z</time>
      </trkpt>
      <trkpt lat="47.14415" lon="5.97581">
        <ele>378.8</ele>
        <time>2024-04-14T07:24:49Z</time>
      </trkpt>
      <trkpt lat="47.14417" lon="5.97581">
        <ele>379</ele>
        <time>2024-04-14T07:24:50Z</time>
      </trkpt>
      <trkpt lat="47.14428" lon="5.97577">
        <ele>379.8</ele>
        <time>2024-04-14T07:24:56Z</time>
      </trkpt>
      <trkpt lat="47.1443" lon="5.97578">
        <ele>380</ele>
        <time>2024-04-14T07:24:57Z</time>
      </trkpt>
      <trkpt lat="47.1444" lon="5.97585">
        <ele>380.6</ele>
        <time>2024-04-14T07:25:01Z</time>
      </trkpt>
      <trkpt lat="47.14461" lon="5.97604">
        <ele>381</ele>
        <time>2024-04-14T07:25:09Z</time>
      </trkpt>
      <trkpt lat="47.14467" lon="5.97608">
        <ele>381.4</ele>
        <time>2024-04-14T07:25:11Z</time>
      </trkpt>
      <trkpt lat="47.14485" lon="5.97628">
        <ele>381.8</ele>
        <time>2024-04-14T07:25:19Z</time>
      </trkpt>
      <trkpt lat="47.14503" lon="5.97652">
        <ele>382.2</ele>
        <time>2024-04-14T07:25:26Z</time>
      </trkpt>
      <trkpt lat="47.14506" lon="5.97657">
        <ele>382.2</ele>
        <time>2024-04-14T07:25:27Z</time>
      </trkpt>
      <trkpt lat="47.14526" lon="5.97693">
        <ele>382.4</ele>
        <time>2024-04-14T07:25:34Z</time>
      </trkpt>
      <trkpt lat="47.1455" lon="5.97757">
        <ele>382.8</ele>
        <time>2024-04-14T07:25:45Z</time>
      </trkpt>
      <trkpt lat="47.14559" lon="5.97776">
        <ele>383.2</ele>
        <time>2024-04-14T07:25:49Z</time>
      </trkpt>
      <trkpt lat="47.14563" lon="5.97784">
        <ele>383.4</ele>
        <time>2024-04-14T07:25:51Z</time>
      </trkpt>
      <trkpt lat="47.14568" lon="5.9779">
        <ele>383.4</ele>
        <time>2024-04-14T07:25:53Z</time>
      </trkpt>
      <trkpt lat="47.14574" lon="5.97789">
        <ele>383.6</ele>
        <time>2024-04-14T07:25:55Z</time>
      </trkpt>
      <trkpt lat="47.14586" lon="5.97772">
        <ele>384</ele>
        <time>2024-04-14T07:26:00Z</time>
      </trkpt>
      <trkpt lat="47.14599" lon="5.97745">
        <ele>383.6</ele>
        <time>2024-04-14T07:26:06Z</time>
      </trkpt>
      <trkpt lat="47.14608" lon="5.97733">
        <ele>383.4</ele>
        <time>2024-04-14T07:26:09Z</time>
      </trkpt>
      <trkpt lat="47.14616" lon="5.97728">
        <ele>383</ele>
        <time>2024-04-14T07:26:11Z</time>
      </trkpt>
      <trkpt lat="47.14646" lon="5.97719">
        <ele>382.4</ele>
        <time>2024-04-14T07:26:19Z</time>
      </trkpt>
      <trkpt lat="47.14663" lon="5.97717">
        <ele>382.6</ele>
        <time>2024-04-14T07:26:24Z</time>
      </trkpt>
      <trkpt lat="47.14665" lon="5.97715">
        <ele>382.4</ele>
        <time>2024-04-14T07:26:25Z</time>
      </trkpt>
      <trkpt lat="47.14667" lon="5.97708">
        <ele>382.2</ele>
        <time>2024-04-14T07:26:27Z</time>
      </trkpt>
      <trkpt lat="47.14666" lon="5.97704">
        <ele>382</ele>
        <time>2024-04-14T07:26:28Z</time>
      </trkpt>
      <trkpt lat="47.14664" lon="5.977">
        <ele>381.8</ele>
        <time>2024-04-14T07:26:29Z</time>
      </trkpt>
      <trkpt lat="47.14658" lon="5.97688">
        <ele>381.4</ele>
        <time>2024-04-14T07:26:32Z</time>
      </trkpt>
      <trkpt lat="47.14651" lon="5.97672">
        <ele>381.2</ele>
        <time>2024-04-14T07:26:36Z</time>
      </trkpt>
      <trkpt lat="47.1465" lon="5.97668">
        <ele>381</ele>
        <time>2024-04-14T07:26:37Z</time>
      </trkpt>
      <trkpt lat="47.14639" lon="5.97632">
        <ele>381.8</ele>
        <time>2024-04-14T07:26:45Z</time>
      </trkpt>
      <trkpt lat="47.14635" lon="5.97623">
        <ele>382.2</ele>
        <time>2024-04-14T07:26:47Z</time>
      </trkpt>
      <trkpt lat="47.14625" lon="5.97599">
        <ele>382.8</ele>
        <time>2024-04-14T07:26:52Z</time>
      </trkpt>
      <trkpt lat="47.1462" lon="5.97589">
        <ele>383.4</ele>
        <time>2024-04-14T07:26:54Z</time>
      </trkpt>
      <trkpt lat="47.14604" lon="5.9756">
        <ele>384</ele>
        <time>2024-04-14T07:27:00Z</time>
      </trkpt>
      <trkpt lat="47.1458" lon="5.97521">
        <ele>383.8</ele>
        <time>2024-04-14T07:27:08Z</time>
      </trkpt>
      <trkpt lat="47.14577" lon="5.97516">
        <ele>383.8</ele>
        <time>2024-04-14T07:27:09Z</time>
      </trkpt>
      <trkpt lat="47.14571" lon="5.97508">
        <ele>383.8</ele>
        <time>2024-04-14T07:27:11Z</time>
      </trkpt>
      <trkpt lat="47.1456" lon="5.97497">
        <ele>383.4</ele>
        <time>2024-04-14T07:27:14Z</time>
      </trkpt>
      <trkpt lat="47.14556" lon="5.97494">
        <ele>383.2</ele>
        <time>2024-04-14T07:27:15Z</time>
      </trkpt>
      <trkpt lat="47.14548" lon="5.97491">
        <ele>382.8</ele>
        <time>2024-04-14T07:27:17Z</time>
      </trkpt>
      <trkpt lat="47.1453" lon="5.97485">
        <ele>382.4</ele>
        <time>2024-04-14T07:27:21Z</time>
      </trkpt>
      <trkpt lat="47.14506" lon="5.97481">
        <ele>381.6</ele>
        <time>2024-04-14T07:27:27Z</time>
      </trkpt>
      <trkpt lat="47.1449" lon="5.97479">
        <ele>381.4</ele>
        <time>2024-04-14T07:27:31Z</time>
      </trkpt>
      <trkpt lat="47.14473" lon="5.97475">
        <ele>380</ele>
        <time>2024-04-14T07:27:35Z</time>
      </trkpt>
      <trkpt lat="47.14463" lon="5.97462">
        <ele>379.4</ele>
        <time>2024-04-14T07:27:38Z</time>
      </trkpt>
      <trkpt lat="47.14462" lon="5.9745">
        <ele>379.2</ele>
        <time>2024-04-14T07:27:40Z</time>
      </trkpt>
      <trkpt lat="47.14459" lon="5.97429">
        <ele>379.2</ele>
        <time>2024-04-14T07:27:43Z</time>
      </trkpt>
      <trkpt lat="47.14458" lon="5.97417">
        <ele>379</ele>
        <time>2024-04-14T07:27:45Z</time>
      </trkpt>
      <trkpt lat="47.14458" lon="5.97405">
        <ele>378.8</ele>
        <time>2024-04-14T07:27:47Z</time>
      </trkpt>
      <trkpt lat="47.14458" lon="5.97392">
        <ele>378.6</ele>
        <time>2024-04-14T07:27:49Z</time>
      </trkpt>
      <trkpt lat="47.14459" lon="5.97375">
        <ele>378.6</ele>
        <time>2024-04-14T07:27:52Z</time>
      </trkpt>
      <trkpt lat="47.14463" lon="5.97354">
        <ele>378.2</ele>
        <time>2024-04-14T07:27:55Z</time>
      </trkpt>
      <trkpt lat="47.14469" lon="5.97344">
        <ele>378</ele>
        <time>2024-04-14T07:27:57Z</time>
      </trkpt>
      <trkpt lat="47.14476" lon="5.97338">
        <ele>378</ele>
        <time>2024-04-14T07:27:59Z</time>
      </trkpt>
      <trkpt lat="47.1448" lon="5.97335">
        <ele>378.2</ele>
        <time>2024-04-14T07:28:00Z</time>
      </trkpt>
      <trkpt lat="47.14489" lon="5.97328">
        <ele>379.4</ele>
        <time>2024-04-14T07:28:03Z</time>
      </trkpt>
      <trkpt lat="47.14495" lon="5.97321">
        <ele>380.2</ele>
        <time>2024-04-14T07:28:05Z</time>
      </trkpt>
      <trkpt lat="47.14505" lon="5.97309">
        <ele>380.4</ele>
        <time>2024-04-14T07:28:08Z</time>
      </trkpt>
      <trkpt lat="47.14516" lon="5.97294">
        <ele>380.6</ele>
        <time>2024-04-14T07:28:11Z</time>
      </trkpt>
      <trkpt lat="47.14521" lon="5.9729">
        <ele>380.6</ele>
        <time>2024-04-14T07:28:12Z</time>
      </trkpt>
      <trkpt lat="47.14533" lon="5.9728">
        <ele>381.8</ele>
        <time>2024-04-14T07:28:15Z</time>
      </trkpt>
      <trkpt lat="47.14537" lon="5.97277">
        <ele>382.2</ele>
        <time>2024-04-14T07:28:16Z</time>
      </trkpt>
      <trkpt lat="47.14541" lon="5.97275">
        <ele>382.6</ele>
        <time>2024-04-14T07:28:17Z</time>
      </trkpt>
      <trkpt lat="47.14545" lon="5.97273">
        <ele>382.8</ele>
        <time>2024-04-14T07:28:18Z</time>
      </trkpt>
      <trkpt lat="47.1455" lon="5.97272">
        <ele>383</ele>
        <time>2024-04-14T07:28:19Z</time>
      </trkpt>
      <trkpt lat="47.14562" lon="5.97271">
        <ele>383.8</ele>
        <time>2024-04-14T07:28:22Z</time>
      </trkpt>
      <trkpt lat="47.14566" lon="5.9727">
        <ele>384.4</ele>
        <time>2024-04-14T07:28:23Z</time>
      </trkpt>
      <trkpt lat="47.14577" lon="5.97272">
        <ele>385.6</ele>
        <time>2024-04-14T07:28:26Z</time>
      </trkpt>
      <trkpt lat="47.1458" lon="5.97273">
        <ele>386</ele>
        <time>2024-04-14T07:28:27Z</time>
      </trkpt>
      <trkpt lat="47.14593" lon="5.97278">
        <ele>386.8</ele>
        <time>2024-04-14T07:28:31Z</time>
      </trkpt>
      <trkpt lat="47.14602" lon="5.97285">
        <ele>388.2</ele>
        <time>2024-04-14T07:28:34Z</time>
      </trkpt>
      <trkpt lat="47.14605" lon="5.97287">
        <ele>388.8</ele>
        <time>2024-04-14T07:28:35Z</time>
      </trkpt>
      <trkpt lat="47.14607" lon="5.9729">
        <ele>389.4</ele>
        <time>2024-04-14T07:28:36Z</time>
      </trkpt>
      <trkpt lat="47.14616" lon="5.97301">
        <ele>390.6</ele>
        <time>2024-04-14T07:28:40Z</time>
      </trkpt>
      <trkpt lat="47.14626" lon="5.97313">
        <ele>391.8</ele>
        <time>2024-04-14T07:28:44Z</time>
      </trkpt>
      <trkpt lat="47.14634" lon="5.9732">
        <ele>393.2</ele>
        <time>2024-04-14T07:28:47Z</time>
      </trkpt>
      <trkpt lat="47.14644" lon="5.97327">
        <ele>394.4</ele>
        <time>2024-04-14T07:28:51Z</time>
      </trkpt>
      <trkpt lat="47.14657" lon="5.97336">
        <ele>396</ele>
        <time>2024-04-14T07:28:56Z</time>
      </trkpt>
      <trkpt lat="47.14664" lon="5.97341">
        <ele>397</ele>
        <time>2024-04-14T07:28:59Z</time>
      </trkpt>
      <trkpt lat="47.14667" lon="5.97342">
        <ele>397.2</ele>
        <time>2024-04-14T07:29:00Z</time>
      </trkpt>
      <trkpt lat="47.1468" lon="5.97353">
        <ele>398.2</ele>
        <time>2024-04-14T07:29:06Z</time>
      </trkpt>
      <trkpt lat="47.14685" lon="5.97357">
        <ele>398.8</ele>
        <time>2024-04-14T07:29:08Z</time>
      </trkpt>
      <trkpt lat="47.14687" lon="5.97359">
        <ele>399.2</ele>
        <time>2024-04-14T07:29:09Z</time>
      </trkpt>
      <trkpt lat="47.14698" lon="5.9737">
        <ele>400.2</ele>
        <time>2024-04-14T07:29:14Z</time>
      </trkpt>
      <trkpt lat="47.14703" lon="5.97374">
        <ele>400.4</ele>
        <time>2024-04-14T07:29:16Z</time>
      </trkpt>
      <trkpt lat="47.14712" lon="5.97384">
        <ele>401.2</ele>
        <time>2024-04-14T07:29:20Z</time>
      </trkpt>
      <trkpt lat="47.14727" lon="5.97399">
        <ele>402</ele>
        <time>2024-04-14T07:29:26Z</time>
      </trkpt>
      <trkpt lat="47.14733" lon="5.97406">
        <ele>402.4</ele>
        <time>2024-04-14T07:29:28Z</time>
      </trkpt>
      <trkpt lat="47.14747" lon="5.97421">
        <ele>403</ele>
        <time>2024-04-14T07:29:33Z</time>
      </trkpt>
      <trkpt lat="47.14772" lon="5.97436">
        <ele>403.2</ele>
        <time>2024-04-14T07:29:40Z</time>
      </trkpt>
      <trkpt lat="47.14782" lon="5.9744">
        <ele>403.4</ele>
        <time>2024-04-14T07:29:43Z</time>
      </trkpt>
      <trkpt lat="47.14799" lon="5.97443">
        <ele>403.8</ele>
        <time>2024-04-14T07:29:48Z</time>
      </trkpt>
      <trkpt lat="47.14823" lon="5.97454">
        <ele>404.2</ele>
        <time>2024-04-14T07:29:55Z</time>
      </trkpt>
      <trkpt lat="47.1483" lon="5.97459">
        <ele>404.6</ele>
        <time>2024-04-14T07:29:57Z</time>
      </trkpt>
      <trkpt lat="47.14855" lon="5.97472">
        <ele>404.8</ele>
        <time>2024-04-14T07:30:04Z</time>
      </trkpt>
      <trkpt lat="47.14875" lon="5.97478">
        <ele>405</ele>
        <time>2024-04-14T07:30:09Z</time>
      </trkpt>
      <trkpt lat="47.14883" lon="5.97483">
        <ele>404.8</ele>
        <time>2024-04-14T07:30:11Z</time>
      </trkpt>
      <trkpt lat="47.14903" lon="5.97496">
        <ele>404.6</ele>
        <time>2024-04-14T07:30:16Z</time>
      </trkpt>
      <trkpt lat="47.14928" lon="5.97507">
        <ele>403.6</ele>
        <time>2024-04-14T07:30:22Z</time>
      </trkpt>
      <trkpt lat="47.14933" lon="5.97509">
        <ele>403.4</ele>
        <time>2024-04-14T07:30:23Z</time>
      </trkpt>
      <trkpt lat="47.14948" lon="5.97515">
        <ele>402.2</ele>
        <time>2024-04-14T07:30:26Z</time>
      </trkpt>
      <trkpt lat="47.14959" lon="5.97521">
        <ele>401.4</ele>
        <time>2024-04-14T07:30:28Z</time>
      </trkpt>
      <trkpt lat="47.14965" lon="5.97523">
        <ele>401</ele>
        <time>2024-04-14T07:30:29Z</time>
      </trkpt>
      <trkpt lat="47.14977" lon="5.97527">
        <ele>400.2</ele>
        <time>2024-04-14T07:30:31Z</time>
      </trkpt>
      <trkpt lat="47.14983" lon="5.97528">
        <ele>399.6</ele>
        <time>2024-04-14T07:30:32Z</time>
      </trkpt>
      <trkpt lat="47.1499" lon="5.97529">
        <ele>399</ele>
        <time>2024-04-14T07:30:33Z</time>
      </trkpt>
      <trkpt lat="47.14997" lon="5.9753">
        <ele>398.4</ele>
        <time>2024-04-14T07:30:34Z</time>
      </trkpt>
      <trkpt lat="47.15011" lon="5.97529">
        <ele>397.2</ele>
        <time>2024-04-14T07:30:36Z</time>
      </trkpt>
      <trkpt lat="47.15017" lon="5.97528">
        <ele>396.6</ele>
        <time>2024-04-14T07:30:37Z</time>
      </trkpt>
      <trkpt lat="47.15021" lon="5.97526">
        <ele>396</ele>
        <time>2024-04-14T07:30:38Z</time>
      </trkpt>
      <trkpt lat="47.15028" lon="5.97523">
        <ele>395</ele>
        <time>2024-04-14T07:30:40Z</time>
      </trkpt>
      <trkpt lat="47.15031" lon="5.97521">
        <ele>394.8</ele>
        <time>2024-04-14T07:30:41Z</time>
      </trkpt>
      <trkpt lat="47.15034" lon="5.97519">
        <ele>394.4</ele>
        <time>2024-04-14T07:30:42Z</time>
      </trkpt>
      <trkpt lat="47.1504" lon="5.97516">
        <ele>393.6</ele>
        <time>2024-04-14T07:30:44Z</time>
      </trkpt>
      <trkpt lat="47.15046" lon="5.97509">
        <ele>393</ele>
        <time>2024-04-14T07:30:46Z</time>
      </trkpt>
      <trkpt lat="47.15055" lon="5.97502">
        <ele>392.6</ele>
        <time>2024-04-14T07:30:48Z</time>
      </trkpt>
      <trkpt lat="47.15066" lon="5.97495">
        <ele>392.4</ele>
        <time>2024-04-14T07:30:50Z</time>
      </trkpt>
      <trkpt lat="47.15077" lon="5.97487">
        <ele>392.2</ele>
        <time>2024-04-14T07:30:52Z</time>
      </trkpt>
      <trkpt lat="47.15083" lon="5.97475">
        <ele>392</ele>
        <time>2024-04-14T07:30:54Z</time>
      </trkpt>
      <trkpt lat="47.15088" lon="5.9746">
        <ele>391.6</ele>
        <time>2024-04-14T07:30:56Z</time>
      </trkpt>
      <trkpt lat="47.15092" lon="5.97445">
        <ele>391.2</ele>
        <time>2024-04-14T07:30:58Z</time>
      </trkpt>
      <trkpt lat="47.15094" lon="5.97437">
        <ele>391</ele>
        <time>2024-04-14T07:30:59Z</time>
      </trkpt>
      <trkpt lat="47.15097" lon="5.9742">
        <ele>390.6</ele>
        <time>2024-04-14T07:31:02Z</time>
      </trkpt>
      <trkpt lat="47.15098" lon="5.97415">
        <ele>390.4</ele>
        <time>2024-04-14T07:31:03Z</time>
      </trkpt>
      <trkpt lat="47.15101" lon="5.97389">
        <ele>389.8</ele>
        <time>2024-04-14T07:31:08Z</time>
      </trkpt>
      <trkpt lat="47.15104" lon="5.97377">
        <ele>389.4</ele>
        <time>2024-04-14T07:31:10Z</time>
      </trkpt>
      <trkpt lat="47.15109" lon="5.97361">
        <ele>389</ele>
        <time>2024-04-14T07:31:13Z</time>
      </trkpt>
      <trkpt lat="47.15118" lon="5.97329">
        <ele>388.8</ele>
        <time>2024-04-14T07:31:19Z</time>
      </trkpt>
      <trkpt lat="47.15125" lon="5.97302">
        <ele>389.6</ele>
        <time>2024-04-14T07:31:24Z</time>
      </trkpt>
      <trkpt lat="47.15132" lon="5.97268">
        <ele>390.4</ele>
        <time>2024-04-14T07:31:30Z</time>
      </trkpt>
      <trkpt lat="47.15135" lon="5.9724">
        <ele>390.8</ele>
        <time>2024-04-14T07:31:36Z</time>
      </trkpt>
      <trkpt lat="47.15135" lon="5.97227">
        <ele>391.8</ele>
        <time>2024-04-14T07:31:39Z</time>
      </trkpt>
      <trkpt lat="47.15134" lon="5.97215">
        <ele>392.2</ele>
        <time>2024-04-14T07:31:42Z</time>
      </trkpt>
      <trkpt lat="47.15134" lon="5.97192">
        <ele>392.4</ele>
        <time>2024-04-14T07:31:46Z</time>
      </trkpt>
      <trkpt lat="47.15131" lon="5.97184">
        <ele>392.2</ele>
        <time>2024-04-14T07:31:47Z</time>
      </trkpt>
      <trkpt lat="47.15114" lon="5.97153">
        <ele>390.6</ele>
        <time>2024-04-14T07:31:51Z</time>
      </trkpt>
      <trkpt lat="47.15109" lon="5.97144">
        <ele>390</ele>
        <time>2024-04-14T07:31:52Z</time>
      </trkpt>
      <trkpt lat="47.15104" lon="5.97134">
        <ele>389.4</ele>
        <time>2024-04-14T07:31:53Z</time>
      </trkpt>
      <trkpt lat="47.15096" lon="5.97113">
        <ele>388.2</ele>
        <time>2024-04-14T07:31:55Z</time>
      </trkpt>
      <trkpt lat="47.15088" lon="5.9709">
        <ele>386.8</ele>
        <time>2024-04-14T07:31:57Z</time>
      </trkpt>
      <trkpt lat="47.15082" lon="5.97064">
        <ele>385.4</ele>
        <time>2024-04-14T07:31:59Z</time>
      </trkpt>
      <trkpt lat="47.15079" lon="5.97051">
        <ele>384.8</ele>
        <time>2024-04-14T07:32:00Z</time>
      </trkpt>
      <trkpt lat="47.15076" lon="5.97038">
        <ele>384.2</ele>
        <time>2024-04-14T07:32:01Z</time>
      </trkpt>
      <trkpt lat="47.15073" lon="5.97017">
        <ele>383.2</ele>
        <time>2024-04-14T07:32:03Z</time>
      </trkpt>
      <trkpt lat="47.15071" lon="5.97005">
        <ele>382.2</ele>
        <time>2024-04-14T07:32:05Z</time>
      </trkpt>
      <trkpt lat="47.15069" lon="5.97002">
        <ele>381.6</ele>
        <time>2024-04-14T07:32:06Z</time>
      </trkpt>
      <trkpt lat="47.15066" lon="5.97">
        <ele>381</ele>
        <time>2024-04-14T07:32:07Z</time>
      </trkpt>
      <trkpt lat="47.15058" lon="5.96994">
        <ele>379.8</ele>
        <time>2024-04-14T07:32:10Z</time>
      </trkpt>
      <trkpt lat="47.15055" lon="5.96991">
        <ele>379.6</ele>
        <time>2024-04-14T07:32:11Z</time>
      </trkpt>
      <trkpt lat="47.1505" lon="5.96985">
        <ele>378.8</ele>
        <time>2024-04-14T07:32:13Z</time>
      </trkpt>
      <trkpt lat="47.15043" lon="5.96982">
        <ele>377.8</ele>
        <time>2024-04-14T07:32:15Z</time>
      </trkpt>
      <trkpt lat="47.1504" lon="5.96981">
        <ele>377.6</ele>
        <time>2024-04-14T07:32:16Z</time>
      </trkpt>
      <trkpt lat="47.15028" lon="5.96978">
        <ele>376.6</ele>
        <time>2024-04-14T07:32:21Z</time>
      </trkpt>
      <trkpt lat="47.15014" lon="5.96974">
        <ele>375.8</ele>
        <time>2024-04-14T07:32:27Z</time>
      </trkpt>
      <trkpt lat="47.15003" lon="5.96969">
        <ele>375.8</ele>
        <time>2024-04-14T07:32:33Z</time>
      </trkpt>
      <trkpt lat="47.14998" lon="5.96969">
        <ele>375.6</ele>
        <time>2024-04-14T07:32:36Z</time>
      </trkpt>
      <trkpt lat="47.14993" lon="5.96968">
        <ele>375.2</ele>
        <time>2024-04-14T07:32:38Z</time>
      </trkpt>
      <trkpt lat="47.1499" lon="5.96968">
        <ele>374.8</ele>
        <time>2024-04-14T07:32:39Z</time>
      </trkpt>
      <trkpt lat="47.14983" lon="5.96967">
        <ele>374.4</ele>
        <time>2024-04-14T07:32:42Z</time>
      </trkpt>
      <trkpt lat="47.14977" lon="5.96964">
        <ele>374.6</ele>
        <time>2024-04-14T07:32:45Z</time>
      </trkpt>
      <trkpt lat="47.14974" lon="5.9696">
        <ele>374.6</ele>
        <time>2024-04-14T07:32:47Z</time>
      </trkpt>
      <trkpt lat="47.14968" lon="5.96952">
        <ele>375.2</ele>
        <time>2024-04-14T07:32:51Z</time>
      </trkpt>
      <trkpt lat="47.14964" lon="5.9695">
        <ele>375.8</ele>
        <time>2024-04-14T07:32:53Z</time>
      </trkpt>
      <trkpt lat="47.14962" lon="5.9695">
        <ele>376.6</ele>
        <time>2024-04-14T07:32:55Z</time>
      </trkpt>
      <trkpt lat="47.1496" lon="5.96949">
        <ele>377</ele>
        <time>2024-04-14T07:32:56Z</time>
      </trkpt>
      <trkpt lat="47.14952" lon="5.9694">
        <ele>378</ele>
        <time>2024-04-14T07:33:02Z</time>
      </trkpt>
      <trkpt lat="47.14947" lon="5.96932">
        <ele>379.2</ele>
        <time>2024-04-14T07:33:06Z</time>
      </trkpt>
      <trkpt lat="47.14943" lon="5.96926">
        <ele>380.6</ele>
        <time>2024-04-14T07:33:08Z</time>
      </trkpt>
      <trkpt lat="47.14941" lon="5.96924">
        <ele>381</ele>
        <time>2024-04-14T07:33:09Z</time>
      </trkpt>
      <trkpt lat="47.14939" lon="5.96922">
        <ele>382</ele>
        <time>2024-04-14T07:33:10Z</time>
      </trkpt>
      <trkpt lat="47.14938" lon="5.9692">
        <ele>383.4</ele>
        <time>2024-04-14T07:33:11Z</time>
      </trkpt>
      <trkpt lat="47.14935" lon="5.96917">
        <ele>385.4</ele>
        <time>2024-04-14T07:33:12Z</time>
      </trkpt>
      <trkpt lat="47.14933" lon="5.96913">
        <ele>387</ele>
        <time>2024-04-14T07:33:13Z</time>
      </trkpt>
      <trkpt lat="47.14931" lon="5.9691">
        <ele>388.6</ele>
        <time>2024-04-14T07:33:14Z</time>
      </trkpt>
      <trkpt lat="47.14929" lon="5.96907">
        <ele>389.6</ele>
        <time>2024-04-14T07:33:15Z</time>
      </trkpt>
      <trkpt lat="47.14927" lon="5.96906">
        <ele>390.6</ele>
        <time>2024-04-14T07:33:16Z</time>
      </trkpt>
      <trkpt lat="47.14925" lon="5.96904">
        <ele>391.8</ele>
        <time>2024-04-14T07:33:18Z</time>
      </trkpt>
      <trkpt lat="47.14923" lon="5.969">
        <ele>393.4</ele>
        <time>2024-04-14T07:33:20Z</time>
      </trkpt>
      <trkpt lat="47.1492" lon="5.96897">
        <ele>394.4</ele>
        <time>2024-04-14T07:33:23Z</time>
      </trkpt>
      <trkpt lat="47.14918" lon="5.96894">
        <ele>395.4</ele>
        <time>2024-04-14T07:33:25Z</time>
      </trkpt>
      <trkpt lat="47.14917" lon="5.96893">
        <ele>395.6</ele>
        <time>2024-04-14T07:33:26Z</time>
      </trkpt>
      <trkpt lat="47.14913" lon="5.96899">
        <ele>397.6</ele>
        <time>2024-04-14T07:38:07Z</time>
      </trkpt>
      <trkpt lat="47.14913" lon="5.96901">
        <ele>397.6</ele>
        <time>2024-04-14T07:38:08Z</time>
      </trkpt>
      <trkpt lat="47.14912" lon="5.96911">
        <ele>396.8</ele>
        <time>2024-04-14T07:38:14Z</time>
      </trkpt>
      <trkpt lat="47.14912" lon="5.96913">
        <ele>396.6</ele>
        <time>2024-04-14T07:38:15Z</time>
      </trkpt>
      <trkpt lat="47.14912" lon="5.96915">
        <ele>396.4</ele>
        <time>2024-04-14T07:38:16Z</time>
      </trkpt>
      <trkpt lat="47.14908" lon="5.96925">
        <ele>395.6</ele>
        <time>2024-04-14T07:38:21Z</time>
      </trkpt>
      <trkpt lat="47.14902" lon="5.96935">
        <ele>395.2</ele>
        <time>2024-04-14T07:38:27Z</time>
      </trkpt>
      <trkpt lat="47.14902" lon="5.96937">
        <ele>395.2</ele>
        <time>2024-04-14T07:38:28Z</time>
      </trkpt>
      <trkpt lat="47.14901" lon="5.96946">
        <ele>395.2</ele>
        <time>2024-04-14T07:38:33Z</time>
      </trkpt>
      <trkpt lat="47.14902" lon="5.96948">
        <ele>395.2</ele>
        <time>2024-04-14T07:38:34Z</time>
      </trkpt>
      <trkpt lat="47.14902" lon="5.96964">
        <ele>396</ele>
        <time>2024-04-14T07:38:40Z</time>
      </trkpt>
      <trkpt lat="47.14897" lon="5.96978">
        <ele>396</ele>
        <time>2024-04-14T07:38:46Z</time>
      </trkpt>
      <trkpt lat="47.14882" lon="5.96991">
        <ele>395.4</ele>
        <time>2024-04-14T07:38:53Z</time>
      </trkpt>
      <trkpt lat="47.14863" lon="5.97004">
        <ele>394.8</ele>
        <time>2024-04-14T07:38:57Z</time>
      </trkpt>
      <trkpt lat="47.14853" lon="5.97013">
        <ele>394.6</ele>
        <time>2024-04-14T07:38:59Z</time>
      </trkpt>
      <trkpt lat="47.14844" lon="5.9702">
        <ele>394.6</ele>
        <time>2024-04-14T07:39:02Z</time>
      </trkpt>
      <trkpt lat="47.14843" lon="5.97019">
        <ele>395.2</ele>
        <time>2024-04-14T07:39:03Z</time>
      </trkpt>
      <trkpt lat="47.14842" lon="5.97014">
        <ele>395.4</ele>
        <time>2024-04-14T07:39:05Z</time>
      </trkpt>
      <trkpt lat="47.14842" lon="5.9701">
        <ele>395.8</ele>
        <time>2024-04-14T07:39:06Z</time>
      </trkpt>
      <trkpt lat="47.14842" lon="5.96989">
        <ele>396.6</ele>
        <time>2024-04-14T07:39:11Z</time>
      </trkpt>
      <trkpt lat="47.14835" lon="5.96975">
        <ele>396.4</ele>
        <time>2024-04-14T07:39:15Z</time>
      </trkpt>
      <trkpt lat="47.14815" lon="5.96955">
        <ele>395.2</ele>
        <time>2024-04-14T07:39:21Z</time>
      </trkpt>
      <trkpt lat="47.14808" lon="5.9695">
        <ele>394.8</ele>
        <time>2024-04-14T07:39:23Z</time>
      </trkpt>
      <trkpt lat="47.14804" lon="5.96948">
        <ele>394.6</ele>
        <time>2024-04-14T07:39:24Z</time>
      </trkpt>
      <trkpt lat="47.14796" lon="5.96943">
        <ele>394</ele>
        <time>2024-04-14T07:39:26Z</time>
      </trkpt>
      <trkpt lat="47.14786" lon="5.96938">
        <ele>393.6</ele>
        <time>2024-04-14T07:39:28Z</time>
      </trkpt>
      <trkpt lat="47.14781" lon="5.96935">
        <ele>393.4</ele>
        <time>2024-04-14T07:39:29Z</time>
      </trkpt>
      <trkpt lat="47.14771" lon="5.96925">
        <ele>392.4</ele>
        <time>2024-04-14T07:39:32Z</time>
      </trkpt>
      <trkpt lat="47.14762" lon="5.96916">
        <ele>391</ele>
        <time>2024-04-14T07:39:35Z</time>
      </trkpt>
      <trkpt lat="47.14758" lon="5.96909">
        <ele>390.2</ele>
        <time>2024-04-14T07:39:37Z</time>
      </trkpt>
      <trkpt lat="47.14756" lon="5.96905">
        <ele>389.8</ele>
        <time>2024-04-14T07:39:38Z</time>
      </trkpt>
      <trkpt lat="47.14753" lon="5.96895">
        <ele>388.6</ele>
        <time>2024-04-14T07:39:41Z</time>
      </trkpt>
      <trkpt lat="47.14752" lon="5.9689">
        <ele>387.8</ele>
        <time>2024-04-14T07:39:42Z</time>
      </trkpt>
      <trkpt lat="47.14751" lon="5.96887">
        <ele>387.2</ele>
        <time>2024-04-14T07:39:43Z</time>
      </trkpt>
      <trkpt lat="47.14749" lon="5.96877">
        <ele>386.2</ele>
        <time>2024-04-14T07:39:45Z</time>
      </trkpt>
      <trkpt lat="47.14746" lon="5.96871">
        <ele>385.4</ele>
        <time>2024-04-14T07:39:47Z</time>
      </trkpt>
      <trkpt lat="47.14744" lon="5.96867">
        <ele>384.8</ele>
        <time>2024-04-14T07:39:48Z</time>
      </trkpt>
      <trkpt lat="47.14738" lon="5.96857">
        <ele>383.8</ele>
        <time>2024-04-14T07:39:51Z</time>
      </trkpt>
      <trkpt lat="47.14733" lon="5.96851">
        <ele>382.6</ele>
        <time>2024-04-14T07:39:53Z</time>
      </trkpt>
      <trkpt lat="47.14728" lon="5.96846">
        <ele>381.6</ele>
        <time>2024-04-14T07:39:55Z</time>
      </trkpt>
      <trkpt lat="47.14725" lon="5.96844">
        <ele>380.8</ele>
        <time>2024-04-14T07:39:56Z</time>
      </trkpt>
      <trkpt lat="47.14718" lon="5.9684">
        <ele>379.8</ele>
        <time>2024-04-14T07:39:58Z</time>
      </trkpt>
      <trkpt lat="47.14709" lon="5.96835">
        <ele>378.4</ele>
        <time>2024-04-14T07:40:00Z</time>
      </trkpt>
      <trkpt lat="47.14701" lon="5.9683">
        <ele>376.8</ele>
        <time>2024-04-14T07:40:02Z</time>
      </trkpt>
      <trkpt lat="47.14697" lon="5.96826">
        <ele>376</ele>
        <time>2024-04-14T07:40:03Z</time>
      </trkpt>
      <trkpt lat="47.14693" lon="5.96823">
        <ele>375.4</ele>
        <time>2024-04-14T07:40:04Z</time>
      </trkpt>
      <trkpt lat="47.14686" lon="5.96816">
        <ele>374.2</ele>
        <time>2024-04-14T07:40:06Z</time>
      </trkpt>
      <trkpt lat="47.14679" lon="5.9681">
        <ele>373.2</ele>
        <time>2024-04-14T07:40:08Z</time>
      </trkpt>
      <trkpt lat="47.14676" lon="5.96806">
        <ele>372.6</ele>
        <time>2024-04-14T07:40:09Z</time>
      </trkpt>
      <trkpt lat="47.14666" lon="5.96793">
        <ele>371.8</ele>
        <time>2024-04-14T07:40:12Z</time>
      </trkpt>
      <trkpt lat="47.14656" lon="5.96784">
        <ele>370.6</ele>
        <time>2024-04-14T07:40:15Z</time>
      </trkpt>
      <trkpt lat="47.14648" lon="5.96779">
        <ele>369.4</ele>
        <time>2024-04-14T07:40:17Z</time>
      </trkpt>
      <trkpt lat="47.1464" lon="5.96774">
        <ele>368</ele>
        <time>2024-04-14T07:40:20Z</time>
      </trkpt>
      <trkpt lat="47.14637" lon="5.96772">
        <ele>367.4</ele>
        <time>2024-04-14T07:40:21Z</time>
      </trkpt>
      <trkpt lat="47.14635" lon="5.9677">
        <ele>367</ele>
        <time>2024-04-14T07:40:22Z</time>
      </trkpt>
      <trkpt lat="47.14628" lon="5.96765">
        <ele>365.6</ele>
        <time>2024-04-14T07:40:25Z</time>
      </trkpt>
      <trkpt lat="47.14626" lon="5.96763">
        <ele>365.4</ele>
        <time>2024-04-14T07:40:26Z</time>
      </trkpt>
      <trkpt lat="47.14622" lon="5.96757">
        <ele>364.6</ele>
        <time>2024-04-14T07:40:29Z</time>
      </trkpt>
      <trkpt lat="47.14615" lon="5.9675">
        <ele>364</ele>
        <time>2024-04-14T07:40:32Z</time>
      </trkpt>
      <trkpt lat="47.14603" lon="5.96733">
        <ele>363.6</ele>
        <time>2024-04-14T07:40:38Z</time>
      </trkpt>
      <trkpt lat="47.14598" lon="5.96725">
        <ele>363.4</ele>
        <time>2024-04-14T07:40:41Z</time>
      </trkpt>
      <trkpt lat="47.1459" lon="5.96714">
        <ele>363.2</ele>
        <time>2024-04-14T07:40:45Z</time>
      </trkpt>
      <trkpt lat="47.14574" lon="5.96694">
        <ele>363</ele>
        <time>2024-04-14T07:40:52Z</time>
      </trkpt>
      <trkpt lat="47.14561" lon="5.96681">
        <ele>362.4</ele>
        <time>2024-04-14T07:40:56Z</time>
      </trkpt>
      <trkpt lat="47.14542" lon="5.96661">
        <ele>361.2</ele>
        <time>2024-04-14T07:41:01Z</time>
      </trkpt>
      <trkpt lat="47.14538" lon="5.96657">
        <ele>361</ele>
        <time>2024-04-14T07:41:02Z</time>
      </trkpt>
      <trkpt lat="47.14521" lon="5.96643">
        <ele>360.2</ele>
        <time>2024-04-14T07:41:07Z</time>
      </trkpt>
      <trkpt lat="47.14517" lon="5.9664">
        <ele>360.2</ele>
        <time>2024-04-14T07:41:08Z</time>
      </trkpt>
      <trkpt lat="47.14509" lon="5.96632">
        <ele>359</ele>
        <time>2024-04-14T07:41:11Z</time>
      </trkpt>
      <trkpt lat="47.14505" lon="5.96627">
        <ele>358.6</ele>
        <time>2024-04-14T07:41:13Z</time>
      </trkpt>
      <trkpt lat="47.14503" lon="5.96623">
        <ele>358</ele>
        <time>2024-04-14T07:41:15Z</time>
      </trkpt>
      <trkpt lat="47.14502" lon="5.96619">
        <ele>358</ele>
        <time>2024-04-14T07:41:17Z</time>
      </trkpt>
      <trkpt lat="47.14497" lon="5.96602">
        <ele>358.4</ele>
        <time>2024-04-14T07:41:22Z</time>
      </trkpt>
      <trkpt lat="47.14492" lon="5.9659">
        <ele>358</ele>
        <time>2024-04-14T07:41:27Z</time>
      </trkpt>
      <trkpt lat="47.14482" lon="5.96575">
        <ele>357</ele>
        <time>2024-04-14T07:41:32Z</time>
      </trkpt>
      <trkpt lat="47.1448" lon="5.96571">
        <ele>356.6</ele>
        <time>2024-04-14T07:41:33Z</time>
      </trkpt>
      <trkpt lat="47.1447" lon="5.96553">
        <ele>355.4</ele>
        <time>2024-04-14T07:41:38Z</time>
      </trkpt>
      <trkpt lat="47.1446" lon="5.96539">
        <ele>354.4</ele>
        <time>2024-04-14T07:41:41Z</time>
      </trkpt>
      <trkpt lat="47.14452" lon="5.96526">
        <ele>353.2</ele>
        <time>2024-04-14T07:41:44Z</time>
      </trkpt>
      <trkpt lat="47.14449" lon="5.96522">
        <ele>353</ele>
        <time>2024-04-14T07:41:45Z</time>
      </trkpt>
      <trkpt lat="47.14437" lon="5.96503">
        <ele>352</ele>
        <time>2024-04-14T07:41:49Z</time>
      </trkpt>
      <trkpt lat="47.14432" lon="5.96494">
        <ele>351.6</ele>
        <time>2024-04-14T07:41:51Z</time>
      </trkpt>
      <trkpt lat="47.14422" lon="5.96479">
        <ele>350.8</ele>
        <time>2024-04-14T07:41:54Z</time>
      </trkpt>
      <trkpt lat="47.1442" lon="5.96473">
        <ele>350.6</ele>
        <time>2024-04-14T07:41:55Z</time>
      </trkpt>
      <trkpt lat="47.14413" lon="5.96458">
        <ele>349.6</ele>
        <time>2024-04-14T07:41:57Z</time>
      </trkpt>
      <trkpt lat="47.144" lon="5.96437">
        <ele>348.4</ele>
        <time>2024-04-14T07:42:00Z</time>
      </trkpt>
      <trkpt lat="47.14392" lon="5.96422">
        <ele>347.6</ele>
        <time>2024-04-14T07:42:02Z</time>
      </trkpt>
      <trkpt lat="47.14388" lon="5.96414">
        <ele>347.2</ele>
        <time>2024-04-14T07:42:03Z</time>
      </trkpt>
      <trkpt lat="47.14379" lon="5.96396">
        <ele>346.4</ele>
        <time>2024-04-14T07:42:06Z</time>
      </trkpt>
      <trkpt lat="47.14377" lon="5.9639">
        <ele>346</ele>
        <time>2024-04-14T07:42:07Z</time>
      </trkpt>
      <trkpt lat="47.14371" lon="5.96371">
        <ele>344.8</ele>
        <time>2024-04-14T07:42:10Z</time>
      </trkpt>
      <trkpt lat="47.14368" lon="5.96363">
        <ele>344.4</ele>
        <time>2024-04-14T07:42:11Z</time>
      </trkpt>
      <trkpt lat="47.1436" lon="5.96349">
        <ele>343</ele>
        <time>2024-04-14T07:42:13Z</time>
      </trkpt>
      <trkpt lat="47.14355" lon="5.96343">
        <ele>342.6</ele>
        <time>2024-04-14T07:42:14Z</time>
      </trkpt>
      <trkpt lat="47.14351" lon="5.96337">
        <ele>342.2</ele>
        <time>2024-04-14T07:42:15Z</time>
      </trkpt>
      <trkpt lat="47.14347" lon="5.96332">
        <ele>341.6</ele>
        <time>2024-04-14T07:42:16Z</time>
      </trkpt>
      <trkpt lat="47.14344" lon="5.96326">
        <ele>341.2</ele>
        <time>2024-04-14T07:42:17Z</time>
      </trkpt>
      <trkpt lat="47.14337" lon="5.96315">
        <ele>340.4</ele>
        <time>2024-04-14T07:42:19Z</time>
      </trkpt>
      <trkpt lat="47.14332" lon="5.96309">
        <ele>339.4</ele>
        <time>2024-04-14T07:42:21Z</time>
      </trkpt>
      <trkpt lat="47.14328" lon="5.96305">
        <ele>338.4</ele>
        <time>2024-04-14T07:42:23Z</time>
      </trkpt>
      <trkpt lat="47.14325" lon="5.96302">
        <ele>337.8</ele>
        <time>2024-04-14T07:42:24Z</time>
      </trkpt>
      <trkpt lat="47.14313" lon="5.96291">
        <ele>336.8</ele>
        <time>2024-04-14T07:42:28Z</time>
      </trkpt>
      <trkpt lat="47.14305" lon="5.96283">
        <ele>335.8</ele>
        <time>2024-04-14T07:42:32Z</time>
      </trkpt>
      <trkpt lat="47.14303" lon="5.96279">
        <ele>335.4</ele>
        <time>2024-04-14T07:42:33Z</time>
      </trkpt>
      <trkpt lat="47.14297" lon="5.96266">
        <ele>334.6</ele>
        <time>2024-04-14T07:42:37Z</time>
      </trkpt>
      <trkpt lat="47.14294" lon="5.96258">
        <ele>334.4</ele>
        <time>2024-04-14T07:42:39Z</time>
      </trkpt>
      <trkpt lat="47.14287" lon="5.96237">
        <ele>333.8</ele>
        <time>2024-04-14T07:42:42Z</time>
      </trkpt>
      <trkpt lat="47.14284" lon="5.96228">
        <ele>333.4</ele>
        <time>2024-04-14T07:42:43Z</time>
      </trkpt>
      <trkpt lat="47.14277" lon="5.96211">
        <ele>332.4</ele>
        <time>2024-04-14T07:42:45Z</time>
      </trkpt>
      <trkpt lat="47.14272" lon="5.96203">
        <ele>332.2</ele>
        <time>2024-04-14T07:42:46Z</time>
      </trkpt>
      <trkpt lat="47.14268" lon="5.96195">
        <ele>331.6</ele>
        <time>2024-04-14T07:42:47Z</time>
      </trkpt>
      <trkpt lat="47.14257" lon="5.9618">
        <ele>330.8</ele>
        <time>2024-04-14T07:42:49Z</time>
      </trkpt>
      <trkpt lat="47.14245" lon="5.96165">
        <ele>329.6</ele>
        <time>2024-04-14T07:42:51Z</time>
      </trkpt>
      <trkpt lat="47.14239" lon="5.96157">
        <ele>328.8</ele>
        <time>2024-04-14T07:42:52Z</time>
      </trkpt>
      <trkpt lat="47.14233" lon="5.96148">
        <ele>328</ele>
        <time>2024-04-14T07:42:53Z</time>
      </trkpt>
      <trkpt lat="47.1422" lon="5.96133">
        <ele>326.8</ele>
        <time>2024-04-14T07:42:55Z</time>
      </trkpt>
      <trkpt lat="47.14206" lon="5.96119">
        <ele>325</ele>
        <time>2024-04-14T07:42:57Z</time>
      </trkpt>
      <trkpt lat="47.142" lon="5.96113">
        <ele>324.4</ele>
        <time>2024-04-14T07:42:58Z</time>
      </trkpt>
      <trkpt lat="47.14194" lon="5.96106">
        <ele>323.6</ele>
        <time>2024-04-14T07:42:59Z</time>
      </trkpt>
      <trkpt lat="47.14186" lon="5.96101">
        <ele>323</ele>
        <time>2024-04-14T07:43:00Z</time>
      </trkpt>
      <trkpt lat="47.14178" lon="5.96096">
        <ele>322.2</ele>
        <time>2024-04-14T07:43:01Z</time>
      </trkpt>
      <trkpt lat="47.14171" lon="5.96092">
        <ele>321.4</ele>
        <time>2024-04-14T07:43:02Z</time>
      </trkpt>
      <trkpt lat="47.14163" lon="5.96089">
        <ele>320.8</ele>
        <time>2024-04-14T07:43:03Z</time>
      </trkpt>
      <trkpt lat="47.14146" lon="5.9608">
        <ele>319.4</ele>
        <time>2024-04-14T07:43:05Z</time>
      </trkpt>
      <trkpt lat="47.14129" lon="5.96068">
        <ele>317.6</ele>
        <time>2024-04-14T07:43:07Z</time>
      </trkpt>
      <trkpt lat="47.14121" lon="5.96062">
        <ele>316.6</ele>
        <time>2024-04-14T07:43:08Z</time>
      </trkpt>
      <trkpt lat="47.14113" lon="5.96058">
        <ele>315.8</ele>
        <time>2024-04-14T07:43:09Z</time>
      </trkpt>
      <trkpt lat="47.141" lon="5.96052">
        <ele>313.8</ele>
        <time>2024-04-14T07:43:11Z</time>
      </trkpt>
      <trkpt lat="47.14095" lon="5.96049">
        <ele>313</ele>
        <time>2024-04-14T07:43:12Z</time>
      </trkpt>
      <trkpt lat="47.14091" lon="5.96045">
        <ele>312.2</ele>
        <time>2024-04-14T07:43:13Z</time>
      </trkpt>
      <trkpt lat="47.14084" lon="5.96037">
        <ele>310.2</ele>
        <time>2024-04-14T07:43:15Z</time>
      </trkpt>
      <trkpt lat="47.1408" lon="5.96033">
        <ele>309.2</ele>
        <time>2024-04-14T07:43:16Z</time>
      </trkpt>
      <trkpt lat="47.14072" lon="5.96025">
        <ele>307.2</ele>
        <time>2024-04-14T07:43:18Z</time>
      </trkpt>
      <trkpt lat="47.14065" lon="5.96017">
        <ele>305.4</ele>
        <time>2024-04-14T07:43:20Z</time>
      </trkpt>
      <trkpt lat="47.14058" lon="5.96014">
        <ele>304</ele>
        <time>2024-04-14T07:43:22Z</time>
      </trkpt>
      <trkpt lat="47.14053" lon="5.96014">
        <ele>303.2</ele>
        <time>2024-04-14T07:43:23Z</time>
      </trkpt>
      <trkpt lat="47.14048" lon="5.96014">
        <ele>302.6</ele>
        <time>2024-04-14T07:43:24Z</time>
      </trkpt>
      <trkpt lat="47.14036" lon="5.96015">
        <ele>301.2</ele>
        <time>2024-04-14T07:43:26Z</time>
      </trkpt>
      <trkpt lat="47.14027" lon="5.96018">
        <ele>299.8</ele>
        <time>2024-04-14T07:43:28Z</time>
      </trkpt>
      <trkpt lat="47.14021" lon="5.96013">
        <ele>298.4</ele>
        <time>2024-04-14T07:43:30Z</time>
      </trkpt>
      <trkpt lat="47.14018" lon="5.96003">
        <ele>296.4</ele>
        <time>2024-04-14T07:43:32Z</time>
      </trkpt>
      <trkpt lat="47.14018" lon="5.95997">
        <ele>294.8</ele>
        <time>2024-04-14T07:43:33Z</time>
      </trkpt>
      <trkpt lat="47.14019" lon="5.95991">
        <ele>293.2</ele>
        <time>2024-04-14T07:43:34Z</time>
      </trkpt>
      <trkpt lat="47.14018" lon="5.95983">
        <ele>291.6</ele>
        <time>2024-04-14T07:43:35Z</time>
      </trkpt>
      <trkpt lat="47.14017" lon="5.95976">
        <ele>290.2</ele>
        <time>2024-04-14T07:43:36Z</time>
      </trkpt>
      <trkpt lat="47.14017" lon="5.9597">
        <ele>289</ele>
        <time>2024-04-14T07:43:37Z</time>
      </trkpt>
      <trkpt lat="47.14016" lon="5.95965">
        <ele>288.2</ele>
        <time>2024-04-14T07:43:38Z</time>
      </trkpt>
      <trkpt lat="47.14014" lon="5.95959">
        <ele>287.2</ele>
        <time>2024-04-14T07:43:39Z</time>
      </trkpt>
      <trkpt lat="47.14013" lon="5.95953">
        <ele>286.2</ele>
        <time>2024-04-14T07:43:40Z</time>
      </trkpt>
      <trkpt lat="47.14009" lon="5.95939">
        <ele>284.4</ele>
        <time>2024-04-14T07:43:42Z</time>
      </trkpt>
      <trkpt lat="47.14005" lon="5.95924">
        <ele>282.8</ele>
        <time>2024-04-14T07:43:44Z</time>
      </trkpt>
      <trkpt lat="47.14001" lon="5.95908">
        <ele>281.2</ele>
        <time>2024-04-14T07:43:46Z</time>
      </trkpt>
      <trkpt lat="47.13997" lon="5.95893">
        <ele>280</ele>
        <time>2024-04-14T07:43:48Z</time>
      </trkpt>
      <trkpt lat="47.13989" lon="5.95869">
        <ele>278.8</ele>
        <time>2024-04-14T07:43:51Z</time>
      </trkpt>
      <trkpt lat="47.13973" lon="5.95808">
        <ele>278</ele>
        <time>2024-04-14T07:43:59Z</time>
      </trkpt>
      <trkpt lat="47.13969" lon="5.95795">
        <ele>277.8</ele>
        <time>2024-04-14T07:44:01Z</time>
      </trkpt>
      <trkpt lat="47.13964" lon="5.95781">
        <ele>277.8</ele>
        <time>2024-04-14T07:44:04Z</time>
      </trkpt>
      <trkpt lat="47.1396" lon="5.95768">
        <ele>278.6</ele>
        <time>2024-04-14T07:44:09Z</time>
      </trkpt>
      <trkpt lat="47.13957" lon="5.95768">
        <ele>278.8</ele>
        <time>2024-04-14T07:44:13Z</time>
      </trkpt>
      <trkpt lat="47.13957" lon="5.9577">
        <ele>278.8</ele>
        <time>2024-04-14T07:44:14Z</time>
      </trkpt>
      <trkpt lat="47.13958" lon="5.95775">
        <ele>279.6</ele>
        <time>2024-04-14T07:44:19Z</time>
      </trkpt>
      <trkpt lat="47.13957" lon="5.95777">
        <ele>279.6</ele>
        <time>2024-04-14T07:44:20Z</time>
      </trkpt>
      <trkpt lat="47.13948" lon="5.95786">
        <ele>278.6</ele>
        <time>2024-04-14T07:44:26Z</time>
      </trkpt>
      <trkpt lat="47.13941" lon="5.95792">
        <ele>277.8</ele>
        <time>2024-04-14T07:44:29Z</time>
      </trkpt>
      <trkpt lat="47.13932" lon="5.95802">
        <ele>277.2</ele>
        <time>2024-04-14T07:44:32Z</time>
      </trkpt>
      <trkpt lat="47.13922" lon="5.95812">
        <ele>276.8</ele>
        <time>2024-04-14T07:44:35Z</time>
      </trkpt>
      <trkpt lat="47.13907" lon="5.95829">
        <ele>276.4</ele>
        <time>2024-04-14T07:44:40Z</time>
      </trkpt>
      <trkpt lat="47.13889" lon="5.95847">
        <ele>275.6</ele>
        <time>2024-04-14T07:44:46Z</time>
      </trkpt>
      <trkpt lat="47.13867" lon="5.95865">
        <ele>275.2</ele>
        <time>2024-04-14T07:44:51Z</time>
      </trkpt>
      <trkpt lat="47.13862" lon="5.95867">
        <ele>275.4</ele>
        <time>2024-04-14T07:44:52Z</time>
      </trkpt>
      <trkpt lat="47.13839" lon="5.95871">
        <ele>275.2</ele>
        <time>2024-04-14T07:44:57Z</time>
      </trkpt>
      <trkpt lat="47.1381" lon="5.95879">
        <ele>274.6</ele>
        <time>2024-04-14T07:45:04Z</time>
      </trkpt>
      <trkpt lat="47.13808" lon="5.95881">
        <ele>274.6</ele>
        <time>2024-04-14T07:45:05Z</time>
      </trkpt>
      <trkpt lat="47.13797" lon="5.95889">
        <ele>274.2</ele>
        <time>2024-04-14T07:45:08Z</time>
      </trkpt>
      <trkpt lat="47.13783" lon="5.95907">
        <ele>273.4</ele>
        <time>2024-04-14T07:45:13Z</time>
      </trkpt>
      <trkpt lat="47.13781" lon="5.95913">
        <ele>273.2</ele>
        <time>2024-04-14T07:45:14Z</time>
      </trkpt>
      <trkpt lat="47.13763" lon="5.95953">
        <ele>273</ele>
        <time>2024-04-14T07:45:21Z</time>
      </trkpt>
      <trkpt lat="47.13753" lon="5.95977">
        <ele>274.4</ele>
        <time>2024-04-14T07:45:25Z</time>
      </trkpt>
      <trkpt lat="47.13744" lon="5.95994">
        <ele>274.6</ele>
        <time>2024-04-14T07:45:28Z</time>
      </trkpt>
      <trkpt lat="47.13731" lon="5.96014">
        <ele>275.4</ele>
        <time>2024-04-14T07:45:32Z</time>
      </trkpt>
      <trkpt lat="47.13728" lon="5.96018">
        <ele>275.6</ele>
        <time>2024-04-14T07:45:33Z</time>
      </trkpt>
      <trkpt lat="47.13724" lon="5.96023">
        <ele>275.8</ele>
        <time>2024-04-14T07:45:34Z</time>
      </trkpt>
      <trkpt lat="47.13699" lon="5.96046">
        <ele>276.4</ele>
        <time>2024-04-14T07:45:40Z</time>
      </trkpt>
      <trkpt lat="47.13689" lon="5.96058">
        <ele>277</ele>
        <time>2024-04-14T07:45:43Z</time>
      </trkpt>
      <trkpt lat="47.13679" lon="5.96073">
        <ele>277.6</ele>
        <time>2024-04-14T07:45:46Z</time>
      </trkpt>
      <trkpt lat="47.1366" lon="5.96105">
        <ele>277.8</ele>
        <time>2024-04-14T07:45:52Z</time>
      </trkpt>
      <trkpt lat="47.13644" lon="5.96136">
        <ele>278.6</ele>
        <time>2024-04-14T07:45:58Z</time>
      </trkpt>
      <trkpt lat="47.13642" lon="5.96141">
        <ele>278.6</ele>
        <time>2024-04-14T07:45:59Z</time>
      </trkpt>
      <trkpt lat="47.13621" lon="5.96186">
        <ele>279</ele>
        <time>2024-04-14T07:46:08Z</time>
      </trkpt>
      <trkpt lat="47.136" lon="5.96223">
        <ele>278.6</ele>
        <time>2024-04-14T07:46:16Z</time>
      </trkpt>
      <trkpt lat="47.13581" lon="5.96268">
        <ele>278.8</ele>
        <time>2024-04-14T07:46:24Z</time>
      </trkpt>
      <trkpt lat="47.13555" lon="5.96316">
        <ele>279</ele>
        <time>2024-04-14T07:46:33Z</time>
      </trkpt>
      <trkpt lat="47.13528" lon="5.96351">
        <ele>279.2</ele>
        <time>2024-04-14T07:46:41Z</time>
      </trkpt>
      <trkpt lat="47.13502" lon="5.96387">
        <ele>279</ele>
        <time>2024-04-14T07:46:49Z</time>
      </trkpt>
      <trkpt lat="47.13483" lon="5.96406">
        <ele>279.2</ele>
        <time>2024-04-14T07:46:55Z</time>
      </trkpt>
      <trkpt lat="47.13461" lon="5.96429">
        <ele>279.6</ele>
        <time>2024-04-14T07:47:02Z</time>
      </trkpt>
      <trkpt lat="47.13442" lon="5.9646">
        <ele>279.6</ele>
        <time>2024-04-14T07:47:09Z</time>
      </trkpt>
      <trkpt lat="47.13436" lon="5.96475">
        <ele>279.6</ele>
        <time>2024-04-14T07:47:12Z</time>
      </trkpt>
      <trkpt lat="47.1343" lon="5.96493">
        <ele>279.6</ele>
        <time>2024-04-14T07:47:16Z</time>
      </trkpt>
      <trkpt lat="47.13417" lon="5.96534">
        <ele>280</ele>
        <time>2024-04-14T07:47:24Z</time>
      </trkpt>
      <trkpt lat="47.13405" lon="5.96551">
        <ele>280</ele>
        <time>2024-04-14T07:47:30Z</time>
      </trkpt>
      <trkpt lat="47.13397" lon="5.96579">
        <ele>280.6</ele>
        <time>2024-04-14T07:47:37Z</time>
      </trkpt>
      <trkpt lat="47.13396" lon="5.9659">
        <ele>280.8</ele>
        <time>2024-04-14T07:47:39Z</time>
      </trkpt>
      <trkpt lat="47.13393" lon="5.96605">
        <ele>280.6</ele>
        <time>2024-04-14T07:47:42Z</time>
      </trkpt>
      <trkpt lat="47.13384" lon="5.96636">
        <ele>280.6</ele>
        <time>2024-04-14T07:47:49Z</time>
      </trkpt>
      <trkpt lat="47.13387" lon="5.96651">
        <ele>280.6</ele>
        <time>2024-04-14T07:47:54Z</time>
      </trkpt>
      <trkpt lat="47.13398" lon="5.96658">
        <ele>281.8</ele>
        <time>2024-04-14T07:47:59Z</time>
      </trkpt>
      <trkpt lat="47.134" lon="5.96659">
        <ele>282.2</ele>
        <time>2024-04-14T07:48:00Z</time>
      </trkpt>
      <trkpt lat="47.1341" lon="5.96665">
        <ele>283</ele>
        <time>2024-04-14T07:48:04Z</time>
      </trkpt>
      <trkpt lat="47.13417" lon="5.96669">
        <ele>283.8</ele>
        <time>2024-04-14T07:48:07Z</time>
      </trkpt>
      <trkpt lat="47.13419" lon="5.9667">
        <ele>284</ele>
        <time>2024-04-14T07:48:08Z</time>
      </trkpt>
      <trkpt lat="47.13428" lon="5.96676">
        <ele>285.2</ele>
        <time>2024-04-14T07:48:12Z</time>
      </trkpt>
      <trkpt lat="47.1343" lon="5.96678">
        <ele>285.6</ele>
        <time>2024-04-14T07:48:13Z</time>
      </trkpt>
      <trkpt lat="47.13438" lon="5.96683">
        <ele>286.4</ele>
        <time>2024-04-14T07:48:16Z</time>
      </trkpt>
      <trkpt lat="47.1345" lon="5.9669">
        <ele>287.4</ele>
        <time>2024-04-14T07:48:20Z</time>
      </trkpt>
      <trkpt lat="47.13452" lon="5.96691">
        <ele>287.6</ele>
        <time>2024-04-14T07:48:21Z</time>
      </trkpt>
      <trkpt lat="47.13461" lon="5.96697">
        <ele>288.8</ele>
        <time>2024-04-14T07:48:25Z</time>
      </trkpt>
      <trkpt lat="47.13465" lon="5.967">
        <ele>289</ele>
        <time>2024-04-14T07:48:27Z</time>
      </trkpt>
      <trkpt lat="47.13481" lon="5.9671">
        <ele>289.8</ele>
        <time>2024-04-14T07:48:35Z</time>
      </trkpt>
      <trkpt lat="47.13484" lon="5.96711">
        <ele>289.8</ele>
        <time>2024-04-14T07:48:36Z</time>
      </trkpt>
      <trkpt lat="47.13497" lon="5.96721">
        <ele>290.4</ele>
        <time>2024-04-14T07:48:43Z</time>
      </trkpt>
      <trkpt lat="47.13501" lon="5.96723">
        <ele>291.2</ele>
        <time>2024-04-14T07:48:45Z</time>
      </trkpt>
      <trkpt lat="47.13511" lon="5.96729">
        <ele>292</ele>
        <time>2024-04-14T07:48:50Z</time>
      </trkpt>
      <trkpt lat="47.13514" lon="5.96731">
        <ele>292.2</ele>
        <time>2024-04-14T07:48:51Z</time>
      </trkpt>
      <trkpt lat="47.13523" lon="5.96737">
        <ele>293.2</ele>
        <time>2024-04-14T07:48:55Z</time>
      </trkpt>
      <trkpt lat="47.13528" lon="5.9674">
        <ele>294</ele>
        <time>2024-04-14T07:48:57Z</time>
      </trkpt>
      <trkpt lat="47.13531" lon="5.96742">
        <ele>294.4</ele>
        <time>2024-04-14T07:48:58Z</time>
      </trkpt>
      <trkpt lat="47.13537" lon="5.96743">
        <ele>295.8</ele>
        <time>2024-04-14T07:49:01Z</time>
      </trkpt>
      <trkpt lat="47.13544" lon="5.96743">
        <ele>296.4</ele>
        <time>2024-04-14T07:49:03Z</time>
      </trkpt>
      <trkpt lat="47.13553" lon="5.9674">
        <ele>297</ele>
        <time>2024-04-14T07:49:06Z</time>
      </trkpt>
      <trkpt lat="47.1356" lon="5.96735">
        <ele>297.8</ele>
        <time>2024-04-14T07:49:09Z</time>
      </trkpt>
      <trkpt lat="47.13573" lon="5.96724">
        <ele>298.2</ele>
        <time>2024-04-14T07:49:15Z</time>
      </trkpt>
      <trkpt lat="47.13576" lon="5.96723">
        <ele>299</ele>
        <time>2024-04-14T07:49:17Z</time>
      </trkpt>
      <trkpt lat="47.13577" lon="5.96723">
        <ele>299.2</ele>
        <time>2024-04-14T07:49:18Z</time>
      </trkpt>
      <trkpt lat="47.13579" lon="5.9673">
        <ele>300.2</ele>
        <time>2024-04-14T07:49:22Z</time>
      </trkpt>
      <trkpt lat="47.13571" lon="5.96746">
        <ele>300.2</ele>
        <time>2024-04-14T07:49:27Z</time>
      </trkpt>
      <trkpt lat="47.1357" lon="5.96749">
        <ele>300.6</ele>
        <time>2024-04-14T07:49:28Z</time>
      </trkpt>
      <trkpt lat="47.13556" lon="5.96771">
        <ele>300.8</ele>
        <time>2024-04-14T07:49:36Z</time>
      </trkpt>
      <trkpt lat="47.13552" lon="5.96775">
        <ele>301.6</ele>
        <time>2024-04-14T07:49:38Z</time>
      </trkpt>
      <trkpt lat="47.13543" lon="5.96783">
        <ele>302.6</ele>
        <time>2024-04-14T07:49:42Z</time>
      </trkpt>
      <trkpt lat="47.13538" lon="5.96786">
        <ele>302.6</ele>
        <time>2024-04-14T07:49:44Z</time>
      </trkpt>
      <trkpt lat="47.13519" lon="5.96799">
        <ele>303.4</ele>
        <time>2024-04-14T07:49:53Z</time>
      </trkpt>
      <trkpt lat="47.13499" lon="5.96806">
        <ele>302.8</ele>
        <time>2024-04-14T07:50:00Z</time>
      </trkpt>
      <trkpt lat="47.13477" lon="5.96799">
        <ele>301.6</ele>
        <time>2024-04-14T07:50:05Z</time>
      </trkpt>
      <trkpt lat="47.13454" lon="5.96791">
        <ele>300.4</ele>
        <time>2024-04-14T07:50:09Z</time>
      </trkpt>
      <trkpt lat="47.13441" lon="5.96786">
        <ele>299.8</ele>
        <time>2024-04-14T07:50:11Z</time>
      </trkpt>
      <trkpt lat="47.13427" lon="5.9678">
        <ele>299.2</ele>
        <time>2024-04-14T07:50:13Z</time>
      </trkpt>
      <trkpt lat="47.13403" lon="5.96774">
        <ele>298.6</ele>
        <time>2024-04-14T07:50:16Z</time>
      </trkpt>
      <trkpt lat="47.13387" lon="5.96773">
        <ele>298</ele>
        <time>2024-04-14T07:50:18Z</time>
      </trkpt>
      <trkpt lat="47.13354" lon="5.96769">
        <ele>297.2</ele>
        <time>2024-04-14T07:50:22Z</time>
      </trkpt>
      <trkpt lat="47.13345" lon="5.96768">
        <ele>297</ele>
        <time>2024-04-14T07:50:23Z</time>
      </trkpt>
      <trkpt lat="47.13309" lon="5.96766">
        <ele>296</ele>
        <time>2024-04-14T07:50:27Z</time>
      </trkpt>
      <trkpt lat="47.133" lon="5.96767">
        <ele>295.6</ele>
        <time>2024-04-14T07:50:28Z</time>
      </trkpt>
      <trkpt lat="47.13282" lon="5.9677">
        <ele>295</ele>
        <time>2024-04-14T07:50:30Z</time>
      </trkpt>
      <trkpt lat="47.13255" lon="5.96778">
        <ele>293.8</ele>
        <time>2024-04-14T07:50:33Z</time>
      </trkpt>
      <trkpt lat="47.13246" lon="5.96784">
        <ele>293.6</ele>
        <time>2024-04-14T07:50:34Z</time>
      </trkpt>
      <trkpt lat="47.13221" lon="5.96805">
        <ele>293.2</ele>
        <time>2024-04-14T07:50:37Z</time>
      </trkpt>
      <trkpt lat="47.13205" lon="5.96821">
        <ele>292.6</ele>
        <time>2024-04-14T07:50:39Z</time>
      </trkpt>
      <trkpt lat="47.13197" lon="5.9683">
        <ele>292.2</ele>
        <time>2024-04-14T07:50:40Z</time>
      </trkpt>
      <trkpt lat="47.13184" lon="5.96848">
        <ele>291.4</ele>
        <time>2024-04-14T07:50:42Z</time>
      </trkpt>
      <trkpt lat="47.13157" lon="5.9688">
        <ele>290.2</ele>
        <time>2024-04-14T07:50:46Z</time>
      </trkpt>
      <trkpt lat="47.13151" lon="5.96885">
        <ele>290</ele>
        <time>2024-04-14T07:50:47Z</time>
      </trkpt>
      <trkpt lat="47.13131" lon="5.96898">
        <ele>289.2</ele>
        <time>2024-04-14T07:50:50Z</time>
      </trkpt>
      <trkpt lat="47.1311" lon="5.96908">
        <ele>287.8</ele>
        <time>2024-04-14T07:50:53Z</time>
      </trkpt>
      <trkpt lat="47.13089" lon="5.96919">
        <ele>286.8</ele>
        <time>2024-04-14T07:50:56Z</time>
      </trkpt>
      <trkpt lat="47.1306" lon="5.96925">
        <ele>285.8</ele>
        <time>2024-04-14T07:51:00Z</time>
      </trkpt>
      <trkpt lat="47.13054" lon="5.96926">
        <ele>285.6</ele>
        <time>2024-04-14T07:51:01Z</time>
      </trkpt>
      <trkpt lat="47.13016" lon="5.96933">
        <ele>284.8</ele>
        <time>2024-04-14T07:51:07Z</time>
      </trkpt>
      <trkpt lat="47.1301" lon="5.96934">
        <ele>284.6</ele>
        <time>2024-04-14T07:51:08Z</time>
      </trkpt>
      <trkpt lat="47.12977" lon="5.96937">
        <ele>283.6</ele>
        <time>2024-04-14T07:51:14Z</time>
      </trkpt>
      <trkpt lat="47.12961" lon="5.96939">
        <ele>282.8</ele>
        <time>2024-04-14T07:51:17Z</time>
      </trkpt>
      <trkpt lat="47.12956" lon="5.9694">
        <ele>282.4</ele>
        <time>2024-04-14T07:51:18Z</time>
      </trkpt>
      <trkpt lat="47.12951" lon="5.96941">
        <ele>282.2</ele>
        <time>2024-04-14T07:51:19Z</time>
      </trkpt>
      <trkpt lat="47.12937" lon="5.96943">
        <ele>281.2</ele>
        <time>2024-04-14T07:51:22Z</time>
      </trkpt>
      <trkpt lat="47.12923" lon="5.96945">
        <ele>280</ele>
        <time>2024-04-14T07:51:25Z</time>
      </trkpt>
      <trkpt lat="47.12911" lon="5.96949">
        <ele>278.8</ele>
        <time>2024-04-14T07:51:28Z</time>
      </trkpt>
      <trkpt lat="47.12899" lon="5.96953">
        <ele>277.8</ele>
        <time>2024-04-14T07:51:31Z</time>
      </trkpt>
      <trkpt lat="47.12894" lon="5.96954">
        <ele>277.4</ele>
        <time>2024-04-14T07:51:32Z</time>
      </trkpt>
      <trkpt lat="47.12881" lon="5.96958">
        <ele>276.4</ele>
        <time>2024-04-14T07:51:35Z</time>
      </trkpt>
      <trkpt lat="47.12876" lon="5.9696">
        <ele>276.2</ele>
        <time>2024-04-14T07:51:36Z</time>
      </trkpt>
      <trkpt lat="47.12862" lon="5.96965">
        <ele>275.2</ele>
        <time>2024-04-14T07:51:39Z</time>
      </trkpt>
      <trkpt lat="47.12847" lon="5.96968">
        <ele>274.4</ele>
        <time>2024-04-14T07:51:42Z</time>
      </trkpt>
      <trkpt lat="47.12842" lon="5.9697">
        <ele>274</ele>
        <time>2024-04-14T07:51:43Z</time>
      </trkpt>
      <trkpt lat="47.12814" lon="5.96976">
        <ele>273</ele>
        <time>2024-04-14T07:51:48Z</time>
      </trkpt>
      <trkpt lat="47.12789" lon="5.96983">
        <ele>271.8</ele>
        <time>2024-04-14T07:51:52Z</time>
      </trkpt>
      <trkpt lat="47.12784" lon="5.96985">
        <ele>271.4</ele>
        <time>2024-04-14T07:51:53Z</time>
      </trkpt>
      <trkpt lat="47.12773" lon="5.96989">
        <ele>270.6</ele>
        <time>2024-04-14T07:51:55Z</time>
      </trkpt>
      <trkpt lat="47.12758" lon="5.96993">
        <ele>269.2</ele>
        <time>2024-04-14T07:51:58Z</time>
      </trkpt>
      <trkpt lat="47.12754" lon="5.96995">
        <ele>268.6</ele>
        <time>2024-04-14T07:51:59Z</time>
      </trkpt>
      <trkpt lat="47.12749" lon="5.96996">
        <ele>268</ele>
        <time>2024-04-14T07:52:00Z</time>
      </trkpt>
      <trkpt lat="47.12732" lon="5.97001">
        <ele>266.8</ele>
        <time>2024-04-14T07:52:03Z</time>
      </trkpt>
      <trkpt lat="47.12719" lon="5.97005">
        <ele>266.2</ele>
        <time>2024-04-14T07:52:05Z</time>
      </trkpt>
      <trkpt lat="47.12698" lon="5.97011">
        <ele>265.8</ele>
        <time>2024-04-14T07:52:08Z</time>
      </trkpt>
      <trkpt lat="47.12673" lon="5.97014">
        <ele>265.4</ele>
        <time>2024-04-14T07:52:12Z</time>
      </trkpt>
      <trkpt lat="47.1263" lon="5.97012">
        <ele>265.4</ele>
        <time>2024-04-14T07:52:20Z</time>
      </trkpt>
      <trkpt lat="47.12592" lon="5.97004">
        <ele>264.8</ele>
        <time>2024-04-14T07:52:27Z</time>
      </trkpt>
      <trkpt lat="47.12586" lon="5.97002">
        <ele>264.6</ele>
        <time>2024-04-14T07:52:28Z</time>
      </trkpt>
      <trkpt lat="47.12532" lon="5.96981">
        <ele>265.4</ele>
        <time>2024-04-14T07:52:38Z</time>
      </trkpt>
      <trkpt lat="47.1251" lon="5.96973">
        <ele>265.8</ele>
        <time>2024-04-14T07:52:42Z</time>
      </trkpt>
      <trkpt lat="47.12494" lon="5.96967">
        <ele>265.8</ele>
        <time>2024-04-14T07:52:45Z</time>
      </trkpt>
      <trkpt lat="47.12462" lon="5.96957">
        <ele>266</ele>
        <time>2024-04-14T07:52:51Z</time>
      </trkpt>
      <trkpt lat="47.12419" lon="5.96943">
        <ele>266.4</ele>
        <time>2024-04-14T07:52:59Z</time>
      </trkpt>
      <trkpt lat="47.12384" lon="5.9693">
        <ele>266.8</ele>
        <time>2024-04-14T07:53:06Z</time>
      </trkpt>
      <trkpt lat="47.12379" lon="5.96929">
        <ele>267</ele>
        <time>2024-04-14T07:53:07Z</time>
      </trkpt>
      <trkpt lat="47.1235" lon="5.96917">
        <ele>267.4</ele>
        <time>2024-04-14T07:53:13Z</time>
      </trkpt>
      <trkpt lat="47.12321" lon="5.96906">
        <ele>268</ele>
        <time>2024-04-14T07:53:19Z</time>
      </trkpt>
      <trkpt lat="47.12317" lon="5.96903">
        <ele>268</ele>
        <time>2024-04-14T07:53:20Z</time>
      </trkpt>
      <trkpt lat="47.12287" lon="5.9689">
        <ele>269</ele>
        <time>2024-04-14T07:53:26Z</time>
      </trkpt>
      <trkpt lat="47.12274" lon="5.96882">
        <ele>269.4</ele>
        <time>2024-04-14T07:53:29Z</time>
      </trkpt>
      <trkpt lat="47.12265" lon="5.96877">
        <ele>270.2</ele>
        <time>2024-04-14T07:53:31Z</time>
      </trkpt>
      <trkpt lat="47.12243" lon="5.96864">
        <ele>271</ele>
        <time>2024-04-14T07:53:36Z</time>
      </trkpt>
      <trkpt lat="47.12234" lon="5.9686">
        <ele>271.2</ele>
        <time>2024-04-14T07:53:38Z</time>
      </trkpt>
      <trkpt lat="47.12215" lon="5.96848">
        <ele>272</ele>
        <time>2024-04-14T07:53:43Z</time>
      </trkpt>
      <trkpt lat="47.12211" lon="5.96846">
        <ele>272.2</ele>
        <time>2024-04-14T07:53:44Z</time>
      </trkpt>
      <trkpt lat="47.12196" lon="5.96834">
        <ele>273.2</ele>
        <time>2024-04-14T07:53:48Z</time>
      </trkpt>
      <trkpt lat="47.12192" lon="5.96832">
        <ele>273.4</ele>
        <time>2024-04-14T07:53:49Z</time>
      </trkpt>
      <trkpt lat="47.12188" lon="5.96831">
        <ele>273.6</ele>
        <time>2024-04-14T07:53:50Z</time>
      </trkpt>
      <trkpt lat="47.12178" lon="5.96822">
        <ele>274.2</ele>
        <time>2024-04-14T07:53:53Z</time>
      </trkpt>
      <trkpt lat="47.12175" lon="5.96819">
        <ele>274.4</ele>
        <time>2024-04-14T07:53:54Z</time>
      </trkpt>
      <trkpt lat="47.12167" lon="5.96812">
        <ele>275</ele>
        <time>2024-04-14T07:53:56Z</time>
      </trkpt>
      <trkpt lat="47.12149" lon="5.96795">
        <ele>275.6</ele>
        <time>2024-04-14T07:54:01Z</time>
      </trkpt>
      <trkpt lat="47.12143" lon="5.96789">
        <ele>276.2</ele>
        <time>2024-04-14T07:54:03Z</time>
      </trkpt>
      <trkpt lat="47.12136" lon="5.96782">
        <ele>277.2</ele>
        <time>2024-04-14T07:54:05Z</time>
      </trkpt>
      <trkpt lat="47.12129" lon="5.96774">
        <ele>278.6</ele>
        <time>2024-04-14T07:54:07Z</time>
      </trkpt>
      <trkpt lat="47.12124" lon="5.96766">
        <ele>279.4</ele>
        <time>2024-04-14T07:54:09Z</time>
      </trkpt>
      <trkpt lat="47.12117" lon="5.96759">
        <ele>280</ele>
        <time>2024-04-14T07:54:11Z</time>
      </trkpt>
      <trkpt lat="47.12102" lon="5.96746">
        <ele>280.8</ele>
        <time>2024-04-14T07:54:15Z</time>
      </trkpt>
      <trkpt lat="47.12098" lon="5.96742">
        <ele>281.4</ele>
        <time>2024-04-14T07:54:16Z</time>
      </trkpt>
      <trkpt lat="47.12086" lon="5.96735">
        <ele>282.6</ele>
        <time>2024-04-14T07:54:19Z</time>
      </trkpt>
      <trkpt lat="47.12077" lon="5.96726">
        <ele>283.4</ele>
        <time>2024-04-14T07:54:21Z</time>
      </trkpt>
      <trkpt lat="47.12069" lon="5.96718">
        <ele>284.6</ele>
        <time>2024-04-14T07:54:23Z</time>
      </trkpt>
      <trkpt lat="47.12065" lon="5.96713">
        <ele>285.2</ele>
        <time>2024-04-14T07:54:24Z</time>
      </trkpt>
      <trkpt lat="47.12061" lon="5.96708">
        <ele>286</ele>
        <time>2024-04-14T07:54:25Z</time>
      </trkpt>
      <trkpt lat="47.12056" lon="5.96697">
        <ele>287.4</ele>
        <time>2024-04-14T07:54:27Z</time>
      </trkpt>
      <trkpt lat="47.12051" lon="5.96687">
        <ele>289</ele>
        <time>2024-04-14T07:54:29Z</time>
      </trkpt>
      <trkpt lat="47.12046" lon="5.96677">
        <ele>290</ele>
        <time>2024-04-14T07:54:31Z</time>
      </trkpt>
      <trkpt lat="47.1204" lon="5.96666">
        <ele>292.4</ele>
        <time>2024-04-14T07:54:33Z</time>
      </trkpt>
      <trkpt lat="47.12036" lon="5.9666">
        <ele>293.4</ele>
        <time>2024-04-14T07:54:34Z</time>
      </trkpt>
      <trkpt lat="47.1203" lon="5.96651">
        <ele>295.2</ele>
        <time>2024-04-14T07:54:36Z</time>
      </trkpt>
      <trkpt lat="47.12024" lon="5.96641">
        <ele>296.8</ele>
        <time>2024-04-14T07:54:38Z</time>
      </trkpt>
      <trkpt lat="47.12021" lon="5.96636">
        <ele>298</ele>
        <time>2024-04-14T07:54:39Z</time>
      </trkpt>
      <trkpt lat="47.12005" lon="5.96613">
        <ele>298.8</ele>
        <time>2024-04-14T07:54:44Z</time>
      </trkpt>
      <trkpt lat="47.12002" lon="5.96609">
        <ele>298.8</ele>
        <time>2024-04-14T07:54:45Z</time>
      </trkpt>
      <trkpt lat="47.11999" lon="5.96604">
        <ele>299.2</ele>
        <time>2024-04-14T07:54:46Z</time>
      </trkpt>
      <trkpt lat="47.11993" lon="5.96593">
        <ele>300.6</ele>
        <time>2024-04-14T07:54:48Z</time>
      </trkpt>
      <trkpt lat="47.11981" lon="5.96575">
        <ele>301.6</ele>
        <time>2024-04-14T07:54:52Z</time>
      </trkpt>
      <trkpt lat="47.11978" lon="5.96571">
        <ele>301.6</ele>
        <time>2024-04-14T07:54:53Z</time>
      </trkpt>
      <trkpt lat="47.11962" lon="5.96546">
        <ele>301.8</ele>
        <time>2024-04-14T07:54:59Z</time>
      </trkpt>
      <trkpt lat="47.11946" lon="5.96518">
        <ele>302.4</ele>
        <time>2024-04-14T07:55:05Z</time>
      </trkpt>
      <trkpt lat="47.11931" lon="5.96495">
        <ele>302.8</ele>
        <time>2024-04-14T07:55:10Z</time>
      </trkpt>
      <trkpt lat="47.11926" lon="5.96486">
        <ele>303.2</ele>
        <time>2024-04-14T07:55:12Z</time>
      </trkpt>
      <trkpt lat="47.11907" lon="5.96455">
        <ele>302.6</ele>
        <time>2024-04-14T07:55:19Z</time>
      </trkpt>
      <trkpt lat="47.11893" lon="5.96424">
        <ele>303.4</ele>
        <time>2024-04-14T07:55:25Z</time>
      </trkpt>
      <trkpt lat="47.11887" lon="5.96413">
        <ele>303.8</ele>
        <time>2024-04-14T07:55:27Z</time>
      </trkpt>
      <trkpt lat="47.11875" lon="5.96384">
        <ele>304</ele>
        <time>2024-04-14T07:55:32Z</time>
      </trkpt>
      <trkpt lat="47.11872" lon="5.96379">
        <ele>304</ele>
        <time>2024-04-14T07:55:33Z</time>
      </trkpt>
      <trkpt lat="47.11861" lon="5.9636">
        <ele>304.4</ele>
        <time>2024-04-14T07:55:37Z</time>
      </trkpt>
      <trkpt lat="47.11849" lon="5.96339">
        <ele>304</ele>
        <time>2024-04-14T07:55:41Z</time>
      </trkpt>
      <trkpt lat="47.11842" lon="5.96329">
        <ele>303.8</ele>
        <time>2024-04-14T07:55:43Z</time>
      </trkpt>
      <trkpt lat="47.1182" lon="5.96298">
        <ele>303.4</ele>
        <time>2024-04-14T07:55:50Z</time>
      </trkpt>
      <trkpt lat="47.11817" lon="5.96292">
        <ele>303.8</ele>
        <time>2024-04-14T07:55:51Z</time>
      </trkpt>
      <trkpt lat="47.11803" lon="5.96267">
        <ele>305.2</ele>
        <time>2024-04-14T07:55:56Z</time>
      </trkpt>
      <trkpt lat="47.11799" lon="5.96262">
        <ele>305.6</ele>
        <time>2024-04-14T07:55:57Z</time>
      </trkpt>
      <trkpt lat="47.11794" lon="5.96253">
        <ele>306.4</ele>
        <time>2024-04-14T07:55:59Z</time>
      </trkpt>
      <trkpt lat="47.11787" lon="5.96243">
        <ele>307.2</ele>
        <time>2024-04-14T07:56:01Z</time>
      </trkpt>
      <trkpt lat="47.11784" lon="5.96238">
        <ele>307.8</ele>
        <time>2024-04-14T07:56:02Z</time>
      </trkpt>
      <trkpt lat="47.11776" lon="5.96229">
        <ele>308.8</ele>
        <time>2024-04-14T07:56:04Z</time>
      </trkpt>
      <trkpt lat="47.11765" lon="5.96215">
        <ele>310.2</ele>
        <time>2024-04-14T07:56:07Z</time>
      </trkpt>
      <trkpt lat="47.11761" lon="5.96211">
        <ele>310.8</ele>
        <time>2024-04-14T07:56:08Z</time>
      </trkpt>
      <trkpt lat="47.11757" lon="5.96207">
        <ele>311.2</ele>
        <time>2024-04-14T07:56:09Z</time>
      </trkpt>
      <trkpt lat="47.11752" lon="5.96204">
        <ele>311.6</ele>
        <time>2024-04-14T07:56:10Z</time>
      </trkpt>
      <trkpt lat="47.11746" lon="5.96197">
        <ele>312.4</ele>
        <time>2024-04-14T07:56:12Z</time>
      </trkpt>
      <trkpt lat="47.11741" lon="5.96194">
        <ele>312.6</ele>
        <time>2024-04-14T07:56:13Z</time>
      </trkpt>
      <trkpt lat="47.11728" lon="5.96182">
        <ele>313</ele>
        <time>2024-04-14T07:56:16Z</time>
      </trkpt>
      <trkpt lat="47.11719" lon="5.96173">
        <ele>313</ele>
        <time>2024-04-14T07:56:18Z</time>
      </trkpt>
      <trkpt lat="47.11711" lon="5.96167">
        <ele>313.4</ele>
        <time>2024-04-14T07:56:20Z</time>
      </trkpt>
      <trkpt lat="47.11688" lon="5.96152">
        <ele>313.6</ele>
        <time>2024-04-14T07:56:25Z</time>
      </trkpt>
      <trkpt lat="47.11679" lon="5.96146">
        <ele>314</ele>
        <time>2024-04-14T07:56:27Z</time>
      </trkpt>
      <trkpt lat="47.1166" lon="5.96137">
        <ele>314.2</ele>
        <time>2024-04-14T07:56:31Z</time>
      </trkpt>
      <trkpt lat="47.1165" lon="5.96133">
        <ele>314.2</ele>
        <time>2024-04-14T07:56:33Z</time>
      </trkpt>
      <trkpt lat="47.11631" lon="5.96128">
        <ele>314.4</ele>
        <time>2024-04-14T07:56:37Z</time>
      </trkpt>
      <trkpt lat="47.11626" lon="5.96127">
        <ele>314.6</ele>
        <time>2024-04-14T07:56:38Z</time>
      </trkpt>
      <trkpt lat="47.11611" lon="5.96126">
        <ele>314.8</ele>
        <time>2024-04-14T07:56:41Z</time>
      </trkpt>
      <trkpt lat="47.11601" lon="5.96127">
        <ele>315</ele>
        <time>2024-04-14T07:56:43Z</time>
      </trkpt>
      <trkpt lat="47.11565" lon="5.9614">
        <ele>315</ele>
        <time>2024-04-14T07:56:50Z</time>
      </trkpt>
      <trkpt lat="47.11528" lon="5.96159">
        <ele>314</ele>
        <time>2024-04-14T07:56:58Z</time>
      </trkpt>
      <trkpt lat="47.11524" lon="5.96163">
        <ele>313.6</ele>
        <time>2024-04-14T07:56:59Z</time>
      </trkpt>
      <trkpt lat="47.11507" lon="5.96181">
        <ele>312.6</ele>
        <time>2024-04-14T07:57:03Z</time>
      </trkpt>
      <trkpt lat="47.11494" lon="5.96199">
        <ele>312.6</ele>
        <time>2024-04-14T07:57:07Z</time>
      </trkpt>
      <trkpt lat="47.11485" lon="5.96207">
        <ele>313</ele>
        <time>2024-04-14T07:57:09Z</time>
      </trkpt>
      <trkpt lat="47.11463" lon="5.9622">
        <ele>313.4</ele>
        <time>2024-04-14T07:57:14Z</time>
      </trkpt>
      <trkpt lat="47.11458" lon="5.96223">
        <ele>313.6</ele>
        <time>2024-04-14T07:57:15Z</time>
      </trkpt>
      <trkpt lat="47.11441" lon="5.96232">
        <ele>313.4</ele>
        <time>2024-04-14T07:57:19Z</time>
      </trkpt>
      <trkpt lat="47.11436" lon="5.96234">
        <ele>313.4</ele>
        <time>2024-04-14T07:57:20Z</time>
      </trkpt>
      <trkpt lat="47.11405" lon="5.96249">
        <ele>313</ele>
        <time>2024-04-14T07:57:27Z</time>
      </trkpt>
      <trkpt lat="47.11385" lon="5.96258">
        <ele>312.4</ele>
        <time>2024-04-14T07:57:31Z</time>
      </trkpt>
      <trkpt lat="47.11365" lon="5.96267">
        <ele>312.2</ele>
        <time>2024-04-14T07:57:35Z</time>
      </trkpt>
      <trkpt lat="47.11348" lon="5.96278">
        <ele>311.6</ele>
        <time>2024-04-14T07:57:39Z</time>
      </trkpt>
      <trkpt lat="47.11343" lon="5.96281">
        <ele>311.4</ele>
        <time>2024-04-14T07:57:40Z</time>
      </trkpt>
      <trkpt lat="47.11335" lon="5.96288">
        <ele>311.2</ele>
        <time>2024-04-14T07:57:42Z</time>
      </trkpt>
      <trkpt lat="47.11308" lon="5.9631">
        <ele>312</ele>
        <time>2024-04-14T07:57:49Z</time>
      </trkpt>
      <trkpt lat="47.11296" lon="5.9632">
        <ele>312.4</ele>
        <time>2024-04-14T07:57:52Z</time>
      </trkpt>
      <trkpt lat="47.11288" lon="5.96325">
        <ele>312.6</ele>
        <time>2024-04-14T07:57:54Z</time>
      </trkpt>
      <trkpt lat="47.1128" lon="5.9633">
        <ele>312.8</ele>
        <time>2024-04-14T07:57:56Z</time>
      </trkpt>
      <trkpt lat="47.11269" lon="5.96334">
        <ele>313.6</ele>
        <time>2024-04-14T07:57:59Z</time>
      </trkpt>
      <trkpt lat="47.11261" lon="5.96338">
        <ele>314</ele>
        <time>2024-04-14T07:58:01Z</time>
      </trkpt>
      <trkpt lat="47.11235" lon="5.96349">
        <ele>314.4</ele>
        <time>2024-04-14T07:58:07Z</time>
      </trkpt>
      <trkpt lat="47.11224" lon="5.96354">
        <ele>314.6</ele>
        <time>2024-04-14T07:58:10Z</time>
      </trkpt>
      <trkpt lat="47.11195" lon="5.96366">
        <ele>313.6</ele>
        <time>2024-04-14T07:58:17Z</time>
      </trkpt>
      <trkpt lat="47.11165" lon="5.96379">
        <ele>314.2</ele>
        <time>2024-04-14T07:58:24Z</time>
      </trkpt>
      <trkpt lat="47.1115" lon="5.96383">
        <ele>314.8</ele>
        <time>2024-04-14T07:58:27Z</time>
      </trkpt>
      <trkpt lat="47.11133" lon="5.96386">
        <ele>314.6</ele>
        <time>2024-04-14T07:58:31Z</time>
      </trkpt>
      <trkpt lat="47.1112" lon="5.96388">
        <ele>313.8</ele>
        <time>2024-04-14T07:58:34Z</time>
      </trkpt>
      <trkpt lat="47.11105" lon="5.96389">
        <ele>312.8</ele>
        <time>2024-04-14T07:58:37Z</time>
      </trkpt>
      <trkpt lat="47.11097" lon="5.96388">
        <ele>311.8</ele>
        <time>2024-04-14T07:58:39Z</time>
      </trkpt>
      <trkpt lat="47.11092" lon="5.96389">
        <ele>311.4</ele>
        <time>2024-04-14T07:58:40Z</time>
      </trkpt>
      <trkpt lat="47.11083" lon="5.96388">
        <ele>310.6</ele>
        <time>2024-04-14T07:58:42Z</time>
      </trkpt>
      <trkpt lat="47.11073" lon="5.96388">
        <ele>310</ele>
        <time>2024-04-14T07:58:44Z</time>
      </trkpt>
      <trkpt lat="47.11068" lon="5.96389">
        <ele>309.8</ele>
        <time>2024-04-14T07:58:45Z</time>
      </trkpt>
      <trkpt lat="47.11059" lon="5.96389">
        <ele>309</ele>
        <time>2024-04-14T07:58:47Z</time>
      </trkpt>
      <trkpt lat="47.11044" lon="5.96388">
        <ele>308</ele>
        <time>2024-04-14T07:58:50Z</time>
      </trkpt>
      <trkpt lat="47.11039" lon="5.96387">
        <ele>307.8</ele>
        <time>2024-04-14T07:58:51Z</time>
      </trkpt>
      <trkpt lat="47.1101" lon="5.96382">
        <ele>307.6</ele>
        <time>2024-04-14T07:58:57Z</time>
      </trkpt>
      <trkpt lat="47.10977" lon="5.96376">
        <ele>307.8</ele>
        <time>2024-04-14T07:59:03Z</time>
      </trkpt>
      <trkpt lat="47.1095" lon="5.9637">
        <ele>307.2</ele>
        <time>2024-04-14T07:59:08Z</time>
      </trkpt>
      <trkpt lat="47.10939" lon="5.96367">
        <ele>306.8</ele>
        <time>2024-04-14T07:59:10Z</time>
      </trkpt>
      <trkpt lat="47.10912" lon="5.96361">
        <ele>305.8</ele>
        <time>2024-04-14T07:59:15Z</time>
      </trkpt>
      <trkpt lat="47.10907" lon="5.96361">
        <ele>305.6</ele>
        <time>2024-04-14T07:59:16Z</time>
      </trkpt>
      <trkpt lat="47.10891" lon="5.96356">
        <ele>304.6</ele>
        <time>2024-04-14T07:59:19Z</time>
      </trkpt>
      <trkpt lat="47.10881" lon="5.96353">
        <ele>304</ele>
        <time>2024-04-14T07:59:21Z</time>
      </trkpt>
      <trkpt lat="47.10873" lon="5.96351">
        <ele>303.4</ele>
        <time>2024-04-14T07:59:23Z</time>
      </trkpt>
      <trkpt lat="47.10858" lon="5.9635">
        <ele>302.6</ele>
        <time>2024-04-14T07:59:26Z</time>
      </trkpt>
      <trkpt lat="47.10852" lon="5.96349">
        <ele>302.4</ele>
        <time>2024-04-14T07:59:27Z</time>
      </trkpt>
      <trkpt lat="47.10833" lon="5.96348">
        <ele>301.4</ele>
        <time>2024-04-14T07:59:31Z</time>
      </trkpt>
      <trkpt lat="47.10827" lon="5.96348">
        <ele>301.2</ele>
        <time>2024-04-14T07:59:32Z</time>
      </trkpt>
      <trkpt lat="47.10822" lon="5.96347">
        <ele>301</ele>
        <time>2024-04-14T07:59:33Z</time>
      </trkpt>
      <trkpt lat="47.10805" lon="5.96347">
        <ele>301</ele>
        <time>2024-04-14T07:59:36Z</time>
      </trkpt>
      <trkpt lat="47.10793" lon="5.96347">
        <ele>301</ele>
        <time>2024-04-14T07:59:38Z</time>
      </trkpt>
      <trkpt lat="47.10768" lon="5.96347">
        <ele>301</ele>
        <time>2024-04-14T07:59:43Z</time>
      </trkpt>
      <trkpt lat="47.10741" lon="5.96348">
        <ele>300.2</ele>
        <time>2024-04-14T07:59:48Z</time>
      </trkpt>
      <trkpt lat="47.10736" lon="5.96348">
        <ele>300.2</ele>
        <time>2024-04-14T07:59:49Z</time>
      </trkpt>
      <trkpt lat="47.10706" lon="5.96347">
        <ele>299.4</ele>
        <time>2024-04-14T07:59:56Z</time>
      </trkpt>
      <trkpt lat="47.107" lon="5.96349">
        <ele>299</ele>
        <time>2024-04-14T07:59:57Z</time>
      </trkpt>
      <trkpt lat="47.10674" lon="5.96356">
        <ele>298.2</ele>
        <time>2024-04-14T08:00:00Z</time>
      </trkpt>
      <trkpt lat="47.10655" lon="5.96359">
        <ele>298</ele>
        <time>2024-04-14T08:00:02Z</time>
      </trkpt>
      <trkpt lat="47.10629" lon="5.96364">
        <ele>296.6</ele>
        <time>2024-04-14T08:00:05Z</time>
      </trkpt>
      <trkpt lat="47.1062" lon="5.96365">
        <ele>296.4</ele>
        <time>2024-04-14T08:00:06Z</time>
      </trkpt>
      <trkpt lat="47.10587" lon="5.9637">
        <ele>295.4</ele>
        <time>2024-04-14T08:00:10Z</time>
      </trkpt>
      <trkpt lat="47.10569" lon="5.96372">
        <ele>294.8</ele>
        <time>2024-04-14T08:00:12Z</time>
      </trkpt>
      <trkpt lat="47.1056" lon="5.96374">
        <ele>294</ele>
        <time>2024-04-14T08:00:13Z</time>
      </trkpt>
      <trkpt lat="47.10537" lon="5.96375">
        <ele>292.8</ele>
        <time>2024-04-14T08:00:16Z</time>
      </trkpt>
      <trkpt lat="47.10522" lon="5.96377">
        <ele>292</ele>
        <time>2024-04-14T08:00:18Z</time>
      </trkpt>
      <trkpt lat="47.10507" lon="5.96384">
        <ele>295</ele>
        <time>2024-04-14T08:00:20Z</time>
      </trkpt>
      <trkpt lat="47.10504" lon="5.96385">
        <ele>295</ele>
        <time>2024-04-14T08:00:21Z</time>
      </trkpt>
      <trkpt lat="47.10495" lon="5.96387">
        <ele>298.2</ele>
        <time>2024-04-14T08:00:28Z</time>
      </trkpt>
      <trkpt lat="47.10486" lon="5.9639">
        <ele>299.8</ele>
        <time>2024-04-14T08:00:31Z</time>
      </trkpt>
      <trkpt lat="47.10478" lon="5.96391">
        <ele>300.6</ele>
        <time>2024-04-14T08:00:33Z</time>
      </trkpt>
      <trkpt lat="47.10472" lon="5.96388">
        <ele>301.6</ele>
        <time>2024-04-14T08:00:34Z</time>
      </trkpt>
      <trkpt lat="47.10468" lon="5.96385">
        <ele>301.6</ele>
        <time>2024-04-14T08:00:35Z</time>
      </trkpt>
      <trkpt lat="47.10462" lon="5.96375">
        <ele>300</ele>
        <time>2024-04-14T08:00:36Z</time>
      </trkpt>
      <trkpt lat="47.10459" lon="5.96366">
        <ele>299.4</ele>
        <time>2024-04-14T08:00:37Z</time>
      </trkpt>
      <trkpt lat="47.10457" lon="5.96348">
        <ele>299.8</ele>
        <time>2024-04-14T08:00:40Z</time>
      </trkpt>
      <trkpt lat="47.10457" lon="5.96344">
        <ele>299.8</ele>
        <time>2024-04-14T08:00:43Z</time>
      </trkpt>
      <trkpt lat="47.10456" lon="5.96339">
        <ele>300</ele>
        <time>2024-04-14T08:00:45Z</time>
      </trkpt>
      <trkpt lat="47.10452" lon="5.96336">
        <ele>300.6</ele>
        <time>2024-04-14T08:00:47Z</time>
      </trkpt>
      <trkpt lat="47.10451" lon="5.96325">
        <ele>299.4</ele>
        <time>2024-04-14T08:00:50Z</time>
      </trkpt>
      <trkpt lat="47.1045" lon="5.96321">
        <ele>299</ele>
        <time>2024-04-14T08:00:51Z</time>
      </trkpt>
      <trkpt lat="47.10448" lon="5.96308">
        <ele>297.6</ele>
        <time>2024-04-14T08:00:55Z</time>
      </trkpt>
      <trkpt lat="47.10443" lon="5.96306">
        <ele>297.2</ele>
        <time>2024-04-14T08:00:57Z</time>
      </trkpt>
      <trkpt lat="47.10437" lon="5.96309">
        <ele>295.6</ele>
        <time>2024-04-14T08:00:59Z</time>
      </trkpt>
      <trkpt lat="47.10435" lon="5.96314">
        <ele>294.2</ele>
        <time>2024-04-14T08:01:00Z</time>
      </trkpt>
      <trkpt lat="47.10434" lon="5.96321">
        <ele>291.8</ele>
        <time>2024-04-14T08:01:01Z</time>
      </trkpt>
      <trkpt lat="47.10434" lon="5.9633">
        <ele>290.4</ele>
        <time>2024-04-14T08:01:02Z</time>
      </trkpt>
      <trkpt lat="47.10434" lon="5.96339">
        <ele>289.4</ele>
        <time>2024-04-14T08:01:03Z</time>
      </trkpt>
      <trkpt lat="47.10434" lon="5.96349">
        <ele>288.2</ele>
        <time>2024-04-14T08:01:04Z</time>
      </trkpt>
      <trkpt lat="47.10431" lon="5.9637">
        <ele>286.8</ele>
        <time>2024-04-14T08:01:06Z</time>
      </trkpt>
      <trkpt lat="47.10429" lon="5.964">
        <ele>285.4</ele>
        <time>2024-04-14T08:01:09Z</time>
      </trkpt>
      <trkpt lat="47.10428" lon="5.9642">
        <ele>284</ele>
        <time>2024-04-14T08:01:11Z</time>
      </trkpt>
      <trkpt lat="47.10426" lon="5.9645">
        <ele>282.8</ele>
        <time>2024-04-14T08:01:14Z</time>
      </trkpt>
      <trkpt lat="47.10425" lon="5.96479">
        <ele>282</ele>
        <time>2024-04-14T08:01:17Z</time>
      </trkpt>
      <trkpt lat="47.10424" lon="5.96499">
        <ele>281.8</ele>
        <time>2024-04-14T08:01:19Z</time>
      </trkpt>
      <trkpt lat="47.10424" lon="5.96509">
        <ele>281.4</ele>
        <time>2024-04-14T08:01:20Z</time>
      </trkpt>
      <trkpt lat="47.10425" lon="5.96527">
        <ele>281.4</ele>
        <time>2024-04-14T08:01:22Z</time>
      </trkpt>
      <trkpt lat="47.10428" lon="5.96545">
        <ele>281.4</ele>
        <time>2024-04-14T08:01:24Z</time>
      </trkpt>
      <trkpt lat="47.10434" lon="5.96579">
        <ele>281.2</ele>
        <time>2024-04-14T08:01:28Z</time>
      </trkpt>
      <trkpt lat="47.10445" lon="5.9663">
        <ele>280.4</ele>
        <time>2024-04-14T08:01:34Z</time>
      </trkpt>
      <trkpt lat="47.10454" lon="5.96668">
        <ele>279.4</ele>
        <time>2024-04-14T08:01:39Z</time>
      </trkpt>
      <trkpt lat="47.10456" lon="5.96675">
        <ele>279.2</ele>
        <time>2024-04-14T08:01:40Z</time>
      </trkpt>
      <trkpt lat="47.10459" lon="5.96685">
        <ele>279.4</ele>
        <time>2024-04-14T08:01:43Z</time>
      </trkpt>
      <trkpt lat="47.1046" lon="5.96701">
        <ele>281.8</ele>
        <time>2024-04-14T08:02:06Z</time>
      </trkpt>
      <trkpt lat="47.10461" lon="5.96705">
        <ele>282.4</ele>
        <time>2024-04-14T08:02:07Z</time>
      </trkpt>
      <trkpt lat="47.10462" lon="5.96708">
        <ele>282.6</ele>
        <time>2024-04-14T08:02:08Z</time>
      </trkpt>
      <trkpt lat="47.10464" lon="5.9672">
        <ele>282.8</ele>
        <time>2024-04-14T08:02:11Z</time>
      </trkpt>
      <trkpt lat="47.10466" lon="5.96725">
        <ele>282.6</ele>
        <time>2024-04-14T08:02:12Z</time>
      </trkpt>
      <trkpt lat="47.1047" lon="5.96737">
        <ele>281.2</ele>
        <time>2024-04-14T08:02:15Z</time>
      </trkpt>
      <trkpt lat="47.10474" lon="5.96745">
        <ele>279.6</ele>
        <time>2024-04-14T08:02:17Z</time>
      </trkpt>
      <trkpt lat="47.10476" lon="5.96749">
        <ele>278.8</ele>
        <time>2024-04-14T08:02:18Z</time>
      </trkpt>
      <trkpt lat="47.10478" lon="5.96754">
        <ele>278</ele>
        <time>2024-04-14T08:02:19Z</time>
      </trkpt>
      <trkpt lat="47.10483" lon="5.96763">
        <ele>276.2</ele>
        <time>2024-04-14T08:02:21Z</time>
      </trkpt>
      <trkpt lat="47.1049" lon="5.96778">
        <ele>274.6</ele>
        <time>2024-04-14T08:02:24Z</time>
      </trkpt>
      <trkpt lat="47.10492" lon="5.96783">
        <ele>273</ele>
        <time>2024-04-14T08:02:25Z</time>
      </trkpt>
      <trkpt lat="47.10497" lon="5.96794">
        <ele>271.6</ele>
        <time>2024-04-14T08:02:27Z</time>
      </trkpt>
      <trkpt lat="47.10502" lon="5.96804">
        <ele>270.2</ele>
        <time>2024-04-14T08:02:29Z</time>
      </trkpt>
      <trkpt lat="47.10507" lon="5.96815">
        <ele>268.8</ele>
        <time>2024-04-14T08:02:31Z</time>
      </trkpt>
      <trkpt lat="47.10512" lon="5.96826">
        <ele>267.2</ele>
        <time>2024-04-14T08:02:33Z</time>
      </trkpt>
      <trkpt lat="47.10517" lon="5.96837">
        <ele>266</ele>
        <time>2024-04-14T08:02:35Z</time>
      </trkpt>
      <trkpt lat="47.10519" lon="5.96843">
        <ele>265.2</ele>
        <time>2024-04-14T08:02:36Z</time>
      </trkpt>
      <trkpt lat="47.10521" lon="5.9685">
        <ele>264.6</ele>
        <time>2024-04-14T08:02:37Z</time>
      </trkpt>
      <trkpt lat="47.10527" lon="5.96862">
        <ele>263.2</ele>
        <time>2024-04-14T08:02:39Z</time>
      </trkpt>
      <trkpt lat="47.10533" lon="5.96875">
        <ele>262</ele>
        <time>2024-04-14T08:02:41Z</time>
      </trkpt>
      <trkpt lat="47.10539" lon="5.96888">
        <ele>260.6</ele>
        <time>2024-04-14T08:02:43Z</time>
      </trkpt>
      <trkpt lat="47.10544" lon="5.96899">
        <ele>259.2</ele>
        <time>2024-04-14T08:02:45Z</time>
      </trkpt>
      <trkpt lat="47.1055" lon="5.96911">
        <ele>257.6</ele>
        <time>2024-04-14T08:02:47Z</time>
      </trkpt>
      <trkpt lat="47.10555" lon="5.96922">
        <ele>255.8</ele>
        <time>2024-04-14T08:02:49Z</time>
      </trkpt>
      <trkpt lat="47.10558" lon="5.96928">
        <ele>255</ele>
        <time>2024-04-14T08:02:50Z</time>
      </trkpt>
      <trkpt lat="47.1056" lon="5.96934">
        <ele>254.2</ele>
        <time>2024-04-14T08:02:51Z</time>
      </trkpt>
      <trkpt lat="47.10566" lon="5.96944">
        <ele>252.4</ele>
        <time>2024-04-14T08:02:53Z</time>
      </trkpt>
      <trkpt lat="47.10571" lon="5.96955">
        <ele>251.4</ele>
        <time>2024-04-14T08:02:55Z</time>
      </trkpt>
      <trkpt lat="47.10574" lon="5.9696">
        <ele>250.6</ele>
        <time>2024-04-14T08:02:56Z</time>
      </trkpt>
      <trkpt lat="47.10576" lon="5.96966">
        <ele>250</ele>
        <time>2024-04-14T08:02:57Z</time>
      </trkpt>
      <trkpt lat="47.10579" lon="5.96972">
        <ele>249.2</ele>
        <time>2024-04-14T08:02:58Z</time>
      </trkpt>
      <trkpt lat="47.10581" lon="5.96978">
        <ele>248.4</ele>
        <time>2024-04-14T08:02:59Z</time>
      </trkpt>
      <trkpt lat="47.10585" lon="5.96991">
        <ele>247.2</ele>
        <time>2024-04-14T08:03:01Z</time>
      </trkpt>
      <trkpt lat="47.10594" lon="5.97031">
        <ele>248.8</ele>
        <time>2024-04-14T08:03:07Z</time>
      </trkpt>
      <trkpt lat="47.10595" lon="5.97038">
        <ele>249.6</ele>
        <time>2024-04-14T08:03:08Z</time>
      </trkpt>
      <trkpt lat="47.10596" lon="5.97045">
        <ele>250.2</ele>
        <time>2024-04-14T08:03:09Z</time>
      </trkpt>
      <trkpt lat="47.106" lon="5.97075">
        <ele>252</ele>
        <time>2024-04-14T08:03:13Z</time>
      </trkpt>
      <trkpt lat="47.106" lon="5.97085">
        <ele>254.2</ele>
        <time>2024-04-14T08:03:14Z</time>
      </trkpt>
      <trkpt lat="47.10599" lon="5.97096">
        <ele>257.6</ele>
        <time>2024-04-14T08:03:15Z</time>
      </trkpt>
      <trkpt lat="47.10599" lon="5.97105">
        <ele>260.4</ele>
        <time>2024-04-14T08:03:16Z</time>
      </trkpt>
      <trkpt lat="47.10599" lon="5.97114">
        <ele>262</ele>
        <time>2024-04-14T08:03:17Z</time>
      </trkpt>
      <trkpt lat="47.10601" lon="5.97129">
        <ele>263.8</ele>
        <time>2024-04-14T08:03:19Z</time>
      </trkpt>
      <trkpt lat="47.10601" lon="5.97136">
        <ele>264</ele>
        <time>2024-04-14T08:03:20Z</time>
      </trkpt>
      <trkpt lat="47.10605" lon="5.97188">
        <ele>264</ele>
        <time>2024-04-14T08:03:27Z</time>
      </trkpt>
      <trkpt lat="47.10605" lon="5.97195">
        <ele>264</ele>
        <time>2024-04-14T08:03:28Z</time>
      </trkpt>
      <trkpt lat="47.10606" lon="5.97233">
        <ele>264.4</ele>
        <time>2024-04-14T08:03:33Z</time>
      </trkpt>
      <trkpt lat="47.10605" lon="5.97269">
        <ele>265</ele>
        <time>2024-04-14T08:03:38Z</time>
      </trkpt>
      <trkpt lat="47.10604" lon="5.97289">
        <ele>265.4</ele>
        <time>2024-04-14T08:03:41Z</time>
      </trkpt>
      <trkpt lat="47.10603" lon="5.9731">
        <ele>266</ele>
        <time>2024-04-14T08:03:44Z</time>
      </trkpt>
      <trkpt lat="47.10599" lon="5.97357">
        <ele>266</ele>
        <time>2024-04-14T08:03:51Z</time>
      </trkpt>
      <trkpt lat="47.10592" lon="5.97404">
        <ele>266.8</ele>
        <time>2024-04-14T08:03:58Z</time>
      </trkpt>
      <trkpt lat="47.10591" lon="5.97411">
        <ele>266.8</ele>
        <time>2024-04-14T08:03:59Z</time>
      </trkpt>
      <trkpt lat="47.10583" lon="5.97451">
        <ele>266.8</ele>
        <time>2024-04-14T08:04:05Z</time>
      </trkpt>
      <trkpt lat="47.10575" lon="5.97493">
        <ele>266.2</ele>
        <time>2024-04-14T08:04:11Z</time>
      </trkpt>
      <trkpt lat="47.10573" lon="5.97499">
        <ele>266</ele>
        <time>2024-04-14T08:04:12Z</time>
      </trkpt>
      <trkpt lat="47.10564" lon="5.97527">
        <ele>266.6</ele>
        <time>2024-04-14T08:04:16Z</time>
      </trkpt>
      <trkpt lat="47.10551" lon="5.97567">
        <ele>267.2</ele>
        <time>2024-04-14T08:04:22Z</time>
      </trkpt>
      <trkpt lat="47.10548" lon="5.97574">
        <ele>267.6</ele>
        <time>2024-04-14T08:04:23Z</time>
      </trkpt>
      <trkpt lat="47.10539" lon="5.97592">
        <ele>268.4</ele>
        <time>2024-04-14T08:04:26Z</time>
      </trkpt>
      <trkpt lat="47.10527" lon="5.97618">
        <ele>269</ele>
        <time>2024-04-14T08:04:30Z</time>
      </trkpt>
      <trkpt lat="47.10519" lon="5.97635">
        <ele>269</ele>
        <time>2024-04-14T08:04:33Z</time>
      </trkpt>
      <trkpt lat="47.1051" lon="5.97653">
        <ele>269.2</ele>
        <time>2024-04-14T08:04:36Z</time>
      </trkpt>
      <trkpt lat="47.10507" lon="5.97659">
        <ele>269.4</ele>
        <time>2024-04-14T08:04:37Z</time>
      </trkpt>
      <trkpt lat="47.10491" lon="5.97687">
        <ele>270.2</ele>
        <time>2024-04-14T08:04:42Z</time>
      </trkpt>
      <trkpt lat="47.10487" lon="5.97692">
        <ele>270.4</ele>
        <time>2024-04-14T08:04:43Z</time>
      </trkpt>
      <trkpt lat="47.10466" lon="5.97723">
        <ele>271.2</ele>
        <time>2024-04-14T08:04:49Z</time>
      </trkpt>
      <trkpt lat="47.10455" lon="5.97739">
        <ele>271.4</ele>
        <time>2024-04-14T08:04:52Z</time>
      </trkpt>
      <trkpt lat="47.1044" lon="5.9776">
        <ele>271.6</ele>
        <time>2024-04-14T08:04:56Z</time>
      </trkpt>
      <trkpt lat="47.10427" lon="5.97774">
        <ele>272.8</ele>
        <time>2024-04-14T08:04:59Z</time>
      </trkpt>
      <trkpt lat="47.10411" lon="5.9779">
        <ele>274</ele>
        <time>2024-04-14T08:05:03Z</time>
      </trkpt>
      <trkpt lat="47.10407" lon="5.97793">
        <ele>274.4</ele>
        <time>2024-04-14T08:05:04Z</time>
      </trkpt>
      <trkpt lat="47.1039" lon="5.97806">
        <ele>275</ele>
        <time>2024-04-14T08:05:08Z</time>
      </trkpt>
      <trkpt lat="47.10376" lon="5.97815">
        <ele>274.8</ele>
        <time>2024-04-14T08:05:11Z</time>
      </trkpt>
      <trkpt lat="47.10358" lon="5.97828">
        <ele>274</ele>
        <time>2024-04-14T08:05:15Z</time>
      </trkpt>
      <trkpt lat="47.10349" lon="5.97835">
        <ele>273.8</ele>
        <time>2024-04-14T08:05:17Z</time>
      </trkpt>
      <trkpt lat="47.10323" lon="5.97855">
        <ele>274.4</ele>
        <time>2024-04-14T08:05:23Z</time>
      </trkpt>
      <trkpt lat="47.10314" lon="5.9786">
        <ele>274.8</ele>
        <time>2024-04-14T08:05:25Z</time>
      </trkpt>
      <trkpt lat="47.1031" lon="5.97863">
        <ele>275</ele>
        <time>2024-04-14T08:05:26Z</time>
      </trkpt>
      <trkpt lat="47.10284" lon="5.97878">
        <ele>276</ele>
        <time>2024-04-14T08:05:32Z</time>
      </trkpt>
      <trkpt lat="47.1024" lon="5.97899">
        <ele>276.4</ele>
        <time>2024-04-14T08:05:42Z</time>
      </trkpt>
      <trkpt lat="47.10208" lon="5.9791">
        <ele>277</ele>
        <time>2024-04-14T08:05:49Z</time>
      </trkpt>
      <trkpt lat="47.10203" lon="5.97911">
        <ele>277.2</ele>
        <time>2024-04-14T08:05:50Z</time>
      </trkpt>
      <trkpt lat="47.10165" lon="5.97917">
        <ele>277.2</ele>
        <time>2024-04-14T08:05:58Z</time>
      </trkpt>
      <trkpt lat="47.10133" lon="5.97922">
        <ele>277</ele>
        <time>2024-04-14T08:06:05Z</time>
      </trkpt>
      <trkpt lat="47.10099" lon="5.97921">
        <ele>277</ele>
        <time>2024-04-14T08:06:12Z</time>
      </trkpt>
      <trkpt lat="47.10083" lon="5.97919">
        <ele>276.6</ele>
        <time>2024-04-14T08:06:15Z</time>
      </trkpt>
      <trkpt lat="47.10066" lon="5.97916">
        <ele>276</ele>
        <time>2024-04-14T08:06:18Z</time>
      </trkpt>
      <trkpt lat="47.10045" lon="5.97913">
        <ele>275.2</ele>
        <time>2024-04-14T08:06:22Z</time>
      </trkpt>
      <trkpt lat="47.10036" lon="5.9791">
        <ele>275</ele>
        <time>2024-04-14T08:06:24Z</time>
      </trkpt>
      <trkpt lat="47.10031" lon="5.97908">
        <ele>274.8</ele>
        <time>2024-04-14T08:06:25Z</time>
      </trkpt>
      <trkpt lat="47.10009" lon="5.979">
        <ele>274</ele>
        <time>2024-04-14T08:06:30Z</time>
      </trkpt>
      <trkpt lat="47.1" lon="5.97896">
        <ele>273.6</ele>
        <time>2024-04-14T08:06:32Z</time>
      </trkpt>
      <trkpt lat="47.0998" lon="5.97887">
        <ele>272.6</ele>
        <time>2024-04-14T08:06:36Z</time>
      </trkpt>
      <trkpt lat="47.09975" lon="5.97884">
        <ele>272.2</ele>
        <time>2024-04-14T08:06:37Z</time>
      </trkpt>
      <trkpt lat="47.09965" lon="5.97879">
        <ele>271.4</ele>
        <time>2024-04-14T08:06:39Z</time>
      </trkpt>
      <trkpt lat="47.0995" lon="5.97871">
        <ele>270</ele>
        <time>2024-04-14T08:06:42Z</time>
      </trkpt>
      <trkpt lat="47.09945" lon="5.97868">
        <ele>269.8</ele>
        <time>2024-04-14T08:06:43Z</time>
      </trkpt>
      <trkpt lat="47.0994" lon="5.97866">
        <ele>269.4</ele>
        <time>2024-04-14T08:06:44Z</time>
      </trkpt>
      <trkpt lat="47.09931" lon="5.97861">
        <ele>268.8</ele>
        <time>2024-04-14T08:06:46Z</time>
      </trkpt>
      <trkpt lat="47.09911" lon="5.97852">
        <ele>267.6</ele>
        <time>2024-04-14T08:06:50Z</time>
      </trkpt>
      <trkpt lat="47.09902" lon="5.97847">
        <ele>266.8</ele>
        <time>2024-04-14T08:06:52Z</time>
      </trkpt>
      <trkpt lat="47.09897" lon="5.97845">
        <ele>266.4</ele>
        <time>2024-04-14T08:06:53Z</time>
      </trkpt>
      <trkpt lat="47.09882" lon="5.97839">
        <ele>265.2</ele>
        <time>2024-04-14T08:06:56Z</time>
      </trkpt>
      <trkpt lat="47.09871" lon="5.97834">
        <ele>264.4</ele>
        <time>2024-04-14T08:06:58Z</time>
      </trkpt>
      <trkpt lat="47.09861" lon="5.97829">
        <ele>263.8</ele>
        <time>2024-04-14T08:07:00Z</time>
      </trkpt>
      <trkpt lat="47.09846" lon="5.97821">
        <ele>262.4</ele>
        <time>2024-04-14T08:07:03Z</time>
      </trkpt>
      <trkpt lat="47.09841" lon="5.97818">
        <ele>261.8</ele>
        <time>2024-04-14T08:07:04Z</time>
      </trkpt>
      <trkpt lat="47.09837" lon="5.97816">
        <ele>261.4</ele>
        <time>2024-04-14T08:07:05Z</time>
      </trkpt>
      <trkpt lat="47.09822" lon="5.9781">
        <ele>259.8</ele>
        <time>2024-04-14T08:07:08Z</time>
      </trkpt>
      <trkpt lat="47.09818" lon="5.97807">
        <ele>259.6</ele>
        <time>2024-04-14T08:07:09Z</time>
      </trkpt>
      <trkpt lat="47.09794" lon="5.97793">
        <ele>259.4</ele>
        <time>2024-04-14T08:07:14Z</time>
      </trkpt>
      <trkpt lat="47.09764" lon="5.97766">
        <ele>261</ele>
        <time>2024-04-14T08:07:21Z</time>
      </trkpt>
      <trkpt lat="47.09756" lon="5.97757">
        <ele>262.2</ele>
        <time>2024-04-14T08:07:23Z</time>
      </trkpt>
      <trkpt lat="47.09748" lon="5.97747">
        <ele>264.2</ele>
        <time>2024-04-14T08:07:25Z</time>
      </trkpt>
      <trkpt lat="47.09743" lon="5.97742">
        <ele>265.4</ele>
        <time>2024-04-14T08:07:26Z</time>
      </trkpt>
      <trkpt lat="47.09735" lon="5.97733">
        <ele>266.4</ele>
        <time>2024-04-14T08:07:28Z</time>
      </trkpt>
      <trkpt lat="47.09727" lon="5.97722">
        <ele>267.4</ele>
        <time>2024-04-14T08:07:30Z</time>
      </trkpt>
      <trkpt lat="47.09723" lon="5.97716">
        <ele>268</ele>
        <time>2024-04-14T08:07:31Z</time>
      </trkpt>
      <trkpt lat="47.09719" lon="5.97711">
        <ele>268.6</ele>
        <time>2024-04-14T08:07:32Z</time>
      </trkpt>
      <trkpt lat="47.09711" lon="5.977">
        <ele>269.8</ele>
        <time>2024-04-14T08:07:34Z</time>
      </trkpt>
      <trkpt lat="47.09703" lon="5.9769">
        <ele>271.4</ele>
        <time>2024-04-14T08:07:36Z</time>
      </trkpt>
      <trkpt lat="47.09695" lon="5.9768">
        <ele>272.6</ele>
        <time>2024-04-14T08:07:38Z</time>
      </trkpt>
      <trkpt lat="47.09685" lon="5.97665">
        <ele>273.8</ele>
        <time>2024-04-14T08:07:41Z</time>
      </trkpt>
      <trkpt lat="47.09674" lon="5.97648">
        <ele>275.2</ele>
        <time>2024-04-14T08:07:44Z</time>
      </trkpt>
      <trkpt lat="47.0967" lon="5.97641">
        <ele>275.8</ele>
        <time>2024-04-14T08:07:45Z</time>
      </trkpt>
      <trkpt lat="47.09667" lon="5.97635">
        <ele>276.2</ele>
        <time>2024-04-14T08:07:46Z</time>
      </trkpt>
      <trkpt lat="47.0966" lon="5.97622">
        <ele>277.6</ele>
        <time>2024-04-14T08:07:48Z</time>
      </trkpt>
      <trkpt lat="47.09651" lon="5.97603">
        <ele>278.8</ele>
        <time>2024-04-14T08:07:51Z</time>
      </trkpt>
      <trkpt lat="47.09648" lon="5.97597">
        <ele>279.2</ele>
        <time>2024-04-14T08:07:52Z</time>
      </trkpt>
      <trkpt lat="47.09638" lon="5.9757">
        <ele>280</ele>
        <time>2024-04-14T08:07:56Z</time>
      </trkpt>
      <trkpt lat="47.0963" lon="5.97549">
        <ele>280.6</ele>
        <time>2024-04-14T08:07:59Z</time>
      </trkpt>
      <trkpt lat="47.09625" lon="5.97535">
        <ele>281.2</ele>
        <time>2024-04-14T08:08:01Z</time>
      </trkpt>
      <trkpt lat="47.09615" lon="5.97507">
        <ele>282.4</ele>
        <time>2024-04-14T08:08:05Z</time>
      </trkpt>
      <trkpt lat="47.0961" lon="5.97493">
        <ele>283</ele>
        <time>2024-04-14T08:08:07Z</time>
      </trkpt>
      <trkpt lat="47.09606" lon="5.97478">
        <ele>283.6</ele>
        <time>2024-04-14T08:08:09Z</time>
      </trkpt>
      <trkpt lat="47.09601" lon="5.97464">
        <ele>284.4</ele>
        <time>2024-04-14T08:08:11Z</time>
      </trkpt>
      <trkpt lat="47.09598" lon="5.97457">
        <ele>284.6</ele>
        <time>2024-04-14T08:08:12Z</time>
      </trkpt>
      <trkpt lat="47.09589" lon="5.97429">
        <ele>285.6</ele>
        <time>2024-04-14T08:08:16Z</time>
      </trkpt>
      <trkpt lat="47.09586" lon="5.97423">
        <ele>286</ele>
        <time>2024-04-14T08:08:17Z</time>
      </trkpt>
      <trkpt lat="47.09574" lon="5.97406">
        <ele>287</ele>
        <time>2024-04-14T08:08:21Z</time>
      </trkpt>
      <trkpt lat="47.0957" lon="5.97403">
        <ele>287.4</ele>
        <time>2024-04-14T08:08:22Z</time>
      </trkpt>
      <trkpt lat="47.09563" lon="5.97398">
        <ele>288.2</ele>
        <time>2024-04-14T08:08:24Z</time>
      </trkpt>
      <trkpt lat="47.09552" lon="5.97396">
        <ele>289.6</ele>
        <time>2024-04-14T08:08:27Z</time>
      </trkpt>
      <trkpt lat="47.09541" lon="5.97395">
        <ele>290.8</ele>
        <time>2024-04-14T08:08:30Z</time>
      </trkpt>
      <trkpt lat="47.0953" lon="5.97392">
        <ele>291.6</ele>
        <time>2024-04-14T08:08:33Z</time>
      </trkpt>
      <trkpt lat="47.09526" lon="5.97391">
        <ele>292</ele>
        <time>2024-04-14T08:08:34Z</time>
      </trkpt>
      <trkpt lat="47.09516" lon="5.97385">
        <ele>293.2</ele>
        <time>2024-04-14T08:08:37Z</time>
      </trkpt>
      <trkpt lat="47.09509" lon="5.97381">
        <ele>294</ele>
        <time>2024-04-14T08:08:39Z</time>
      </trkpt>
      <trkpt lat="47.09506" lon="5.97379">
        <ele>294.2</ele>
        <time>2024-04-14T08:08:40Z</time>
      </trkpt>
      <trkpt lat="47.09489" lon="5.97366">
        <ele>295.6</ele>
        <time>2024-04-14T08:08:45Z</time>
      </trkpt>
      <trkpt lat="47.09476" lon="5.97357">
        <ele>296.4</ele>
        <time>2024-04-14T08:08:49Z</time>
      </trkpt>
      <trkpt lat="47.09464" lon="5.97346">
        <ele>296.6</ele>
        <time>2024-04-14T08:08:53Z</time>
      </trkpt>
      <trkpt lat="47.0945" lon="5.97333">
        <ele>297.6</ele>
        <time>2024-04-14T08:08:58Z</time>
      </trkpt>
      <trkpt lat="47.09423" lon="5.9731">
        <ele>298.6</ele>
        <time>2024-04-14T08:09:07Z</time>
      </trkpt>
      <trkpt lat="47.0942" lon="5.97307">
        <ele>298.8</ele>
        <time>2024-04-14T08:09:08Z</time>
      </trkpt>
      <trkpt lat="47.09392" lon="5.97286">
        <ele>298.6</ele>
        <time>2024-04-14T08:09:17Z</time>
      </trkpt>
      <trkpt lat="47.0937" lon="5.97275">
        <ele>299</ele>
        <time>2024-04-14T08:09:24Z</time>
      </trkpt>
      <trkpt lat="47.09335" lon="5.97266">
        <ele>299</ele>
        <time>2024-04-14T08:09:34Z</time>
      </trkpt>
      <trkpt lat="47.09317" lon="5.97257">
        <ele>299</ele>
        <time>2024-04-14T08:09:40Z</time>
      </trkpt>
      <trkpt lat="47.09297" lon="5.9725">
        <ele>299.2</ele>
        <time>2024-04-14T08:09:47Z</time>
      </trkpt>
      <trkpt lat="47.09266" lon="5.97231">
        <ele>299.2</ele>
        <time>2024-04-14T08:09:56Z</time>
      </trkpt>
      <trkpt lat="47.09242" lon="5.97227">
        <ele>298.4</ele>
        <time>2024-04-14T08:10:02Z</time>
      </trkpt>
      <trkpt lat="47.09217" lon="5.97231">
        <ele>298.6</ele>
        <time>2024-04-14T08:10:08Z</time>
      </trkpt>
      <trkpt lat="47.092" lon="5.97238">
        <ele>297.8</ele>
        <time>2024-04-14T08:10:12Z</time>
      </trkpt>
      <trkpt lat="47.09195" lon="5.97242">
        <ele>297.8</ele>
        <time>2024-04-14T08:10:13Z</time>
      </trkpt>
      <trkpt lat="47.09192" lon="5.97246">
        <ele>297.8</ele>
        <time>2024-04-14T08:10:14Z</time>
      </trkpt>
      <trkpt lat="47.09179" lon="5.97272">
        <ele>297</ele>
        <time>2024-04-14T08:10:18Z</time>
      </trkpt>
      <trkpt lat="47.09176" lon="5.97279">
        <ele>296.6</ele>
        <time>2024-04-14T08:10:19Z</time>
      </trkpt>
      <trkpt lat="47.09164" lon="5.97312">
        <ele>295.4</ele>
        <time>2024-04-14T08:10:23Z</time>
      </trkpt>
      <trkpt lat="47.09162" lon="5.97322">
        <ele>295.2</ele>
        <time>2024-04-14T08:10:24Z</time>
      </trkpt>
      <trkpt lat="47.09158" lon="5.97344">
        <ele>294.2</ele>
        <time>2024-04-14T08:10:26Z</time>
      </trkpt>
      <trkpt lat="47.09155" lon="5.97379">
        <ele>293.2</ele>
        <time>2024-04-14T08:10:29Z</time>
      </trkpt>
      <trkpt lat="47.09152" lon="5.97432">
        <ele>292.2</ele>
        <time>2024-04-14T08:10:33Z</time>
      </trkpt>
      <trkpt lat="47.09152" lon="5.97457">
        <ele>292</ele>
        <time>2024-04-14T08:10:35Z</time>
      </trkpt>
      <trkpt lat="47.09155" lon="5.97515">
        <ele>292</ele>
        <time>2024-04-14T08:10:40Z</time>
      </trkpt>
      <trkpt lat="47.09162" lon="5.97585">
        <ele>292.6</ele>
        <time>2024-04-14T08:10:47Z</time>
      </trkpt>
      <trkpt lat="47.09167" lon="5.97638">
        <ele>293.2</ele>
        <time>2024-04-14T08:10:53Z</time>
      </trkpt>
      <trkpt lat="47.09175" lon="5.97701">
        <ele>293.2</ele>
        <time>2024-04-14T08:11:01Z</time>
      </trkpt>
      <trkpt lat="47.09178" lon="5.97768">
        <ele>292.6</ele>
        <time>2024-04-14T08:11:09Z</time>
      </trkpt>
      <trkpt lat="47.0918" lon="5.97826">
        <ele>293.4</ele>
        <time>2024-04-14T08:11:16Z</time>
      </trkpt>
      <trkpt lat="47.09185" lon="5.97886">
        <ele>293.8</ele>
        <time>2024-04-14T08:11:23Z</time>
      </trkpt>
      <trkpt lat="47.09191" lon="5.97939">
        <ele>294.2</ele>
        <time>2024-04-14T08:11:29Z</time>
      </trkpt>
      <trkpt lat="47.09193" lon="5.97956">
        <ele>294</ele>
        <time>2024-04-14T08:11:31Z</time>
      </trkpt>
      <trkpt lat="47.09199" lon="5.98006">
        <ele>294.4</ele>
        <time>2024-04-14T08:11:37Z</time>
      </trkpt>
      <trkpt lat="47.09207" lon="5.98077">
        <ele>294.6</ele>
        <time>2024-04-14T08:11:45Z</time>
      </trkpt>
      <trkpt lat="47.09215" lon="5.98144">
        <ele>293.6</ele>
        <time>2024-04-14T08:11:53Z</time>
      </trkpt>
      <trkpt lat="47.09217" lon="5.98184">
        <ele>293</ele>
        <time>2024-04-14T08:11:58Z</time>
      </trkpt>
      <trkpt lat="47.09216" lon="5.98198">
        <ele>292.8</ele>
        <time>2024-04-14T08:12:00Z</time>
      </trkpt>
      <trkpt lat="47.09214" lon="5.98239">
        <ele>292.2</ele>
        <time>2024-04-14T08:12:06Z</time>
      </trkpt>
      <trkpt lat="47.09214" lon="5.98247">
        <ele>292</ele>
        <time>2024-04-14T08:12:07Z</time>
      </trkpt>
      <trkpt lat="47.09212" lon="5.98287">
        <ele>291.4</ele>
        <time>2024-04-14T08:12:12Z</time>
      </trkpt>
      <trkpt lat="47.09207" lon="5.98318">
        <ele>291.2</ele>
        <time>2024-04-14T08:12:16Z</time>
      </trkpt>
      <trkpt lat="47.09203" lon="5.98332">
        <ele>291</ele>
        <time>2024-04-14T08:12:18Z</time>
      </trkpt>
      <trkpt lat="47.09201" lon="5.98339">
        <ele>290.8</ele>
        <time>2024-04-14T08:12:19Z</time>
      </trkpt>
      <trkpt lat="47.09186" lon="5.98392">
        <ele>289.6</ele>
        <time>2024-04-14T08:12:26Z</time>
      </trkpt>
      <trkpt lat="47.09181" lon="5.98408">
        <ele>289.2</ele>
        <time>2024-04-14T08:12:28Z</time>
      </trkpt>
      <trkpt lat="47.09178" lon="5.98414">
        <ele>289.2</ele>
        <time>2024-04-14T08:12:29Z</time>
      </trkpt>
      <trkpt lat="47.09174" lon="5.98426">
        <ele>288.4</ele>
        <time>2024-04-14T08:12:31Z</time>
      </trkpt>
      <trkpt lat="47.09169" lon="5.98436">
        <ele>287.6</ele>
        <time>2024-04-14T08:12:33Z</time>
      </trkpt>
      <trkpt lat="47.09166" lon="5.98441">
        <ele>287.2</ele>
        <time>2024-04-14T08:12:34Z</time>
      </trkpt>
      <trkpt lat="47.0915" lon="5.98465">
        <ele>287</ele>
        <time>2024-04-14T08:12:39Z</time>
      </trkpt>
      <trkpt lat="47.09139" lon="5.98482">
        <ele>288</ele>
        <time>2024-04-14T08:12:42Z</time>
      </trkpt>
      <trkpt lat="47.09135" lon="5.98488">
        <ele>288.2</ele>
        <time>2024-04-14T08:12:43Z</time>
      </trkpt>
      <trkpt lat="47.09127" lon="5.98499">
        <ele>289</ele>
        <time>2024-04-14T08:12:45Z</time>
      </trkpt>
      <trkpt lat="47.09123" lon="5.98504">
        <ele>289.4</ele>
        <time>2024-04-14T08:12:46Z</time>
      </trkpt>
      <trkpt lat="47.0911" lon="5.98518">
        <ele>290.6</ele>
        <time>2024-04-14T08:12:49Z</time>
      </trkpt>
      <trkpt lat="47.09101" lon="5.98528">
        <ele>291.4</ele>
        <time>2024-04-14T08:12:51Z</time>
      </trkpt>
      <trkpt lat="47.09097" lon="5.98533">
        <ele>291.8</ele>
        <time>2024-04-14T08:12:52Z</time>
      </trkpt>
      <trkpt lat="47.09081" lon="5.98551">
        <ele>292.8</ele>
        <time>2024-04-14T08:12:56Z</time>
      </trkpt>
      <trkpt lat="47.09077" lon="5.98556">
        <ele>293.2</ele>
        <time>2024-04-14T08:12:57Z</time>
      </trkpt>
      <trkpt lat="47.09062" lon="5.98577">
        <ele>294</ele>
        <time>2024-04-14T08:13:01Z</time>
      </trkpt>
      <trkpt lat="47.09053" lon="5.98586">
        <ele>294.4</ele>
        <time>2024-04-14T08:13:03Z</time>
      </trkpt>
      <trkpt lat="47.0903" lon="5.98606">
        <ele>294.8</ele>
        <time>2024-04-14T08:13:08Z</time>
      </trkpt>
      <trkpt lat="47.09011" lon="5.98622">
        <ele>295</ele>
        <time>2024-04-14T08:13:12Z</time>
      </trkpt>
      <trkpt lat="47.08997" lon="5.98633">
        <ele>295.8</ele>
        <time>2024-04-14T08:13:15Z</time>
      </trkpt>
      <trkpt lat="47.08987" lon="5.98639">
        <ele>296.2</ele>
        <time>2024-04-14T08:13:17Z</time>
      </trkpt>
      <trkpt lat="47.08966" lon="5.9865">
        <ele>296.6</ele>
        <time>2024-04-14T08:13:21Z</time>
      </trkpt>
      <trkpt lat="47.08951" lon="5.98655">
        <ele>297.2</ele>
        <time>2024-04-14T08:13:24Z</time>
      </trkpt>
      <trkpt lat="47.08936" lon="5.98659">
        <ele>297.6</ele>
        <time>2024-04-14T08:13:27Z</time>
      </trkpt>
      <trkpt lat="47.08902" lon="5.98667">
        <ele>297.2</ele>
        <time>2024-04-14T08:13:34Z</time>
      </trkpt>
      <trkpt lat="47.08879" lon="5.98675">
        <ele>297.2</ele>
        <time>2024-04-14T08:13:39Z</time>
      </trkpt>
      <trkpt lat="47.0886" lon="5.98681">
        <ele>297.4</ele>
        <time>2024-04-14T08:13:44Z</time>
      </trkpt>
      <trkpt lat="47.08848" lon="5.98687">
        <ele>297.6</ele>
        <time>2024-04-14T08:13:48Z</time>
      </trkpt>
      <trkpt lat="47.08829" lon="5.98692">
        <ele>297.4</ele>
        <time>2024-04-14T08:13:53Z</time>
      </trkpt>
      <trkpt lat="47.08804" lon="5.98696">
        <ele>297.6</ele>
        <time>2024-04-14T08:14:00Z</time>
      </trkpt>
      <trkpt lat="47.08791" lon="5.98698">
        <ele>298.6</ele>
        <time>2024-04-14T08:14:04Z</time>
      </trkpt>
      <trkpt lat="47.08782" lon="5.98701">
        <ele>299.2</ele>
        <time>2024-04-14T08:14:07Z</time>
      </trkpt>
      <trkpt lat="47.08775" lon="5.98704">
        <ele>299.6</ele>
        <time>2024-04-14T08:14:11Z</time>
      </trkpt>
      <trkpt lat="47.08769" lon="5.98706">
        <ele>300</ele>
        <time>2024-04-14T08:14:14Z</time>
      </trkpt>
      <trkpt lat="47.08765" lon="5.98708">
        <ele>300.8</ele>
        <time>2024-04-14T08:14:18Z</time>
      </trkpt>
      <trkpt lat="47.08762" lon="5.9871">
        <ele>301</ele>
        <time>2024-04-14T08:14:20Z</time>
      </trkpt>
      <trkpt lat="47.08751" lon="5.98712">
        <ele>300.6</ele>
        <time>2024-04-14T08:14:26Z</time>
      </trkpt>
      <trkpt lat="47.0874" lon="5.98713">
        <ele>299.8</ele>
        <time>2024-04-14T08:14:31Z</time>
      </trkpt>
      <trkpt lat="47.08735" lon="5.98714">
        <ele>299.4</ele>
        <time>2024-04-14T08:14:33Z</time>
      </trkpt>
      <trkpt lat="47.0873" lon="5.98716">
        <ele>298.8</ele>
        <time>2024-04-14T08:14:35Z</time>
      </trkpt>
      <trkpt lat="47.08724" lon="5.98721">
        <ele>298.2</ele>
        <time>2024-04-14T08:14:38Z</time>
      </trkpt>
      <trkpt lat="47.08676" lon="5.98757">
        <ele>312.4</ele>
        <time>2024-04-14T08:15:16Z</time>
      </trkpt>
      <trkpt lat="47.08661" lon="5.98762">
        <ele>313.6</ele>
        <time>2024-04-14T08:15:28Z</time>
      </trkpt>
      <trkpt lat="47.08654" lon="5.98765">
        <ele>314.8</ele>
        <time>2024-04-14T08:15:32Z</time>
      </trkpt>
      <trkpt lat="47.08649" lon="5.98767">
        <ele>316</ele>
        <time>2024-04-14T08:15:34Z</time>
      </trkpt>
      <trkpt lat="47.08648" lon="5.98767">
        <ele>316.6</ele>
        <time>2024-04-14T08:15:35Z</time>
      </trkpt>
      <trkpt lat="47.08646" lon="5.98768">
        <ele>317.4</ele>
        <time>2024-04-14T08:15:36Z</time>
      </trkpt>
      <trkpt lat="47.08639" lon="5.9877">
        <ele>318.4</ele>
        <time>2024-04-14T08:15:40Z</time>
      </trkpt>
      <trkpt lat="47.08636" lon="5.98772">
        <ele>319.4</ele>
        <time>2024-04-14T08:15:42Z</time>
      </trkpt>
      <trkpt lat="47.08634" lon="5.98772">
        <ele>320</ele>
        <time>2024-04-14T08:15:43Z</time>
      </trkpt>
      <trkpt lat="47.08632" lon="5.98773">
        <ele>321</ele>
        <time>2024-04-14T08:15:45Z</time>
      </trkpt>
      <trkpt lat="47.08555" lon="5.98813">
        <ele>334.8</ele>
        <time>2024-04-14T08:16:45Z</time>
      </trkpt>
      <trkpt lat="47.08552" lon="5.98815">
        <ele>334</ele>
        <time>2024-04-14T08:16:47Z</time>
      </trkpt>
      <trkpt lat="47.08539" lon="5.9882">
        <ele>333.8</ele>
        <time>2024-04-14T08:16:55Z</time>
      </trkpt>
      <trkpt lat="47.08534" lon="5.98821">
        <ele>332.8</ele>
        <time>2024-04-14T08:16:58Z</time>
      </trkpt>
      <trkpt lat="47.08532" lon="5.98822">
        <ele>332.6</ele>
        <time>2024-04-14T08:16:59Z</time>
      </trkpt>
      <trkpt lat="47.08518" lon="5.98829">
        <ele>332.2</ele>
        <time>2024-04-14T08:17:07Z</time>
      </trkpt>
      <trkpt lat="47.08492" lon="5.98838">
        <ele>332.8</ele>
        <time>2024-04-14T08:17:27Z</time>
      </trkpt>
      <trkpt lat="47.08485" lon="5.98838">
        <ele>332.8</ele>
        <time>2024-04-14T08:17:30Z</time>
      </trkpt>
      <trkpt lat="47.08471" lon="5.98839">
        <ele>331.4</ele>
        <time>2024-04-14T08:17:37Z</time>
      </trkpt>
      <trkpt lat="47.08454" lon="5.98842">
        <ele>330.4</ele>
        <time>2024-04-14T08:17:43Z</time>
      </trkpt>
      <trkpt lat="47.08435" lon="5.98846">
        <ele>329.2</ele>
        <time>2024-04-14T08:17:49Z</time>
      </trkpt>
      <trkpt lat="47.08412" lon="5.98846">
        <ele>328.2</ele>
        <time>2024-04-14T08:17:56Z</time>
      </trkpt>
      <trkpt lat="47.08401" lon="5.98837">
        <ele>328.4</ele>
        <time>2024-04-14T08:18:02Z</time>
      </trkpt>
      <trkpt lat="47.08384" lon="5.9881">
        <ele>331.8</ele>
        <time>2024-04-14T08:18:16Z</time>
      </trkpt>
      <trkpt lat="47.08382" lon="5.98808">
        <ele>332</ele>
        <time>2024-04-14T08:18:17Z</time>
      </trkpt>
      <trkpt lat="47.08374" lon="5.988">
        <ele>333</ele>
        <time>2024-04-14T08:18:22Z</time>
      </trkpt>
      <trkpt lat="47.08372" lon="5.98796">
        <ele>333</ele>
        <time>2024-04-14T08:18:24Z</time>
      </trkpt>
      <trkpt lat="47.08367" lon="5.98792">
        <ele>333.4</ele>
        <time>2024-04-14T08:18:27Z</time>
      </trkpt>
      <trkpt lat="47.08362" lon="5.98787">
        <ele>333.6</ele>
        <time>2024-04-14T08:18:30Z</time>
      </trkpt>
      <trkpt lat="47.08353" lon="5.98775">
        <ele>333.2</ele>
        <time>2024-04-14T08:18:35Z</time>
      </trkpt>
      <trkpt lat="47.08343" lon="5.98768">
        <ele>334</ele>
        <time>2024-04-14T08:18:39Z</time>
      </trkpt>
      <trkpt lat="47.08338" lon="5.98766">
        <ele>334.2</ele>
        <time>2024-04-14T08:18:41Z</time>
      </trkpt>
      <trkpt lat="47.08328" lon="5.98763">
        <ele>333.6</ele>
        <time>2024-04-14T08:18:46Z</time>
      </trkpt>
      <trkpt lat="47.08317" lon="5.9876">
        <ele>335.2</ele>
        <time>2024-04-14T08:18:52Z</time>
      </trkpt>
      <trkpt lat="47.08315" lon="5.98759">
        <ele>335.4</ele>
        <time>2024-04-14T08:18:53Z</time>
      </trkpt>
      <trkpt lat="47.0831" lon="5.98758">
        <ele>335.6</ele>
        <time>2024-04-14T08:18:56Z</time>
      </trkpt>
      <trkpt lat="47.08307" lon="5.98757">
        <ele>336.8</ele>
        <time>2024-04-14T08:18:58Z</time>
      </trkpt>
      <trkpt lat="47.08305" lon="5.98756">
        <ele>337.2</ele>
        <time>2024-04-14T08:18:59Z</time>
      </trkpt>
      <trkpt lat="47.08302" lon="5.98756">
        <ele>338</ele>
        <time>2024-04-14T08:19:01Z</time>
      </trkpt>
      <trkpt lat="47.08297" lon="5.98754">
        <ele>339</ele>
        <time>2024-04-14T08:19:05Z</time>
      </trkpt>
      <trkpt lat="47.08286" lon="5.98752">
        <ele>339</ele>
        <time>2024-04-14T08:19:11Z</time>
      </trkpt>
      <trkpt lat="47.08283" lon="5.98752">
        <ele>339.2</ele>
        <time>2024-04-14T08:19:13Z</time>
      </trkpt>
      <trkpt lat="47.08279" lon="5.98752">
        <ele>340.4</ele>
        <time>2024-04-14T08:19:16Z</time>
      </trkpt>
      <trkpt lat="47.08277" lon="5.98752">
        <ele>341</ele>
        <time>2024-04-14T08:19:17Z</time>
      </trkpt>
      <trkpt lat="47.08276" lon="5.98752">
        <ele>341.6</ele>
        <time>2024-04-14T08:19:18Z</time>
      </trkpt>
      <trkpt lat="47.08274" lon="5.98754">
        <ele>343</ele>
        <time>2024-04-14T08:19:20Z</time>
      </trkpt>
      <trkpt lat="47.08271" lon="5.98755">
        <ele>344.2</ele>
        <time>2024-04-14T08:19:22Z</time>
      </trkpt>
      <trkpt lat="47.08232" lon="5.98768">
        <ele>349.2</ele>
        <time>2024-04-14T08:20:08Z</time>
      </trkpt>
      <trkpt lat="47.08228" lon="5.98763">
        <ele>348.2</ele>
        <time>2024-04-14T08:20:11Z</time>
      </trkpt>
      <trkpt lat="47.08226" lon="5.98761">
        <ele>348</ele>
        <time>2024-04-14T08:20:12Z</time>
      </trkpt>
      <trkpt lat="47.0822" lon="5.98756">
        <ele>346.8</ele>
        <time>2024-04-14T08:20:15Z</time>
      </trkpt>
      <trkpt lat="47.08213" lon="5.98748">
        <ele>346</ele>
        <time>2024-04-14T08:20:18Z</time>
      </trkpt>
      <trkpt lat="47.08208" lon="5.98744">
        <ele>345.8</ele>
        <time>2024-04-14T08:20:21Z</time>
      </trkpt>
      <trkpt lat="47.08204" lon="5.98737">
        <ele>345.2</ele>
        <time>2024-04-14T08:20:24Z</time>
      </trkpt>
      <trkpt lat="47.08202" lon="5.98735">
        <ele>344.8</ele>
        <time>2024-04-14T08:20:25Z</time>
      </trkpt>
      <trkpt lat="47.082" lon="5.98729">
        <ele>344.4</ele>
        <time>2024-04-14T08:20:27Z</time>
      </trkpt>
      <trkpt lat="47.08198" lon="5.98725">
        <ele>344.4</ele>
        <time>2024-04-14T08:20:29Z</time>
      </trkpt>
      <trkpt lat="47.08193" lon="5.98719">
        <ele>344.4</ele>
        <time>2024-04-14T08:20:33Z</time>
      </trkpt>
      <trkpt lat="47.08188" lon="5.98713">
        <ele>343.8</ele>
        <time>2024-04-14T08:20:36Z</time>
      </trkpt>
      <trkpt lat="47.08186" lon="5.98711">
        <ele>343.4</ele>
        <time>2024-04-14T08:20:37Z</time>
      </trkpt>
      <trkpt lat="47.08183" lon="5.98708">
        <ele>343.2</ele>
        <time>2024-04-14T08:20:39Z</time>
      </trkpt>
      <trkpt lat="47.08181" lon="5.98704">
        <ele>343.2</ele>
        <time>2024-04-14T08:20:41Z</time>
      </trkpt>
      <trkpt lat="47.08173" lon="5.98695">
        <ele>342.4</ele>
        <time>2024-04-14T08:20:45Z</time>
      </trkpt>
      <trkpt lat="47.08171" lon="5.98693">
        <ele>342.2</ele>
        <time>2024-04-14T08:20:46Z</time>
      </trkpt>
      <trkpt lat="47.08168" lon="5.98689">
        <ele>341.2</ele>
        <time>2024-04-14T08:20:48Z</time>
      </trkpt>
      <trkpt lat="47.08165" lon="5.98681">
        <ele>340.2</ele>
        <time>2024-04-14T08:20:51Z</time>
      </trkpt>
      <trkpt lat="47.08163" lon="5.98681">
        <ele>340</ele>
        <time>2024-04-14T08:20:52Z</time>
      </trkpt>
      <trkpt lat="47.08159" lon="5.98681">
        <ele>339.2</ele>
        <time>2024-04-14T08:20:56Z</time>
      </trkpt>
      <trkpt lat="47.08159" lon="5.98682">
        <ele>339</ele>
        <time>2024-04-14T08:20:57Z</time>
      </trkpt>
      <trkpt lat="47.08116" lon="5.98706">
        <ele>359.4</ele>
        <time>2024-04-14T08:25:44Z</time>
      </trkpt>
      <trkpt lat="47.08114" lon="5.98712">
        <ele>360</ele>
        <time>2024-04-14T08:25:46Z</time>
      </trkpt>
      <trkpt lat="47.08114" lon="5.98714">
        <ele>360.4</ele>
        <time>2024-04-14T08:25:47Z</time>
      </trkpt>
      <trkpt lat="47.08111" lon="5.98728">
        <ele>361.6</ele>
        <time>2024-04-14T08:25:53Z</time>
      </trkpt>
      <trkpt lat="47.0811" lon="5.98734">
        <ele>362.4</ele>
        <time>2024-04-14T08:25:55Z</time>
      </trkpt>
      <trkpt lat="47.0811" lon="5.98737">
        <ele>362.8</ele>
        <time>2024-04-14T08:25:56Z</time>
      </trkpt>
      <trkpt lat="47.08097" lon="5.98776">
        <ele>366.4</ele>
        <time>2024-04-14T08:26:14Z</time>
      </trkpt>
      <trkpt lat="47.08097" lon="5.9878">
        <ele>366.8</ele>
        <time>2024-04-14T08:26:15Z</time>
      </trkpt>
      <trkpt lat="47.08094" lon="5.98804">
        <ele>366.4</ele>
        <time>2024-04-14T08:26:23Z</time>
      </trkpt>
      <trkpt lat="47.08091" lon="5.98822">
        <ele>366.4</ele>
        <time>2024-04-14T08:26:29Z</time>
      </trkpt>
      <trkpt lat="47.0809" lon="5.98846">
        <ele>365.8</ele>
        <time>2024-04-14T08:26:36Z</time>
      </trkpt>
      <trkpt lat="47.08092" lon="5.98855">
        <ele>365.4</ele>
        <time>2024-04-14T08:26:39Z</time>
      </trkpt>
      <trkpt lat="47.08094" lon="5.98869">
        <ele>365.4</ele>
        <time>2024-04-14T08:26:43Z</time>
      </trkpt>
      <trkpt lat="47.08094" lon="5.98888">
        <ele>365.2</ele>
        <time>2024-04-14T08:26:49Z</time>
      </trkpt>
      <trkpt lat="47.08087" lon="5.98915">
        <ele>364.4</ele>
        <time>2024-04-14T08:26:59Z</time>
      </trkpt>
      <trkpt lat="47.08088" lon="5.98926">
        <ele>364.2</ele>
        <time>2024-04-14T08:27:02Z</time>
      </trkpt>
      <trkpt lat="47.08091" lon="5.9894">
        <ele>362.8</ele>
        <time>2024-04-14T08:27:05Z</time>
      </trkpt>
      <trkpt lat="47.08093" lon="5.98951">
        <ele>362.8</ele>
        <time>2024-04-14T08:27:07Z</time>
      </trkpt>
      <trkpt lat="47.08095" lon="5.98974">
        <ele>363.4</ele>
        <time>2024-04-14T08:27:12Z</time>
      </trkpt>
      <trkpt lat="47.08097" lon="5.98978">
        <ele>364</ele>
        <time>2024-04-14T08:27:13Z</time>
      </trkpt>
      <trkpt lat="47.08101" lon="5.98987">
        <ele>365.4</ele>
        <time>2024-04-14T08:27:15Z</time>
      </trkpt>
      <trkpt lat="47.08105" lon="5.98998">
        <ele>366.6</ele>
        <time>2024-04-14T08:27:18Z</time>
      </trkpt>
      <trkpt lat="47.08105" lon="5.99005">
        <ele>367.8</ele>
        <time>2024-04-14T08:27:20Z</time>
      </trkpt>
      <trkpt lat="47.08114" lon="5.99027">
        <ele>369.8</ele>
        <time>2024-04-14T08:29:20Z</time>
      </trkpt>
      <trkpt lat="47.08119" lon="5.99038">
        <ele>371.2</ele>
        <time>2024-04-14T08:29:24Z</time>
      </trkpt>
      <trkpt lat="47.08125" lon="5.99058">
        <ele>371</ele>
        <time>2024-04-14T08:29:31Z</time>
      </trkpt>
      <trkpt lat="47.08131" lon="5.9907">
        <ele>371</ele>
        <time>2024-04-14T08:29:35Z</time>
      </trkpt>
      <trkpt lat="47.08135" lon="5.99078">
        <ele>370.6</ele>
        <time>2024-04-14T08:29:38Z</time>
      </trkpt>
      <trkpt lat="47.08137" lon="5.99083">
        <ele>370.4</ele>
        <time>2024-04-14T08:29:40Z</time>
      </trkpt>
      <trkpt lat="47.08142" lon="5.99095">
        <ele>370</ele>
        <time>2024-04-14T08:29:44Z</time>
      </trkpt>
      <trkpt lat="47.08143" lon="5.99098">
        <ele>370.2</ele>
        <time>2024-04-14T08:29:45Z</time>
      </trkpt>
      <trkpt lat="47.08152" lon="5.99112">
        <ele>370.2</ele>
        <time>2024-04-14T08:29:51Z</time>
      </trkpt>
      <trkpt lat="47.08159" lon="5.99119">
        <ele>369</ele>
        <time>2024-04-14T08:29:55Z</time>
      </trkpt>
      <trkpt lat="47.08165" lon="5.99124">
        <ele>367.6</ele>
        <time>2024-04-14T08:29:58Z</time>
      </trkpt>
      <trkpt lat="47.08183" lon="5.99137">
        <ele>367.4</ele>
        <time>2024-04-14T08:30:03Z</time>
      </trkpt>
      <trkpt lat="47.08198" lon="5.99146">
        <ele>368.2</ele>
        <time>2024-04-14T08:30:08Z</time>
      </trkpt>
      <trkpt lat="47.08207" lon="5.99152">
        <ele>368.8</ele>
        <time>2024-04-14T08:30:11Z</time>
      </trkpt>
      <trkpt lat="47.08214" lon="5.99159">
        <ele>369.6</ele>
        <time>2024-04-14T08:30:14Z</time>
      </trkpt>
      <trkpt lat="47.08219" lon="5.99166">
        <ele>370</ele>
        <time>2024-04-14T08:30:17Z</time>
      </trkpt>
      <trkpt lat="47.08225" lon="5.99175">
        <ele>371.8</ele>
        <time>2024-04-14T08:30:20Z</time>
      </trkpt>
      <trkpt lat="47.08229" lon="5.9918">
        <ele>373</ele>
        <time>2024-04-14T08:30:22Z</time>
      </trkpt>
      <trkpt lat="47.08233" lon="5.99184">
        <ele>374.2</ele>
        <time>2024-04-14T08:30:24Z</time>
      </trkpt>
      <trkpt lat="47.08235" lon="5.99187">
        <ele>374.6</ele>
        <time>2024-04-14T08:30:25Z</time>
      </trkpt>
      <trkpt lat="47.08236" lon="5.99189">
        <ele>375</ele>
        <time>2024-04-14T08:30:26Z</time>
      </trkpt>
      <trkpt lat="47.08237" lon="5.99191">
        <ele>375.2</ele>
        <time>2024-04-14T08:30:27Z</time>
      </trkpt>
      <trkpt lat="47.08245" lon="5.99203">
        <ele>376.4</ele>
        <time>2024-04-14T08:30:31Z</time>
      </trkpt>
      <trkpt lat="47.08248" lon="5.9921">
        <ele>376.6</ele>
        <time>2024-04-14T08:30:33Z</time>
      </trkpt>
      <trkpt lat="47.08251" lon="5.99217">
        <ele>377.6</ele>
        <time>2024-04-14T08:30:36Z</time>
      </trkpt>
      <trkpt lat="47.08254" lon="5.99219">
        <ele>377.8</ele>
        <time>2024-04-14T08:30:37Z</time>
      </trkpt>
      <trkpt lat="47.08258" lon="5.99225">
        <ele>378</ele>
        <time>2024-04-14T08:30:39Z</time>
      </trkpt>
      <trkpt lat="47.08261" lon="5.99232">
        <ele>377.8</ele>
        <time>2024-04-14T08:30:41Z</time>
      </trkpt>
      <trkpt lat="47.08273" lon="5.9925">
        <ele>378.8</ele>
        <time>2024-04-14T08:30:46Z</time>
      </trkpt>
      <trkpt lat="47.08279" lon="5.9926">
        <ele>380</ele>
        <time>2024-04-14T08:30:49Z</time>
      </trkpt>
      <trkpt lat="47.0829" lon="5.99281">
        <ele>380.6</ele>
        <time>2024-04-14T08:30:55Z</time>
      </trkpt>
      <trkpt lat="47.083" lon="5.99289">
        <ele>381.2</ele>
        <time>2024-04-14T08:30:59Z</time>
      </trkpt>
      <trkpt lat="47.08303" lon="5.9929">
        <ele>381.4</ele>
        <time>2024-04-14T08:31:00Z</time>
      </trkpt>
      <trkpt lat="47.08318" lon="5.99287">
        <ele>382</ele>
        <time>2024-04-14T08:31:05Z</time>
      </trkpt>
      <trkpt lat="47.08322" lon="5.99287">
        <ele>382.4</ele>
        <time>2024-04-14T08:31:06Z</time>
      </trkpt>
      <trkpt lat="47.08338" lon="5.99283">
        <ele>383.4</ele>
        <time>2024-04-14T08:31:11Z</time>
      </trkpt>
      <trkpt lat="47.08341" lon="5.99282">
        <ele>383.6</ele>
        <time>2024-04-14T08:31:12Z</time>
      </trkpt>
      <trkpt lat="47.08365" lon="5.99278">
        <ele>383.8</ele>
        <time>2024-04-14T08:31:19Z</time>
      </trkpt>
      <trkpt lat="47.08393" lon="5.9927">
        <ele>384.4</ele>
        <time>2024-04-14T08:31:27Z</time>
      </trkpt>
      <trkpt lat="47.084" lon="5.99269">
        <ele>384.4</ele>
        <time>2024-04-14T08:31:29Z</time>
      </trkpt>
      <trkpt lat="47.08416" lon="5.99266">
        <ele>385</ele>
        <time>2024-04-14T08:31:34Z</time>
      </trkpt>
      <trkpt lat="47.08422" lon="5.99265">
        <ele>385.4</ele>
        <time>2024-04-14T08:31:36Z</time>
      </trkpt>
      <trkpt lat="47.08443" lon="5.99264">
        <ele>386.8</ele>
        <time>2024-04-14T08:31:43Z</time>
      </trkpt>
      <trkpt lat="47.08454" lon="5.99266">
        <ele>388</ele>
        <time>2024-04-14T08:31:47Z</time>
      </trkpt>
      <trkpt lat="47.08463" lon="5.99268">
        <ele>388.6</ele>
        <time>2024-04-14T08:31:51Z</time>
      </trkpt>
      <trkpt lat="47.08468" lon="5.9927">
        <ele>389.2</ele>
        <time>2024-04-14T08:31:53Z</time>
      </trkpt>
      <trkpt lat="47.08476" lon="5.99273">
        <ele>390.2</ele>
        <time>2024-04-14T08:31:57Z</time>
      </trkpt>
      <trkpt lat="47.08478" lon="5.99274">
        <ele>390.4</ele>
        <time>2024-04-14T08:31:58Z</time>
      </trkpt>
      <trkpt lat="47.08488" lon="5.99278">
        <ele>391.2</ele>
        <time>2024-04-14T08:32:02Z</time>
      </trkpt>
      <trkpt lat="47.08494" lon="5.99279">
        <ele>391.8</ele>
        <time>2024-04-14T08:32:04Z</time>
      </trkpt>
      <trkpt lat="47.08499" lon="5.9928">
        <ele>392.4</ele>
        <time>2024-04-14T08:32:06Z</time>
      </trkpt>
      <trkpt lat="47.0851" lon="5.99281">
        <ele>393.2</ele>
        <time>2024-04-14T08:32:10Z</time>
      </trkpt>
      <trkpt lat="47.08515" lon="5.99282">
        <ele>393.6</ele>
        <time>2024-04-14T08:32:12Z</time>
      </trkpt>
      <trkpt lat="47.08528" lon="5.99283">
        <ele>394.8</ele>
        <time>2024-04-14T08:32:17Z</time>
      </trkpt>
      <trkpt lat="47.08533" lon="5.99283">
        <ele>395.4</ele>
        <time>2024-04-14T08:32:19Z</time>
      </trkpt>
      <trkpt lat="47.08542" lon="5.99285">
        <ele>396</ele>
        <time>2024-04-14T08:32:22Z</time>
      </trkpt>
      <trkpt lat="47.08556" lon="5.99286">
        <ele>396.8</ele>
        <time>2024-04-14T08:32:27Z</time>
      </trkpt>
      <trkpt lat="47.08561" lon="5.99286">
        <ele>397.2</ele>
        <time>2024-04-14T08:32:29Z</time>
      </trkpt>
      <trkpt lat="47.08571" lon="5.99296">
        <ele>397.6</ele>
        <time>2024-04-14T08:32:34Z</time>
      </trkpt>
      <trkpt lat="47.0857" lon="5.99309">
        <ele>398.4</ele>
        <time>2024-04-14T08:32:38Z</time>
      </trkpt>
      <trkpt lat="47.08559" lon="5.99318">
        <ele>399.4</ele>
        <time>2024-04-14T08:32:43Z</time>
      </trkpt>
      <trkpt lat="47.08527" lon="5.99334">
        <ele>400</ele>
        <time>2024-04-14T08:32:53Z</time>
      </trkpt>
      <trkpt lat="47.08502" lon="5.99353">
        <ele>399.8</ele>
        <time>2024-04-14T08:33:01Z</time>
      </trkpt>
      <trkpt lat="47.08474" lon="5.99378">
        <ele>399</ele>
        <time>2024-04-14T08:33:10Z</time>
      </trkpt>
      <trkpt lat="47.08452" lon="5.99403">
        <ele>398.2</ele>
        <time>2024-04-14T08:33:16Z</time>
      </trkpt>
      <trkpt lat="47.08444" lon="5.99413">
        <ele>398</ele>
        <time>2024-04-14T08:33:18Z</time>
      </trkpt>
      <trkpt lat="47.08437" lon="5.99424">
        <ele>397.6</ele>
        <time>2024-04-14T08:33:20Z</time>
      </trkpt>
      <trkpt lat="47.08431" lon="5.99435">
        <ele>397.2</ele>
        <time>2024-04-14T08:33:22Z</time>
      </trkpt>
      <trkpt lat="47.08425" lon="5.99448">
        <ele>396.6</ele>
        <time>2024-04-14T08:33:24Z</time>
      </trkpt>
      <trkpt lat="47.08418" lon="5.99462">
        <ele>395.8</ele>
        <time>2024-04-14T08:33:26Z</time>
      </trkpt>
      <trkpt lat="47.08405" lon="5.99482">
        <ele>394.6</ele>
        <time>2024-04-14T08:33:29Z</time>
      </trkpt>
      <trkpt lat="47.08389" lon="5.995">
        <ele>393.2</ele>
        <time>2024-04-14T08:33:32Z</time>
      </trkpt>
      <trkpt lat="47.08372" lon="5.99516">
        <ele>392.4</ele>
        <time>2024-04-14T08:33:35Z</time>
      </trkpt>
      <trkpt lat="47.08367" lon="5.99521">
        <ele>392</ele>
        <time>2024-04-14T08:33:36Z</time>
      </trkpt>
      <trkpt lat="47.08337" lon="5.99551">
        <ele>391</ele>
        <time>2024-04-14T08:33:42Z</time>
      </trkpt>
      <trkpt lat="47.08328" lon="5.9956">
        <ele>390.8</ele>
        <time>2024-04-14T08:33:44Z</time>
      </trkpt>
      <trkpt lat="47.08305" lon="5.99583">
        <ele>390.4</ele>
        <time>2024-04-14T08:33:50Z</time>
      </trkpt>
      <trkpt lat="47.08289" lon="5.99599">
        <ele>390.6</ele>
        <time>2024-04-14T08:33:56Z</time>
      </trkpt>
      <trkpt lat="47.08285" lon="5.9961">
        <ele>390.2</ele>
        <time>2024-04-14T08:33:59Z</time>
      </trkpt>
      <trkpt lat="47.08286" lon="5.99615">
        <ele>390</ele>
        <time>2024-04-14T08:34:00Z</time>
      </trkpt>
      <trkpt lat="47.08288" lon="5.99619">
        <ele>390</ele>
        <time>2024-04-14T08:34:01Z</time>
      </trkpt>
      <trkpt lat="47.08294" lon="5.99631">
        <ele>390</ele>
        <time>2024-04-14T08:34:04Z</time>
      </trkpt>
      <trkpt lat="47.08296" lon="5.99635">
        <ele>390</ele>
        <time>2024-04-14T08:34:05Z</time>
      </trkpt>
      <trkpt lat="47.08315" lon="5.99668">
        <ele>390.6</ele>
        <time>2024-04-14T08:34:13Z</time>
      </trkpt>
      <trkpt lat="47.08321" lon="5.99679">
        <ele>391</ele>
        <time>2024-04-14T08:34:16Z</time>
      </trkpt>
      <trkpt lat="47.08331" lon="5.99699">
        <ele>391.6</ele>
        <time>2024-04-14T08:34:21Z</time>
      </trkpt>
      <trkpt lat="47.08336" lon="5.99712">
        <ele>392.2</ele>
        <time>2024-04-14T08:34:24Z</time>
      </trkpt>
      <trkpt lat="47.08342" lon="5.99729">
        <ele>393.4</ele>
        <time>2024-04-14T08:34:28Z</time>
      </trkpt>
      <trkpt lat="47.08345" lon="5.99738">
        <ele>393.6</ele>
        <time>2024-04-14T08:34:30Z</time>
      </trkpt>
      <trkpt lat="47.08354" lon="5.99768">
        <ele>394.4</ele>
        <time>2024-04-14T08:34:37Z</time>
      </trkpt>
      <trkpt lat="47.08356" lon="5.99776">
        <ele>394.8</ele>
        <time>2024-04-14T08:34:39Z</time>
      </trkpt>
      <trkpt lat="47.08363" lon="5.99795">
        <ele>395.6</ele>
        <time>2024-04-14T08:34:44Z</time>
      </trkpt>
      <trkpt lat="47.08367" lon="5.99805">
        <ele>396.4</ele>
        <time>2024-04-14T08:34:47Z</time>
      </trkpt>
      <trkpt lat="47.08368" lon="5.99809">
        <ele>396.8</ele>
        <time>2024-04-14T08:34:48Z</time>
      </trkpt>
      <trkpt lat="47.08372" lon="5.9982">
        <ele>397.8</ele>
        <time>2024-04-14T08:34:51Z</time>
      </trkpt>
      <trkpt lat="47.08375" lon="5.99831">
        <ele>397.8</ele>
        <time>2024-04-14T08:34:54Z</time>
      </trkpt>
      <trkpt lat="47.08385" lon="5.99861">
        <ele>398.4</ele>
        <time>2024-04-14T08:35:03Z</time>
      </trkpt>
      <trkpt lat="47.08392" lon="5.99887">
        <ele>398.8</ele>
        <time>2024-04-14T08:35:11Z</time>
      </trkpt>
      <trkpt lat="47.08395" lon="5.99892">
        <ele>398.8</ele>
        <time>2024-04-14T08:35:13Z</time>
      </trkpt>
      <trkpt lat="47.08403" lon="5.99904">
        <ele>399.6</ele>
        <time>2024-04-14T08:35:17Z</time>
      </trkpt>
      <trkpt lat="47.08406" lon="5.99911">
        <ele>400.2</ele>
        <time>2024-04-14T08:35:19Z</time>
      </trkpt>
      <trkpt lat="47.08409" lon="5.99919">
        <ele>400.6</ele>
        <time>2024-04-14T08:35:22Z</time>
      </trkpt>
      <trkpt lat="47.08416" lon="5.99943">
        <ele>400.2</ele>
        <time>2024-04-14T08:35:30Z</time>
      </trkpt>
      <trkpt lat="47.08429" lon="5.99966">
        <ele>399.2</ele>
        <time>2024-04-14T08:35:37Z</time>
      </trkpt>
      <trkpt lat="47.08439" lon="5.99984">
        <ele>398.6</ele>
        <time>2024-04-14T08:35:43Z</time>
      </trkpt>
      <trkpt lat="47.08445" lon="6">
        <ele>399.6</ele>
        <time>2024-04-14T08:35:48Z</time>
      </trkpt>
      <trkpt lat="47.08449" lon="6.0001">
        <ele>400.4</ele>
        <time>2024-04-14T08:35:51Z</time>
      </trkpt>
      <trkpt lat="47.0845" lon="6.00018">
        <ele>400.6</ele>
        <time>2024-04-14T08:35:54Z</time>
      </trkpt>
      <trkpt lat="47.08449" lon="6.0002">
        <ele>400.8</ele>
        <time>2024-04-14T08:35:55Z</time>
      </trkpt>
      <trkpt lat="47.08445" lon="6.00027">
        <ele>400.8</ele>
        <time>2024-04-14T08:35:59Z</time>
      </trkpt>
      <trkpt lat="47.0844" lon="6.00037">
        <ele>401.6</ele>
        <time>2024-04-14T08:36:02Z</time>
      </trkpt>
      <trkpt lat="47.08437" lon="6.00051">
        <ele>403</ele>
        <time>2024-04-14T08:36:05Z</time>
      </trkpt>
      <trkpt lat="47.0844" lon="6.00076">
        <ele>403</ele>
        <time>2024-04-14T08:36:13Z</time>
      </trkpt>
      <trkpt lat="47.08443" lon="6.00085">
        <ele>404.2</ele>
        <time>2024-04-14T08:36:17Z</time>
      </trkpt>
      <trkpt lat="47.08445" lon="6.00093">
        <ele>405.4</ele>
        <time>2024-04-14T08:36:20Z</time>
      </trkpt>
      <trkpt lat="47.08447" lon="6.00101">
        <ele>406.8</ele>
        <time>2024-04-14T08:36:23Z</time>
      </trkpt>
      <trkpt lat="47.08449" lon="6.00107">
        <ele>408</ele>
        <time>2024-04-14T08:36:25Z</time>
      </trkpt>
      <trkpt lat="47.0845" lon="6.00109">
        <ele>408.2</ele>
        <time>2024-04-14T08:36:26Z</time>
      </trkpt>
      <trkpt lat="47.08451" lon="6.00113">
        <ele>409.2</ele>
        <time>2024-04-14T08:36:28Z</time>
      </trkpt>
      <trkpt lat="47.08454" lon="6.00119">
        <ele>410.4</ele>
        <time>2024-04-14T08:36:31Z</time>
      </trkpt>
      <trkpt lat="47.08456" lon="6.00127">
        <ele>411.4</ele>
        <time>2024-04-14T08:36:34Z</time>
      </trkpt>
      <trkpt lat="47.08457" lon="6.0013">
        <ele>412</ele>
        <time>2024-04-14T08:36:35Z</time>
      </trkpt>
      <trkpt lat="47.08459" lon="6.00135">
        <ele>413</ele>
        <time>2024-04-14T08:36:37Z</time>
      </trkpt>
      <trkpt lat="47.0846" lon="6.0014">
        <ele>414.2</ele>
        <time>2024-04-14T08:36:39Z</time>
      </trkpt>
      <trkpt lat="47.0846" lon="6.00143">
        <ele>414.8</ele>
        <time>2024-04-14T08:36:41Z</time>
      </trkpt>
      <trkpt lat="47.08458" lon="6.00147">
        <ele>415.4</ele>
        <time>2024-04-14T08:36:43Z</time>
      </trkpt>
      <trkpt lat="47.08441" lon="6.00162">
        <ele>421.6</ele>
        <time>2024-04-14T08:36:59Z</time>
      </trkpt>
      <trkpt lat="47.08439" lon="6.00163">
        <ele>422.2</ele>
        <time>2024-04-14T08:37:00Z</time>
      </trkpt>
      <trkpt lat="47.08438" lon="6.00164">
        <ele>423</ele>
        <time>2024-04-14T08:37:01Z</time>
      </trkpt>
      <trkpt lat="47.08432" lon="6.00165">
        <ele>424.4</ele>
        <time>2024-04-14T08:37:04Z</time>
      </trkpt>
      <trkpt lat="47.08426" lon="6.00169">
        <ele>425.4</ele>
        <time>2024-04-14T08:37:07Z</time>
      </trkpt>
      <trkpt lat="47.08425" lon="6.0017">
        <ele>425.6</ele>
        <time>2024-04-14T08:37:08Z</time>
      </trkpt>
      <trkpt lat="47.0842" lon="6.00171">
        <ele>426.6</ele>
        <time>2024-04-14T08:37:11Z</time>
      </trkpt>
      <trkpt lat="47.08416" lon="6.00173">
        <ele>427.2</ele>
        <time>2024-04-14T08:37:14Z</time>
      </trkpt>
      <trkpt lat="47.08413" lon="6.00174">
        <ele>427.8</ele>
        <time>2024-04-14T08:37:16Z</time>
      </trkpt>
      <trkpt lat="47.0841" lon="6.00176">
        <ele>428.8</ele>
        <time>2024-04-14T08:37:19Z</time>
      </trkpt>
      <trkpt lat="47.08409" lon="6.00177">
        <ele>429.2</ele>
        <time>2024-04-14T08:37:20Z</time>
      </trkpt>
      <trkpt lat="47.08361" lon="6.00209">
        <ele>439.2</ele>
        <time>2024-04-14T08:37:58Z</time>
      </trkpt>
      <trkpt lat="47.08357" lon="6.00208">
        <ele>440.6</ele>
        <time>2024-04-14T08:38:01Z</time>
      </trkpt>
      <trkpt lat="47.08353" lon="6.00209">
        <ele>442</ele>
        <time>2024-04-14T08:38:04Z</time>
      </trkpt>
      <trkpt lat="47.08348" lon="6.00209">
        <ele>443</ele>
        <time>2024-04-14T08:38:07Z</time>
      </trkpt>
      <trkpt lat="47.08347" lon="6.00209">
        <ele>443</ele>
        <time>2024-04-14T08:38:08Z</time>
      </trkpt>
      <trkpt lat="47.08341" lon="6.00209">
        <ele>444.2</ele>
        <time>2024-04-14T08:38:12Z</time>
      </trkpt>
      <trkpt lat="47.08335" lon="6.0021">
        <ele>444.8</ele>
        <time>2024-04-14T08:38:16Z</time>
      </trkpt>
      <trkpt lat="47.0832" lon="6.0021">
        <ele>444.4</ele>
        <time>2024-04-14T08:38:24Z</time>
      </trkpt>
      <trkpt lat="47.08306" lon="6.00209">
        <ele>444.4</ele>
        <time>2024-04-14T08:38:33Z</time>
      </trkpt>
      <trkpt lat="47.08291" lon="6.00213">
        <ele>444.8</ele>
        <time>2024-04-14T08:38:41Z</time>
      </trkpt>
      <trkpt lat="47.08286" lon="6.00216">
        <ele>445.4</ele>
        <time>2024-04-14T08:38:44Z</time>
      </trkpt>
      <trkpt lat="47.08281" lon="6.00218">
        <ele>446.6</ele>
        <time>2024-04-14T08:38:47Z</time>
      </trkpt>
      <trkpt lat="47.08279" lon="6.00219">
        <ele>447</ele>
        <time>2024-04-14T08:38:48Z</time>
      </trkpt>
      <trkpt lat="47.08274" lon="6.00221">
        <ele>447.6</ele>
        <time>2024-04-14T08:38:51Z</time>
      </trkpt>
      <trkpt lat="47.08262" lon="6.00233">
        <ele>450.4</ele>
        <time>2024-04-14T08:39:00Z</time>
      </trkpt>
      <trkpt lat="47.08256" lon="6.00239">
        <ele>450.8</ele>
        <time>2024-04-14T08:39:04Z</time>
      </trkpt>
      <trkpt lat="47.08252" lon="6.00241">
        <ele>451.6</ele>
        <time>2024-04-14T08:39:07Z</time>
      </trkpt>
      <trkpt lat="47.08242" lon="6.00249">
        <ele>453.8</ele>
        <time>2024-04-14T08:39:15Z</time>
      </trkpt>
      <trkpt lat="47.08238" lon="6.00252">
        <ele>454.8</ele>
        <time>2024-04-14T08:39:18Z</time>
      </trkpt>
      <trkpt lat="47.08204" lon="6.00282">
        <ele>462.2</ele>
        <time>2024-04-14T08:39:47Z</time>
      </trkpt>
      <trkpt lat="47.08203" lon="6.00284">
        <ele>462.6</ele>
        <time>2024-04-14T08:39:48Z</time>
      </trkpt>
      <trkpt lat="47.082" lon="6.00289">
        <ele>463.4</ele>
        <time>2024-04-14T08:39:51Z</time>
      </trkpt>
      <trkpt lat="47.08195" lon="6.00294">
        <ele>464.6</ele>
        <time>2024-04-14T08:39:56Z</time>
      </trkpt>
      <trkpt lat="47.08179" lon="6.00308">
        <ele>464.8</ele>
        <time>2024-04-14T08:40:07Z</time>
      </trkpt>
      <trkpt lat="47.08173" lon="6.00313">
        <ele>465.2</ele>
        <time>2024-04-14T08:40:10Z</time>
      </trkpt>
      <trkpt lat="47.08169" lon="6.00315">
        <ele>465.8</ele>
        <time>2024-04-14T08:40:14Z</time>
      </trkpt>
      <trkpt lat="47.08167" lon="6.00318">
        <ele>466.4</ele>
        <time>2024-04-14T08:40:16Z</time>
      </trkpt>
      <trkpt lat="47.08164" lon="6.00319">
        <ele>467</ele>
        <time>2024-04-14T08:40:18Z</time>
      </trkpt>
      <trkpt lat="47.08122" lon="6.00346">
        <ele>474.6</ele>
        <time>2024-04-14T08:40:46Z</time>
      </trkpt>
      <trkpt lat="47.0811" lon="6.0035">
        <ele>475.8</ele>
        <time>2024-04-14T08:40:53Z</time>
      </trkpt>
      <trkpt lat="47.08099" lon="6.0035">
        <ele>476.8</ele>
        <time>2024-04-14T08:40:58Z</time>
      </trkpt>
      <trkpt lat="47.08098" lon="6.00349">
        <ele>477</ele>
        <time>2024-04-14T08:40:59Z</time>
      </trkpt>
      <trkpt lat="47.08084" lon="6.00342">
        <ele>477.2</ele>
        <time>2024-04-14T08:41:04Z</time>
      </trkpt>
      <trkpt lat="47.08073" lon="6.00339">
        <ele>477.8</ele>
        <time>2024-04-14T08:41:09Z</time>
      </trkpt>
      <trkpt lat="47.08063" lon="6.00343">
        <ele>477.4</ele>
        <time>2024-04-14T08:41:14Z</time>
      </trkpt>
      <trkpt lat="47.08052" lon="6.00344">
        <ele>478.6</ele>
        <time>2024-04-14T08:41:21Z</time>
      </trkpt>
      <trkpt lat="47.08046" lon="6.00343">
        <ele>478.8</ele>
        <time>2024-04-14T08:41:24Z</time>
      </trkpt>
      <trkpt lat="47.08041" lon="6.00342">
        <ele>479.6</ele>
        <time>2024-04-14T08:41:27Z</time>
      </trkpt>
      <trkpt lat="47.08037" lon="6.0034">
        <ele>480.2</ele>
        <time>2024-04-14T08:41:29Z</time>
      </trkpt>
      <trkpt lat="47.08035" lon="6.0034">
        <ele>480.4</ele>
        <time>2024-04-14T08:41:30Z</time>
      </trkpt>
      <trkpt lat="47.08026" lon="6.0034">
        <ele>480.2</ele>
        <time>2024-04-14T08:41:34Z</time>
      </trkpt>
      <trkpt lat="47.08022" lon="6.00339">
        <ele>480.2</ele>
        <time>2024-04-14T08:41:35Z</time>
      </trkpt>
      <trkpt lat="47.08013" lon="6.00337">
        <ele>480.8</ele>
        <time>2024-04-14T08:41:38Z</time>
      </trkpt>
      <trkpt lat="47.08003" lon="6.00339">
        <ele>481.8</ele>
        <time>2024-04-14T08:41:42Z</time>
      </trkpt>
      <trkpt lat="47.08001" lon="6.00339">
        <ele>482</ele>
        <time>2024-04-14T08:41:43Z</time>
      </trkpt>
      <trkpt lat="47.07987" lon="6.00335">
        <ele>481.8</ele>
        <time>2024-04-14T08:41:48Z</time>
      </trkpt>
      <trkpt lat="47.07976" lon="6.00338">
        <ele>482.2</ele>
        <time>2024-04-14T08:41:52Z</time>
      </trkpt>
      <trkpt lat="47.07951" lon="6.00359">
        <ele>484</ele>
        <time>2024-04-14T08:43:34Z</time>
      </trkpt>
      <trkpt lat="47.07917" lon="6.00394">
        <ele>485.2</ele>
        <time>2024-04-14T08:43:59Z</time>
      </trkpt>
      <trkpt lat="47.07916" lon="6.00397">
        <ele>485.4</ele>
        <time>2024-04-14T08:44:00Z</time>
      </trkpt>
      <trkpt lat="47.0791" lon="6.00412">
        <ele>484.2</ele>
        <time>2024-04-14T08:44:04Z</time>
      </trkpt>
      <trkpt lat="47.07904" lon="6.00421">
        <ele>483.6</ele>
        <time>2024-04-14T08:44:06Z</time>
      </trkpt>
      <trkpt lat="47.07897" lon="6.00437">
        <ele>483</ele>
        <time>2024-04-14T08:44:10Z</time>
      </trkpt>
      <trkpt lat="47.07895" lon="6.00441">
        <ele>482.4</ele>
        <time>2024-04-14T08:44:11Z</time>
      </trkpt>
      <trkpt lat="47.07893" lon="6.00449">
        <ele>481.4</ele>
        <time>2024-04-14T08:44:13Z</time>
      </trkpt>
      <trkpt lat="47.07892" lon="6.00459">
        <ele>480</ele>
        <time>2024-04-14T08:44:15Z</time>
      </trkpt>
      <trkpt lat="47.0789" lon="6.00466">
        <ele>478.6</ele>
        <time>2024-04-14T08:44:17Z</time>
      </trkpt>
      <trkpt lat="47.07887" lon="6.00473">
        <ele>477.2</ele>
        <time>2024-04-14T08:44:19Z</time>
      </trkpt>
      <trkpt lat="47.07884" lon="6.0048">
        <ele>475.8</ele>
        <time>2024-04-14T08:44:21Z</time>
      </trkpt>
      <trkpt lat="47.07882" lon="6.00487">
        <ele>474.4</ele>
        <time>2024-04-14T08:44:23Z</time>
      </trkpt>
      <trkpt lat="47.07879" lon="6.00494">
        <ele>472.8</ele>
        <time>2024-04-14T08:44:25Z</time>
      </trkpt>
      <trkpt lat="47.07877" lon="6.005">
        <ele>471.4</ele>
        <time>2024-04-14T08:44:27Z</time>
      </trkpt>
      <trkpt lat="47.07875" lon="6.0051">
        <ele>469.8</ele>
        <time>2024-04-14T08:44:30Z</time>
      </trkpt>
      <trkpt lat="47.07875" lon="6.00515">
        <ele>469</ele>
        <time>2024-04-14T08:44:31Z</time>
      </trkpt>
      <trkpt lat="47.07874" lon="6.00521">
        <ele>468.4</ele>
        <time>2024-04-14T08:44:32Z</time>
      </trkpt>
      <trkpt lat="47.07873" lon="6.00533">
        <ele>467</ele>
        <time>2024-04-14T08:44:34Z</time>
      </trkpt>
      <trkpt lat="47.07873" lon="6.00543">
        <ele>465.4</ele>
        <time>2024-04-14T08:44:36Z</time>
      </trkpt>
      <trkpt lat="47.07873" lon="6.00547">
        <ele>464.6</ele>
        <time>2024-04-14T08:44:37Z</time>
      </trkpt>
      <trkpt lat="47.07872" lon="6.00552">
        <ele>463.8</ele>
        <time>2024-04-14T08:44:38Z</time>
      </trkpt>
      <trkpt lat="47.0787" lon="6.0056">
        <ele>462.4</ele>
        <time>2024-04-14T08:44:40Z</time>
      </trkpt>
      <trkpt lat="47.07867" lon="6.00566">
        <ele>461</ele>
        <time>2024-04-14T08:44:42Z</time>
      </trkpt>
      <trkpt lat="47.07865" lon="6.00569">
        <ele>460.2</ele>
        <time>2024-04-14T08:44:43Z</time>
      </trkpt>
      <trkpt lat="47.07866" lon="6.00571">
        <ele>459.8</ele>
        <time>2024-04-14T08:44:44Z</time>
      </trkpt>
      <trkpt lat="47.07866" lon="6.0058">
        <ele>458</ele>
        <time>2024-04-14T08:44:47Z</time>
      </trkpt>
      <trkpt lat="47.07869" lon="6.00603">
        <ele>453</ele>
        <time>2024-04-14T08:44:59Z</time>
      </trkpt>
      <trkpt lat="47.0787" lon="6.00606">
        <ele>452.8</ele>
        <time>2024-04-14T08:45:00Z</time>
      </trkpt>
      <trkpt lat="47.07872" lon="6.00612">
        <ele>452.4</ele>
        <time>2024-04-14T08:45:02Z</time>
      </trkpt>
      <trkpt lat="47.07877" lon="6.00623">
        <ele>452</ele>
        <time>2024-04-14T08:45:05Z</time>
      </trkpt>
      <trkpt lat="47.07881" lon="6.00632">
        <ele>451</ele>
        <time>2024-04-14T08:45:07Z</time>
      </trkpt>
      <trkpt lat="47.07884" lon="6.0064">
        <ele>450.6</ele>
        <time>2024-04-14T08:45:09Z</time>
      </trkpt>
      <trkpt lat="47.07888" lon="6.00646">
        <ele>449.8</ele>
        <time>2024-04-14T08:45:11Z</time>
      </trkpt>
      <trkpt lat="47.07903" lon="6.00679">
        <ele>454.4</ele>
        <time>2024-04-14T08:45:45Z</time>
      </trkpt>
      <trkpt lat="47.07908" lon="6.00688">
        <ele>455.6</ele>
        <time>2024-04-14T08:45:49Z</time>
      </trkpt>
      <trkpt lat="47.07909" lon="6.00691">
        <ele>456</ele>
        <time>2024-04-14T08:45:50Z</time>
      </trkpt>
      <trkpt lat="47.07916" lon="6.00734">
        <ele>449.8</ele>
        <time>2024-04-14T08:46:55Z</time>
      </trkpt>
      <trkpt lat="47.0792" lon="6.00738">
        <ele>449.6</ele>
        <time>2024-04-14T08:46:57Z</time>
      </trkpt>
      <trkpt lat="47.07928" lon="6.00752">
        <ele>448.8</ele>
        <time>2024-04-14T08:47:02Z</time>
      </trkpt>
      <trkpt lat="47.07929" lon="6.0076">
        <ele>448.6</ele>
        <time>2024-04-14T08:47:04Z</time>
      </trkpt>
      <trkpt lat="47.07932" lon="6.00765">
        <ele>448.6</ele>
        <time>2024-04-14T08:47:06Z</time>
      </trkpt>
      <trkpt lat="47.07938" lon="6.00774">
        <ele>447.8</ele>
        <time>2024-04-14T08:47:09Z</time>
      </trkpt>
      <trkpt lat="47.0794" lon="6.00777">
        <ele>447.6</ele>
        <time>2024-04-14T08:47:10Z</time>
      </trkpt>
      <trkpt lat="47.07952" lon="6.00794">
        <ele>446.8</ele>
        <time>2024-04-14T08:47:15Z</time>
      </trkpt>
      <trkpt lat="47.07958" lon="6.00801">
        <ele>446.6</ele>
        <time>2024-04-14T08:47:17Z</time>
      </trkpt>
      <trkpt lat="47.07978" lon="6.00821">
        <ele>446.8</ele>
        <time>2024-04-14T08:47:24Z</time>
      </trkpt>
      <trkpt lat="47.07998" lon="6.00839">
        <ele>447</ele>
        <time>2024-04-14T08:47:30Z</time>
      </trkpt>
      <trkpt lat="47.08" lon="6.00841">
        <ele>447.6</ele>
        <time>2024-04-14T08:47:31Z</time>
      </trkpt>
      <trkpt lat="47.08006" lon="6.00844">
        <ele>448.6</ele>
        <time>2024-04-14T08:47:33Z</time>
      </trkpt>
      <trkpt lat="47.08011" lon="6.0085">
        <ele>449.8</ele>
        <time>2024-04-14T08:47:35Z</time>
      </trkpt>
      <trkpt lat="47.08016" lon="6.00855">
        <ele>450.8</ele>
        <time>2024-04-14T08:47:37Z</time>
      </trkpt>
      <trkpt lat="47.08021" lon="6.00861">
        <ele>451.8</ele>
        <time>2024-04-14T08:47:40Z</time>
      </trkpt>
      <trkpt lat="47.08023" lon="6.00863">
        <ele>452.4</ele>
        <time>2024-04-14T08:47:41Z</time>
      </trkpt>
      <trkpt lat="47.08029" lon="6.0087">
        <ele>453.8</ele>
        <time>2024-04-14T08:47:44Z</time>
      </trkpt>
      <trkpt lat="47.08037" lon="6.00876">
        <ele>455.2</ele>
        <time>2024-04-14T08:47:47Z</time>
      </trkpt>
      <trkpt lat="47.08042" lon="6.00879">
        <ele>456.2</ele>
        <time>2024-04-14T08:47:49Z</time>
      </trkpt>
      <trkpt lat="47.08051" lon="6.00884">
        <ele>457.6</ele>
        <time>2024-04-14T08:47:52Z</time>
      </trkpt>
      <trkpt lat="47.08054" lon="6.00886">
        <ele>457.8</ele>
        <time>2024-04-14T08:47:53Z</time>
      </trkpt>
      <trkpt lat="47.08059" lon="6.0089">
        <ele>458.8</ele>
        <time>2024-04-14T08:47:55Z</time>
      </trkpt>
      <trkpt lat="47.08065" lon="6.00895">
        <ele>460</ele>
        <time>2024-04-14T08:47:57Z</time>
      </trkpt>
      <trkpt lat="47.08068" lon="6.00898">
        <ele>460.4</ele>
        <time>2024-04-14T08:47:58Z</time>
      </trkpt>
      <trkpt lat="47.08078" lon="6.00904">
        <ele>461.2</ele>
        <time>2024-04-14T08:48:01Z</time>
      </trkpt>
      <trkpt lat="47.08084" lon="6.00907">
        <ele>462.4</ele>
        <time>2024-04-14T08:48:03Z</time>
      </trkpt>
      <trkpt lat="47.08087" lon="6.00909">
        <ele>462.8</ele>
        <time>2024-04-14T08:48:04Z</time>
      </trkpt>
      <trkpt lat="47.08089" lon="6.0091">
        <ele>463.4</ele>
        <time>2024-04-14T08:48:05Z</time>
      </trkpt>
      <trkpt lat="47.08094" lon="6.00912">
        <ele>464.6</ele>
        <time>2024-04-14T08:48:07Z</time>
      </trkpt>
      <trkpt lat="47.08102" lon="6.00916">
        <ele>465.6</ele>
        <time>2024-04-14T08:48:10Z</time>
      </trkpt>
      <trkpt lat="47.08111" lon="6.0092">
        <ele>466.8</ele>
        <time>2024-04-14T08:48:13Z</time>
      </trkpt>
      <trkpt lat="47.08117" lon="6.00924">
        <ele>467.8</ele>
        <time>2024-04-14T08:48:15Z</time>
      </trkpt>
      <trkpt lat="47.08123" lon="6.00929">
        <ele>469.4</ele>
        <time>2024-04-14T08:48:17Z</time>
      </trkpt>
      <trkpt lat="47.08129" lon="6.00933">
        <ele>470.8</ele>
        <time>2024-04-14T08:48:19Z</time>
      </trkpt>
      <trkpt lat="47.08136" lon="6.00937">
        <ele>472</ele>
        <time>2024-04-14T08:48:21Z</time>
      </trkpt>
      <trkpt lat="47.08142" lon="6.00941">
        <ele>473.2</ele>
        <time>2024-04-14T08:48:23Z</time>
      </trkpt>
      <trkpt lat="47.08145" lon="6.00942">
        <ele>473.8</ele>
        <time>2024-04-14T08:48:24Z</time>
      </trkpt>
      <trkpt lat="47.08152" lon="6.00945">
        <ele>474.6</ele>
        <time>2024-04-14T08:48:26Z</time>
      </trkpt>
      <trkpt lat="47.08166" lon="6.00952">
        <ele>475.8</ele>
        <time>2024-04-14T08:48:29Z</time>
      </trkpt>
      <trkpt lat="47.08171" lon="6.00954">
        <ele>476</ele>
        <time>2024-04-14T08:48:30Z</time>
      </trkpt>
      <trkpt lat="47.08186" lon="6.00957">
        <ele>476.4</ele>
        <time>2024-04-14T08:48:33Z</time>
      </trkpt>
      <trkpt lat="47.08195" lon="6.00956">
        <ele>476.8</ele>
        <time>2024-04-14T08:48:35Z</time>
      </trkpt>
      <trkpt lat="47.08199" lon="6.00955">
        <ele>477</ele>
        <time>2024-04-14T08:48:36Z</time>
      </trkpt>
      <trkpt lat="47.08221" lon="6.00947">
        <ele>478</ele>
        <time>2024-04-14T08:48:41Z</time>
      </trkpt>
      <trkpt lat="47.08229" lon="6.00943">
        <ele>479.2</ele>
        <time>2024-04-14T08:48:44Z</time>
      </trkpt>
      <trkpt lat="47.08234" lon="6.0094">
        <ele>480.2</ele>
        <time>2024-04-14T08:48:46Z</time>
      </trkpt>
      <trkpt lat="47.08237" lon="6.00937">
        <ele>480.4</ele>
        <time>2024-04-14T08:48:47Z</time>
      </trkpt>
      <trkpt lat="47.08241" lon="6.00933">
        <ele>481.6</ele>
        <time>2024-04-14T08:48:49Z</time>
      </trkpt>
      <trkpt lat="47.08245" lon="6.00931">
        <ele>482.8</ele>
        <time>2024-04-14T08:48:51Z</time>
      </trkpt>
      <trkpt lat="47.08247" lon="6.0093">
        <ele>483.2</ele>
        <time>2024-04-14T08:48:52Z</time>
      </trkpt>
      <trkpt lat="47.08252" lon="6.00927">
        <ele>484</ele>
        <time>2024-04-14T08:48:54Z</time>
      </trkpt>
      <trkpt lat="47.08259" lon="6.00923">
        <ele>485</ele>
        <time>2024-04-14T08:48:57Z</time>
      </trkpt>
      <trkpt lat="47.08262" lon="6.00922">
        <ele>485.4</ele>
        <time>2024-04-14T08:48:58Z</time>
      </trkpt>
      <trkpt lat="47.08266" lon="6.00921">
        <ele>486.4</ele>
        <time>2024-04-14T08:49:00Z</time>
      </trkpt>
      <trkpt lat="47.08276" lon="6.00919">
        <ele>487.4</ele>
        <time>2024-04-14T08:49:04Z</time>
      </trkpt>
      <trkpt lat="47.08287" lon="6.0092">
        <ele>488.4</ele>
        <time>2024-04-14T08:49:10Z</time>
      </trkpt>
      <trkpt lat="47.08294" lon="6.00923">
        <ele>489.8</ele>
        <time>2024-04-14T08:49:14Z</time>
      </trkpt>
      <trkpt lat="47.08297" lon="6.00924">
        <ele>490.2</ele>
        <time>2024-04-14T08:49:16Z</time>
      </trkpt>
      <trkpt lat="47.08301" lon="6.00924">
        <ele>491.4</ele>
        <time>2024-04-14T08:49:18Z</time>
      </trkpt>
      <trkpt lat="47.08307" lon="6.00926">
        <ele>493</ele>
        <time>2024-04-14T08:49:21Z</time>
      </trkpt>
      <trkpt lat="47.0831" lon="6.00928">
        <ele>494.4</ele>
        <time>2024-04-14T08:49:23Z</time>
      </trkpt>
      <trkpt lat="47.08321" lon="6.00935">
        <ele>495</ele>
        <time>2024-04-14T08:49:29Z</time>
      </trkpt>
      <trkpt lat="47.08324" lon="6.00936">
        <ele>495.6</ele>
        <time>2024-04-14T08:49:31Z</time>
      </trkpt>
      <trkpt lat="47.08327" lon="6.00936">
        <ele>497</ele>
        <time>2024-04-14T08:49:33Z</time>
      </trkpt>
      <trkpt lat="47.08329" lon="6.00937">
        <ele>498</ele>
        <time>2024-04-14T08:49:34Z</time>
      </trkpt>
      <trkpt lat="47.08332" lon="6.00937">
        <ele>498.2</ele>
        <time>2024-04-14T08:49:36Z</time>
      </trkpt>
      <trkpt lat="47.08336" lon="6.00937">
        <ele>499.2</ele>
        <time>2024-04-14T08:49:38Z</time>
      </trkpt>
      <trkpt lat="47.08334" lon="6.00944">
        <ele>500.6</ele>
        <time>2024-04-14T08:49:46Z</time>
      </trkpt>
      <trkpt lat="47.08324" lon="6.0095">
        <ele>500</ele>
        <time>2024-04-14T08:49:52Z</time>
      </trkpt>
      <trkpt lat="47.08322" lon="6.00952">
        <ele>500</ele>
        <time>2024-04-14T08:49:53Z</time>
      </trkpt>
      <trkpt lat="47.08319" lon="6.0096">
        <ele>499.4</ele>
        <time>2024-04-14T08:49:54Z</time>
      </trkpt>
      <trkpt lat="47.0831" lon="6.00975">
        <ele>497.8</ele>
        <time>2024-04-14T08:49:56Z</time>
      </trkpt>
      <trkpt lat="47.08302" lon="6.00992">
        <ele>496</ele>
        <time>2024-04-14T08:49:58Z</time>
      </trkpt>
      <trkpt lat="47.08297" lon="6.01003">
        <ele>494.8</ele>
        <time>2024-04-14T08:50:00Z</time>
      </trkpt>
      <trkpt lat="47.08295" lon="6.01007">
        <ele>494.4</ele>
        <time>2024-04-14T08:50:01Z</time>
      </trkpt>
      <trkpt lat="47.08292" lon="6.01018">
        <ele>493.2</ele>
        <time>2024-04-14T08:50:04Z</time>
      </trkpt>
      <trkpt lat="47.08287" lon="6.01027">
        <ele>492.6</ele>
        <time>2024-04-14T08:50:06Z</time>
      </trkpt>
      <trkpt lat="47.08285" lon="6.01032">
        <ele>491.8</ele>
        <time>2024-04-14T08:50:07Z</time>
      </trkpt>
      <trkpt lat="47.08278" lon="6.01045">
        <ele>490.2</ele>
        <time>2024-04-14T08:50:09Z</time>
      </trkpt>
      <trkpt lat="47.08274" lon="6.0105">
        <ele>489.4</ele>
        <time>2024-04-14T08:50:10Z</time>
      </trkpt>
      <trkpt lat="47.0827" lon="6.01055">
        <ele>488.6</ele>
        <time>2024-04-14T08:50:11Z</time>
      </trkpt>
      <trkpt lat="47.08267" lon="6.01059">
        <ele>487.6</ele>
        <time>2024-04-14T08:50:12Z</time>
      </trkpt>
      <trkpt lat="47.08264" lon="6.01063">
        <ele>486.6</ele>
        <time>2024-04-14T08:50:13Z</time>
      </trkpt>
      <trkpt lat="47.08262" lon="6.01067">
        <ele>485.4</ele>
        <time>2024-04-14T08:50:14Z</time>
      </trkpt>
      <trkpt lat="47.08259" lon="6.01071">
        <ele>484.2</ele>
        <time>2024-04-14T08:50:15Z</time>
      </trkpt>
      <trkpt lat="47.08256" lon="6.01076">
        <ele>483.2</ele>
        <time>2024-04-14T08:50:16Z</time>
      </trkpt>
      <trkpt lat="47.08254" lon="6.01082">
        <ele>482</ele>
        <time>2024-04-14T08:50:17Z</time>
      </trkpt>
      <trkpt lat="47.08251" lon="6.01088">
        <ele>481</ele>
        <time>2024-04-14T08:50:18Z</time>
      </trkpt>
      <trkpt lat="47.08249" lon="6.01092">
        <ele>480</ele>
        <time>2024-04-14T08:50:19Z</time>
      </trkpt>
      <trkpt lat="47.08248" lon="6.01096">
        <ele>479.2</ele>
        <time>2024-04-14T08:50:20Z</time>
      </trkpt>
      <trkpt lat="47.08246" lon="6.01102">
        <ele>477.4</ele>
        <time>2024-04-14T08:50:22Z</time>
      </trkpt>
      <trkpt lat="47.08242" lon="6.01106">
        <ele>475.6</ele>
        <time>2024-04-14T08:50:24Z</time>
      </trkpt>
      <trkpt lat="47.08238" lon="6.01109">
        <ele>473.8</ele>
        <time>2024-04-14T08:50:26Z</time>
      </trkpt>
      <trkpt lat="47.08234" lon="6.01113">
        <ele>472.2</ele>
        <time>2024-04-14T08:50:28Z</time>
      </trkpt>
      <trkpt lat="47.08245" lon="6.01139">
        <ele>467.8</ele>
        <time>2024-04-14T08:50:38Z</time>
      </trkpt>
      <trkpt lat="47.08248" lon="6.01148">
        <ele>466.4</ele>
        <time>2024-04-14T08:50:40Z</time>
      </trkpt>
      <trkpt lat="47.0825" lon="6.01155">
        <ele>465.2</ele>
        <time>2024-04-14T08:50:42Z</time>
      </trkpt>
      <trkpt lat="47.08251" lon="6.01157">
        <ele>464.4</ele>
        <time>2024-04-14T08:50:43Z</time>
      </trkpt>
      <trkpt lat="47.08253" lon="6.0116">
        <ele>463.8</ele>
        <time>2024-04-14T08:50:44Z</time>
      </trkpt>
      <trkpt lat="47.08256" lon="6.01167">
        <ele>462.6</ele>
        <time>2024-04-14T08:50:46Z</time>
      </trkpt>
      <trkpt lat="47.08259" lon="6.01174">
        <ele>461.2</ele>
        <time>2024-04-14T08:50:48Z</time>
      </trkpt>
      <trkpt lat="47.08263" lon="6.0118">
        <ele>460.4</ele>
        <time>2024-04-14T08:50:50Z</time>
      </trkpt>
      <trkpt lat="47.08265" lon="6.01182">
        <ele>460</ele>
        <time>2024-04-14T08:50:51Z</time>
      </trkpt>
      <trkpt lat="47.0827" lon="6.01192">
        <ele>458.8</ele>
        <time>2024-04-14T08:50:54Z</time>
      </trkpt>
      <trkpt lat="47.08272" lon="6.01198">
        <ele>458</ele>
        <time>2024-04-14T08:50:56Z</time>
      </trkpt>
      <trkpt lat="47.08273" lon="6.01202">
        <ele>457.4</ele>
        <time>2024-04-14T08:50:57Z</time>
      </trkpt>
      <trkpt lat="47.08275" lon="6.01208">
        <ele>456.2</ele>
        <time>2024-04-14T08:50:59Z</time>
      </trkpt>
      <trkpt lat="47.08275" lon="6.01216">
        <ele>454.6</ele>
        <time>2024-04-14T08:51:01Z</time>
      </trkpt>
      <trkpt lat="47.08276" lon="6.01219">
        <ele>453.8</ele>
        <time>2024-04-14T08:51:02Z</time>
      </trkpt>
      <trkpt lat="47.08275" lon="6.01221">
        <ele>453.2</ele>
        <time>2024-04-14T08:51:03Z</time>
      </trkpt>
      <trkpt lat="47.08276" lon="6.01224">
        <ele>452.4</ele>
        <time>2024-04-14T08:51:04Z</time>
      </trkpt>
      <trkpt lat="47.08278" lon="6.01228">
        <ele>451.8</ele>
        <time>2024-04-14T08:51:05Z</time>
      </trkpt>
      <trkpt lat="47.08281" lon="6.01245">
        <ele>448.6</ele>
        <time>2024-04-14T08:51:12Z</time>
      </trkpt>
      <trkpt lat="47.08284" lon="6.01255">
        <ele>447</ele>
        <time>2024-04-14T08:51:14Z</time>
      </trkpt>
      <trkpt lat="47.08291" lon="6.01271">
        <ele>448</ele>
        <time>2024-04-14T08:51:17Z</time>
      </trkpt>
      <trkpt lat="47.08293" lon="6.01275">
        <ele>448.2</ele>
        <time>2024-04-14T08:51:18Z</time>
      </trkpt>
      <trkpt lat="47.083" lon="6.01296">
        <ele>447.8</ele>
        <time>2024-04-14T08:51:24Z</time>
      </trkpt>
      <trkpt lat="47.08302" lon="6.01303">
        <ele>446.8</ele>
        <time>2024-04-14T08:51:26Z</time>
      </trkpt>
      <trkpt lat="47.08309" lon="6.01316">
        <ele>445.8</ele>
        <time>2024-04-14T08:51:30Z</time>
      </trkpt>
      <trkpt lat="47.08311" lon="6.0133">
        <ele>444.6</ele>
        <time>2024-04-14T08:51:34Z</time>
      </trkpt>
      <trkpt lat="47.08311" lon="6.01337">
        <ele>444</ele>
        <time>2024-04-14T08:51:36Z</time>
      </trkpt>
      <trkpt lat="47.08311" lon="6.01341">
        <ele>443.6</ele>
        <time>2024-04-14T08:51:37Z</time>
      </trkpt>
      <trkpt lat="47.08311" lon="6.01348">
        <ele>442.2</ele>
        <time>2024-04-14T08:51:39Z</time>
      </trkpt>
      <trkpt lat="47.08311" lon="6.01352">
        <ele>441.6</ele>
        <time>2024-04-14T08:51:40Z</time>
      </trkpt>
      <trkpt lat="47.08311" lon="6.01355">
        <ele>441</ele>
        <time>2024-04-14T08:51:41Z</time>
      </trkpt>
      <trkpt lat="47.08315" lon="6.01365">
        <ele>440.6</ele>
        <time>2024-04-14T08:51:44Z</time>
      </trkpt>
      <trkpt lat="47.0832" lon="6.01375">
        <ele>439.4</ele>
        <time>2024-04-14T08:51:47Z</time>
      </trkpt>
      <trkpt lat="47.08321" lon="6.01382">
        <ele>438.2</ele>
        <time>2024-04-14T08:51:49Z</time>
      </trkpt>
      <trkpt lat="47.08322" lon="6.01386">
        <ele>437.8</ele>
        <time>2024-04-14T08:51:50Z</time>
      </trkpt>
      <trkpt lat="47.0833" lon="6.01397">
        <ele>438.8</ele>
        <time>2024-04-14T08:51:52Z</time>
      </trkpt>
      <trkpt lat="47.08338" lon="6.01413">
        <ele>436.6</ele>
        <time>2024-04-14T08:51:55Z</time>
      </trkpt>
      <trkpt lat="47.08343" lon="6.01422">
        <ele>435</ele>
        <time>2024-04-14T08:51:57Z</time>
      </trkpt>
      <trkpt lat="47.08345" lon="6.01426">
        <ele>434.4</ele>
        <time>2024-04-14T08:51:58Z</time>
      </trkpt>
      <trkpt lat="47.08346" lon="6.0143">
        <ele>433.8</ele>
        <time>2024-04-14T08:51:59Z</time>
      </trkpt>
      <trkpt lat="47.08351" lon="6.01438">
        <ele>432.4</ele>
        <time>2024-04-14T08:52:01Z</time>
      </trkpt>
      <trkpt lat="47.08355" lon="6.01445">
        <ele>431</ele>
        <time>2024-04-14T08:52:03Z</time>
      </trkpt>
      <trkpt lat="47.08357" lon="6.01449">
        <ele>430.8</ele>
        <time>2024-04-14T08:52:04Z</time>
      </trkpt>
      <trkpt lat="47.08361" lon="6.01454">
        <ele>430</ele>
        <time>2024-04-14T08:52:06Z</time>
      </trkpt>
      <trkpt lat="47.08372" lon="6.01465">
        <ele>428.6</ele>
        <time>2024-04-14T08:52:10Z</time>
      </trkpt>
      <trkpt lat="47.08373" lon="6.01468">
        <ele>428.2</ele>
        <time>2024-04-14T08:52:11Z</time>
      </trkpt>
      <trkpt lat="47.08384" lon="6.01484">
        <ele>430.4</ele>
        <time>2024-04-14T08:52:15Z</time>
      </trkpt>
      <trkpt lat="47.08387" lon="6.01487">
        <ele>431.6</ele>
        <time>2024-04-14T08:52:16Z</time>
      </trkpt>
      <trkpt lat="47.08399" lon="6.01496">
        <ele>432.6</ele>
        <time>2024-04-14T08:52:19Z</time>
      </trkpt>
      <trkpt lat="47.08407" lon="6.01504">
        <ele>434</ele>
        <time>2024-04-14T08:52:21Z</time>
      </trkpt>
      <trkpt lat="47.0841" lon="6.01507">
        <ele>433.6</ele>
        <time>2024-04-14T08:52:22Z</time>
      </trkpt>
      <trkpt lat="47.0843" lon="6.01524">
        <ele>434.4</ele>
        <time>2024-04-14T08:52:29Z</time>
      </trkpt>
      <trkpt lat="47.08439" lon="6.0153">
        <ele>435</ele>
        <time>2024-04-14T08:52:33Z</time>
      </trkpt>
      <trkpt lat="47.08443" lon="6.01533">
        <ele>435.2</ele>
        <time>2024-04-14T08:52:35Z</time>
      </trkpt>
      <trkpt lat="47.0845" lon="6.01537">
        <ele>435.4</ele>
        <time>2024-04-14T08:52:38Z</time>
      </trkpt>
      <trkpt lat="47.08453" lon="6.01539">
        <ele>435.6</ele>
        <time>2024-04-14T08:52:39Z</time>
      </trkpt>
      <trkpt lat="47.08461" lon="6.01547">
        <ele>436.4</ele>
        <time>2024-04-14T08:52:45Z</time>
      </trkpt>
      <trkpt lat="47.08463" lon="6.01549">
        <ele>436.8</ele>
        <time>2024-04-14T08:52:46Z</time>
      </trkpt>
      <trkpt lat="47.08469" lon="6.01553">
        <ele>437.6</ele>
        <time>2024-04-14T08:52:49Z</time>
      </trkpt>
      <trkpt lat="47.08473" lon="6.01555">
        <ele>437.8</ele>
        <time>2024-04-14T08:52:51Z</time>
      </trkpt>
      <trkpt lat="47.08479" lon="6.0156">
        <ele>438.6</ele>
        <time>2024-04-14T08:52:54Z</time>
      </trkpt>
      <trkpt lat="47.08488" lon="6.01566">
        <ele>440</ele>
        <time>2024-04-14T08:52:57Z</time>
      </trkpt>
      <trkpt lat="47.08499" lon="6.01568">
        <ele>441.2</ele>
        <time>2024-04-14T08:53:01Z</time>
      </trkpt>
      <trkpt lat="47.08515" lon="6.01576">
        <ele>445.8</ele>
        <time>2024-04-14T08:55:20Z</time>
      </trkpt>
      <trkpt lat="47.08523" lon="6.01583">
        <ele>445</ele>
        <time>2024-04-14T08:55:23Z</time>
      </trkpt>
      <trkpt lat="47.08533" lon="6.01589">
        <ele>444.6</ele>
        <time>2024-04-14T08:55:26Z</time>
      </trkpt>
      <trkpt lat="47.08542" lon="6.01591">
        <ele>443.6</ele>
        <time>2024-04-14T08:55:28Z</time>
      </trkpt>
      <trkpt lat="47.08546" lon="6.01592">
        <ele>443</ele>
        <time>2024-04-14T08:55:29Z</time>
      </trkpt>
      <trkpt lat="47.08555" lon="6.01593">
        <ele>441.4</ele>
        <time>2024-04-14T08:55:31Z</time>
      </trkpt>
      <trkpt lat="47.08564" lon="6.01595">
        <ele>440</ele>
        <time>2024-04-14T08:55:33Z</time>
      </trkpt>
      <trkpt lat="47.08574" lon="6.01601">
        <ele>438.8</ele>
        <time>2024-04-14T08:55:35Z</time>
      </trkpt>
      <trkpt lat="47.08584" lon="6.01606">
        <ele>437.4</ele>
        <time>2024-04-14T08:55:37Z</time>
      </trkpt>
      <trkpt lat="47.08595" lon="6.01611">
        <ele>436.2</ele>
        <time>2024-04-14T08:55:39Z</time>
      </trkpt>
      <trkpt lat="47.08605" lon="6.01616">
        <ele>434.8</ele>
        <time>2024-04-14T08:55:41Z</time>
      </trkpt>
      <trkpt lat="47.08615" lon="6.01623">
        <ele>433.4</ele>
        <time>2024-04-14T08:55:43Z</time>
      </trkpt>
      <trkpt lat="47.08624" lon="6.0163">
        <ele>432.2</ele>
        <time>2024-04-14T08:55:45Z</time>
      </trkpt>
      <trkpt lat="47.08628" lon="6.01633">
        <ele>431.4</ele>
        <time>2024-04-14T08:55:46Z</time>
      </trkpt>
      <trkpt lat="47.08632" lon="6.01637">
        <ele>430.8</ele>
        <time>2024-04-14T08:55:47Z</time>
      </trkpt>
      <trkpt lat="47.0864" lon="6.01643">
        <ele>429.4</ele>
        <time>2024-04-14T08:55:49Z</time>
      </trkpt>
      <trkpt lat="47.08647" lon="6.01648">
        <ele>428</ele>
        <time>2024-04-14T08:55:51Z</time>
      </trkpt>
      <trkpt lat="47.08651" lon="6.0165">
        <ele>427.2</ele>
        <time>2024-04-14T08:55:52Z</time>
      </trkpt>
      <trkpt lat="47.08655" lon="6.01653">
        <ele>426.6</ele>
        <time>2024-04-14T08:55:53Z</time>
      </trkpt>
      <trkpt lat="47.08663" lon="6.01658">
        <ele>425.2</ele>
        <time>2024-04-14T08:55:55Z</time>
      </trkpt>
      <trkpt lat="47.08669" lon="6.01662">
        <ele>424</ele>
        <time>2024-04-14T08:55:57Z</time>
      </trkpt>
      <trkpt lat="47.08671" lon="6.01666">
        <ele>423.6</ele>
        <time>2024-04-14T08:55:58Z</time>
      </trkpt>
      <trkpt lat="47.08677" lon="6.01673">
        <ele>422.6</ele>
        <time>2024-04-14T08:56:00Z</time>
      </trkpt>
      <trkpt lat="47.08685" lon="6.01681">
        <ele>421.4</ele>
        <time>2024-04-14T08:56:02Z</time>
      </trkpt>
      <trkpt lat="47.08689" lon="6.01685">
        <ele>420.6</ele>
        <time>2024-04-14T08:56:03Z</time>
      </trkpt>
      <trkpt lat="47.08695" lon="6.0169">
        <ele>420</ele>
        <time>2024-04-14T08:56:04Z</time>
      </trkpt>
      <trkpt lat="47.08707" lon="6.01698">
        <ele>419</ele>
        <time>2024-04-14T08:56:06Z</time>
      </trkpt>
      <trkpt lat="47.08714" lon="6.01702">
        <ele>418.4</ele>
        <time>2024-04-14T08:56:07Z</time>
      </trkpt>
      <trkpt lat="47.0872" lon="6.01705">
        <ele>418</ele>
        <time>2024-04-14T08:56:08Z</time>
      </trkpt>
      <trkpt lat="47.08726" lon="6.01709">
        <ele>417.6</ele>
        <time>2024-04-14T08:56:09Z</time>
      </trkpt>
      <trkpt lat="47.08738" lon="6.01715">
        <ele>416.6</ele>
        <time>2024-04-14T08:56:11Z</time>
      </trkpt>
      <trkpt lat="47.08742" lon="6.01717">
        <ele>416</ele>
        <time>2024-04-14T08:56:12Z</time>
      </trkpt>
      <trkpt lat="47.08746" lon="6.01718">
        <ele>415.6</ele>
        <time>2024-04-14T08:56:13Z</time>
      </trkpt>
      <trkpt lat="47.08758" lon="6.01722">
        <ele>414.8</ele>
        <time>2024-04-14T08:56:16Z</time>
      </trkpt>
      <trkpt lat="47.08763" lon="6.01727">
        <ele>414.4</ele>
        <time>2024-04-14T08:56:18Z</time>
      </trkpt>
      <trkpt lat="47.08772" lon="6.01737">
        <ele>413.4</ele>
        <time>2024-04-14T08:56:21Z</time>
      </trkpt>
      <trkpt lat="47.08776" lon="6.01745">
        <ele>412.4</ele>
        <time>2024-04-14T08:56:23Z</time>
      </trkpt>
      <trkpt lat="47.08781" lon="6.0175">
        <ele>411.8</ele>
        <time>2024-04-14T08:56:24Z</time>
      </trkpt>
      <trkpt lat="47.08786" lon="6.01754">
        <ele>411.2</ele>
        <time>2024-04-14T08:56:25Z</time>
      </trkpt>
      <trkpt lat="47.08793" lon="6.01758">
        <ele>410.6</ele>
        <time>2024-04-14T08:56:26Z</time>
      </trkpt>
      <trkpt lat="47.08801" lon="6.01761">
        <ele>410</ele>
        <time>2024-04-14T08:56:27Z</time>
      </trkpt>
      <trkpt lat="47.08818" lon="6.01765">
        <ele>408.6</ele>
        <time>2024-04-14T08:56:29Z</time>
      </trkpt>
      <trkpt lat="47.08828" lon="6.01768">
        <ele>407.8</ele>
        <time>2024-04-14T08:56:30Z</time>
      </trkpt>
      <trkpt lat="47.08838" lon="6.01771">
        <ele>407</ele>
        <time>2024-04-14T08:56:31Z</time>
      </trkpt>
      <trkpt lat="47.08857" lon="6.0178">
        <ele>405.4</ele>
        <time>2024-04-14T08:56:33Z</time>
      </trkpt>
      <trkpt lat="47.08875" lon="6.01788">
        <ele>403.8</ele>
        <time>2024-04-14T08:56:35Z</time>
      </trkpt>
      <trkpt lat="47.08891" lon="6.01796">
        <ele>402</ele>
        <time>2024-04-14T08:56:37Z</time>
      </trkpt>
      <trkpt lat="47.08906" lon="6.01804">
        <ele>400.6</ele>
        <time>2024-04-14T08:56:39Z</time>
      </trkpt>
      <trkpt lat="47.08914" lon="6.01809">
        <ele>399.8</ele>
        <time>2024-04-14T08:56:40Z</time>
      </trkpt>
      <trkpt lat="47.0892" lon="6.01814">
        <ele>399.4</ele>
        <time>2024-04-14T08:56:41Z</time>
      </trkpt>
      <trkpt lat="47.0893" lon="6.01824">
        <ele>398.4</ele>
        <time>2024-04-14T08:56:43Z</time>
      </trkpt>
      <trkpt lat="47.08936" lon="6.01833">
        <ele>397</ele>
        <time>2024-04-14T08:56:45Z</time>
      </trkpt>
      <trkpt lat="47.08942" lon="6.01843">
        <ele>395.8</ele>
        <time>2024-04-14T08:56:47Z</time>
      </trkpt>
      <trkpt lat="47.08949" lon="6.01858">
        <ele>394.2</ele>
        <time>2024-04-14T08:56:50Z</time>
      </trkpt>
      <trkpt lat="47.08951" lon="6.01872">
        <ele>393</ele>
        <time>2024-04-14T08:56:52Z</time>
      </trkpt>
      <trkpt lat="47.08953" lon="6.01879">
        <ele>392.2</ele>
        <time>2024-04-14T08:56:53Z</time>
      </trkpt>
      <trkpt lat="47.08956" lon="6.01886">
        <ele>391.6</ele>
        <time>2024-04-14T08:56:54Z</time>
      </trkpt>
      <trkpt lat="47.08969" lon="6.01933">
        <ele>393.6</ele>
        <time>2024-04-14T08:57:00Z</time>
      </trkpt>
      <trkpt lat="47.08971" lon="6.0195">
        <ele>395.4</ele>
        <time>2024-04-14T08:57:02Z</time>
      </trkpt>
      <trkpt lat="47.08975" lon="6.01966">
        <ele>397.4</ele>
        <time>2024-04-14T08:57:04Z</time>
      </trkpt>
      <trkpt lat="47.08977" lon="6.0198">
        <ele>398.8</ele>
        <time>2024-04-14T08:57:06Z</time>
      </trkpt>
      <trkpt lat="47.08976" lon="6.01988">
        <ele>398.8</ele>
        <time>2024-04-14T08:57:07Z</time>
      </trkpt>
      <trkpt lat="47.08977" lon="6.02004">
        <ele>400</ele>
        <time>2024-04-14T08:57:09Z</time>
      </trkpt>
      <trkpt lat="47.0898" lon="6.02026">
        <ele>401.4</ele>
        <time>2024-04-14T08:57:12Z</time>
      </trkpt>
      <trkpt lat="47.08982" lon="6.02051">
        <ele>402.6</ele>
        <time>2024-04-14T08:57:16Z</time>
      </trkpt>
      <trkpt lat="47.08982" lon="6.02068">
        <ele>402.4</ele>
        <time>2024-04-14T08:57:19Z</time>
      </trkpt>
      <trkpt lat="47.08986" lon="6.02106">
        <ele>403</ele>
        <time>2024-04-14T08:57:25Z</time>
      </trkpt>
      <trkpt lat="47.0899" lon="6.02124">
        <ele>403.6</ele>
        <time>2024-04-14T08:57:28Z</time>
      </trkpt>
      <trkpt lat="47.08996" lon="6.02147">
        <ele>404.4</ele>
        <time>2024-04-14T08:57:32Z</time>
      </trkpt>
      <trkpt lat="47.09014" lon="6.02182">
        <ele>402.8</ele>
        <time>2024-04-14T08:57:38Z</time>
      </trkpt>
      <trkpt lat="47.09037" lon="6.02217">
        <ele>406.6</ele>
        <time>2024-04-14T08:57:45Z</time>
      </trkpt>
      <trkpt lat="47.09041" lon="6.02222">
        <ele>408.2</ele>
        <time>2024-04-14T08:57:46Z</time>
      </trkpt>
      <trkpt lat="47.09044" lon="6.02228">
        <ele>409.4</ele>
        <time>2024-04-14T08:57:47Z</time>
      </trkpt>
      <trkpt lat="47.0905" lon="6.02236">
        <ele>410.6</ele>
        <time>2024-04-14T08:57:49Z</time>
      </trkpt>
      <trkpt lat="47.09058" lon="6.02248">
        <ele>411.8</ele>
        <time>2024-04-14T08:57:52Z</time>
      </trkpt>
      <trkpt lat="47.09063" lon="6.02255">
        <ele>412</ele>
        <time>2024-04-14T08:57:54Z</time>
      </trkpt>
      <trkpt lat="47.09078" lon="6.02276">
        <ele>412.8</ele>
        <time>2024-04-14T08:58:00Z</time>
      </trkpt>
      <trkpt lat="47.09083" lon="6.02282">
        <ele>413</ele>
        <time>2024-04-14T08:58:02Z</time>
      </trkpt>
      <trkpt lat="47.09099" lon="6.02307">
        <ele>413.8</ele>
        <time>2024-04-14T08:58:09Z</time>
      </trkpt>
      <trkpt lat="47.09119" lon="6.02341">
        <ele>412.6</ele>
        <time>2024-04-14T08:58:18Z</time>
      </trkpt>
      <trkpt lat="47.09131" lon="6.02362">
        <ele>411.8</ele>
        <time>2024-04-14T08:58:23Z</time>
      </trkpt>
      <trkpt lat="47.09139" lon="6.02373">
        <ele>411.4</ele>
        <time>2024-04-14T08:58:26Z</time>
      </trkpt>
      <trkpt lat="47.09151" lon="6.02388">
        <ele>411.4</ele>
        <time>2024-04-14T08:58:31Z</time>
      </trkpt>
      <trkpt lat="47.09167" lon="6.02409">
        <ele>411.2</ele>
        <time>2024-04-14T08:58:38Z</time>
      </trkpt>
      <trkpt lat="47.0918" lon="6.02426">
        <ele>413</ele>
        <time>2024-04-14T08:58:43Z</time>
      </trkpt>
      <trkpt lat="47.09182" lon="6.0243">
        <ele>412.6</ele>
        <time>2024-04-14T08:58:44Z</time>
      </trkpt>
      <trkpt lat="47.09197" lon="6.02452">
        <ele>412.4</ele>
        <time>2024-04-14T08:58:50Z</time>
      </trkpt>
      <trkpt lat="47.09205" lon="6.02464">
        <ele>411.8</ele>
        <time>2024-04-14T08:58:53Z</time>
      </trkpt>
      <trkpt lat="47.09217" lon="6.02481">
        <ele>412.6</ele>
        <time>2024-04-14T08:58:58Z</time>
      </trkpt>
      <trkpt lat="47.0922" lon="6.02485">
        <ele>413.8</ele>
        <time>2024-04-14T08:58:59Z</time>
      </trkpt>
      <trkpt lat="47.09226" lon="6.02493">
        <ele>415.4</ele>
        <time>2024-04-14T08:59:01Z</time>
      </trkpt>
      <trkpt lat="47.09237" lon="6.02508">
        <ele>416.6</ele>
        <time>2024-04-14T08:59:05Z</time>
      </trkpt>
      <trkpt lat="47.0924" lon="6.02512">
        <ele>417</ele>
        <time>2024-04-14T08:59:06Z</time>
      </trkpt>
      <trkpt lat="47.09269" lon="6.02548">
        <ele>417.2</ele>
        <time>2024-04-14T08:59:16Z</time>
      </trkpt>
      <trkpt lat="47.09286" lon="6.02568">
        <ele>416.8</ele>
        <time>2024-04-14T08:59:22Z</time>
      </trkpt>
      <trkpt lat="47.09315" lon="6.0259">
        <ele>417.2</ele>
        <time>2024-04-14T08:59:30Z</time>
      </trkpt>
      <trkpt lat="47.0932" lon="6.02592">
        <ele>418.2</ele>
        <time>2024-04-14T08:59:31Z</time>
      </trkpt>
      <trkpt lat="47.09325" lon="6.02593">
        <ele>419.4</ele>
        <time>2024-04-14T08:59:32Z</time>
      </trkpt>
      <trkpt lat="47.09333" lon="6.02595">
        <ele>421</ele>
        <time>2024-04-14T08:59:34Z</time>
      </trkpt>
      <trkpt lat="47.09344" lon="6.02598">
        <ele>421</ele>
        <time>2024-04-14T08:59:37Z</time>
      </trkpt>
      <trkpt lat="47.09368" lon="6.02603">
        <ele>422.4</ele>
        <time>2024-04-14T08:59:44Z</time>
      </trkpt>
      <trkpt lat="47.09404" lon="6.02611">
        <ele>422.6</ele>
        <time>2024-04-14T08:59:52Z</time>
      </trkpt>
      <trkpt lat="47.09433" lon="6.02613">
        <ele>422.6</ele>
        <time>2024-04-14T08:59:58Z</time>
      </trkpt>
      <trkpt lat="47.09438" lon="6.02614">
        <ele>422.6</ele>
        <time>2024-04-14T08:59:59Z</time>
      </trkpt>
      <trkpt lat="47.09463" lon="6.02615">
        <ele>422.6</ele>
        <time>2024-04-14T09:00:05Z</time>
      </trkpt>
      <trkpt lat="47.09486" lon="6.02609">
        <ele>422.8</ele>
        <time>2024-04-14T09:00:10Z</time>
      </trkpt>
      <trkpt lat="47.09495" lon="6.02606">
        <ele>423</ele>
        <time>2024-04-14T09:00:12Z</time>
      </trkpt>
      <trkpt lat="47.09518" lon="6.026">
        <ele>423.2</ele>
        <time>2024-04-14T09:00:18Z</time>
      </trkpt>
      <trkpt lat="47.09543" lon="6.02604">
        <ele>423.4</ele>
        <time>2024-04-14T09:00:25Z</time>
      </trkpt>
      <trkpt lat="47.09547" lon="6.02604">
        <ele>423.6</ele>
        <time>2024-04-14T09:00:26Z</time>
      </trkpt>
      <trkpt lat="47.09561" lon="6.02606">
        <ele>424.6</ele>
        <time>2024-04-14T09:00:30Z</time>
      </trkpt>
      <trkpt lat="47.0957" lon="6.02607">
        <ele>425</ele>
        <time>2024-04-14T09:00:32Z</time>
      </trkpt>
      <trkpt lat="47.09583" lon="6.02608">
        <ele>425.8</ele>
        <time>2024-04-14T09:00:35Z</time>
      </trkpt>
      <trkpt lat="47.09596" lon="6.02607">
        <ele>427</ele>
        <time>2024-04-14T09:00:38Z</time>
      </trkpt>
      <trkpt lat="47.09606" lon="6.02606">
        <ele>427.6</ele>
        <time>2024-04-14T09:00:40Z</time>
      </trkpt>
      <trkpt lat="47.09615" lon="6.02606">
        <ele>428.2</ele>
        <time>2024-04-14T09:00:42Z</time>
      </trkpt>
      <trkpt lat="47.09632" lon="6.02605">
        <ele>428.4</ele>
        <time>2024-04-14T09:00:46Z</time>
      </trkpt>
      <trkpt lat="47.09649" lon="6.02605">
        <ele>429.4</ele>
        <time>2024-04-14T09:00:50Z</time>
      </trkpt>
      <trkpt lat="47.09658" lon="6.02605">
        <ele>429.8</ele>
        <time>2024-04-14T09:00:52Z</time>
      </trkpt>
      <trkpt lat="47.0967" lon="6.02604">
        <ele>430.6</ele>
        <time>2024-04-14T09:00:55Z</time>
      </trkpt>
      <trkpt lat="47.09686" lon="6.02603">
        <ele>432</ele>
        <time>2024-04-14T09:00:59Z</time>
      </trkpt>
      <trkpt lat="47.0969" lon="6.02603">
        <ele>432.2</ele>
        <time>2024-04-14T09:01:00Z</time>
      </trkpt>
      <trkpt lat="47.09716" lon="6.02605">
        <ele>433</ele>
        <time>2024-04-14T09:01:07Z</time>
      </trkpt>
      <trkpt lat="47.09724" lon="6.02606">
        <ele>433.4</ele>
        <time>2024-04-14T09:01:09Z</time>
      </trkpt>
      <trkpt lat="47.09755" lon="6.02615">
        <ele>433.4</ele>
        <time>2024-04-14T09:01:16Z</time>
      </trkpt>
      <trkpt lat="47.09794" lon="6.02635">
        <ele>432.4</ele>
        <time>2024-04-14T09:01:24Z</time>
      </trkpt>
      <trkpt lat="47.09799" lon="6.0264">
        <ele>432</ele>
        <time>2024-04-14T09:01:25Z</time>
      </trkpt>
      <trkpt lat="47.09814" lon="6.02654">
        <ele>431.4</ele>
        <time>2024-04-14T09:01:28Z</time>
      </trkpt>
      <trkpt lat="47.0982" lon="6.02658">
        <ele>431</ele>
        <time>2024-04-14T09:01:29Z</time>
      </trkpt>
      <trkpt lat="47.09826" lon="6.02661">
        <ele>430.8</ele>
        <time>2024-04-14T09:01:30Z</time>
      </trkpt>
      <trkpt lat="47.09846" lon="6.02673">
        <ele>429.6</ele>
        <time>2024-04-14T09:01:33Z</time>
      </trkpt>
      <trkpt lat="47.09853" lon="6.02677">
        <ele>429.2</ele>
        <time>2024-04-14T09:01:34Z</time>
      </trkpt>
      <trkpt lat="47.09873" lon="6.02687">
        <ele>428.4</ele>
        <time>2024-04-14T09:01:37Z</time>
      </trkpt>
      <trkpt lat="47.09894" lon="6.02697">
        <ele>427.4</ele>
        <time>2024-04-14T09:01:40Z</time>
      </trkpt>
      <trkpt lat="47.099" lon="6.02701">
        <ele>426.8</ele>
        <time>2024-04-14T09:01:41Z</time>
      </trkpt>
      <trkpt lat="47.09906" lon="6.02706">
        <ele>426.2</ele>
        <time>2024-04-14T09:01:42Z</time>
      </trkpt>
      <trkpt lat="47.09922" lon="6.02724">
        <ele>424.6</ele>
        <time>2024-04-14T09:01:45Z</time>
      </trkpt>
      <trkpt lat="47.09928" lon="6.02731">
        <ele>424.2</ele>
        <time>2024-04-14T09:01:46Z</time>
      </trkpt>
      <trkpt lat="47.09933" lon="6.02739">
        <ele>423.6</ele>
        <time>2024-04-14T09:01:47Z</time>
      </trkpt>
      <trkpt lat="47.09945" lon="6.02754">
        <ele>422.2</ele>
        <time>2024-04-14T09:01:49Z</time>
      </trkpt>
      <trkpt lat="47.09958" lon="6.02767">
        <ele>421</ele>
        <time>2024-04-14T09:01:51Z</time>
      </trkpt>
      <trkpt lat="47.09971" lon="6.02781">
        <ele>419.8</ele>
        <time>2024-04-14T09:01:53Z</time>
      </trkpt>
      <trkpt lat="47.09983" lon="6.02795">
        <ele>418.4</ele>
        <time>2024-04-14T09:01:55Z</time>
      </trkpt>
      <trkpt lat="47.09997" lon="6.02802">
        <ele>417</ele>
        <time>2024-04-14T09:01:57Z</time>
      </trkpt>
      <trkpt lat="47.10005" lon="6.02803">
        <ele>416.2</ele>
        <time>2024-04-14T09:01:58Z</time>
      </trkpt>
      <trkpt lat="47.10012" lon="6.02802">
        <ele>415.6</ele>
        <time>2024-04-14T09:01:59Z</time>
      </trkpt>
      <trkpt lat="47.1002" lon="6.028">
        <ele>415</ele>
        <time>2024-04-14T09:02:00Z</time>
      </trkpt>
      <trkpt lat="47.10034" lon="6.02797">
        <ele>414.4</ele>
        <time>2024-04-14T09:02:02Z</time>
      </trkpt>
      <trkpt lat="47.10054" lon="6.02792">
        <ele>413.4</ele>
        <time>2024-04-14T09:02:05Z</time>
      </trkpt>
      <trkpt lat="47.10065" lon="6.0279">
        <ele>412.8</ele>
        <time>2024-04-14T09:02:07Z</time>
      </trkpt>
      <trkpt lat="47.10081" lon="6.02789">
        <ele>412.2</ele>
        <time>2024-04-14T09:02:10Z</time>
      </trkpt>
      <trkpt lat="47.10099" lon="6.02793">
        <ele>411.6</ele>
        <time>2024-04-14T09:02:13Z</time>
      </trkpt>
      <trkpt lat="47.10105" lon="6.02795">
        <ele>411.2</ele>
        <time>2024-04-14T09:02:14Z</time>
      </trkpt>
      <trkpt lat="47.10111" lon="6.02797">
        <ele>411</ele>
        <time>2024-04-14T09:02:15Z</time>
      </trkpt>
      <trkpt lat="47.10126" lon="6.02799">
        <ele>410.4</ele>
        <time>2024-04-14T09:02:18Z</time>
      </trkpt>
      <trkpt lat="47.10138" lon="6.02794">
        <ele>409.8</ele>
        <time>2024-04-14T09:02:21Z</time>
      </trkpt>
      <trkpt lat="47.10144" lon="6.02789">
        <ele>409.6</ele>
        <time>2024-04-14T09:02:23Z</time>
      </trkpt>
      <trkpt lat="47.10149" lon="6.02778">
        <ele>408.8</ele>
        <time>2024-04-14T09:02:27Z</time>
      </trkpt>
      <trkpt lat="47.10149" lon="6.0276">
        <ele>408.8</ele>
        <time>2024-04-14T09:02:33Z</time>
      </trkpt>
      <trkpt lat="47.1015" lon="6.02737">
        <ele>408.4</ele>
        <time>2024-04-14T09:02:41Z</time>
      </trkpt>
      <trkpt lat="47.10151" lon="6.02718">
        <ele>408.8</ele>
        <time>2024-04-14T09:02:48Z</time>
      </trkpt>
      <trkpt lat="47.10148" lon="6.02699">
        <ele>410</ele>
        <time>2024-04-14T09:02:54Z</time>
      </trkpt>
      <trkpt lat="47.1015" lon="6.02684">
        <ele>411</ele>
        <time>2024-04-14T09:03:00Z</time>
      </trkpt>
      <trkpt lat="47.10156" lon="6.02678">
        <ele>412</ele>
        <time>2024-04-14T09:03:04Z</time>
      </trkpt>
      <trkpt lat="47.1016" lon="6.02677">
        <ele>412.6</ele>
        <time>2024-04-14T09:03:06Z</time>
      </trkpt>
      <trkpt lat="47.10163" lon="6.02676">
        <ele>413.2</ele>
        <time>2024-04-14T09:03:08Z</time>
      </trkpt>
      <trkpt lat="47.10174" lon="6.02681">
        <ele>414</ele>
        <time>2024-04-14T09:03:14Z</time>
      </trkpt>
      <trkpt lat="47.10176" lon="6.02682">
        <ele>414.2</ele>
        <time>2024-04-14T09:03:15Z</time>
      </trkpt>
      <trkpt lat="47.10186" lon="6.02687">
        <ele>415.4</ele>
        <time>2024-04-14T09:03:20Z</time>
      </trkpt>
      <trkpt lat="47.10191" lon="6.0269">
        <ele>415.6</ele>
        <time>2024-04-14T09:03:22Z</time>
      </trkpt>
      <trkpt lat="47.10196" lon="6.02692">
        <ele>416.6</ele>
        <time>2024-04-14T09:03:24Z</time>
      </trkpt>
      <trkpt lat="47.10202" lon="6.02696">
        <ele>417.8</ele>
        <time>2024-04-14T09:03:27Z</time>
      </trkpt>
      <trkpt lat="47.10211" lon="6.027">
        <ele>418.2</ele>
        <time>2024-04-14T09:03:31Z</time>
      </trkpt>
      <trkpt lat="47.10218" lon="6.02703">
        <ele>419</ele>
        <time>2024-04-14T09:03:34Z</time>
      </trkpt>
      <trkpt lat="47.10226" lon="6.02707">
        <ele>420</ele>
        <time>2024-04-14T09:03:38Z</time>
      </trkpt>
      <trkpt lat="47.1023" lon="6.02709">
        <ele>420.2</ele>
        <time>2024-04-14T09:03:40Z</time>
      </trkpt>
      <trkpt lat="47.10238" lon="6.02712">
        <ele>421.2</ele>
        <time>2024-04-14T09:03:44Z</time>
      </trkpt>
      <trkpt lat="47.10244" lon="6.02712">
        <ele>422.2</ele>
        <time>2024-04-14T09:03:47Z</time>
      </trkpt>
      <trkpt lat="47.10247" lon="6.02711">
        <ele>422.4</ele>
        <time>2024-04-14T09:03:48Z</time>
      </trkpt>
      <trkpt lat="47.10252" lon="6.02711">
        <ele>423.2</ele>
        <time>2024-04-14T09:03:51Z</time>
      </trkpt>
      <trkpt lat="47.10257" lon="6.02713">
        <ele>423.2</ele>
        <time>2024-04-14T09:03:54Z</time>
      </trkpt>
      <trkpt lat="47.10267" lon="6.02717">
        <ele>424.6</ele>
        <time>2024-04-14T09:04:00Z</time>
      </trkpt>
      <trkpt lat="47.10271" lon="6.02719">
        <ele>425</ele>
        <time>2024-04-14T09:04:02Z</time>
      </trkpt>
      <trkpt lat="47.10279" lon="6.02722">
        <ele>425.6</ele>
        <time>2024-04-14T09:04:06Z</time>
      </trkpt>
      <trkpt lat="47.10285" lon="6.02725">
        <ele>426.6</ele>
        <time>2024-04-14T09:04:09Z</time>
      </trkpt>
      <trkpt lat="47.10287" lon="6.02726">
        <ele>427.2</ele>
        <time>2024-04-14T09:04:10Z</time>
      </trkpt>
      <trkpt lat="47.10289" lon="6.02727">
        <ele>427.8</ele>
        <time>2024-04-14T09:04:11Z</time>
      </trkpt>
      <trkpt lat="47.10296" lon="6.02731">
        <ele>429</ele>
        <time>2024-04-14T09:04:14Z</time>
      </trkpt>
      <trkpt lat="47.10303" lon="6.02735">
        <ele>430</ele>
        <time>2024-04-14T09:04:16Z</time>
      </trkpt>
      <trkpt lat="47.10305" lon="6.02738">
        <ele>430.4</ele>
        <time>2024-04-14T09:04:17Z</time>
      </trkpt>
      <trkpt lat="47.10313" lon="6.02746">
        <ele>431.8</ele>
        <time>2024-04-14T09:04:20Z</time>
      </trkpt>
      <trkpt lat="47.10315" lon="6.02748">
        <ele>432</ele>
        <time>2024-04-14T09:04:21Z</time>
      </trkpt>
      <trkpt lat="47.10322" lon="6.02756">
        <ele>433</ele>
        <time>2024-04-14T09:04:24Z</time>
      </trkpt>
      <trkpt lat="47.10332" lon="6.02766">
        <ele>434</ele>
        <time>2024-04-14T09:04:28Z</time>
      </trkpt>
      <trkpt lat="47.10347" lon="6.02778">
        <ele>434</ele>
        <time>2024-04-14T09:04:33Z</time>
      </trkpt>
      <trkpt lat="47.10367" lon="6.02791">
        <ele>433.6</ele>
        <time>2024-04-14T09:04:38Z</time>
      </trkpt>
      <trkpt lat="47.10371" lon="6.02794">
        <ele>433.4</ele>
        <time>2024-04-14T09:04:39Z</time>
      </trkpt>
      <trkpt lat="47.10397" lon="6.02805">
        <ele>433</ele>
        <time>2024-04-14T09:04:45Z</time>
      </trkpt>
      <trkpt lat="47.10412" lon="6.02813">
        <ele>432.2</ele>
        <time>2024-04-14T09:04:50Z</time>
      </trkpt>
      <trkpt lat="47.10423" lon="6.02821">
        <ele>432</ele>
        <time>2024-04-14T09:04:54Z</time>
      </trkpt>
      <trkpt lat="47.10429" lon="6.02825">
        <ele>432</ele>
        <time>2024-04-14T09:04:56Z</time>
      </trkpt>
      <trkpt lat="47.10447" lon="6.0284">
        <ele>431.8</ele>
        <time>2024-04-14T09:05:03Z</time>
      </trkpt>
      <trkpt lat="47.10459" lon="6.02853">
        <ele>431.6</ele>
        <time>2024-04-14T09:05:08Z</time>
      </trkpt>
      <trkpt lat="47.10467" lon="6.02861">
        <ele>431</ele>
        <time>2024-04-14T09:05:12Z</time>
      </trkpt>
      <trkpt lat="47.10471" lon="6.02865">
        <ele>430.6</ele>
        <time>2024-04-14T09:05:14Z</time>
      </trkpt>
      <trkpt lat="47.10483" lon="6.02876">
        <ele>431.8</ele>
        <time>2024-04-14T09:05:20Z</time>
      </trkpt>
      <trkpt lat="47.10486" lon="6.02878">
        <ele>432.6</ele>
        <time>2024-04-14T09:05:21Z</time>
      </trkpt>
      <trkpt lat="47.10495" lon="6.0289">
        <ele>433.2</ele>
        <time>2024-04-14T09:05:26Z</time>
      </trkpt>
      <trkpt lat="47.10506" lon="6.02904">
        <ele>431.6</ele>
        <time>2024-04-14T09:05:33Z</time>
      </trkpt>
      <trkpt lat="47.1051" lon="6.0291">
        <ele>431.4</ele>
        <time>2024-04-14T09:05:36Z</time>
      </trkpt>
      <trkpt lat="47.10517" lon="6.02918">
        <ele>431.8</ele>
        <time>2024-04-14T09:05:40Z</time>
      </trkpt>
      <trkpt lat="47.10519" lon="6.02921">
        <ele>432.8</ele>
        <time>2024-04-14T09:05:41Z</time>
      </trkpt>
      <trkpt lat="47.10527" lon="6.02932">
        <ele>433</ele>
        <time>2024-04-14T09:05:46Z</time>
      </trkpt>
      <trkpt lat="47.10536" lon="6.0294">
        <ele>432.6</ele>
        <time>2024-04-14T09:05:50Z</time>
      </trkpt>
      <trkpt lat="47.10539" lon="6.02945">
        <ele>432.4</ele>
        <time>2024-04-14T09:05:52Z</time>
      </trkpt>
      <trkpt lat="47.10551" lon="6.02955">
        <ele>432.2</ele>
        <time>2024-04-14T09:05:57Z</time>
      </trkpt>
      <trkpt lat="47.10566" lon="6.02965">
        <ele>432.8</ele>
        <time>2024-04-14T09:06:03Z</time>
      </trkpt>
      <trkpt lat="47.10573" lon="6.02969">
        <ele>433.8</ele>
        <time>2024-04-14T09:06:07Z</time>
      </trkpt>
      <trkpt lat="47.10582" lon="6.02972">
        <ele>434.4</ele>
        <time>2024-04-14T09:06:10Z</time>
      </trkpt>
      <trkpt lat="47.10585" lon="6.02973">
        <ele>435</ele>
        <time>2024-04-14T09:06:11Z</time>
      </trkpt>
      <trkpt lat="47.10594" lon="6.02978">
        <ele>436.2</ele>
        <time>2024-04-14T09:06:15Z</time>
      </trkpt>
      <trkpt lat="47.10595" lon="6.02978">
        <ele>436.2</ele>
        <time>2024-04-14T09:06:16Z</time>
      </trkpt>
      <trkpt lat="47.10609" lon="6.02981">
        <ele>436.8</ele>
        <time>2024-04-14T09:06:22Z</time>
      </trkpt>
      <trkpt lat="47.10614" lon="6.02983">
        <ele>437.4</ele>
        <time>2024-04-14T09:06:25Z</time>
      </trkpt>
      <trkpt lat="47.10622" lon="6.02986">
        <ele>438.2</ele>
        <time>2024-04-14T09:06:29Z</time>
      </trkpt>
      <trkpt lat="47.10636" lon="6.02992">
        <ele>437.2</ele>
        <time>2024-04-14T09:06:36Z</time>
      </trkpt>
      <trkpt lat="47.1065" lon="6.02999">
        <ele>436</ele>
        <time>2024-04-14T09:06:44Z</time>
      </trkpt>
      <trkpt lat="47.10657" lon="6.03004">
        <ele>436.4</ele>
        <time>2024-04-14T09:06:48Z</time>
      </trkpt>
      <trkpt lat="47.10662" lon="6.03006">
        <ele>436.6</ele>
        <time>2024-04-14T09:06:50Z</time>
      </trkpt>
      <trkpt lat="47.10664" lon="6.03007">
        <ele>436.8</ele>
        <time>2024-04-14T09:06:51Z</time>
      </trkpt>
      <trkpt lat="47.10679" lon="6.03011">
        <ele>436.8</ele>
        <time>2024-04-14T09:06:57Z</time>
      </trkpt>
      <trkpt lat="47.10689" lon="6.03014">
        <ele>437.2</ele>
        <time>2024-04-14T09:07:02Z</time>
      </trkpt>
      <trkpt lat="47.10695" lon="6.03015">
        <ele>437.4</ele>
        <time>2024-04-14T09:07:04Z</time>
      </trkpt>
      <trkpt lat="47.10712" lon="6.03019">
        <ele>438.2</ele>
        <time>2024-04-14T09:07:10Z</time>
      </trkpt>
      <trkpt lat="47.10715" lon="6.03019">
        <ele>438.2</ele>
        <time>2024-04-14T09:07:11Z</time>
      </trkpt>
      <trkpt lat="47.10729" lon="6.03023">
        <ele>439.4</ele>
        <time>2024-04-14T09:07:17Z</time>
      </trkpt>
      <trkpt lat="47.10743" lon="6.0303">
        <ele>440.6</ele>
        <time>2024-04-14T09:07:22Z</time>
      </trkpt>
      <trkpt lat="47.10746" lon="6.03031">
        <ele>440.8</ele>
        <time>2024-04-14T09:07:23Z</time>
      </trkpt>
      <trkpt lat="47.10765" lon="6.03035">
        <ele>441.6</ele>
        <time>2024-04-14T09:07:28Z</time>
      </trkpt>
      <trkpt lat="47.10768" lon="6.03036">
        <ele>441.8</ele>
        <time>2024-04-14T09:07:29Z</time>
      </trkpt>
      <trkpt lat="47.1078" lon="6.03037">
        <ele>443</ele>
        <time>2024-04-14T09:07:33Z</time>
      </trkpt>
      <trkpt lat="47.10787" lon="6.03038">
        <ele>443.6</ele>
        <time>2024-04-14T09:07:35Z</time>
      </trkpt>
      <trkpt lat="47.10807" lon="6.03038">
        <ele>444</ele>
        <time>2024-04-14T09:07:41Z</time>
      </trkpt>
      <trkpt lat="47.1081" lon="6.03037">
        <ele>444.2</ele>
        <time>2024-04-14T09:07:42Z</time>
      </trkpt>
      <trkpt lat="47.10827" lon="6.03032">
        <ele>445</ele>
        <time>2024-04-14T09:07:48Z</time>
      </trkpt>
      <trkpt lat="47.10839" lon="6.03032">
        <ele>444.6</ele>
        <time>2024-04-14T09:07:54Z</time>
      </trkpt>
      <trkpt lat="47.1086" lon="6.03036">
        <ele>444.4</ele>
        <time>2024-04-14T09:08:01Z</time>
      </trkpt>
      <trkpt lat="47.10872" lon="6.03036">
        <ele>445.2</ele>
        <time>2024-04-14T09:08:05Z</time>
      </trkpt>
      <trkpt lat="47.10876" lon="6.03036">
        <ele>445.4</ele>
        <time>2024-04-14T09:08:06Z</time>
      </trkpt>
      <trkpt lat="47.10898" lon="6.03039">
        <ele>445.4</ele>
        <time>2024-04-14T09:08:13Z</time>
      </trkpt>
      <trkpt lat="47.10907" lon="6.0304">
        <ele>446.4</ele>
        <time>2024-04-14T09:08:16Z</time>
      </trkpt>
      <trkpt lat="47.10914" lon="6.03038">
        <ele>447.2</ele>
        <time>2024-04-14T09:08:19Z</time>
      </trkpt>
      <trkpt lat="47.1092" lon="6.03037">
        <ele>447.6</ele>
        <time>2024-04-14T09:08:21Z</time>
      </trkpt>
      <trkpt lat="47.10931" lon="6.03037">
        <ele>448</ele>
        <time>2024-04-14T09:08:25Z</time>
      </trkpt>
      <trkpt lat="47.10933" lon="6.03036">
        <ele>448.6</ele>
        <time>2024-04-14T09:08:26Z</time>
      </trkpt>
      <trkpt lat="47.10946" lon="6.03032">
        <ele>449</ele>
        <time>2024-04-14T09:08:31Z</time>
      </trkpt>
      <trkpt lat="47.10954" lon="6.03029">
        <ele>449.6</ele>
        <time>2024-04-14T09:08:34Z</time>
      </trkpt>
      <trkpt lat="47.10961" lon="6.03028">
        <ele>451</ele>
        <time>2024-04-14T09:08:37Z</time>
      </trkpt>
      <trkpt lat="47.10965" lon="6.03025">
        <ele>451</ele>
        <time>2024-04-14T09:08:39Z</time>
      </trkpt>
      <trkpt lat="47.10978" lon="6.0302">
        <ele>452</ele>
        <time>2024-04-14T09:08:45Z</time>
      </trkpt>
      <trkpt lat="47.10984" lon="6.03018">
        <ele>453.4</ele>
        <time>2024-04-14T09:08:49Z</time>
      </trkpt>
      <trkpt lat="47.10991" lon="6.03016">
        <ele>453.8</ele>
        <time>2024-04-14T09:08:53Z</time>
      </trkpt>
      <trkpt lat="47.10997" lon="6.03014">
        <ele>454.4</ele>
        <time>2024-04-14T09:08:56Z</time>
      </trkpt>
      <trkpt lat="47.11003" lon="6.03014">
        <ele>455.4</ele>
        <time>2024-04-14T09:08:59Z</time>
      </trkpt>
      <trkpt lat="47.11005" lon="6.03015">
        <ele>455.8</ele>
        <time>2024-04-14T09:09:00Z</time>
      </trkpt>
      <trkpt lat="47.11014" lon="6.03015">
        <ele>457</ele>
        <time>2024-04-14T09:09:05Z</time>
      </trkpt>
      <trkpt lat="47.11015" lon="6.03015">
        <ele>456.8</ele>
        <time>2024-04-14T09:09:06Z</time>
      </trkpt>
      <trkpt lat="47.11031" lon="6.03021">
        <ele>457.8</ele>
        <time>2024-04-14T09:09:13Z</time>
      </trkpt>
      <trkpt lat="47.1104" lon="6.03028">
        <ele>458</ele>
        <time>2024-04-14T09:09:17Z</time>
      </trkpt>
      <trkpt lat="47.11046" lon="6.03031">
        <ele>458.4</ele>
        <time>2024-04-14T09:09:19Z</time>
      </trkpt>
      <trkpt lat="47.11066" lon="6.03039">
        <ele>458.4</ele>
        <time>2024-04-14T09:09:26Z</time>
      </trkpt>
      <trkpt lat="47.11077" lon="6.03048">
        <ele>458.2</ele>
        <time>2024-04-14T09:09:33Z</time>
      </trkpt>
      <trkpt lat="47.11093" lon="6.03056">
        <ele>458.6</ele>
        <time>2024-04-14T09:09:39Z</time>
      </trkpt>
      <trkpt lat="47.11111" lon="6.03071">
        <ele>458.8</ele>
        <time>2024-04-14T09:09:45Z</time>
      </trkpt>
      <trkpt lat="47.11119" lon="6.03079">
        <ele>459.2</ele>
        <time>2024-04-14T09:09:48Z</time>
      </trkpt>
      <trkpt lat="47.11127" lon="6.03089">
        <ele>459.8</ele>
        <time>2024-04-14T09:09:51Z</time>
      </trkpt>
      <trkpt lat="47.11131" lon="6.03094">
        <ele>460.2</ele>
        <time>2024-04-14T09:09:53Z</time>
      </trkpt>
      <trkpt lat="47.11139" lon="6.03105">
        <ele>460.4</ele>
        <time>2024-04-14T09:09:57Z</time>
      </trkpt>
      <trkpt lat="47.11148" lon="6.03121">
        <ele>461.2</ele>
        <time>2024-04-14T09:10:03Z</time>
      </trkpt>
      <trkpt lat="47.11162" lon="6.03139">
        <ele>462</ele>
        <time>2024-04-14T09:10:10Z</time>
      </trkpt>
      <trkpt lat="47.11164" lon="6.03141">
        <ele>462.8</ele>
        <time>2024-04-14T09:10:11Z</time>
      </trkpt>
      <trkpt lat="47.11177" lon="6.03154">
        <ele>462.8</ele>
        <time>2024-04-14T09:10:16Z</time>
      </trkpt>
      <trkpt lat="47.11187" lon="6.03168">
        <ele>464.2</ele>
        <time>2024-04-14T09:10:21Z</time>
      </trkpt>
      <trkpt lat="47.11191" lon="6.03174">
        <ele>465</ele>
        <time>2024-04-14T09:10:23Z</time>
      </trkpt>
      <trkpt lat="47.11195" lon="6.03177">
        <ele>465.6</ele>
        <time>2024-04-14T09:10:24Z</time>
      </trkpt>
      <trkpt lat="47.11205" lon="6.03191">
        <ele>465.4</ele>
        <time>2024-04-14T09:10:28Z</time>
      </trkpt>
      <trkpt lat="47.1122" lon="6.03213">
        <ele>466.2</ele>
        <time>2024-04-14T09:10:34Z</time>
      </trkpt>
      <trkpt lat="47.11234" lon="6.0323">
        <ele>466.6</ele>
        <time>2024-04-14T09:10:39Z</time>
      </trkpt>
      <trkpt lat="47.11238" lon="6.03237">
        <ele>467.2</ele>
        <time>2024-04-14T09:10:41Z</time>
      </trkpt>
      <trkpt lat="47.11241" lon="6.03244">
        <ele>467.6</ele>
        <time>2024-04-14T09:10:43Z</time>
      </trkpt>
      <trkpt lat="47.11248" lon="6.0326">
        <ele>468</ele>
        <time>2024-04-14T09:10:48Z</time>
      </trkpt>
      <trkpt lat="47.11258" lon="6.03272">
        <ele>469</ele>
        <time>2024-04-14T09:10:52Z</time>
      </trkpt>
      <trkpt lat="47.11262" lon="6.03278">
        <ele>469.4</ele>
        <time>2024-04-14T09:10:54Z</time>
      </trkpt>
      <trkpt lat="47.11279" lon="6.03302">
        <ele>469.8</ele>
        <time>2024-04-14T09:11:01Z</time>
      </trkpt>
      <trkpt lat="47.11281" lon="6.03306">
        <ele>470</ele>
        <time>2024-04-14T09:11:02Z</time>
      </trkpt>
      <trkpt lat="47.11291" lon="6.03321">
        <ele>471.4</ele>
        <time>2024-04-14T09:11:06Z</time>
      </trkpt>
      <trkpt lat="47.11294" lon="6.03328">
        <ele>471.6</ele>
        <time>2024-04-14T09:11:08Z</time>
      </trkpt>
      <trkpt lat="47.11307" lon="6.03344">
        <ele>472.6</ele>
        <time>2024-04-14T09:11:13Z</time>
      </trkpt>
      <trkpt lat="47.11309" lon="6.03347">
        <ele>473</ele>
        <time>2024-04-14T09:11:14Z</time>
      </trkpt>
      <trkpt lat="47.11315" lon="6.03356">
        <ele>474</ele>
        <time>2024-04-14T09:11:17Z</time>
      </trkpt>
      <trkpt lat="47.11321" lon="6.03365">
        <ele>474.2</ele>
        <time>2024-04-14T09:11:20Z</time>
      </trkpt>
      <trkpt lat="47.11333" lon="6.03383">
        <ele>475</ele>
        <time>2024-04-14T09:11:26Z</time>
      </trkpt>
      <trkpt lat="47.11342" lon="6.03396">
        <ele>476</ele>
        <time>2024-04-14T09:11:31Z</time>
      </trkpt>
      <trkpt lat="47.11354" lon="6.03414">
        <ele>475.6</ele>
        <time>2024-04-14T09:11:37Z</time>
      </trkpt>
      <trkpt lat="47.11365" lon="6.03429">
        <ele>475.6</ele>
        <time>2024-04-14T09:11:43Z</time>
      </trkpt>
      <trkpt lat="47.11381" lon="6.03449">
        <ele>476.2</ele>
        <time>2024-04-14T09:11:50Z</time>
      </trkpt>
      <trkpt lat="47.11396" lon="6.0346">
        <ele>477</ele>
        <time>2024-04-14T09:11:56Z</time>
      </trkpt>
      <trkpt lat="47.11398" lon="6.03462">
        <ele>477.2</ele>
        <time>2024-04-14T09:11:57Z</time>
      </trkpt>
      <trkpt lat="47.11416" lon="6.03474">
        <ele>477.8</ele>
        <time>2024-04-14T09:12:03Z</time>
      </trkpt>
      <trkpt lat="47.11427" lon="6.03478">
        <ele>478</ele>
        <time>2024-04-14T09:12:07Z</time>
      </trkpt>
      <trkpt lat="47.11434" lon="6.03482">
        <ele>478.2</ele>
        <time>2024-04-14T09:12:09Z</time>
      </trkpt>
      <trkpt lat="47.11443" lon="6.03484">
        <ele>478.6</ele>
        <time>2024-04-14T09:12:12Z</time>
      </trkpt>
      <trkpt lat="47.11464" lon="6.0349">
        <ele>478.8</ele>
        <time>2024-04-14T09:12:19Z</time>
      </trkpt>
      <trkpt lat="47.11473" lon="6.03492">
        <ele>479.4</ele>
        <time>2024-04-14T09:12:22Z</time>
      </trkpt>
      <trkpt lat="47.11482" lon="6.03493">
        <ele>479.6</ele>
        <time>2024-04-14T09:12:25Z</time>
      </trkpt>
      <trkpt lat="47.115" lon="6.03493">
        <ele>478.8</ele>
        <time>2024-04-14T09:12:32Z</time>
      </trkpt>
      <trkpt lat="47.1152" lon="6.03488">
        <ele>478.6</ele>
        <time>2024-04-14T09:12:38Z</time>
      </trkpt>
      <trkpt lat="47.11531" lon="6.03484">
        <ele>478.2</ele>
        <time>2024-04-14T09:12:42Z</time>
      </trkpt>
      <trkpt lat="47.11535" lon="6.03483">
        <ele>478.2</ele>
        <time>2024-04-14T09:12:43Z</time>
      </trkpt>
      <trkpt lat="47.11558" lon="6.03475">
        <ele>478.6</ele>
        <time>2024-04-14T09:12:50Z</time>
      </trkpt>
      <trkpt lat="47.1157" lon="6.0347">
        <ele>479.4</ele>
        <time>2024-04-14T09:12:54Z</time>
      </trkpt>
      <trkpt lat="47.11576" lon="6.03467">
        <ele>479.6</ele>
        <time>2024-04-14T09:12:56Z</time>
      </trkpt>
      <trkpt lat="47.11595" lon="6.03454">
        <ele>480</ele>
        <time>2024-04-14T09:13:03Z</time>
      </trkpt>
      <trkpt lat="47.11602" lon="6.03447">
        <ele>480.6</ele>
        <time>2024-04-14T09:13:06Z</time>
      </trkpt>
      <trkpt lat="47.11611" lon="6.03436">
        <ele>480</ele>
        <time>2024-04-14T09:13:10Z</time>
      </trkpt>
      <trkpt lat="47.11623" lon="6.03421">
        <ele>480</ele>
        <time>2024-04-14T09:13:16Z</time>
      </trkpt>
      <trkpt lat="47.11636" lon="6.03406">
        <ele>480.4</ele>
        <time>2024-04-14T09:13:22Z</time>
      </trkpt>
      <trkpt lat="47.11645" lon="6.03396">
        <ele>479.4</ele>
        <time>2024-04-14T09:13:26Z</time>
      </trkpt>
      <trkpt lat="47.11649" lon="6.03392">
        <ele>478.4</ele>
        <time>2024-04-14T09:13:28Z</time>
      </trkpt>
      <trkpt lat="47.11651" lon="6.0339">
        <ele>477.8</ele>
        <time>2024-04-14T09:13:29Z</time>
      </trkpt>
      <trkpt lat="47.11655" lon="6.03385">
        <ele>476.8</ele>
        <time>2024-04-14T09:13:31Z</time>
      </trkpt>
      <trkpt lat="47.11665" lon="6.03377">
        <ele>475.8</ele>
        <time>2024-04-14T09:13:35Z</time>
      </trkpt>
      <trkpt lat="47.11668" lon="6.03374">
        <ele>475.6</ele>
        <time>2024-04-14T09:13:36Z</time>
      </trkpt>
      <trkpt lat="47.11672" lon="6.03369">
        <ele>474.4</ele>
        <time>2024-04-14T09:13:38Z</time>
      </trkpt>
      <trkpt lat="47.1168" lon="6.03363">
        <ele>473.6</ele>
        <time>2024-04-14T09:13:41Z</time>
      </trkpt>
      <trkpt lat="47.11683" lon="6.0336">
        <ele>473.4</ele>
        <time>2024-04-14T09:13:42Z</time>
      </trkpt>
      <trkpt lat="47.11696" lon="6.03349">
        <ele>472.6</ele>
        <time>2024-04-14T09:13:47Z</time>
      </trkpt>
      <trkpt lat="47.11708" lon="6.03337">
        <ele>472.4</ele>
        <time>2024-04-14T09:13:51Z</time>
      </trkpt>
      <trkpt lat="47.11712" lon="6.03329">
        <ele>471.6</ele>
        <time>2024-04-14T09:13:53Z</time>
      </trkpt>
      <trkpt lat="47.11721" lon="6.03318">
        <ele>471</ele>
        <time>2024-04-14T09:13:56Z</time>
      </trkpt>
      <trkpt lat="47.11729" lon="6.03309">
        <ele>470.2</ele>
        <time>2024-04-14T09:13:58Z</time>
      </trkpt>
      <trkpt lat="47.11734" lon="6.03303">
        <ele>469.8</ele>
        <time>2024-04-14T09:13:59Z</time>
      </trkpt>
      <trkpt lat="47.11743" lon="6.03291">
        <ele>468.8</ele>
        <time>2024-04-14T09:14:01Z</time>
      </trkpt>
      <trkpt lat="47.1176" lon="6.03271">
        <ele>467.2</ele>
        <time>2024-04-14T09:14:04Z</time>
      </trkpt>
      <trkpt lat="47.11774" lon="6.03247">
        <ele>466.2</ele>
        <time>2024-04-14T09:14:07Z</time>
      </trkpt>
      <trkpt lat="47.11777" lon="6.03238">
        <ele>466.2</ele>
        <time>2024-04-14T09:14:08Z</time>
      </trkpt>
      <trkpt lat="47.1178" lon="6.0323">
        <ele>466</ele>
        <time>2024-04-14T09:14:09Z</time>
      </trkpt>
      <trkpt lat="47.11797" lon="6.03189">
        <ele>465.6</ele>
        <time>2024-04-14T09:14:14Z</time>
      </trkpt>
      <trkpt lat="47.11807" lon="6.03172">
        <ele>465.2</ele>
        <time>2024-04-14T09:14:16Z</time>
      </trkpt>
      <trkpt lat="47.11831" lon="6.03135">
        <ele>463.8</ele>
        <time>2024-04-14T09:14:20Z</time>
      </trkpt>
      <trkpt lat="47.11837" lon="6.03125">
        <ele>463.2</ele>
        <time>2024-04-14T09:14:21Z</time>
      </trkpt>
      <trkpt lat="47.11842" lon="6.03113">
        <ele>462.6</ele>
        <time>2024-04-14T09:14:22Z</time>
      </trkpt>
      <trkpt lat="47.1185" lon="6.0309">
        <ele>462.2</ele>
        <time>2024-04-14T09:14:24Z</time>
      </trkpt>
      <trkpt lat="47.11867" lon="6.03051">
        <ele>461.8</ele>
        <time>2024-04-14T09:14:28Z</time>
      </trkpt>
      <trkpt lat="47.11875" lon="6.03034">
        <ele>461.6</ele>
        <time>2024-04-14T09:14:30Z</time>
      </trkpt>
      <trkpt lat="47.11887" lon="6.03014">
        <ele>461.2</ele>
        <time>2024-04-14T09:14:33Z</time>
      </trkpt>
      <trkpt lat="47.11902" lon="6.02992">
        <ele>460.8</ele>
        <time>2024-04-14T09:14:38Z</time>
      </trkpt>
      <trkpt lat="47.11913" lon="6.02977">
        <ele>461.2</ele>
        <time>2024-04-14T09:14:43Z</time>
      </trkpt>
      <trkpt lat="47.11922" lon="6.02966">
        <ele>462.8</ele>
        <time>2024-04-14T09:17:32Z</time>
      </trkpt>
      <trkpt lat="47.11926" lon="6.02964">
        <ele>464</ele>
        <time>2024-04-14T09:17:35Z</time>
      </trkpt>
      <trkpt lat="47.1193" lon="6.02974">
        <ele>464.6</ele>
        <time>2024-04-14T09:17:38Z</time>
      </trkpt>
      <trkpt lat="47.11932" lon="6.02984">
        <ele>464.6</ele>
        <time>2024-04-14T09:17:40Z</time>
      </trkpt>
      <trkpt lat="47.11932" lon="6.03002">
        <ele>464.2</ele>
        <time>2024-04-14T09:17:43Z</time>
      </trkpt>
      <trkpt lat="47.11932" lon="6.03008">
        <ele>464.2</ele>
        <time>2024-04-14T09:17:44Z</time>
      </trkpt>
      <trkpt lat="47.11927" lon="6.0306">
        <ele>463.2</ele>
        <time>2024-04-14T09:17:51Z</time>
      </trkpt>
      <trkpt lat="47.11922" lon="6.03085">
        <ele>462.8</ele>
        <time>2024-04-14T09:17:54Z</time>
      </trkpt>
      <trkpt lat="47.11914" lon="6.03119">
        <ele>462.4</ele>
        <time>2024-04-14T09:17:58Z</time>
      </trkpt>
      <trkpt lat="47.11908" lon="6.03147">
        <ele>461.6</ele>
        <time>2024-04-14T09:18:01Z</time>
      </trkpt>
      <trkpt lat="47.11907" lon="6.03157">
        <ele>461.2</ele>
        <time>2024-04-14T09:18:02Z</time>
      </trkpt>
      <trkpt lat="47.11911" lon="6.03177">
        <ele>460.6</ele>
        <time>2024-04-14T09:18:04Z</time>
      </trkpt>
      <trkpt lat="47.11917" lon="6.03196">
        <ele>460.2</ele>
        <time>2024-04-14T09:18:06Z</time>
      </trkpt>
      <trkpt lat="47.11926" lon="6.03232">
        <ele>460</ele>
        <time>2024-04-14T09:18:10Z</time>
      </trkpt>
      <trkpt lat="47.11936" lon="6.03265">
        <ele>459.6</ele>
        <time>2024-04-14T09:18:14Z</time>
      </trkpt>
      <trkpt lat="47.11944" lon="6.03288">
        <ele>459.2</ele>
        <time>2024-04-14T09:18:17Z</time>
      </trkpt>
      <trkpt lat="47.1196" lon="6.03334">
        <ele>459</ele>
        <time>2024-04-14T09:18:23Z</time>
      </trkpt>
      <trkpt lat="47.11964" lon="6.0334">
        <ele>458.8</ele>
        <time>2024-04-14T09:18:24Z</time>
      </trkpt>
      <trkpt lat="47.11979" lon="6.03349">
        <ele>459</ele>
        <time>2024-04-14T09:18:27Z</time>
      </trkpt>
      <trkpt lat="47.11994" lon="6.03359">
        <ele>459</ele>
        <time>2024-04-14T09:18:30Z</time>
      </trkpt>
      <trkpt lat="47.12001" lon="6.03372">
        <ele>459.2</ele>
        <time>2024-04-14T09:18:32Z</time>
      </trkpt>
      <trkpt lat="47.12002" lon="6.03398">
        <ele>458.4</ele>
        <time>2024-04-14T09:18:35Z</time>
      </trkpt>
      <trkpt lat="47.12001" lon="6.03416">
        <ele>457.8</ele>
        <time>2024-04-14T09:18:37Z</time>
      </trkpt>
      <trkpt lat="47.12" lon="6.03436">
        <ele>457.2</ele>
        <time>2024-04-14T09:18:39Z</time>
      </trkpt>
      <trkpt lat="47.11998" lon="6.03456">
        <ele>456.6</ele>
        <time>2024-04-14T09:18:41Z</time>
      </trkpt>
      <trkpt lat="47.11997" lon="6.03477">
        <ele>456</ele>
        <time>2024-04-14T09:18:43Z</time>
      </trkpt>
      <trkpt lat="47.11996" lon="6.03509">
        <ele>455</ele>
        <time>2024-04-14T09:18:46Z</time>
      </trkpt>
      <trkpt lat="47.11994" lon="6.03552">
        <ele>454</ele>
        <time>2024-04-14T09:18:50Z</time>
      </trkpt>
      <trkpt lat="47.11993" lon="6.03564">
        <ele>453.6</ele>
        <time>2024-04-14T09:18:51Z</time>
      </trkpt>
      <trkpt lat="47.11992" lon="6.03598">
        <ele>452.8</ele>
        <time>2024-04-14T09:18:54Z</time>
      </trkpt>
      <trkpt lat="47.1199" lon="6.0363">
        <ele>451.8</ele>
        <time>2024-04-14T09:18:57Z</time>
      </trkpt>
      <trkpt lat="47.11989" lon="6.03675">
        <ele>451</ele>
        <time>2024-04-14T09:19:01Z</time>
      </trkpt>
      <trkpt lat="47.11988" lon="6.03686">
        <ele>450.6</ele>
        <time>2024-04-14T09:19:02Z</time>
      </trkpt>
      <trkpt lat="47.11987" lon="6.0372">
        <ele>449.2</ele>
        <time>2024-04-14T09:19:05Z</time>
      </trkpt>
      <trkpt lat="47.11986" lon="6.03755">
        <ele>448.2</ele>
        <time>2024-04-14T09:19:08Z</time>
      </trkpt>
      <trkpt lat="47.11985" lon="6.03778">
        <ele>447.6</ele>
        <time>2024-04-14T09:19:10Z</time>
      </trkpt>
      <trkpt lat="47.11984" lon="6.03801">
        <ele>447.2</ele>
        <time>2024-04-14T09:19:12Z</time>
      </trkpt>
      <trkpt lat="47.1198" lon="6.03855">
        <ele>445.8</ele>
        <time>2024-04-14T09:19:17Z</time>
      </trkpt>
      <trkpt lat="47.11975" lon="6.03885">
        <ele>444.6</ele>
        <time>2024-04-14T09:19:20Z</time>
      </trkpt>
      <trkpt lat="47.1197" lon="6.03902">
        <ele>444</ele>
        <time>2024-04-14T09:19:22Z</time>
      </trkpt>
      <trkpt lat="47.11965" lon="6.03917">
        <ele>443.4</ele>
        <time>2024-04-14T09:19:24Z</time>
      </trkpt>
      <trkpt lat="47.11969" lon="6.03928">
        <ele>443</ele>
        <time>2024-04-14T09:19:42Z</time>
      </trkpt>
      <trkpt lat="47.11972" lon="6.03934">
        <ele>442.4</ele>
        <time>2024-04-14T09:19:45Z</time>
      </trkpt>
      <trkpt lat="47.11973" lon="6.0394">
        <ele>441.8</ele>
        <time>2024-04-14T09:19:48Z</time>
      </trkpt>
      <trkpt lat="47.11973" lon="6.03945">
        <ele>441.6</ele>
        <time>2024-04-14T09:19:50Z</time>
      </trkpt>
      <trkpt lat="47.11971" lon="6.03966">
        <ele>441.4</ele>
        <time>2024-04-14T09:19:55Z</time>
      </trkpt>
      <trkpt lat="47.1197" lon="6.03998">
        <ele>440.8</ele>
        <time>2024-04-14T09:20:01Z</time>
      </trkpt>
      <trkpt lat="47.11967" lon="6.04021">
        <ele>440.8</ele>
        <time>2024-04-14T09:20:06Z</time>
      </trkpt>
      <trkpt lat="47.11961" lon="6.04044">
        <ele>442</ele>
        <time>2024-04-14T09:20:12Z</time>
      </trkpt>
      <trkpt lat="47.11959" lon="6.04054">
        <ele>442.4</ele>
        <time>2024-04-14T09:20:15Z</time>
      </trkpt>
      <trkpt lat="47.11957" lon="6.04063">
        <ele>442.6</ele>
        <time>2024-04-14T09:20:18Z</time>
      </trkpt>
      <trkpt lat="47.11953" lon="6.04082">
        <ele>443.2</ele>
        <time>2024-04-14T09:20:25Z</time>
      </trkpt>
      <trkpt lat="47.11948" lon="6.04099">
        <ele>443.4</ele>
        <time>2024-04-14T09:20:33Z</time>
      </trkpt>
      <trkpt lat="47.11942" lon="6.04115">
        <ele>443.8</ele>
        <time>2024-04-14T09:20:39Z</time>
      </trkpt>
      <trkpt lat="47.11938" lon="6.04119">
        <ele>444.4</ele>
        <time>2024-04-14T09:20:41Z</time>
      </trkpt>
      <trkpt lat="47.11926" lon="6.04137">
        <ele>448.4</ele>
        <time>2024-04-14T09:20:48Z</time>
      </trkpt>
      <trkpt lat="47.11925" lon="6.04141">
        <ele>449</ele>
        <time>2024-04-14T09:20:49Z</time>
      </trkpt>
      <trkpt lat="47.11924" lon="6.04144">
        <ele>449.6</ele>
        <time>2024-04-14T09:20:50Z</time>
      </trkpt>
      <trkpt lat="47.11918" lon="6.04156">
        <ele>450.8</ele>
        <time>2024-04-14T09:20:54Z</time>
      </trkpt>
      <trkpt lat="47.11917" lon="6.04158">
        <ele>451.2</ele>
        <time>2024-04-14T09:20:55Z</time>
      </trkpt>
      <trkpt lat="47.11916" lon="6.04162">
        <ele>452</ele>
        <time>2024-04-14T09:20:56Z</time>
      </trkpt>
      <trkpt lat="47.11913" lon="6.04167">
        <ele>453.8</ele>
        <time>2024-04-14T09:20:58Z</time>
      </trkpt>
      <trkpt lat="47.11912" lon="6.0417">
        <ele>454.6</ele>
        <time>2024-04-14T09:20:59Z</time>
      </trkpt>
      <trkpt lat="47.11911" lon="6.04172">
        <ele>455.2</ele>
        <time>2024-04-14T09:21:00Z</time>
      </trkpt>
      <trkpt lat="47.1191" lon="6.04175">
        <ele>455.6</ele>
        <time>2024-04-14T09:21:02Z</time>
      </trkpt>
      <trkpt lat="47.11905" lon="6.04191">
        <ele>456.2</ele>
        <time>2024-04-14T09:21:08Z</time>
      </trkpt>
      <trkpt lat="47.11902" lon="6.04197">
        <ele>456.2</ele>
        <time>2024-04-14T09:21:11Z</time>
      </trkpt>
      <trkpt lat="47.11898" lon="6.04207">
        <ele>457.6</ele>
        <time>2024-04-14T09:21:16Z</time>
      </trkpt>
      <trkpt lat="47.11875" lon="6.04233">
        <ele>463</ele>
        <time>2024-04-14T09:21:29Z</time>
      </trkpt>
      <trkpt lat="47.11871" lon="6.04239">
        <ele>463</ele>
        <time>2024-04-14T09:21:33Z</time>
      </trkpt>
      <trkpt lat="47.11842" lon="6.043">
        <ele>472.4</ele>
        <time>2024-04-14T09:22:00Z</time>
      </trkpt>
      <trkpt lat="47.11842" lon="6.04302">
        <ele>472.4</ele>
        <time>2024-04-14T09:22:01Z</time>
      </trkpt>
      <trkpt lat="47.11837" lon="6.04316">
        <ele>473</ele>
        <time>2024-04-14T09:22:08Z</time>
      </trkpt>
      <trkpt lat="47.11836" lon="6.04318">
        <ele>473.4</ele>
        <time>2024-04-14T09:22:09Z</time>
      </trkpt>
      <trkpt lat="47.11833" lon="6.04324">
        <ele>474.6</ele>
        <time>2024-04-14T09:22:12Z</time>
      </trkpt>
      <trkpt lat="47.1183" lon="6.04326">
        <ele>475.8</ele>
        <time>2024-04-14T09:22:14Z</time>
      </trkpt>
      <trkpt lat="47.11731" lon="6.044">
        <ele>497.4</ele>
        <time>2024-04-14T09:23:20Z</time>
      </trkpt>
      <trkpt lat="47.11726" lon="6.04408">
        <ele>499</ele>
        <time>2024-04-14T09:23:23Z</time>
      </trkpt>
      <trkpt lat="47.11724" lon="6.04413">
        <ele>500</ele>
        <time>2024-04-14T09:23:25Z</time>
      </trkpt>
      <trkpt lat="47.11723" lon="6.04416">
        <ele>500.6</ele>
        <time>2024-04-14T09:23:26Z</time>
      </trkpt>
      <trkpt lat="47.11722" lon="6.04419">
        <ele>501.2</ele>
        <time>2024-04-14T09:23:27Z</time>
      </trkpt>
      <trkpt lat="47.11721" lon="6.0442">
        <ele>501.6</ele>
        <time>2024-04-14T09:23:28Z</time>
      </trkpt>
      <trkpt lat="47.1172" lon="6.04424">
        <ele>502.6</ele>
        <time>2024-04-14T09:23:30Z</time>
      </trkpt>
      <trkpt lat="47.11719" lon="6.04427">
        <ele>503.8</ele>
        <time>2024-04-14T09:23:32Z</time>
      </trkpt>
      <trkpt lat="47.11717" lon="6.04432">
        <ele>506.8</ele>
        <time>2024-04-14T09:26:54Z</time>
      </trkpt>
      <trkpt lat="47.11715" lon="6.04431">
        <ele>507</ele>
        <time>2024-04-14T09:26:55Z</time>
      </trkpt>
      <trkpt lat="47.11699" lon="6.04428">
        <ele>507.6</ele>
        <time>2024-04-14T09:27:02Z</time>
      </trkpt>
      <trkpt lat="47.1169" lon="6.0443">
        <ele>507.2</ele>
        <time>2024-04-14T09:27:05Z</time>
      </trkpt>
      <trkpt lat="47.11685" lon="6.04438">
        <ele>506.8</ele>
        <time>2024-04-14T09:27:08Z</time>
      </trkpt>
      <trkpt lat="47.11681" lon="6.04448">
        <ele>507</ele>
        <time>2024-04-14T09:27:12Z</time>
      </trkpt>
      <trkpt lat="47.11676" lon="6.04453">
        <ele>506.4</ele>
        <time>2024-04-14T09:27:15Z</time>
      </trkpt>
      <trkpt lat="47.11665" lon="6.04467">
        <ele>505.6</ele>
        <time>2024-04-14T09:27:22Z</time>
      </trkpt>
      <trkpt lat="47.11635" lon="6.04478">
        <ele>505.4</ele>
        <time>2024-04-14T09:27:33Z</time>
      </trkpt>
      <trkpt lat="47.11627" lon="6.04476">
        <ele>504.6</ele>
        <time>2024-04-14T09:27:36Z</time>
      </trkpt>
      <trkpt lat="47.11625" lon="6.04476">
        <ele>504.4</ele>
        <time>2024-04-14T09:27:37Z</time>
      </trkpt>
      <trkpt lat="47.11618" lon="6.0447">
        <ele>503.4</ele>
        <time>2024-04-14T09:27:42Z</time>
      </trkpt>
      <trkpt lat="47.11616" lon="6.04468">
        <ele>503.2</ele>
        <time>2024-04-14T09:27:43Z</time>
      </trkpt>
      <trkpt lat="47.11606" lon="6.04461">
        <ele>502.4</ele>
        <time>2024-04-14T09:27:50Z</time>
      </trkpt>
      <trkpt lat="47.11603" lon="6.04459">
        <ele>502.4</ele>
        <time>2024-04-14T09:27:51Z</time>
      </trkpt>
      <trkpt lat="47.11596" lon="6.04455">
        <ele>503.4</ele>
        <time>2024-04-14T09:27:54Z</time>
      </trkpt>
      <trkpt lat="47.11589" lon="6.04451">
        <ele>504.4</ele>
        <time>2024-04-14T09:27:57Z</time>
      </trkpt>
      <trkpt lat="47.11585" lon="6.04449">
        <ele>504.6</ele>
        <time>2024-04-14T09:27:59Z</time>
      </trkpt>
      <trkpt lat="47.11577" lon="6.04439">
        <ele>505.6</ele>
        <time>2024-04-14T09:28:05Z</time>
      </trkpt>
      <trkpt lat="47.11576" lon="6.04438">
        <ele>505.8</ele>
        <time>2024-04-14T09:28:06Z</time>
      </trkpt>
      <trkpt lat="47.11573" lon="6.04434">
        <ele>507</ele>
        <time>2024-04-14T09:28:09Z</time>
      </trkpt>
      <trkpt lat="47.11569" lon="6.04432">
        <ele>507.8</ele>
        <time>2024-04-14T09:28:11Z</time>
      </trkpt>
      <trkpt lat="47.11567" lon="6.04431">
        <ele>508.2</ele>
        <time>2024-04-14T09:28:12Z</time>
      </trkpt>
      <trkpt lat="47.11565" lon="6.04429">
        <ele>508.6</ele>
        <time>2024-04-14T09:28:13Z</time>
      </trkpt>
      <trkpt lat="47.11558" lon="6.04424">
        <ele>508.8</ele>
        <time>2024-04-14T09:28:16Z</time>
      </trkpt>
      <trkpt lat="47.11552" lon="6.04421">
        <ele>509.4</ele>
        <time>2024-04-14T09:28:18Z</time>
      </trkpt>
      <trkpt lat="47.11545" lon="6.04419">
        <ele>509.8</ele>
        <time>2024-04-14T09:28:20Z</time>
      </trkpt>
      <trkpt lat="47.11524" lon="6.04417">
        <ele>509.2</ele>
        <time>2024-04-14T09:28:26Z</time>
      </trkpt>
      <trkpt lat="47.1151" lon="6.04412">
        <ele>508.2</ele>
        <time>2024-04-14T09:28:29Z</time>
      </trkpt>
      <trkpt lat="47.115" lon="6.04407">
        <ele>507</ele>
        <time>2024-04-14T09:28:31Z</time>
      </trkpt>
      <trkpt lat="47.11488" lon="6.04407">
        <ele>506</ele>
        <time>2024-04-14T09:28:34Z</time>
      </trkpt>
      <trkpt lat="47.11479" lon="6.04406">
        <ele>505.6</ele>
        <time>2024-04-14T09:28:36Z</time>
      </trkpt>
      <trkpt lat="47.11473" lon="6.04404">
        <ele>504.6</ele>
        <time>2024-04-14T09:28:38Z</time>
      </trkpt>
      <trkpt lat="47.11463" lon="6.04403">
        <ele>503.6</ele>
        <time>2024-04-14T09:28:41Z</time>
      </trkpt>
      <trkpt lat="47.1146" lon="6.04404">
        <ele>503.4</ele>
        <time>2024-04-14T09:28:42Z</time>
      </trkpt>
      <trkpt lat="47.11449" lon="6.04406">
        <ele>503.2</ele>
        <time>2024-04-14T09:28:46Z</time>
      </trkpt>
      <trkpt lat="47.11436" lon="6.04405">
        <ele>503.2</ele>
        <time>2024-04-14T09:28:50Z</time>
      </trkpt>
      <trkpt lat="47.11426" lon="6.04405">
        <ele>503</ele>
        <time>2024-04-14T09:28:53Z</time>
      </trkpt>
      <trkpt lat="47.11415" lon="6.04407">
        <ele>502.4</ele>
        <time>2024-04-14T09:28:57Z</time>
      </trkpt>
      <trkpt lat="47.11406" lon="6.04406">
        <ele>501.6</ele>
        <time>2024-04-14T09:29:00Z</time>
      </trkpt>
      <trkpt lat="47.11404" lon="6.04405">
        <ele>501.2</ele>
        <time>2024-04-14T09:29:01Z</time>
      </trkpt>
      <trkpt lat="47.11379" lon="6.04402">
        <ele>498.6</ele>
        <time>2024-04-14T09:29:13Z</time>
      </trkpt>
      <trkpt lat="47.11376" lon="6.04402">
        <ele>498.6</ele>
        <time>2024-04-14T09:29:14Z</time>
      </trkpt>
      <trkpt lat="47.11368" lon="6.04401">
        <ele>497.2</ele>
        <time>2024-04-14T09:29:18Z</time>
      </trkpt>
      <trkpt lat="47.11362" lon="6.044">
        <ele>496</ele>
        <time>2024-04-14T09:29:20Z</time>
      </trkpt>
      <trkpt lat="47.11359" lon="6.04399">
        <ele>495.6</ele>
        <time>2024-04-14T09:29:21Z</time>
      </trkpt>
      <trkpt lat="47.11339" lon="6.04394">
        <ele>495</ele>
        <time>2024-04-14T09:29:26Z</time>
      </trkpt>
      <trkpt lat="47.11336" lon="6.04393">
        <ele>494.6</ele>
        <time>2024-04-14T09:29:27Z</time>
      </trkpt>
      <trkpt lat="47.11326" lon="6.04392">
        <ele>493.8</ele>
        <time>2024-04-14T09:29:31Z</time>
      </trkpt>
      <trkpt lat="47.11318" lon="6.0439">
        <ele>493.2</ele>
        <time>2024-04-14T09:29:33Z</time>
      </trkpt>
      <trkpt lat="47.1131" lon="6.04387">
        <ele>493</ele>
        <time>2024-04-14T09:29:37Z</time>
      </trkpt>
      <trkpt lat="47.11294" lon="6.0438">
        <ele>493</ele>
        <time>2024-04-14T09:29:43Z</time>
      </trkpt>
      <trkpt lat="47.11275" lon="6.04371">
        <ele>492.4</ele>
        <time>2024-04-14T09:29:54Z</time>
      </trkpt>
      <trkpt lat="47.1127" lon="6.04371">
        <ele>492.4</ele>
        <time>2024-04-14T09:29:55Z</time>
      </trkpt>
      <trkpt lat="47.11264" lon="6.0437">
        <ele>492.4</ele>
        <time>2024-04-14T09:29:57Z</time>
      </trkpt>
      <trkpt lat="47.11252" lon="6.0437">
        <ele>492.8</ele>
        <time>2024-04-14T09:30:01Z</time>
      </trkpt>
      <trkpt lat="47.11245" lon="6.0437">
        <ele>493</ele>
        <time>2024-04-14T09:30:03Z</time>
      </trkpt>
      <trkpt lat="47.11237" lon="6.0437">
        <ele>493.8</ele>
        <time>2024-04-14T09:30:07Z</time>
      </trkpt>
      <trkpt lat="47.11235" lon="6.04368">
        <ele>494.2</ele>
        <time>2024-04-14T09:30:08Z</time>
      </trkpt>
      <trkpt lat="47.11228" lon="6.04362">
        <ele>494.2</ele>
        <time>2024-04-14T09:30:12Z</time>
      </trkpt>
      <trkpt lat="47.11224" lon="6.04359">
        <ele>494.4</ele>
        <time>2024-04-14T09:30:13Z</time>
      </trkpt>
      <trkpt lat="47.11223" lon="6.04358">
        <ele>494.4</ele>
        <time>2024-04-14T09:30:14Z</time>
      </trkpt>
      <trkpt lat="47.11211" lon="6.04347">
        <ele>495</ele>
        <time>2024-04-14T09:30:20Z</time>
      </trkpt>
      <trkpt lat="47.11181" lon="6.04339">
        <ele>497.6</ele>
        <time>2024-04-14T09:30:33Z</time>
      </trkpt>
      <trkpt lat="47.11172" lon="6.04338">
        <ele>498.2</ele>
        <time>2024-04-14T09:30:37Z</time>
      </trkpt>
      <trkpt lat="47.11167" lon="6.04335">
        <ele>498.8</ele>
        <time>2024-04-14T09:30:39Z</time>
      </trkpt>
      <trkpt lat="47.11158" lon="6.04332">
        <ele>500</ele>
        <time>2024-04-14T09:30:43Z</time>
      </trkpt>
      <trkpt lat="47.11154" lon="6.04331">
        <ele>500.8</ele>
        <time>2024-04-14T09:30:45Z</time>
      </trkpt>
      <trkpt lat="47.11152" lon="6.04331">
        <ele>501</ele>
        <time>2024-04-14T09:30:46Z</time>
      </trkpt>
      <trkpt lat="47.11146" lon="6.04332">
        <ele>501.6</ele>
        <time>2024-04-14T09:30:49Z</time>
      </trkpt>
      <trkpt lat="47.11141" lon="6.04331">
        <ele>502</ele>
        <time>2024-04-14T09:30:52Z</time>
      </trkpt>
      <trkpt lat="47.11128" lon="6.04331">
        <ele>502</ele>
        <time>2024-04-14T09:30:59Z</time>
      </trkpt>
      <trkpt lat="47.11126" lon="6.0433">
        <ele>502.2</ele>
        <time>2024-04-14T09:31:01Z</time>
      </trkpt>
      <trkpt lat="47.11122" lon="6.04325">
        <ele>502.6</ele>
        <time>2024-04-14T09:31:04Z</time>
      </trkpt>
      <trkpt lat="47.11112" lon="6.04323">
        <ele>503.4</ele>
        <time>2024-04-14T09:31:10Z</time>
      </trkpt>
      <trkpt lat="47.11109" lon="6.04324">
        <ele>503.8</ele>
        <time>2024-04-14T09:31:11Z</time>
      </trkpt>
      <trkpt lat="47.11094" lon="6.04335">
        <ele>503.8</ele>
        <time>2024-04-14T09:31:18Z</time>
      </trkpt>
      <trkpt lat="47.11086" lon="6.04341">
        <ele>504.6</ele>
        <time>2024-04-14T09:31:22Z</time>
      </trkpt>
      <trkpt lat="47.11082" lon="6.04344">
        <ele>504.8</ele>
        <time>2024-04-14T09:31:24Z</time>
      </trkpt>
      <trkpt lat="47.11076" lon="6.04347">
        <ele>505.6</ele>
        <time>2024-04-14T09:31:27Z</time>
      </trkpt>
      <trkpt lat="47.1107" lon="6.04353">
        <ele>506.8</ele>
        <time>2024-04-14T09:31:31Z</time>
      </trkpt>
      <trkpt lat="47.11069" lon="6.04354">
        <ele>507.2</ele>
        <time>2024-04-14T09:31:32Z</time>
      </trkpt>
      <trkpt lat="47.11068" lon="6.04356">
        <ele>507.6</ele>
        <time>2024-04-14T09:31:33Z</time>
      </trkpt>
      <trkpt lat="47.11068" lon="6.04363">
        <ele>508.2</ele>
        <time>2024-04-14T09:31:36Z</time>
      </trkpt>
      <trkpt lat="47.11068" lon="6.04365">
        <ele>508.4</ele>
        <time>2024-04-14T09:31:37Z</time>
      </trkpt>
      <trkpt lat="47.11068" lon="6.04367">
        <ele>508.4</ele>
        <time>2024-04-14T09:31:38Z</time>
      </trkpt>
      <trkpt lat="47.11029" lon="6.04367">
        <ele>511.6</ele>
        <time>2024-04-14T09:33:52Z</time>
      </trkpt>
      <trkpt lat="47.11027" lon="6.04366">
        <ele>511.6</ele>
        <time>2024-04-14T09:33:53Z</time>
      </trkpt>
      <trkpt lat="47.11019" lon="6.04362">
        <ele>511.4</ele>
        <time>2024-04-14T09:33:57Z</time>
      </trkpt>
      <trkpt lat="47.11015" lon="6.0436">
        <ele>511.2</ele>
        <time>2024-04-14T09:33:59Z</time>
      </trkpt>
      <trkpt lat="47.11012" lon="6.04358">
        <ele>510.4</ele>
        <time>2024-04-14T09:34:01Z</time>
      </trkpt>
      <trkpt lat="47.11007" lon="6.04355">
        <ele>508.8</ele>
        <time>2024-04-14T09:34:04Z</time>
      </trkpt>
      <trkpt lat="47.11005" lon="6.04354">
        <ele>508.2</ele>
        <time>2024-04-14T09:34:05Z</time>
      </trkpt>
      <trkpt lat="47.11002" lon="6.04354">
        <ele>507.6</ele>
        <time>2024-04-14T09:34:06Z</time>
      </trkpt>
      <trkpt lat="47.10997" lon="6.04352">
        <ele>506.4</ele>
        <time>2024-04-14T09:34:08Z</time>
      </trkpt>
      <trkpt lat="47.10989" lon="6.04351">
        <ele>505</ele>
        <time>2024-04-14T09:34:11Z</time>
      </trkpt>
      <trkpt lat="47.10987" lon="6.0435">
        <ele>504.4</ele>
        <time>2024-04-14T09:34:12Z</time>
      </trkpt>
      <trkpt lat="47.10985" lon="6.0435">
        <ele>504</ele>
        <time>2024-04-14T09:34:13Z</time>
      </trkpt>
      <trkpt lat="47.10976" lon="6.04347">
        <ele>502.8</ele>
        <time>2024-04-14T09:34:17Z</time>
      </trkpt>
      <trkpt lat="47.10974" lon="6.04347">
        <ele>503</ele>
        <time>2024-04-14T09:34:18Z</time>
      </trkpt>
      <trkpt lat="47.1097" lon="6.04344">
        <ele>503.8</ele>
        <time>2024-04-14T09:34:20Z</time>
      </trkpt>
      <trkpt lat="47.10964" lon="6.0434">
        <ele>504.2</ele>
        <time>2024-04-14T09:34:24Z</time>
      </trkpt>
      <trkpt lat="47.10951" lon="6.04331">
        <ele>504.4</ele>
        <time>2024-04-14T09:34:31Z</time>
      </trkpt>
      <trkpt lat="47.10938" lon="6.04316">
        <ele>505.4</ele>
        <time>2024-04-14T09:34:38Z</time>
      </trkpt>
      <trkpt lat="47.10934" lon="6.04312">
        <ele>506</ele>
        <time>2024-04-14T09:34:39Z</time>
      </trkpt>
      <trkpt lat="47.10928" lon="6.04306">
        <ele>506.6</ele>
        <time>2024-04-14T09:34:42Z</time>
      </trkpt>
      <trkpt lat="47.10926" lon="6.04303">
        <ele>507.2</ele>
        <time>2024-04-14T09:34:43Z</time>
      </trkpt>
      <trkpt lat="47.1092" lon="6.04298">
        <ele>507.6</ele>
        <time>2024-04-14T09:34:45Z</time>
      </trkpt>
      <trkpt lat="47.10911" lon="6.04289">
        <ele>508.6</ele>
        <time>2024-04-14T09:34:50Z</time>
      </trkpt>
      <trkpt lat="47.109" lon="6.04282">
        <ele>509.2</ele>
        <time>2024-04-14T09:34:57Z</time>
      </trkpt>
      <trkpt lat="47.10889" lon="6.04275">
        <ele>508</ele>
        <time>2024-04-14T09:35:04Z</time>
      </trkpt>
      <trkpt lat="47.10885" lon="6.04272">
        <ele>507.6</ele>
        <time>2024-04-14T09:35:06Z</time>
      </trkpt>
      <trkpt lat="47.10875" lon="6.04262">
        <ele>506.4</ele>
        <time>2024-04-14T09:35:10Z</time>
      </trkpt>
      <trkpt lat="47.1087" lon="6.04258">
        <ele>505.8</ele>
        <time>2024-04-14T09:35:12Z</time>
      </trkpt>
      <trkpt lat="47.10856" lon="6.04247">
        <ele>505.2</ele>
        <time>2024-04-14T09:35:16Z</time>
      </trkpt>
      <trkpt lat="47.1085" lon="6.04242">
        <ele>504.6</ele>
        <time>2024-04-14T09:35:18Z</time>
      </trkpt>
      <trkpt lat="47.10844" lon="6.04237">
        <ele>503.8</ele>
        <time>2024-04-14T09:35:20Z</time>
      </trkpt>
      <trkpt lat="47.10828" lon="6.04225">
        <ele>502.8</ele>
        <time>2024-04-14T09:35:24Z</time>
      </trkpt>
      <trkpt lat="47.10823" lon="6.04221">
        <ele>502.8</ele>
        <time>2024-04-14T09:35:25Z</time>
      </trkpt>
      <trkpt lat="47.10799" lon="6.04207">
        <ele>504</ele>
        <time>2024-04-14T09:35:30Z</time>
      </trkpt>
      <trkpt lat="47.10791" lon="6.04203">
        <ele>504.6</ele>
        <time>2024-04-14T09:35:32Z</time>
      </trkpt>
      <trkpt lat="47.10778" lon="6.04195">
        <ele>505.4</ele>
        <time>2024-04-14T09:35:35Z</time>
      </trkpt>
      <trkpt lat="47.1077" lon="6.04191">
        <ele>505.8</ele>
        <time>2024-04-14T09:35:38Z</time>
      </trkpt>
      <trkpt lat="47.10761" lon="6.04187">
        <ele>505.8</ele>
        <time>2024-04-14T09:36:10Z</time>
      </trkpt>
      <trkpt lat="47.10759" lon="6.04185">
        <ele>506.4</ele>
        <time>2024-04-14T09:36:11Z</time>
      </trkpt>
      <trkpt lat="47.10743" lon="6.04176">
        <ele>506.4</ele>
        <time>2024-04-14T09:36:18Z</time>
      </trkpt>
      <trkpt lat="47.10731" lon="6.04168">
        <ele>504.8</ele>
        <time>2024-04-14T09:36:22Z</time>
      </trkpt>
      <trkpt lat="47.10725" lon="6.04165">
        <ele>503.6</ele>
        <time>2024-04-14T09:36:24Z</time>
      </trkpt>
      <trkpt lat="47.10721" lon="6.04163">
        <ele>502.4</ele>
        <time>2024-04-14T09:36:26Z</time>
      </trkpt>
      <trkpt lat="47.10714" lon="6.04161">
        <ele>501.2</ele>
        <time>2024-04-14T09:36:29Z</time>
      </trkpt>
      <trkpt lat="47.10703" lon="6.04157">
        <ele>500</ele>
        <time>2024-04-14T09:36:34Z</time>
      </trkpt>
      <trkpt lat="47.10698" lon="6.04154">
        <ele>499.4</ele>
        <time>2024-04-14T09:36:36Z</time>
      </trkpt>
      <trkpt lat="47.10693" lon="6.04151">
        <ele>499</ele>
        <time>2024-04-14T09:36:38Z</time>
      </trkpt>
      <trkpt lat="47.10686" lon="6.04147">
        <ele>498.4</ele>
        <time>2024-04-14T09:36:41Z</time>
      </trkpt>
      <trkpt lat="47.10682" lon="6.04144">
        <ele>498</ele>
        <time>2024-04-14T09:36:43Z</time>
      </trkpt>
      <trkpt lat="47.10675" lon="6.04139">
        <ele>497</ele>
        <time>2024-04-14T09:36:47Z</time>
      </trkpt>
      <trkpt lat="47.10662" lon="6.04132">
        <ele>496.2</ele>
        <time>2024-04-14T09:36:54Z</time>
      </trkpt>
      <trkpt lat="47.10655" lon="6.04128">
        <ele>495.8</ele>
        <time>2024-04-14T09:36:57Z</time>
      </trkpt>
      <trkpt lat="47.10646" lon="6.04123">
        <ele>495.4</ele>
        <time>2024-04-14T09:37:01Z</time>
      </trkpt>
      <trkpt lat="47.10625" lon="6.04118">
        <ele>495.2</ele>
        <time>2024-04-14T09:37:07Z</time>
      </trkpt>
      <trkpt lat="47.1062" lon="6.04117">
        <ele>494.8</ele>
        <time>2024-04-14T09:37:08Z</time>
      </trkpt>
      <trkpt lat="47.10599" lon="6.04115">
        <ele>494.2</ele>
        <time>2024-04-14T09:37:13Z</time>
      </trkpt>
      <trkpt lat="47.10583" lon="6.04111">
        <ele>493.6</ele>
        <time>2024-04-14T09:37:16Z</time>
      </trkpt>
      <trkpt lat="47.10572" lon="6.04107">
        <ele>492.8</ele>
        <time>2024-04-14T09:37:18Z</time>
      </trkpt>
      <trkpt lat="47.10567" lon="6.04107">
        <ele>492.4</ele>
        <time>2024-04-14T09:37:19Z</time>
      </trkpt>
      <trkpt lat="47.10547" lon="6.04104">
        <ele>492.2</ele>
        <time>2024-04-14T09:37:23Z</time>
      </trkpt>
      <trkpt lat="47.10542" lon="6.04104">
        <ele>492.2</ele>
        <time>2024-04-14T09:37:24Z</time>
      </trkpt>
      <trkpt lat="47.10528" lon="6.04105">
        <ele>493.6</ele>
        <time>2024-04-14T09:37:27Z</time>
      </trkpt>
      <trkpt lat="47.10517" lon="6.04108">
        <ele>494.4</ele>
        <time>2024-04-14T09:37:30Z</time>
      </trkpt>
      <trkpt lat="47.10513" lon="6.04108">
        <ele>494.6</ele>
        <time>2024-04-14T09:37:31Z</time>
      </trkpt>
      <trkpt lat="47.10499" lon="6.04108">
        <ele>496</ele>
        <time>2024-04-14T09:37:34Z</time>
      </trkpt>
      <trkpt lat="47.10491" lon="6.04111">
        <ele>497</ele>
        <time>2024-04-14T09:37:36Z</time>
      </trkpt>
      <trkpt lat="47.10482" lon="6.04117">
        <ele>498.2</ele>
        <time>2024-04-14T09:37:39Z</time>
      </trkpt>
      <trkpt lat="47.10476" lon="6.04121">
        <ele>498.2</ele>
        <time>2024-04-14T09:37:41Z</time>
      </trkpt>
      <trkpt lat="47.10468" lon="6.04131">
        <ele>497.6</ele>
        <time>2024-04-14T09:37:45Z</time>
      </trkpt>
      <trkpt lat="47.10466" lon="6.04135">
        <ele>498</ele>
        <time>2024-04-14T09:37:46Z</time>
      </trkpt>
      <trkpt lat="47.10466" lon="6.04143">
        <ele>497.6</ele>
        <time>2024-04-14T09:37:49Z</time>
      </trkpt>
      <trkpt lat="47.10465" lon="6.04148">
        <ele>497.6</ele>
        <time>2024-04-14T09:37:51Z</time>
      </trkpt>
      <trkpt lat="47.10461" lon="6.04168">
        <ele>498</ele>
        <time>2024-04-14T09:37:56Z</time>
      </trkpt>
      <trkpt lat="47.10457" lon="6.04207">
        <ele>498.8</ele>
        <time>2024-04-14T09:38:02Z</time>
      </trkpt>
      <trkpt lat="47.10456" lon="6.04223">
        <ele>496.6</ele>
        <time>2024-04-14T09:38:06Z</time>
      </trkpt>
      <trkpt lat="47.10456" lon="6.04229">
        <ele>495.6</ele>
        <time>2024-04-14T09:38:08Z</time>
      </trkpt>
      <trkpt lat="47.10456" lon="6.04233">
        <ele>495</ele>
        <time>2024-04-14T09:38:09Z</time>
      </trkpt>
      <trkpt lat="47.10456" lon="6.0424">
        <ele>494.2</ele>
        <time>2024-04-14T09:38:11Z</time>
      </trkpt>
      <trkpt lat="47.10454" lon="6.04256">
        <ele>494.2</ele>
        <time>2024-04-14T09:38:15Z</time>
      </trkpt>
      <trkpt lat="47.10452" lon="6.04265">
        <ele>495.8</ele>
        <time>2024-04-14T09:38:17Z</time>
      </trkpt>
      <trkpt lat="47.1045" lon="6.04273">
        <ele>497.8</ele>
        <time>2024-04-14T09:38:19Z</time>
      </trkpt>
      <trkpt lat="47.10448" lon="6.04283">
        <ele>500.2</ele>
        <time>2024-04-14T09:38:21Z</time>
      </trkpt>
      <trkpt lat="47.10449" lon="6.04293">
        <ele>502.6</ele>
        <time>2024-04-14T09:38:23Z</time>
      </trkpt>
      <trkpt lat="47.10449" lon="6.04299">
        <ele>503.4</ele>
        <time>2024-04-14T09:38:24Z</time>
      </trkpt>
      <trkpt lat="47.1045" lon="6.04304">
        <ele>504.2</ele>
        <time>2024-04-14T09:38:25Z</time>
      </trkpt>
      <trkpt lat="47.1045" lon="6.04314">
        <ele>505.4</ele>
        <time>2024-04-14T09:38:27Z</time>
      </trkpt>
      <trkpt lat="47.1045" lon="6.04332">
        <ele>506.8</ele>
        <time>2024-04-14T09:38:30Z</time>
      </trkpt>
      <trkpt lat="47.1045" lon="6.04338">
        <ele>507.2</ele>
        <time>2024-04-14T09:38:31Z</time>
      </trkpt>
      <trkpt lat="47.10447" lon="6.04375">
        <ele>508.2</ele>
        <time>2024-04-14T09:38:38Z</time>
      </trkpt>
      <trkpt lat="47.10447" lon="6.04381">
        <ele>508.6</ele>
        <time>2024-04-14T09:38:39Z</time>
      </trkpt>
      <trkpt lat="47.10447" lon="6.04392">
        <ele>509.2</ele>
        <time>2024-04-14T09:38:41Z</time>
      </trkpt>
      <trkpt lat="47.10447" lon="6.04419">
        <ele>510</ele>
        <time>2024-04-14T09:38:46Z</time>
      </trkpt>
      <trkpt lat="47.10448" lon="6.04438">
        <ele>510.2</ele>
        <time>2024-04-14T09:38:49Z</time>
      </trkpt>
      <trkpt lat="47.10448" lon="6.04459">
        <ele>510.6</ele>
        <time>2024-04-14T09:38:52Z</time>
      </trkpt>
      <trkpt lat="47.10447" lon="6.04476">
        <ele>510.8</ele>
        <time>2024-04-14T09:38:54Z</time>
      </trkpt>
      <trkpt lat="47.10442" lon="6.04491">
        <ele>510.4</ele>
        <time>2024-04-14T09:38:56Z</time>
      </trkpt>
      <trkpt lat="47.10433" lon="6.04511">
        <ele>508.8</ele>
        <time>2024-04-14T09:38:59Z</time>
      </trkpt>
      <trkpt lat="47.1043" lon="6.04517">
        <ele>508.2</ele>
        <time>2024-04-14T09:39:00Z</time>
      </trkpt>
      <trkpt lat="47.10427" lon="6.04524">
        <ele>507.8</ele>
        <time>2024-04-14T09:39:01Z</time>
      </trkpt>
      <trkpt lat="47.10425" lon="6.04532">
        <ele>507.4</ele>
        <time>2024-04-14T09:39:02Z</time>
      </trkpt>
      <trkpt lat="47.10424" lon="6.04548">
        <ele>506.8</ele>
        <time>2024-04-14T09:39:04Z</time>
      </trkpt>
      <trkpt lat="47.10424" lon="6.04556">
        <ele>506.4</ele>
        <time>2024-04-14T09:39:05Z</time>
      </trkpt>
      <trkpt lat="47.10426" lon="6.04573">
        <ele>505.8</ele>
        <time>2024-04-14T09:39:07Z</time>
      </trkpt>
      <trkpt lat="47.10428" lon="6.0458">
        <ele>505.4</ele>
        <time>2024-04-14T09:39:08Z</time>
      </trkpt>
      <trkpt lat="47.1043" lon="6.04587">
        <ele>505</ele>
        <time>2024-04-14T09:39:09Z</time>
      </trkpt>
      <trkpt lat="47.10437" lon="6.04601">
        <ele>504</ele>
        <time>2024-04-14T09:39:11Z</time>
      </trkpt>
      <trkpt lat="47.10442" lon="6.04607">
        <ele>503.4</ele>
        <time>2024-04-14T09:39:12Z</time>
      </trkpt>
      <trkpt lat="47.10446" lon="6.04614">
        <ele>503</ele>
        <time>2024-04-14T09:39:13Z</time>
      </trkpt>
      <trkpt lat="47.1045" lon="6.04621">
        <ele>502.6</ele>
        <time>2024-04-14T09:39:14Z</time>
      </trkpt>
      <trkpt lat="47.10458" lon="6.04636">
        <ele>501.8</ele>
        <time>2024-04-14T09:39:16Z</time>
      </trkpt>
      <trkpt lat="47.10469" lon="6.04651">
        <ele>501</ele>
        <time>2024-04-14T09:39:18Z</time>
      </trkpt>
      <trkpt lat="47.10475" lon="6.04657">
        <ele>500.6</ele>
        <time>2024-04-14T09:39:19Z</time>
      </trkpt>
      <trkpt lat="47.10497" lon="6.04678">
        <ele>499.8</ele>
        <time>2024-04-14T09:39:23Z</time>
      </trkpt>
      <trkpt lat="47.10502" lon="6.04684">
        <ele>499.6</ele>
        <time>2024-04-14T09:39:24Z</time>
      </trkpt>
      <trkpt lat="47.10521" lon="6.04712">
        <ele>498.8</ele>
        <time>2024-04-14T09:39:29Z</time>
      </trkpt>
      <trkpt lat="47.10525" lon="6.04718">
        <ele>498.6</ele>
        <time>2024-04-14T09:39:30Z</time>
      </trkpt>
      <trkpt lat="47.10529" lon="6.04723">
        <ele>498.6</ele>
        <time>2024-04-14T09:39:31Z</time>
      </trkpt>
      <trkpt lat="47.10543" lon="6.04742">
        <ele>498.6</ele>
        <time>2024-04-14T09:39:34Z</time>
      </trkpt>
      <trkpt lat="47.10564" lon="6.04779">
        <ele>499.8</ele>
        <time>2024-04-14T09:39:40Z</time>
      </trkpt>
      <trkpt lat="47.10585" lon="6.04818">
        <ele>500.2</ele>
        <time>2024-04-14T09:39:47Z</time>
      </trkpt>
      <trkpt lat="47.10589" lon="6.04832">
        <ele>500.2</ele>
        <time>2024-04-14T09:39:49Z</time>
      </trkpt>
      <trkpt lat="47.10595" lon="6.04862">
        <ele>499.8</ele>
        <time>2024-04-14T09:39:53Z</time>
      </trkpt>
      <trkpt lat="47.10596" lon="6.04878">
        <ele>499.4</ele>
        <time>2024-04-14T09:39:55Z</time>
      </trkpt>
      <trkpt lat="47.10594" lon="6.04906">
        <ele>498.4</ele>
        <time>2024-04-14T09:39:58Z</time>
      </trkpt>
      <trkpt lat="47.10593" lon="6.04915">
        <ele>498.2</ele>
        <time>2024-04-14T09:39:59Z</time>
      </trkpt>
      <trkpt lat="47.10591" lon="6.04941">
        <ele>497.4</ele>
        <time>2024-04-14T09:40:02Z</time>
      </trkpt>
      <trkpt lat="47.10589" lon="6.0495">
        <ele>497.2</ele>
        <time>2024-04-14T09:40:03Z</time>
      </trkpt>
      <trkpt lat="47.10582" lon="6.0498">
        <ele>496.2</ele>
        <time>2024-04-14T09:40:07Z</time>
      </trkpt>
      <trkpt lat="47.10579" lon="6.04985">
        <ele>496</ele>
        <time>2024-04-14T09:40:08Z</time>
      </trkpt>
      <trkpt lat="47.10566" lon="6.04997">
        <ele>495.4</ele>
        <time>2024-04-14T09:40:11Z</time>
      </trkpt>
      <trkpt lat="47.10551" lon="6.05011">
        <ele>494.8</ele>
        <time>2024-04-14T09:40:14Z</time>
      </trkpt>
      <trkpt lat="47.10537" lon="6.05027">
        <ele>493.4</ele>
        <time>2024-04-14T09:40:17Z</time>
      </trkpt>
      <trkpt lat="47.10534" lon="6.05032">
        <ele>493</ele>
        <time>2024-04-14T09:40:18Z</time>
      </trkpt>
      <trkpt lat="47.10532" lon="6.05038">
        <ele>492.4</ele>
        <time>2024-04-14T09:40:19Z</time>
      </trkpt>
      <trkpt lat="47.10532" lon="6.05043">
        <ele>491.8</ele>
        <time>2024-04-14T09:40:20Z</time>
      </trkpt>
      <trkpt lat="47.10531" lon="6.05048">
        <ele>491.2</ele>
        <time>2024-04-14T09:40:21Z</time>
      </trkpt>
      <trkpt lat="47.10531" lon="6.05053">
        <ele>490.4</ele>
        <time>2024-04-14T09:40:22Z</time>
      </trkpt>
      <trkpt lat="47.10532" lon="6.0506">
        <ele>489.4</ele>
        <time>2024-04-14T09:40:23Z</time>
      </trkpt>
      <trkpt lat="47.10532" lon="6.05067">
        <ele>488.4</ele>
        <time>2024-04-14T09:40:24Z</time>
      </trkpt>
      <trkpt lat="47.10534" lon="6.05074">
        <ele>487.2</ele>
        <time>2024-04-14T09:40:25Z</time>
      </trkpt>
      <trkpt lat="47.10535" lon="6.05082">
        <ele>486</ele>
        <time>2024-04-14T09:40:26Z</time>
      </trkpt>
      <trkpt lat="47.10536" lon="6.0509">
        <ele>485</ele>
        <time>2024-04-14T09:40:27Z</time>
      </trkpt>
      <trkpt lat="47.10538" lon="6.05098">
        <ele>484</ele>
        <time>2024-04-14T09:40:28Z</time>
      </trkpt>
      <trkpt lat="47.10538" lon="6.05108">
        <ele>482.8</ele>
        <time>2024-04-14T09:40:29Z</time>
      </trkpt>
      <trkpt lat="47.10544" lon="6.05122">
        <ele>481.6</ele>
        <time>2024-04-14T09:40:30Z</time>
      </trkpt>
      <trkpt lat="47.10546" lon="6.05136">
        <ele>480</ele>
        <time>2024-04-14T09:40:31Z</time>
      </trkpt>
      <trkpt lat="47.10553" lon="6.05151">
        <ele>479</ele>
        <time>2024-04-14T09:40:32Z</time>
      </trkpt>
      <trkpt lat="47.10559" lon="6.05166">
        <ele>478</ele>
        <time>2024-04-14T09:40:33Z</time>
      </trkpt>
      <trkpt lat="47.10564" lon="6.05178">
        <ele>477.6</ele>
        <time>2024-04-14T09:40:34Z</time>
      </trkpt>
      <trkpt lat="47.10568" lon="6.05188">
        <ele>477</ele>
        <time>2024-04-14T09:40:35Z</time>
      </trkpt>
      <trkpt lat="47.10578" lon="6.052">
        <ele>475.8</ele>
        <time>2024-04-14T09:40:37Z</time>
      </trkpt>
      <trkpt lat="47.10603" lon="6.05215">
        <ele>477.2</ele>
        <time>2024-04-14T09:41:36Z</time>
      </trkpt>
      <trkpt lat="47.10606" lon="6.05214">
        <ele>477</ele>
        <time>2024-04-14T09:41:37Z</time>
      </trkpt>
      <trkpt lat="47.10619" lon="6.05212">
        <ele>476</ele>
        <time>2024-04-14T09:41:41Z</time>
      </trkpt>
      <trkpt lat="47.10622" lon="6.05212">
        <ele>475.6</ele>
        <time>2024-04-14T09:41:42Z</time>
      </trkpt>
      <trkpt lat="47.10627" lon="6.05212">
        <ele>474.6</ele>
        <time>2024-04-14T09:41:44Z</time>
      </trkpt>
      <trkpt lat="47.10635" lon="6.05212">
        <ele>473.6</ele>
        <time>2024-04-14T09:41:47Z</time>
      </trkpt>
      <trkpt lat="47.10637" lon="6.05213">
        <ele>473.4</ele>
        <time>2024-04-14T09:41:48Z</time>
      </trkpt>
      <trkpt lat="47.10647" lon="6.05216">
        <ele>472.2</ele>
        <time>2024-04-14T09:41:52Z</time>
      </trkpt>
      <trkpt lat="47.10649" lon="6.05216">
        <ele>471.8</ele>
        <time>2024-04-14T09:41:53Z</time>
      </trkpt>
      <trkpt lat="47.10654" lon="6.05217">
        <ele>471.2</ele>
        <time>2024-04-14T09:41:55Z</time>
      </trkpt>
      <trkpt lat="47.10661" lon="6.05217">
        <ele>469.8</ele>
        <time>2024-04-14T09:41:58Z</time>
      </trkpt>
      <trkpt lat="47.10668" lon="6.05217">
        <ele>468.2</ele>
        <time>2024-04-14T09:42:00Z</time>
      </trkpt>
      <trkpt lat="47.10675" lon="6.05214">
        <ele>467</ele>
        <time>2024-04-14T09:42:02Z</time>
      </trkpt>
      <trkpt lat="47.10681" lon="6.0521">
        <ele>465.8</ele>
        <time>2024-04-14T09:42:04Z</time>
      </trkpt>
      <trkpt lat="47.10686" lon="6.05207">
        <ele>464.8</ele>
        <time>2024-04-14T09:42:06Z</time>
      </trkpt>
      <trkpt lat="47.10701" lon="6.05198">
        <ele>464.6</ele>
        <time>2024-04-14T09:42:12Z</time>
      </trkpt>
      <trkpt lat="47.10704" lon="6.05198">
        <ele>464.6</ele>
        <time>2024-04-14T09:42:13Z</time>
      </trkpt>
      <trkpt lat="47.10721" lon="6.05199">
        <ele>465.6</ele>
        <time>2024-04-14T09:42:19Z</time>
      </trkpt>
      <trkpt lat="47.10724" lon="6.052">
        <ele>466</ele>
        <time>2024-04-14T09:42:20Z</time>
      </trkpt>
      <trkpt lat="47.10737" lon="6.05201">
        <ele>467</ele>
        <time>2024-04-14T09:42:24Z</time>
      </trkpt>
      <trkpt lat="47.10741" lon="6.052">
        <ele>467.4</ele>
        <time>2024-04-14T09:42:25Z</time>
      </trkpt>
      <trkpt lat="47.10748" lon="6.05199">
        <ele>468.6</ele>
        <time>2024-04-14T09:42:27Z</time>
      </trkpt>
      <trkpt lat="47.10752" lon="6.052">
        <ele>469.6</ele>
        <time>2024-04-14T09:42:28Z</time>
      </trkpt>
      <trkpt lat="47.10757" lon="6.052">
        <ele>471</ele>
        <time>2024-04-14T09:42:29Z</time>
      </trkpt>
      <trkpt lat="47.10761" lon="6.052">
        <ele>472</ele>
        <time>2024-04-14T09:42:30Z</time>
      </trkpt>
      <trkpt lat="47.10768" lon="6.052">
        <ele>473.4</ele>
        <time>2024-04-14T09:42:32Z</time>
      </trkpt>
      <trkpt lat="47.10771" lon="6.05201">
        <ele>474.4</ele>
        <time>2024-04-14T09:42:33Z</time>
      </trkpt>
      <trkpt lat="47.10777" lon="6.05201">
        <ele>475.8</ele>
        <time>2024-04-14T09:42:35Z</time>
      </trkpt>
      <trkpt lat="47.10783" lon="6.05202">
        <ele>476.8</ele>
        <time>2024-04-14T09:42:37Z</time>
      </trkpt>
      <trkpt lat="47.10785" lon="6.05202">
        <ele>477</ele>
        <time>2024-04-14T09:42:38Z</time>
      </trkpt>
      <trkpt lat="47.10791" lon="6.05203">
        <ele>478</ele>
        <time>2024-04-14T09:42:41Z</time>
      </trkpt>
      <trkpt lat="47.10798" lon="6.05203">
        <ele>479</ele>
        <time>2024-04-14T09:42:44Z</time>
      </trkpt>
      <trkpt lat="47.1081" lon="6.05198">
        <ele>479.8</ele>
        <time>2024-04-14T09:42:49Z</time>
      </trkpt>
      <trkpt lat="47.10818" lon="6.05195">
        <ele>480.2</ele>
        <time>2024-04-14T09:42:52Z</time>
      </trkpt>
      <trkpt lat="47.10827" lon="6.05194">
        <ele>481</ele>
        <time>2024-04-14T09:42:56Z</time>
      </trkpt>
      <trkpt lat="47.10831" lon="6.05192">
        <ele>481.2</ele>
        <time>2024-04-14T09:42:58Z</time>
      </trkpt>
      <trkpt lat="47.1084" lon="6.05188">
        <ele>481.2</ele>
        <time>2024-04-14T09:43:02Z</time>
      </trkpt>
      <trkpt lat="47.10853" lon="6.05185">
        <ele>482.4</ele>
        <time>2024-04-14T09:43:09Z</time>
      </trkpt>
      <trkpt lat="47.10864" lon="6.05185">
        <ele>483.4</ele>
        <time>2024-04-14T09:43:15Z</time>
      </trkpt>
      <trkpt lat="47.10869" lon="6.05187">
        <ele>484</ele>
        <time>2024-04-14T09:43:17Z</time>
      </trkpt>
      <trkpt lat="47.10881" lon="6.05188">
        <ele>484</ele>
        <time>2024-04-14T09:43:23Z</time>
      </trkpt>
      <trkpt lat="47.10888" lon="6.0519">
        <ele>483.6</ele>
        <time>2024-04-14T09:43:27Z</time>
      </trkpt>
      <trkpt lat="47.10893" lon="6.05194">
        <ele>484</ele>
        <time>2024-04-14T09:43:30Z</time>
      </trkpt>
      <trkpt lat="47.10901" lon="6.05204">
        <ele>483.4</ele>
        <time>2024-04-14T09:43:35Z</time>
      </trkpt>
      <trkpt lat="47.10907" lon="6.05207">
        <ele>482.4</ele>
        <time>2024-04-14T09:43:37Z</time>
      </trkpt>
      <trkpt lat="47.10915" lon="6.05213">
        <ele>481.6</ele>
        <time>2024-04-14T09:43:39Z</time>
      </trkpt>
      <trkpt lat="47.10919" lon="6.05217">
        <ele>481</ele>
        <time>2024-04-14T09:43:40Z</time>
      </trkpt>
      <trkpt lat="47.10932" lon="6.05223">
        <ele>479.8</ele>
        <time>2024-04-14T09:43:43Z</time>
      </trkpt>
      <trkpt lat="47.10944" lon="6.0523">
        <ele>481</ele>
        <time>2024-04-14T09:43:48Z</time>
      </trkpt>
      <trkpt lat="47.1095" lon="6.05233">
        <ele>481.4</ele>
        <time>2024-04-14T09:44:16Z</time>
      </trkpt>
      <trkpt lat="47.10952" lon="6.05234">
        <ele>480.6</ele>
        <time>2024-04-14T09:44:17Z</time>
      </trkpt>
      <trkpt lat="47.10966" lon="6.05241">
        <ele>481.2</ele>
        <time>2024-04-14T09:44:22Z</time>
      </trkpt>
      <trkpt lat="47.10971" lon="6.05245">
        <ele>482.2</ele>
        <time>2024-04-14T09:44:27Z</time>
      </trkpt>
      <trkpt lat="47.10973" lon="6.05246">
        <ele>482.8</ele>
        <time>2024-04-14T09:44:29Z</time>
      </trkpt>
      <trkpt lat="47.10976" lon="6.05247">
        <ele>483.6</ele>
        <time>2024-04-14T09:44:31Z</time>
      </trkpt>
      <trkpt lat="47.1098" lon="6.0525">
        <ele>484</ele>
        <time>2024-04-14T09:44:33Z</time>
      </trkpt>
      <trkpt lat="47.10986" lon="6.05253">
        <ele>484.6</ele>
        <time>2024-04-14T09:44:36Z</time>
      </trkpt>
      <trkpt lat="47.10994" lon="6.05258">
        <ele>485.2</ele>
        <time>2024-04-14T09:44:39Z</time>
      </trkpt>
      <trkpt lat="47.10996" lon="6.0526">
        <ele>485.6</ele>
        <time>2024-04-14T09:44:40Z</time>
      </trkpt>
      <trkpt lat="47.11005" lon="6.05265">
        <ele>486.8</ele>
        <time>2024-04-14T09:44:43Z</time>
      </trkpt>
      <trkpt lat="47.11015" lon="6.05271">
        <ele>487.4</ele>
        <time>2024-04-14T09:44:47Z</time>
      </trkpt>
      <trkpt lat="47.11018" lon="6.05272">
        <ele>487.8</ele>
        <time>2024-04-14T09:44:48Z</time>
      </trkpt>
      <trkpt lat="47.11026" lon="6.05276">
        <ele>488.8</ele>
        <time>2024-04-14T09:44:52Z</time>
      </trkpt>
      <trkpt lat="47.1103" lon="6.05278">
        <ele>489.6</ele>
        <time>2024-04-14T09:44:54Z</time>
      </trkpt>
      <trkpt lat="47.11032" lon="6.0528">
        <ele>490</ele>
        <time>2024-04-14T09:44:55Z</time>
      </trkpt>
      <trkpt lat="47.11039" lon="6.05283">
        <ele>490.8</ele>
        <time>2024-04-14T09:45:00Z</time>
      </trkpt>
      <trkpt lat="47.1104" lon="6.05285">
        <ele>491.2</ele>
        <time>2024-04-14T09:45:01Z</time>
      </trkpt>
      <trkpt lat="47.11047" lon="6.05289">
        <ele>492</ele>
        <time>2024-04-14T09:45:06Z</time>
      </trkpt>
      <trkpt lat="47.11048" lon="6.05289">
        <ele>492.2</ele>
        <time>2024-04-14T09:45:07Z</time>
      </trkpt>
      <trkpt lat="47.11056" lon="6.05293">
        <ele>492.8</ele>
        <time>2024-04-14T09:45:12Z</time>
      </trkpt>
      <trkpt lat="47.11061" lon="6.05295">
        <ele>493.4</ele>
        <time>2024-04-14T09:45:15Z</time>
      </trkpt>
      <trkpt lat="47.11065" lon="6.05297">
        <ele>494</ele>
        <time>2024-04-14T09:45:18Z</time>
      </trkpt>
      <trkpt lat="47.11068" lon="6.05299">
        <ele>494.6</ele>
        <time>2024-04-14T09:45:20Z</time>
      </trkpt>
      <trkpt lat="47.11072" lon="6.05302">
        <ele>495.4</ele>
        <time>2024-04-14T09:45:24Z</time>
      </trkpt>
      <trkpt lat="47.11076" lon="6.05304">
        <ele>495.6</ele>
        <time>2024-04-14T09:45:27Z</time>
      </trkpt>
      <trkpt lat="47.11079" lon="6.05307">
        <ele>496.2</ele>
        <time>2024-04-14T09:45:30Z</time>
      </trkpt>
      <trkpt lat="47.11102" lon="6.05321">
        <ele>497</ele>
        <time>2024-04-14T09:46:03Z</time>
      </trkpt>
      <trkpt lat="47.11104" lon="6.05321">
        <ele>497</ele>
        <time>2024-04-14T09:46:04Z</time>
      </trkpt>
      <trkpt lat="47.11108" lon="6.05322">
        <ele>496.8</ele>
        <time>2024-04-14T09:46:06Z</time>
      </trkpt>
      <trkpt lat="47.11124" lon="6.05332">
        <ele>497.4</ele>
        <time>2024-04-14T09:46:14Z</time>
      </trkpt>
      <trkpt lat="47.11134" lon="6.05337">
        <ele>498.2</ele>
        <time>2024-04-14T09:46:19Z</time>
      </trkpt>
      <trkpt lat="47.11136" lon="6.05338">
        <ele>498.4</ele>
        <time>2024-04-14T09:46:20Z</time>
      </trkpt>
      <trkpt lat="47.11145" lon="6.05342">
        <ele>499.4</ele>
        <time>2024-04-14T09:46:24Z</time>
      </trkpt>
      <trkpt lat="47.11157" lon="6.05348">
        <ele>499.8</ele>
        <time>2024-04-14T09:46:29Z</time>
      </trkpt>
      <trkpt lat="47.11168" lon="6.05355">
        <ele>500.6</ele>
        <time>2024-04-14T09:46:34Z</time>
      </trkpt>
      <trkpt lat="47.11172" lon="6.05357">
        <ele>500.4</ele>
        <time>2024-04-14T09:46:36Z</time>
      </trkpt>
      <trkpt lat="47.11184" lon="6.05363">
        <ele>500.2</ele>
        <time>2024-04-14T09:46:42Z</time>
      </trkpt>
      <trkpt lat="47.11197" lon="6.05371">
        <ele>500</ele>
        <time>2024-04-14T09:46:48Z</time>
      </trkpt>
      <trkpt lat="47.11215" lon="6.0538">
        <ele>499.6</ele>
        <time>2024-04-14T09:46:54Z</time>
      </trkpt>
      <trkpt lat="47.11226" lon="6.05385">
        <ele>499.6</ele>
        <time>2024-04-14T09:46:58Z</time>
      </trkpt>
      <trkpt lat="47.11232" lon="6.05387">
        <ele>499.4</ele>
        <time>2024-04-14T09:47:00Z</time>
      </trkpt>
      <trkpt lat="47.11244" lon="6.05394">
        <ele>498.6</ele>
        <time>2024-04-14T09:47:05Z</time>
      </trkpt>
      <trkpt lat="47.11253" lon="6.05398">
        <ele>498.8</ele>
        <time>2024-04-14T09:47:10Z</time>
      </trkpt>
      <trkpt lat="47.11259" lon="6.05409">
        <ele>499.6</ele>
        <time>2024-04-14T09:47:25Z</time>
      </trkpt>
      <trkpt lat="47.11257" lon="6.05416">
        <ele>499.6</ele>
        <time>2024-04-14T09:47:28Z</time>
      </trkpt>
      <trkpt lat="47.11254" lon="6.05437">
        <ele>498.6</ele>
        <time>2024-04-14T09:47:35Z</time>
      </trkpt>
      <trkpt lat="47.11254" lon="6.05439">
        <ele>498.2</ele>
        <time>2024-04-14T09:47:36Z</time>
      </trkpt>
      <trkpt lat="47.11252" lon="6.0545">
        <ele>496.8</ele>
        <time>2024-04-14T09:47:58Z</time>
      </trkpt>
      <trkpt lat="47.1125" lon="6.05454">
        <ele>496.6</ele>
        <time>2024-04-14T09:47:59Z</time>
      </trkpt>
      <trkpt lat="47.11243" lon="6.05471">
        <ele>495.8</ele>
        <time>2024-04-14T09:48:03Z</time>
      </trkpt>
      <trkpt lat="47.11239" lon="6.0548">
        <ele>494.8</ele>
        <time>2024-04-14T09:48:05Z</time>
      </trkpt>
      <trkpt lat="47.11236" lon="6.05485">
        <ele>494.6</ele>
        <time>2024-04-14T09:48:06Z</time>
      </trkpt>
      <trkpt lat="47.11232" lon="6.05498">
        <ele>493.6</ele>
        <time>2024-04-14T09:48:08Z</time>
      </trkpt>
      <trkpt lat="47.11232" lon="6.05504">
        <ele>493</ele>
        <time>2024-04-14T09:48:09Z</time>
      </trkpt>
      <trkpt lat="47.11232" lon="6.0551">
        <ele>492.6</ele>
        <time>2024-04-14T09:48:10Z</time>
      </trkpt>
      <trkpt lat="47.11232" lon="6.05515">
        <ele>491.8</ele>
        <time>2024-04-14T09:48:11Z</time>
      </trkpt>
      <trkpt lat="47.11235" lon="6.05527">
        <ele>490.2</ele>
        <time>2024-04-14T09:48:13Z</time>
      </trkpt>
      <trkpt lat="47.11237" lon="6.05534">
        <ele>489.2</ele>
        <time>2024-04-14T09:48:14Z</time>
      </trkpt>
      <trkpt lat="47.11239" lon="6.05542">
        <ele>488.2</ele>
        <time>2024-04-14T09:48:15Z</time>
      </trkpt>
      <trkpt lat="47.11243" lon="6.05558">
        <ele>486.6</ele>
        <time>2024-04-14T09:48:17Z</time>
      </trkpt>
      <trkpt lat="47.11247" lon="6.05566">
        <ele>485.8</ele>
        <time>2024-04-14T09:48:18Z</time>
      </trkpt>
      <trkpt lat="47.11249" lon="6.05575">
        <ele>485.2</ele>
        <time>2024-04-14T09:48:19Z</time>
      </trkpt>
      <trkpt lat="47.11251" lon="6.05583">
        <ele>484.8</ele>
        <time>2024-04-14T09:48:20Z</time>
      </trkpt>
      <trkpt lat="47.11258" lon="6.05627">
        <ele>486.4</ele>
        <time>2024-04-14T09:48:26Z</time>
      </trkpt>
      <trkpt lat="47.11261" lon="6.05649">
        <ele>487.8</ele>
        <time>2024-04-14T09:48:30Z</time>
      </trkpt>
      <trkpt lat="47.11266" lon="6.05671">
        <ele>488.4</ele>
        <time>2024-04-14T09:48:34Z</time>
      </trkpt>
      <trkpt lat="47.11268" lon="6.05683">
        <ele>488.8</ele>
        <time>2024-04-14T09:48:36Z</time>
      </trkpt>
      <trkpt lat="47.11275" lon="6.05708">
        <ele>489.2</ele>
        <time>2024-04-14T09:48:41Z</time>
      </trkpt>
      <trkpt lat="47.11277" lon="6.05715">
        <ele>489.2</ele>
        <time>2024-04-14T09:48:42Z</time>
      </trkpt>
      <trkpt lat="47.1128" lon="6.05738">
        <ele>488.6</ele>
        <time>2024-04-14T09:48:45Z</time>
      </trkpt>
      <trkpt lat="47.11281" lon="6.05753">
        <ele>488.2</ele>
        <time>2024-04-14T09:48:47Z</time>
      </trkpt>
      <trkpt lat="47.11278" lon="6.05771">
        <ele>487.6</ele>
        <time>2024-04-14T09:48:49Z</time>
      </trkpt>
      <trkpt lat="47.11265" lon="6.05824">
        <ele>487.6</ele>
        <time>2024-04-14T09:48:56Z</time>
      </trkpt>
      <trkpt lat="47.11257" lon="6.05867">
        <ele>488.8</ele>
        <time>2024-04-14T09:49:03Z</time>
      </trkpt>
      <trkpt lat="47.11256" lon="6.05872">
        <ele>489</ele>
        <time>2024-04-14T09:49:04Z</time>
      </trkpt>
      <trkpt lat="47.11252" lon="6.05901">
        <ele>489.8</ele>
        <time>2024-04-14T09:49:09Z</time>
      </trkpt>
      <trkpt lat="47.11249" lon="6.05924">
        <ele>490.8</ele>
        <time>2024-04-14T09:49:13Z</time>
      </trkpt>
      <trkpt lat="47.11247" lon="6.05939">
        <ele>492</ele>
        <time>2024-04-14T09:49:16Z</time>
      </trkpt>
      <trkpt lat="47.11243" lon="6.05954">
        <ele>493</ele>
        <time>2024-04-14T09:49:19Z</time>
      </trkpt>
      <trkpt lat="47.11241" lon="6.05964">
        <ele>493.6</ele>
        <time>2024-04-14T09:49:21Z</time>
      </trkpt>
      <trkpt lat="47.11239" lon="6.05974">
        <ele>494.2</ele>
        <time>2024-04-14T09:49:23Z</time>
      </trkpt>
      <trkpt lat="47.11231" lon="6.05997">
        <ele>495.2</ele>
        <time>2024-04-14T09:49:29Z</time>
      </trkpt>
      <trkpt lat="47.11228" lon="6.06005">
        <ele>495.4</ele>
        <time>2024-04-14T09:49:31Z</time>
      </trkpt>
      <trkpt lat="47.11219" lon="6.06025">
        <ele>496.2</ele>
        <time>2024-04-14T09:49:36Z</time>
      </trkpt>
      <trkpt lat="47.11217" lon="6.06027">
        <ele>496.4</ele>
        <time>2024-04-14T09:49:37Z</time>
      </trkpt>
      <trkpt lat="47.112" lon="6.06043">
        <ele>496.2</ele>
        <time>2024-04-14T09:49:43Z</time>
      </trkpt>
      <trkpt lat="47.11179" lon="6.0607">
        <ele>495.6</ele>
        <time>2024-04-14T09:49:50Z</time>
      </trkpt>
      <trkpt lat="47.11157" lon="6.06097">
        <ele>495.4</ele>
        <time>2024-04-14T09:49:57Z</time>
      </trkpt>
      <trkpt lat="47.1114" lon="6.06114">
        <ele>495</ele>
        <time>2024-04-14T09:50:01Z</time>
      </trkpt>
      <trkpt lat="47.11135" lon="6.06118">
        <ele>494.8</ele>
        <time>2024-04-14T09:50:02Z</time>
      </trkpt>
      <trkpt lat="47.11128" lon="6.06124">
        <ele>494</ele>
        <time>2024-04-14T09:50:04Z</time>
      </trkpt>
      <trkpt lat="47.11125" lon="6.06128">
        <ele>493.6</ele>
        <time>2024-04-14T09:50:05Z</time>
      </trkpt>
      <trkpt lat="47.11125" lon="6.06132">
        <ele>493.4</ele>
        <time>2024-04-14T09:50:06Z</time>
      </trkpt>
      <trkpt lat="47.11131" lon="6.0614">
        <ele>493.4</ele>
        <time>2024-04-14T09:50:09Z</time>
      </trkpt>
      <trkpt lat="47.11134" lon="6.06143">
        <ele>493.6</ele>
        <time>2024-04-14T09:50:10Z</time>
      </trkpt>
      <trkpt lat="47.11145" lon="6.06149">
        <ele>494.8</ele>
        <time>2024-04-14T09:50:16Z</time>
      </trkpt>
      <trkpt lat="47.11147" lon="6.06151">
        <ele>495</ele>
        <time>2024-04-14T09:50:18Z</time>
      </trkpt>
      <trkpt lat="47.1115" lon="6.06154">
        <ele>495.2</ele>
        <time>2024-04-14T09:52:57Z</time>
      </trkpt>
      <trkpt lat="47.11154" lon="6.06152">
        <ele>495.4</ele>
        <time>2024-04-14T09:52:59Z</time>
      </trkpt>
      <trkpt lat="47.11159" lon="6.06152">
        <ele>495.2</ele>
        <time>2024-04-14T09:53:01Z</time>
      </trkpt>
      <trkpt lat="47.11172" lon="6.06152">
        <ele>495.2</ele>
        <time>2024-04-14T09:53:05Z</time>
      </trkpt>
      <trkpt lat="47.11195" lon="6.0615">
        <ele>494</ele>
        <time>2024-04-14T09:53:10Z</time>
      </trkpt>
      <trkpt lat="47.112" lon="6.06149">
        <ele>493.8</ele>
        <time>2024-04-14T09:53:11Z</time>
      </trkpt>
      <trkpt lat="47.11232" lon="6.06145">
        <ele>492.8</ele>
        <time>2024-04-14T09:53:17Z</time>
      </trkpt>
      <trkpt lat="47.11252" lon="6.06142">
        <ele>492.2</ele>
        <time>2024-04-14T09:53:21Z</time>
      </trkpt>
      <trkpt lat="47.11295" lon="6.06136">
        <ele>492</ele>
        <time>2024-04-14T09:53:30Z</time>
      </trkpt>
      <trkpt lat="47.11337" lon="6.06131">
        <ele>492.4</ele>
        <time>2024-04-14T09:53:39Z</time>
      </trkpt>
      <trkpt lat="47.11376" lon="6.06125">
        <ele>492</ele>
        <time>2024-04-14T09:53:47Z</time>
      </trkpt>
      <trkpt lat="47.11391" lon="6.06123">
        <ele>491.8</ele>
        <time>2024-04-14T09:53:50Z</time>
      </trkpt>
      <trkpt lat="47.11426" lon="6.06118">
        <ele>491.6</ele>
        <time>2024-04-14T09:53:57Z</time>
      </trkpt>
      <trkpt lat="47.11456" lon="6.06115">
        <ele>492.4</ele>
        <time>2024-04-14T09:54:04Z</time>
      </trkpt>
      <trkpt lat="47.11467" lon="6.06115">
        <ele>493</ele>
        <time>2024-04-14T09:54:07Z</time>
      </trkpt>
      <trkpt lat="47.11482" lon="6.06111">
        <ele>494.2</ele>
        <time>2024-04-14T09:54:11Z</time>
      </trkpt>
      <trkpt lat="47.11502" lon="6.06107">
        <ele>495.2</ele>
        <time>2024-04-14T09:54:17Z</time>
      </trkpt>
      <trkpt lat="47.11516" lon="6.06107">
        <ele>496.2</ele>
        <time>2024-04-14T09:54:21Z</time>
      </trkpt>
      <trkpt lat="47.11528" lon="6.06106">
        <ele>496.4</ele>
        <time>2024-04-14T09:54:24Z</time>
      </trkpt>
      <trkpt lat="47.11555" lon="6.06103">
        <ele>495.6</ele>
        <time>2024-04-14T09:54:31Z</time>
      </trkpt>
      <trkpt lat="47.11561" lon="6.06103">
        <ele>495</ele>
        <time>2024-04-14T09:54:33Z</time>
      </trkpt>
      <trkpt lat="47.11572" lon="6.06103">
        <ele>494.4</ele>
        <time>2024-04-14T09:54:37Z</time>
      </trkpt>
      <trkpt lat="47.1158" lon="6.06101">
        <ele>494</ele>
        <time>2024-04-14T09:54:40Z</time>
      </trkpt>
      <trkpt lat="47.1159" lon="6.061">
        <ele>493.6</ele>
        <time>2024-04-14T09:54:43Z</time>
      </trkpt>
      <trkpt lat="47.11603" lon="6.06099">
        <ele>493</ele>
        <time>2024-04-14T09:54:47Z</time>
      </trkpt>
      <trkpt lat="47.11613" lon="6.06098">
        <ele>492.6</ele>
        <time>2024-04-14T09:54:50Z</time>
      </trkpt>
      <trkpt lat="47.11635" lon="6.06095">
        <ele>492</ele>
        <time>2024-04-14T09:54:56Z</time>
      </trkpt>
      <trkpt lat="47.11639" lon="6.06095">
        <ele>491.8</ele>
        <time>2024-04-14T09:54:57Z</time>
      </trkpt>
      <trkpt lat="47.11666" lon="6.06091">
        <ele>491</ele>
        <time>2024-04-14T09:55:04Z</time>
      </trkpt>
      <trkpt lat="47.11684" lon="6.0609">
        <ele>490.8</ele>
        <time>2024-04-14T09:55:08Z</time>
      </trkpt>
      <trkpt lat="47.11701" lon="6.0609">
        <ele>491</ele>
        <time>2024-04-14T09:55:12Z</time>
      </trkpt>
      <trkpt lat="47.11709" lon="6.06088">
        <ele>492</ele>
        <time>2024-04-14T09:55:14Z</time>
      </trkpt>
      <trkpt lat="47.11729" lon="6.06083">
        <ele>492.8</ele>
        <time>2024-04-14T09:55:19Z</time>
      </trkpt>
      <trkpt lat="47.11738" lon="6.06081">
        <ele>493</ele>
        <time>2024-04-14T09:55:21Z</time>
      </trkpt>
      <trkpt lat="47.11762" lon="6.06075">
        <ele>494</ele>
        <time>2024-04-14T09:55:27Z</time>
      </trkpt>
      <trkpt lat="47.11766" lon="6.06075">
        <ele>494.2</ele>
        <time>2024-04-14T09:55:28Z</time>
      </trkpt>
      <trkpt lat="47.11785" lon="6.0607">
        <ele>494.8</ele>
        <time>2024-04-14T09:55:33Z</time>
      </trkpt>
      <trkpt lat="47.11794" lon="6.06066">
        <ele>495.8</ele>
        <time>2024-04-14T09:55:37Z</time>
      </trkpt>
      <trkpt lat="47.11797" lon="6.06066">
        <ele>496.4</ele>
        <time>2024-04-14T09:55:38Z</time>
      </trkpt>
      <trkpt lat="47.11801" lon="6.06064">
        <ele>497</ele>
        <time>2024-04-14T09:55:40Z</time>
      </trkpt>
      <trkpt lat="47.11811" lon="6.06062">
        <ele>498.2</ele>
        <time>2024-04-14T09:55:44Z</time>
      </trkpt>
      <trkpt lat="47.11818" lon="6.0606">
        <ele>498.6</ele>
        <time>2024-04-14T09:55:47Z</time>
      </trkpt>
      <trkpt lat="47.11825" lon="6.06058">
        <ele>499.4</ele>
        <time>2024-04-14T09:55:49Z</time>
      </trkpt>
      <trkpt lat="47.1184" lon="6.06056">
        <ele>499.6</ele>
        <time>2024-04-14T09:55:53Z</time>
      </trkpt>
      <trkpt lat="47.11864" lon="6.06053">
        <ele>499.8</ele>
        <time>2024-04-14T09:56:00Z</time>
      </trkpt>
      <trkpt lat="47.11879" lon="6.06051">
        <ele>499.4</ele>
        <time>2024-04-14T09:56:05Z</time>
      </trkpt>
      <trkpt lat="47.11903" lon="6.06047">
        <ele>500.4</ele>
        <time>2024-04-14T09:56:13Z</time>
      </trkpt>
      <trkpt lat="47.11917" lon="6.06045">
        <ele>501.6</ele>
        <time>2024-04-14T09:56:17Z</time>
      </trkpt>
      <trkpt lat="47.11925" lon="6.06043">
        <ele>501.6</ele>
        <time>2024-04-14T09:56:20Z</time>
      </trkpt>
      <trkpt lat="47.11942" lon="6.06043">
        <ele>501.6</ele>
        <time>2024-04-14T09:56:26Z</time>
      </trkpt>
      <trkpt lat="47.11954" lon="6.0604">
        <ele>502.6</ele>
        <time>2024-04-14T09:56:30Z</time>
      </trkpt>
      <trkpt lat="47.11962" lon="6.06039">
        <ele>504</ele>
        <time>2024-04-14T09:56:33Z</time>
      </trkpt>
      <trkpt lat="47.11972" lon="6.06036">
        <ele>505.6</ele>
        <time>2024-04-14T09:56:36Z</time>
      </trkpt>
      <trkpt lat="47.1198" lon="6.06034">
        <ele>507</ele>
        <time>2024-04-14T09:56:39Z</time>
      </trkpt>
      <trkpt lat="47.11983" lon="6.06034">
        <ele>507.4</ele>
        <time>2024-04-14T09:56:40Z</time>
      </trkpt>
      <trkpt lat="47.11989" lon="6.06034">
        <ele>508.8</ele>
        <time>2024-04-14T09:56:42Z</time>
      </trkpt>
      <trkpt lat="47.11996" lon="6.06034">
        <ele>510.2</ele>
        <time>2024-04-14T09:56:44Z</time>
      </trkpt>
      <trkpt lat="47.12" lon="6.06034">
        <ele>510.8</ele>
        <time>2024-04-14T09:56:45Z</time>
      </trkpt>
      <trkpt lat="47.12003" lon="6.06034">
        <ele>511.2</ele>
        <time>2024-04-14T09:56:46Z</time>
      </trkpt>
      <trkpt lat="47.12013" lon="6.06032">
        <ele>512.4</ele>
        <time>2024-04-14T09:56:49Z</time>
      </trkpt>
      <trkpt lat="47.12021" lon="6.0603">
        <ele>513.2</ele>
        <time>2024-04-14T09:56:51Z</time>
      </trkpt>
      <trkpt lat="47.12024" lon="6.06029">
        <ele>513.4</ele>
        <time>2024-04-14T09:56:52Z</time>
      </trkpt>
      <trkpt lat="47.12048" lon="6.06026">
        <ele>514</ele>
        <time>2024-04-14T09:56:58Z</time>
      </trkpt>
      <trkpt lat="47.12073" lon="6.06027">
        <ele>514</ele>
        <time>2024-04-14T09:57:04Z</time>
      </trkpt>
      <trkpt lat="47.12101" lon="6.06026">
        <ele>512.8</ele>
        <time>2024-04-14T09:57:10Z</time>
      </trkpt>
      <trkpt lat="47.12111" lon="6.06028">
        <ele>512</ele>
        <time>2024-04-14T09:57:12Z</time>
      </trkpt>
      <trkpt lat="47.12128" lon="6.06032">
        <ele>511</ele>
        <time>2024-04-14T09:57:15Z</time>
      </trkpt>
      <trkpt lat="47.12159" lon="6.06044">
        <ele>509.8</ele>
        <time>2024-04-14T09:57:20Z</time>
      </trkpt>
      <trkpt lat="47.12186" lon="6.06056">
        <ele>509.4</ele>
        <time>2024-04-14T09:57:25Z</time>
      </trkpt>
      <trkpt lat="47.12204" lon="6.06067">
        <ele>508.8</ele>
        <time>2024-04-14T09:57:29Z</time>
      </trkpt>
      <trkpt lat="47.12209" lon="6.06068">
        <ele>508.6</ele>
        <time>2024-04-14T09:57:30Z</time>
      </trkpt>
      <trkpt lat="47.12213" lon="6.0607">
        <ele>508.2</ele>
        <time>2024-04-14T09:57:31Z</time>
      </trkpt>
      <trkpt lat="47.12218" lon="6.06072">
        <ele>507.8</ele>
        <time>2024-04-14T09:57:32Z</time>
      </trkpt>
      <trkpt lat="47.12239" lon="6.06081">
        <ele>506.6</ele>
        <time>2024-04-14T09:57:36Z</time>
      </trkpt>
      <trkpt lat="47.12245" lon="6.06082">
        <ele>506.2</ele>
        <time>2024-04-14T09:57:37Z</time>
      </trkpt>
      <trkpt lat="47.12252" lon="6.06084">
        <ele>505.4</ele>
        <time>2024-04-14T09:57:38Z</time>
      </trkpt>
      <trkpt lat="47.12261" lon="6.06087">
        <ele>504.2</ele>
        <time>2024-04-14T09:57:39Z</time>
      </trkpt>
      <trkpt lat="47.12269" lon="6.0609">
        <ele>502.8</ele>
        <time>2024-04-14T09:57:40Z</time>
      </trkpt>
      <trkpt lat="47.12277" lon="6.06094">
        <ele>501.6</ele>
        <time>2024-04-14T09:57:41Z</time>
      </trkpt>
      <trkpt lat="47.12285" lon="6.06098">
        <ele>500.6</ele>
        <time>2024-04-14T09:57:42Z</time>
      </trkpt>
      <trkpt lat="47.12292" lon="6.06101">
        <ele>499.8</ele>
        <time>2024-04-14T09:57:43Z</time>
      </trkpt>
      <trkpt lat="47.12299" lon="6.06106">
        <ele>499.2</ele>
        <time>2024-04-14T09:57:44Z</time>
      </trkpt>
      <trkpt lat="47.12315" lon="6.06114">
        <ele>498</ele>
        <time>2024-04-14T09:57:46Z</time>
      </trkpt>
      <trkpt lat="47.12326" lon="6.06118">
        <ele>497.8</ele>
        <time>2024-04-14T09:57:47Z</time>
      </trkpt>
      <trkpt lat="47.12345" lon="6.06129">
        <ele>497</ele>
        <time>2024-04-14T09:57:49Z</time>
      </trkpt>
      <trkpt lat="47.12362" lon="6.06142">
        <ele>495.8</ele>
        <time>2024-04-14T09:57:51Z</time>
      </trkpt>
      <trkpt lat="47.1238" lon="6.06152">
        <ele>494.4</ele>
        <time>2024-04-14T09:57:53Z</time>
      </trkpt>
      <trkpt lat="47.12397" lon="6.06155">
        <ele>492.8</ele>
        <time>2024-04-14T09:57:55Z</time>
      </trkpt>
      <trkpt lat="47.12416" lon="6.06159">
        <ele>490.8</ele>
        <time>2024-04-14T09:57:57Z</time>
      </trkpt>
      <trkpt lat="47.12426" lon="6.06158">
        <ele>490</ele>
        <time>2024-04-14T09:57:58Z</time>
      </trkpt>
      <trkpt lat="47.12435" lon="6.06159">
        <ele>489.2</ele>
        <time>2024-04-14T09:57:59Z</time>
      </trkpt>
      <trkpt lat="47.12445" lon="6.0616">
        <ele>488.2</ele>
        <time>2024-04-14T09:58:00Z</time>
      </trkpt>
      <trkpt lat="47.12454" lon="6.0616">
        <ele>487.4</ele>
        <time>2024-04-14T09:58:01Z</time>
      </trkpt>
      <trkpt lat="47.12473" lon="6.0616">
        <ele>486.4</ele>
        <time>2024-04-14T09:58:03Z</time>
      </trkpt>
      <trkpt lat="47.12499" lon="6.06161">
        <ele>485.2</ele>
        <time>2024-04-14T09:58:06Z</time>
      </trkpt>
      <trkpt lat="47.1253" lon="6.06163">
        <ele>483.8</ele>
        <time>2024-04-14T09:58:10Z</time>
      </trkpt>
      <trkpt lat="47.12554" lon="6.06165">
        <ele>483</ele>
        <time>2024-04-14T09:58:13Z</time>
      </trkpt>
      <trkpt lat="47.12568" lon="6.06166">
        <ele>482.6</ele>
        <time>2024-04-14T09:58:15Z</time>
      </trkpt>
      <trkpt lat="47.12593" lon="6.06168">
        <ele>482.6</ele>
        <time>2024-04-14T09:58:19Z</time>
      </trkpt>
      <trkpt lat="47.12625" lon="6.06171">
        <ele>482.2</ele>
        <time>2024-04-14T09:58:25Z</time>
      </trkpt>
      <trkpt lat="47.12639" lon="6.06172">
        <ele>481.6</ele>
        <time>2024-04-14T09:58:28Z</time>
      </trkpt>
      <trkpt lat="47.1266" lon="6.06176">
        <ele>480.6</ele>
        <time>2024-04-14T09:58:32Z</time>
      </trkpt>
      <trkpt lat="47.12678" lon="6.06176">
        <ele>479.4</ele>
        <time>2024-04-14T09:58:35Z</time>
      </trkpt>
      <trkpt lat="47.12691" lon="6.06174">
        <ele>478.8</ele>
        <time>2024-04-14T09:58:37Z</time>
      </trkpt>
      <trkpt lat="47.12705" lon="6.06169">
        <ele>478.2</ele>
        <time>2024-04-14T09:58:39Z</time>
      </trkpt>
      <trkpt lat="47.12717" lon="6.06159">
        <ele>477.4</ele>
        <time>2024-04-14T09:58:41Z</time>
      </trkpt>
      <trkpt lat="47.12729" lon="6.06146">
        <ele>476.8</ele>
        <time>2024-04-14T09:58:43Z</time>
      </trkpt>
      <trkpt lat="47.12735" lon="6.0614">
        <ele>476.4</ele>
        <time>2024-04-14T09:58:44Z</time>
      </trkpt>
      <trkpt lat="47.12745" lon="6.06126">
        <ele>475.8</ele>
        <time>2024-04-14T09:58:46Z</time>
      </trkpt>
      <trkpt lat="47.12768" lon="6.06096">
        <ele>475</ele>
        <time>2024-04-14T09:58:51Z</time>
      </trkpt>
      <trkpt lat="47.12805" lon="6.0605">
        <ele>476</ele>
        <time>2024-04-14T09:58:58Z</time>
      </trkpt>
      <trkpt lat="47.12821" lon="6.06028">
        <ele>477</ele>
        <time>2024-04-14T09:59:02Z</time>
      </trkpt>
      <trkpt lat="47.12829" lon="6.06019">
        <ele>477.6</ele>
        <time>2024-04-14T09:59:04Z</time>
      </trkpt>
      <trkpt lat="47.12839" lon="6.06006">
        <ele>478.2</ele>
        <time>2024-04-14T09:59:07Z</time>
      </trkpt>
      <trkpt lat="47.12849" lon="6.05993">
        <ele>478.4</ele>
        <time>2024-04-14T09:59:10Z</time>
      </trkpt>
      <trkpt lat="47.12876" lon="6.05959">
        <ele>479</ele>
        <time>2024-04-14T09:59:17Z</time>
      </trkpt>
      <trkpt lat="47.1288" lon="6.05955">
        <ele>479.2</ele>
        <time>2024-04-14T09:59:18Z</time>
      </trkpt>
      <trkpt lat="47.12895" lon="6.05935">
        <ele>479.8</ele>
        <time>2024-04-14T09:59:23Z</time>
      </trkpt>
      <trkpt lat="47.12916" lon="6.05908">
        <ele>479.8</ele>
        <time>2024-04-14T09:59:28Z</time>
      </trkpt>
      <trkpt lat="47.12925" lon="6.05899">
        <ele>479.8</ele>
        <time>2024-04-14T09:59:30Z</time>
      </trkpt>
      <trkpt lat="47.12936" lon="6.05882">
        <ele>479.8</ele>
        <time>2024-04-14T09:59:33Z</time>
      </trkpt>
      <trkpt lat="47.1294" lon="6.05877">
        <ele>479.6</ele>
        <time>2024-04-14T09:59:34Z</time>
      </trkpt>
      <trkpt lat="47.12964" lon="6.05846">
        <ele>478.6</ele>
        <time>2024-04-14T09:59:39Z</time>
      </trkpt>
      <trkpt lat="47.12976" lon="6.05831">
        <ele>478.2</ele>
        <time>2024-04-14T09:59:41Z</time>
      </trkpt>
      <trkpt lat="47.12998" lon="6.05805">
        <ele>477.4</ele>
        <time>2024-04-14T09:59:44Z</time>
      </trkpt>
      <trkpt lat="47.13007" lon="6.05796">
        <ele>477</ele>
        <time>2024-04-14T09:59:45Z</time>
      </trkpt>
      <trkpt lat="47.13027" lon="6.05775">
        <ele>475.8</ele>
        <time>2024-04-14T09:59:47Z</time>
      </trkpt>
      <trkpt lat="47.13036" lon="6.05765">
        <ele>475</ele>
        <time>2024-04-14T09:59:48Z</time>
      </trkpt>
      <trkpt lat="47.13046" lon="6.05754">
        <ele>474</ele>
        <time>2024-04-14T09:59:49Z</time>
      </trkpt>
      <trkpt lat="47.13056" lon="6.05742">
        <ele>473</ele>
        <time>2024-04-14T09:59:50Z</time>
      </trkpt>
      <trkpt lat="47.13066" lon="6.0573">
        <ele>472</ele>
        <time>2024-04-14T09:59:51Z</time>
      </trkpt>
      <trkpt lat="47.13075" lon="6.05718">
        <ele>470.8</ele>
        <time>2024-04-14T09:59:52Z</time>
      </trkpt>
      <trkpt lat="47.13085" lon="6.05707">
        <ele>469.8</ele>
        <time>2024-04-14T09:59:53Z</time>
      </trkpt>
      <trkpt lat="47.13103" lon="6.05684">
        <ele>468</ele>
        <time>2024-04-14T09:59:55Z</time>
      </trkpt>
      <trkpt lat="47.1312" lon="6.05662">
        <ele>466</ele>
        <time>2024-04-14T09:59:57Z</time>
      </trkpt>
      <trkpt lat="47.13138" lon="6.05641">
        <ele>464</ele>
        <time>2024-04-14T09:59:59Z</time>
      </trkpt>
      <trkpt lat="47.13147" lon="6.0563">
        <ele>463</ele>
        <time>2024-04-14T10:00:00Z</time>
      </trkpt>
      <trkpt lat="47.13156" lon="6.05618">
        <ele>462.2</ele>
        <time>2024-04-14T10:00:01Z</time>
      </trkpt>
      <trkpt lat="47.13173" lon="6.05595">
        <ele>460.6</ele>
        <time>2024-04-14T10:00:03Z</time>
      </trkpt>
      <trkpt lat="47.13188" lon="6.05573">
        <ele>459.2</ele>
        <time>2024-04-14T10:00:05Z</time>
      </trkpt>
      <trkpt lat="47.13196" lon="6.05563">
        <ele>458.8</ele>
        <time>2024-04-14T10:00:06Z</time>
      </trkpt>
      <trkpt lat="47.13204" lon="6.05553">
        <ele>458</ele>
        <time>2024-04-14T10:00:07Z</time>
      </trkpt>
      <trkpt lat="47.13218" lon="6.05535">
        <ele>457</ele>
        <time>2024-04-14T10:00:09Z</time>
      </trkpt>
      <trkpt lat="47.13231" lon="6.05519">
        <ele>456.6</ele>
        <time>2024-04-14T10:00:11Z</time>
      </trkpt>
      <trkpt lat="47.13258" lon="6.05486">
        <ele>457.2</ele>
        <time>2024-04-14T10:00:16Z</time>
      </trkpt>
      <trkpt lat="47.13271" lon="6.0547">
        <ele>458.2</ele>
        <time>2024-04-14T10:00:19Z</time>
      </trkpt>
      <trkpt lat="47.13288" lon="6.0545">
        <ele>459.4</ele>
        <time>2024-04-14T10:00:23Z</time>
      </trkpt>
      <trkpt lat="47.133" lon="6.05436">
        <ele>460.4</ele>
        <time>2024-04-14T10:00:26Z</time>
      </trkpt>
      <trkpt lat="47.13313" lon="6.05422">
        <ele>461.4</ele>
        <time>2024-04-14T10:00:29Z</time>
      </trkpt>
      <trkpt lat="47.13317" lon="6.05417">
        <ele>461.6</ele>
        <time>2024-04-14T10:00:30Z</time>
      </trkpt>
      <trkpt lat="47.13355" lon="6.05386">
        <ele>461.6</ele>
        <time>2024-04-14T10:00:37Z</time>
      </trkpt>
      <trkpt lat="47.13389" lon="6.05358">
        <ele>460.2</ele>
        <time>2024-04-14T10:00:42Z</time>
      </trkpt>
      <trkpt lat="47.13403" lon="6.05346">
        <ele>459</ele>
        <time>2024-04-14T10:00:44Z</time>
      </trkpt>
      <trkpt lat="47.13418" lon="6.05334">
        <ele>458</ele>
        <time>2024-04-14T10:00:46Z</time>
      </trkpt>
      <trkpt lat="47.13441" lon="6.05315">
        <ele>456.8</ele>
        <time>2024-04-14T10:00:49Z</time>
      </trkpt>
      <trkpt lat="47.13464" lon="6.05296">
        <ele>455.8</ele>
        <time>2024-04-14T10:00:52Z</time>
      </trkpt>
      <trkpt lat="47.13472" lon="6.0529">
        <ele>455.4</ele>
        <time>2024-04-14T10:00:53Z</time>
      </trkpt>
      <trkpt lat="47.13521" lon="6.0525">
        <ele>454.6</ele>
        <time>2024-04-14T10:01:00Z</time>
      </trkpt>
      <trkpt lat="47.13559" lon="6.05218">
        <ele>454.4</ele>
        <time>2024-04-14T10:01:06Z</time>
      </trkpt>
      <trkpt lat="47.13577" lon="6.05204">
        <ele>454.4</ele>
        <time>2024-04-14T10:01:09Z</time>
      </trkpt>
      <trkpt lat="47.13628" lon="6.05163">
        <ele>453.8</ele>
        <time>2024-04-14T10:01:17Z</time>
      </trkpt>
      <trkpt lat="47.13634" lon="6.05158">
        <ele>453.6</ele>
        <time>2024-04-14T10:01:18Z</time>
      </trkpt>
      <trkpt lat="47.13684" lon="6.05118">
        <ele>453</ele>
        <time>2024-04-14T10:01:26Z</time>
      </trkpt>
      <trkpt lat="47.1371" lon="6.05097">
        <ele>451.8</ele>
        <time>2024-04-14T10:01:30Z</time>
      </trkpt>
      <trkpt lat="47.13743" lon="6.05071">
        <ele>450.8</ele>
        <time>2024-04-14T10:01:35Z</time>
      </trkpt>
      <trkpt lat="47.13773" lon="6.05046">
        <ele>449.6</ele>
        <time>2024-04-14T10:01:40Z</time>
      </trkpt>
      <trkpt lat="47.1379" lon="6.05032">
        <ele>449.6</ele>
        <time>2024-04-14T10:01:43Z</time>
      </trkpt>
      <trkpt lat="47.13841" lon="6.04991">
        <ele>449.4</ele>
        <time>2024-04-14T10:01:52Z</time>
      </trkpt>
      <trkpt lat="47.13847" lon="6.04987">
        <ele>449.4</ele>
        <time>2024-04-14T10:01:53Z</time>
      </trkpt>
      <trkpt lat="47.13894" lon="6.04949">
        <ele>449.2</ele>
        <time>2024-04-14T10:02:02Z</time>
      </trkpt>
      <trkpt lat="47.13929" lon="6.04921">
        <ele>450.2</ele>
        <time>2024-04-14T10:02:09Z</time>
      </trkpt>
      <trkpt lat="47.13963" lon="6.04894">
        <ele>450.8</ele>
        <time>2024-04-14T10:02:16Z</time>
      </trkpt>
      <trkpt lat="47.13972" lon="6.04885">
        <ele>451</ele>
        <time>2024-04-14T10:02:18Z</time>
      </trkpt>
      <trkpt lat="47.14016" lon="6.04849">
        <ele>451.6</ele>
        <time>2024-04-14T10:02:27Z</time>
      </trkpt>
      <trkpt lat="47.14021" lon="6.04845">
        <ele>451.8</ele>
        <time>2024-04-14T10:02:28Z</time>
      </trkpt>
      <trkpt lat="47.14071" lon="6.04806">
        <ele>452.6</ele>
        <time>2024-04-14T10:02:38Z</time>
      </trkpt>
      <trkpt lat="47.14076" lon="6.04801">
        <ele>452.8</ele>
        <time>2024-04-14T10:02:39Z</time>
      </trkpt>
      <trkpt lat="47.14082" lon="6.04797">
        <ele>452.8</ele>
        <time>2024-04-14T10:02:40Z</time>
      </trkpt>
      <trkpt lat="47.14113" lon="6.04764">
        <ele>453.2</ele>
        <time>2024-04-14T10:02:47Z</time>
      </trkpt>
      <trkpt lat="47.14137" lon="6.04729">
        <ele>453.6</ele>
        <time>2024-04-14T10:02:54Z</time>
      </trkpt>
      <trkpt lat="47.1415" lon="6.04718">
        <ele>453.8</ele>
        <time>2024-04-14T10:02:57Z</time>
      </trkpt>
      <trkpt lat="47.14159" lon="6.04712">
        <ele>454.2</ele>
        <time>2024-04-14T10:02:59Z</time>
      </trkpt>
      <trkpt lat="47.14194" lon="6.04687">
        <ele>453.6</ele>
        <time>2024-04-14T10:03:07Z</time>
      </trkpt>
      <trkpt lat="47.14226" lon="6.04672">
        <ele>453.4</ele>
        <time>2024-04-14T10:03:15Z</time>
      </trkpt>
      <trkpt lat="47.14234" lon="6.04668">
        <ele>453.6</ele>
        <time>2024-04-14T10:03:17Z</time>
      </trkpt>
      <trkpt lat="47.1424" lon="6.04652">
        <ele>453.8</ele>
        <time>2024-04-14T10:03:20Z</time>
      </trkpt>
      <trkpt lat="47.14242" lon="6.04646">
        <ele>454</ele>
        <time>2024-04-14T10:03:21Z</time>
      </trkpt>
    </trkseg>
  </trk>
</gpx>